<?xml version='1.0' encoding='UTF-8'?><gpx version="1.1" creator="JPX - https://github.com/jenetics/jpx" xmlns="http://www.topografix.com/GPX/1/1"><trk><trkseg><trkpt lat="43.5562855" lon="11.536318"><ele>136.0</ele><time>2026-04-25T06:55:26.157Z</time></trkpt><trkpt lat="43.5565317" lon="11.5362767"><ele>136.0</ele><time>2026-04-25T06:55:27.154Z</time></trkpt><trkpt lat="43.5566362" lon="11.5362687"><ele>136.0</ele><time>2026-04-25T06:55:28.152Z</time></trkpt><trkpt lat="43.5567429" lon="11.5362463"><ele>136.0</ele><time>2026-04-25T06:55:29.152Z</time></trkpt><trkpt lat="43.5568774" lon="11.5362136"><ele>136.0</ele><time>2026-04-25T06:55:30.156Z</time></trkpt><trkpt lat="43.5569816" lon="11.5361918"><ele>136.0</ele><time>2026-04-25T06:55:31.161Z</time></trkpt><trkpt lat="43.5570728" lon="11.5361729"><ele>136.0</ele><time>2026-04-25T06:55:32.18Z</time></trkpt><trkpt lat="43.5571644" lon="11.5361516"><ele>136.0</ele><time>2026-04-25T06:55:33.149Z</time></trkpt><trkpt lat="43.557261" lon="11.5361295"><ele>136.0</ele><time>2026-04-25T06:55:34.146Z</time></trkpt><trkpt lat="43.5573613" lon="11.536107"><ele>136.0</ele><time>2026-04-25T06:55:35.138Z</time></trkpt><trkpt lat="43.5574633" lon="11.5360844"><ele>136.0</ele><time>2026-04-25T06:55:36.139Z</time></trkpt><trkpt lat="43.5575646" lon="11.5360603"><ele>136.0</ele><time>2026-04-25T06:55:37.144Z</time></trkpt><trkpt lat="43.5576605" lon="11.5360394"><ele>136.0</ele><time>2026-04-25T06:55:38.145Z</time></trkpt><trkpt lat="43.5577498" lon="11.5360208"><ele>136.0</ele><time>2026-04-25T06:55:40.174Z</time></trkpt><trkpt lat="43.5576675" lon="11.536042"><ele>136.0</ele><time>2026-04-25T06:55:43.189Z</time></trkpt><trkpt lat="43.5575818" lon="11.5360503"><ele>136.0</ele><time>2026-04-25T06:55:45.166Z</time></trkpt><trkpt lat="43.5575383" lon="11.5361546"><ele>136.0</ele><time>2026-04-25T06:55:49.177Z</time></trkpt><trkpt lat="43.5574076" lon="11.5361792"><ele>136.0</ele><time>2026-04-25T06:55:51.182Z</time></trkpt><trkpt lat="43.5573039" lon="11.5362009"><ele>136.0</ele><time>2026-04-25T06:55:53.191Z</time></trkpt><trkpt lat="43.5571873" lon="11.5362303"><ele>136.0</ele><time>2026-04-25T06:55:55.179Z</time></trkpt><trkpt lat="43.5571029" lon="11.5362399"><ele>136.0</ele><time>2026-04-25T06:55:57.179Z</time></trkpt><trkpt lat="43.557058" lon="11.5361768"><ele>136.0</ele><time>2026-04-25T06:56:02.14Z</time></trkpt><trkpt lat="43.5569934" lon="11.5361775"><ele>136.0</ele><time>2026-04-25T06:57:06.188Z</time></trkpt><trkpt lat="43.556984" lon="11.5362866"><ele>136.0</ele><time>2026-04-25T06:58:25.22Z</time></trkpt><trkpt lat="43.5570092" lon="11.5363777"><ele>136.0</ele><time>2026-04-25T06:58:29.216Z</time></trkpt><trkpt lat="43.5570273" lon="11.5364718"><ele>136.0</ele><time>2026-04-25T06:58:32.204Z</time></trkpt><trkpt lat="43.5570842" lon="11.5365769"><ele>136.0</ele><time>2026-04-25T06:58:35.21Z</time></trkpt><trkpt lat="43.557121" lon="11.5366505"><ele>136.0</ele><time>2026-04-25T06:58:37.216Z</time></trkpt><trkpt lat="43.5571635" lon="11.53672"><ele>136.0</ele><time>2026-04-25T06:58:39.214Z</time></trkpt><trkpt lat="43.5572196" lon="11.5367899"><ele>136.0</ele><time>2026-04-25T06:58:42.208Z</time></trkpt><trkpt lat="43.5572847" lon="11.5368784"><ele>135.83333333333334</ele><time>2026-04-25T06:58:45.2Z</time></trkpt><trkpt lat="43.5573125" lon="11.536968"><ele>135.66666666666669</ele><time>2026-04-25T06:58:48.191Z</time></trkpt><trkpt lat="43.5572589" lon="11.5370495"><ele>135.5</ele><time>2026-04-25T06:58:52.2Z</time></trkpt><trkpt lat="43.5571899" lon="11.5371257"><ele>135.33333333333334</ele><time>2026-04-25T06:58:55.205Z</time></trkpt><trkpt lat="43.5571564" lon="11.5372338"><ele>135.16666666666666</ele><time>2026-04-25T06:58:57.206Z</time></trkpt><trkpt lat="43.5571577" lon="11.5373449"><ele>135.0</ele><time>2026-04-25T06:58:59.212Z</time></trkpt><trkpt lat="43.5571966" lon="11.5374327"><ele>135.4</ele><time>2026-04-25T06:59:01.217Z</time></trkpt><trkpt lat="43.5572454" lon="11.537522"><ele>135.8</ele><time>2026-04-25T06:59:03.227Z</time></trkpt><trkpt lat="43.557302" lon="11.5376135"><ele>136.2</ele><time>2026-04-25T06:59:05.216Z</time></trkpt><trkpt lat="43.5573758" lon="11.5376959"><ele>136.6</ele><time>2026-04-25T06:59:07.213Z</time></trkpt><trkpt lat="43.5574553" lon="11.537771"><ele>137.0</ele><time>2026-04-25T06:59:09.208Z</time></trkpt><trkpt lat="43.5575409" lon="11.5378355"><ele>137.0</ele><time>2026-04-25T06:59:11.204Z</time></trkpt><trkpt lat="43.5576138" lon="11.5378799"><ele>137.0</ele><time>2026-04-25T06:59:13.22Z</time></trkpt><trkpt lat="43.5576877" lon="11.5378997"><ele>137.0</ele><time>2026-04-25T06:59:15.217Z</time></trkpt><trkpt lat="43.5577714" lon="11.5379168"><ele>137.0</ele><time>2026-04-25T06:59:17.202Z</time></trkpt><trkpt lat="43.5578661" lon="11.5379272"><ele>137.0</ele><time>2026-04-25T06:59:19.23Z</time></trkpt><trkpt lat="43.5579555" lon="11.5379412"><ele>137.0</ele><time>2026-04-25T06:59:21.229Z</time></trkpt><trkpt lat="43.5580522" lon="11.5379461"><ele>136.79999999999998</ele><time>2026-04-25T06:59:23.233Z</time></trkpt><trkpt lat="43.5581466" lon="11.5379471"><ele>136.6</ele><time>2026-04-25T06:59:25.224Z</time></trkpt><trkpt lat="43.5582387" lon="11.537945"><ele>136.39999999999998</ele><time>2026-04-25T06:59:27.227Z</time></trkpt><trkpt lat="43.5583346" lon="11.5379312"><ele>136.2</ele><time>2026-04-25T06:59:29.209Z</time></trkpt><trkpt lat="43.5584395" lon="11.5379018"><ele>136.0</ele><time>2026-04-25T06:59:31.198Z</time></trkpt><trkpt lat="43.5585389" lon="11.5378754"><ele>136.0</ele><time>2026-04-25T06:59:33.207Z</time></trkpt><trkpt lat="43.5586029" lon="11.5379318"><ele>136.0</ele><time>2026-04-25T06:59:35.207Z</time></trkpt><trkpt lat="43.5586492" lon="11.5380371"><ele>136.0</ele><time>2026-04-25T06:59:37.235Z</time></trkpt><trkpt lat="43.5586928" lon="11.5381476"><ele>136.0</ele><time>2026-04-25T06:59:39.215Z</time></trkpt><trkpt lat="43.5587356" lon="11.5382514"><ele>136.0</ele><time>2026-04-25T06:59:41.199Z</time></trkpt><trkpt lat="43.5587809" lon="11.5383386"><ele>136.0</ele><time>2026-04-25T06:59:43.187Z</time></trkpt><trkpt lat="43.5587646" lon="11.5384238"><ele>136.0</ele><time>2026-04-25T06:59:45.196Z</time></trkpt><trkpt lat="43.558717" lon="11.5385166"><ele>136.0</ele><time>2026-04-25T06:59:47.185Z</time></trkpt><trkpt lat="43.5587026" lon="11.5386387"><ele>136.0</ele><time>2026-04-25T06:59:49.174Z</time></trkpt><trkpt lat="43.5586154" lon="11.5387712"><ele>136.0</ele><time>2026-04-25T06:59:51.175Z</time></trkpt><trkpt lat="43.5585318" lon="11.5388243"><ele>136.0</ele><time>2026-04-25T06:59:53.213Z</time></trkpt><trkpt lat="43.558466" lon="11.5388615"><ele>135.66666666666669</ele><time>2026-04-25T06:59:54.204Z</time></trkpt><trkpt lat="43.5583647" lon="11.53889"><ele>135.33333333333334</ele><time>2026-04-25T06:59:55.201Z</time></trkpt><trkpt lat="43.5582794" lon="11.5389276"><ele>135.0</ele><time>2026-04-25T06:59:57.212Z</time></trkpt><trkpt lat="43.5581795" lon="11.5389197"><ele>134.66666666666666</ele><time>2026-04-25T06:59:59.187Z</time></trkpt><trkpt lat="43.5581131" lon="11.5389246"><ele>134.33333333333331</ele><time>2026-04-25T07:00:01.209Z</time></trkpt><trkpt lat="43.5580465" lon="11.5389614"><ele>134.0</ele><time>2026-04-25T07:00:03.21Z</time></trkpt><trkpt lat="43.55799" lon="11.5390124"><ele>134.0</ele><time>2026-04-25T07:00:05.2Z</time></trkpt><trkpt lat="43.5579293" lon="11.5390743"><ele>134.0</ele><time>2026-04-25T07:00:08.217Z</time></trkpt><trkpt lat="43.5578504" lon="11.5390451"><ele>134.0</ele><time>2026-04-25T07:00:12.215Z</time></trkpt><trkpt lat="43.5577711" lon="11.5390178"><ele>134.0</ele><time>2026-04-25T07:00:15.202Z</time></trkpt><trkpt lat="43.5577068" lon="11.5389908"><ele>134.0</ele><time>2026-04-25T07:00:18.208Z</time></trkpt><trkpt lat="43.5576631" lon="11.5390759"><ele>134.0</ele><time>2026-04-25T07:00:41.229Z</time></trkpt><trkpt lat="43.5576554" lon="11.5391729"><ele>134.0</ele><time>2026-04-25T07:00:44.212Z</time></trkpt><trkpt lat="43.5576637" lon="11.5392719"><ele>134.0</ele><time>2026-04-25T07:00:47.22Z</time></trkpt><trkpt lat="43.5576355" lon="11.5393646"><ele>134.0</ele><time>2026-04-25T07:00:51.214Z</time></trkpt><trkpt lat="43.5575792" lon="11.5394431"><ele>134.0</ele><time>2026-04-25T07:00:54.22Z</time></trkpt><trkpt lat="43.5575237" lon="11.539508"><ele>134.0</ele><time>2026-04-25T07:00:57.223Z</time></trkpt><trkpt lat="43.5574578" lon="11.5395988"><ele>134.0</ele><time>2026-04-25T07:01:01.227Z</time></trkpt><trkpt lat="43.5574019" lon="11.5397084"><ele>134.14285714285714</ele><time>2026-04-25T07:01:04.221Z</time></trkpt><trkpt lat="43.5574554" lon="11.5397572"><ele>134.28571428571428</ele><time>2026-04-25T07:01:10.207Z</time></trkpt><trkpt lat="43.5575447" lon="11.5397807"><ele>134.42857142857142</ele><time>2026-04-25T07:01:13.205Z</time></trkpt><trkpt lat="43.557611" lon="11.5397925"><ele>134.57142857142856</ele><time>2026-04-25T07:01:15.223Z</time></trkpt><trkpt lat="43.557685" lon="11.5398174"><ele>134.7142857142857</ele><time>2026-04-25T07:01:17.212Z</time></trkpt><trkpt lat="43.5577563" lon="11.5398504"><ele>134.85714285714286</ele><time>2026-04-25T07:01:19.224Z</time></trkpt><trkpt lat="43.557818" lon="11.5398797"><ele>135.0</ele><time>2026-04-25T07:01:21.225Z</time></trkpt><trkpt lat="43.5579116" lon="11.5399152"><ele>134.71428571428572</ele><time>2026-04-25T07:01:24.229Z</time></trkpt><trkpt lat="43.5579868" lon="11.5399426"><ele>134.42857142857142</ele><time>2026-04-25T07:01:26.233Z</time></trkpt><trkpt lat="43.5580577" lon="11.5399713"><ele>134.14285714285714</ele><time>2026-04-25T07:01:28.216Z</time></trkpt><trkpt lat="43.5581241" lon="11.539996"><ele>133.85714285714286</ele><time>2026-04-25T07:02:51.221Z</time></trkpt><trkpt lat="43.5581857" lon="11.5400533"><ele>133.57142857142856</ele><time>2026-04-25T07:02:58.243Z</time></trkpt><trkpt lat="43.5581686" lon="11.5401454"><ele>133.28571428571428</ele><time>2026-04-25T07:03:04.221Z</time></trkpt><trkpt lat="43.5581181" lon="11.5402218"><ele>133.0</ele><time>2026-04-25T07:03:08.216Z</time></trkpt><trkpt lat="43.5580575" lon="11.5402927"><ele>133.0</ele><time>2026-04-25T07:03:12.226Z</time></trkpt><trkpt lat="43.5580057" lon="11.5403424"><ele>133.0</ele><time>2026-04-25T07:03:15.224Z</time></trkpt><trkpt lat="43.5579537" lon="11.5404148"><ele>133.0</ele><time>2026-04-25T07:03:19.221Z</time></trkpt><trkpt lat="43.5579095" lon="11.5404858"><ele>133.0</ele><time>2026-04-25T07:03:22.235Z</time></trkpt><trkpt lat="43.5578559" lon="11.5405506"><ele>133.0</ele><time>2026-04-25T07:03:25.219Z</time></trkpt><trkpt lat="43.5577987" lon="11.5406341"><ele>133.0</ele><time>2026-04-25T07:03:28.223Z</time></trkpt><trkpt lat="43.5577445" lon="11.5407062"><ele>133.0</ele><time>2026-04-25T07:03:31.225Z</time></trkpt><trkpt lat="43.5576824" lon="11.5407831"><ele>133.0</ele><time>2026-04-25T07:03:34.227Z</time></trkpt><trkpt lat="43.5576333" lon="11.5408475"><ele>133.0</ele><time>2026-04-25T07:03:37.229Z</time></trkpt><trkpt lat="43.5575765" lon="11.5409223"><ele>133.0</ele><time>2026-04-25T07:03:40.231Z</time></trkpt><trkpt lat="43.5575144" lon="11.5409954"><ele>133.0</ele><time>2026-04-25T07:03:43.224Z</time></trkpt><trkpt lat="43.5574587" lon="11.5410692"><ele>133.0</ele><time>2026-04-25T07:03:46.229Z</time></trkpt><trkpt lat="43.5574078" lon="11.54116"><ele>133.0</ele><time>2026-04-25T07:03:49.223Z</time></trkpt><trkpt lat="43.5573482" lon="11.5412273"><ele>133.0</ele><time>2026-04-25T07:03:52.22Z</time></trkpt><trkpt lat="43.5572959" lon="11.5412975"><ele>133.0</ele><time>2026-04-25T07:03:55.23Z</time></trkpt><trkpt lat="43.5572305" lon="11.5413838"><ele>133.0</ele><time>2026-04-25T07:03:58.236Z</time></trkpt><trkpt lat="43.5571761" lon="11.5414683"><ele>133.0</ele><time>2026-04-25T07:04:01.229Z</time></trkpt><trkpt lat="43.5571167" lon="11.5415584"><ele>133.0</ele><time>2026-04-25T07:04:04.224Z</time></trkpt><trkpt lat="43.5570506" lon="11.5416425"><ele>133.0</ele><time>2026-04-25T07:04:07.233Z</time></trkpt><trkpt lat="43.5570043" lon="11.5417066"><ele>133.28571428571428</ele><time>2026-04-25T07:04:09.228Z</time></trkpt><trkpt lat="43.5569631" lon="11.5417839"><ele>133.57142857142856</ele><time>2026-04-25T07:04:11.229Z</time></trkpt><trkpt lat="43.556927" lon="11.5418635"><ele>133.85714285714286</ele><time>2026-04-25T07:04:13.225Z</time></trkpt><trkpt lat="43.5568841" lon="11.5419462"><ele>134.14285714285714</ele><time>2026-04-25T07:04:15.215Z</time></trkpt><trkpt lat="43.5568403" lon="11.5420242"><ele>134.42857142857142</ele><time>2026-04-25T07:04:17.234Z</time></trkpt><trkpt lat="43.5567945" lon="11.5420944"><ele>134.71428571428572</ele><time>2026-04-25T07:04:19.23Z</time></trkpt><trkpt lat="43.5567449" lon="11.5421675"><ele>135.0</ele><time>2026-04-25T07:04:21.223Z</time></trkpt><trkpt lat="43.5566969" lon="11.542241"><ele>135.28571428571428</ele><time>2026-04-25T07:04:23.226Z</time></trkpt><trkpt lat="43.5566554" lon="11.5423094"><ele>135.57142857142856</ele><time>2026-04-25T07:04:25.219Z</time></trkpt><trkpt lat="43.5565961" lon="11.542377"><ele>135.85714285714286</ele><time>2026-04-25T07:04:28.217Z</time></trkpt><trkpt lat="43.5565373" lon="11.5424659"><ele>136.14285714285714</ele><time>2026-04-25T07:04:31.223Z</time></trkpt><trkpt lat="43.5564984" lon="11.5425385"><ele>136.42857142857144</ele><time>2026-04-25T07:04:33.228Z</time></trkpt><trkpt lat="43.5564448" lon="11.5426116"><ele>136.71428571428572</ele><time>2026-04-25T07:04:35.227Z</time></trkpt><trkpt lat="43.5563906" lon="11.5426922"><ele>137.0</ele><time>2026-04-25T07:04:37.231Z</time></trkpt><trkpt lat="43.5563393" lon="11.5427561"><ele>137.0</ele><time>2026-04-25T07:04:39.227Z</time></trkpt><trkpt lat="43.5562932" lon="11.5428216"><ele>137.0</ele><time>2026-04-25T07:04:41.214Z</time></trkpt><trkpt lat="43.5562465" lon="11.5428809"><ele>137.0</ele><time>2026-04-25T07:04:43.215Z</time></trkpt><trkpt lat="43.5561909" lon="11.5429434"><ele>137.0</ele><time>2026-04-25T07:04:45.206Z</time></trkpt><trkpt lat="43.5561323" lon="11.5430238"><ele>137.0</ele><time>2026-04-25T07:04:47.195Z</time></trkpt><trkpt lat="43.5560403" lon="11.5431543"><ele>137.0</ele><time>2026-04-25T07:04:49.18Z</time></trkpt><trkpt lat="43.5560058" lon="11.543243"><ele>136.66666666666666</ele><time>2026-04-25T07:04:50.183Z</time></trkpt><trkpt lat="43.5559801" lon="11.5433225"><ele>136.33333333333331</ele><time>2026-04-25T07:04:51.177Z</time></trkpt><trkpt lat="43.5559418" lon="11.5434353"><ele>136.0</ele><time>2026-04-25T07:04:53.191Z</time></trkpt><trkpt lat="43.5558864" lon="11.5435154"><ele>135.66666666666666</ele><time>2026-04-25T07:04:56.203Z</time></trkpt><trkpt lat="43.5558199" lon="11.5435182"><ele>135.33333333333334</ele><time>2026-04-25T07:04:59.227Z</time></trkpt><trkpt lat="43.5557485" lon="11.5435719"><ele>135.0</ele><time>2026-04-25T07:05:02.237Z</time></trkpt><trkpt lat="43.5556856" lon="11.5436576"><ele>135.28571428571428</ele><time>2026-04-25T07:05:05.233Z</time></trkpt><trkpt lat="43.5556244" lon="11.5437543"><ele>135.57142857142856</ele><time>2026-04-25T07:05:08.23Z</time></trkpt><trkpt lat="43.5555798" lon="11.5438158"><ele>135.85714285714286</ele><time>2026-04-25T07:05:10.23Z</time></trkpt><trkpt lat="43.5555346" lon="11.5438896"><ele>136.14285714285714</ele><time>2026-04-25T07:05:12.232Z</time></trkpt><trkpt lat="43.5554867" lon="11.5439579"><ele>136.42857142857144</ele><time>2026-04-25T07:05:14.237Z</time></trkpt><trkpt lat="43.5554373" lon="11.5440327"><ele>136.71428571428572</ele><time>2026-04-25T07:05:16.24Z</time></trkpt><trkpt lat="43.5553872" lon="11.5440998"><ele>137.0</ele><time>2026-04-25T07:05:18.233Z</time></trkpt><trkpt lat="43.5553387" lon="11.5441676"><ele>137.00000000000003</ele><time>2026-04-25T07:05:20.241Z</time></trkpt><trkpt lat="43.555291" lon="11.5442337"><ele>137.0</ele><time>2026-04-25T07:05:22.236Z</time></trkpt><trkpt lat="43.5552367" lon="11.544306"><ele>137.0</ele><time>2026-04-25T07:05:24.231Z</time></trkpt><trkpt lat="43.5551872" lon="11.5443826"><ele>137.0</ele><time>2026-04-25T07:05:26.234Z</time></trkpt><trkpt lat="43.5551436" lon="11.5444566"><ele>137.0</ele><time>2026-04-25T07:05:28.235Z</time></trkpt><trkpt lat="43.555098" lon="11.5445376"><ele>137.00000000000003</ele><time>2026-04-25T07:05:30.24Z</time></trkpt><trkpt lat="43.5550471" lon="11.5446108"><ele>137.0</ele><time>2026-04-25T07:05:32.244Z</time></trkpt><trkpt lat="43.5550033" lon="11.5446831"><ele>136.85714285714286</ele><time>2026-04-25T07:05:34.239Z</time></trkpt><trkpt lat="43.5549557" lon="11.5447578"><ele>136.71428571428572</ele><time>2026-04-25T07:05:36.242Z</time></trkpt><trkpt lat="43.5549073" lon="11.5448286"><ele>136.57142857142856</ele><time>2026-04-25T07:05:38.241Z</time></trkpt><trkpt lat="43.5548586" lon="11.5448909"><ele>136.42857142857144</ele><time>2026-04-25T07:05:40.243Z</time></trkpt><trkpt lat="43.5548137" lon="11.544966"><ele>136.28571428571428</ele><time>2026-04-25T07:05:42.247Z</time></trkpt><trkpt lat="43.5547676" lon="11.5450504"><ele>136.14285714285714</ele><time>2026-04-25T07:05:44.241Z</time></trkpt><trkpt lat="43.554718" lon="11.5451276"><ele>136.0</ele><time>2026-04-25T07:05:46.237Z</time></trkpt><trkpt lat="43.5546653" lon="11.5451974"><ele>135.99999999999997</ele><time>2026-04-25T07:05:48.237Z</time></trkpt><trkpt lat="43.5546077" lon="11.5452581"><ele>136.0</ele><time>2026-04-25T07:05:50.254Z</time></trkpt><trkpt lat="43.5545631" lon="11.5453245"><ele>136.0</ele><time>2026-04-25T07:05:52.248Z</time></trkpt><trkpt lat="43.5545225" lon="11.5454013"><ele>136.0</ele><time>2026-04-25T07:05:54.264Z</time></trkpt><trkpt lat="43.5544785" lon="11.5454668"><ele>136.0</ele><time>2026-04-25T07:05:56.245Z</time></trkpt><trkpt lat="43.5543972" lon="11.5454507"><ele>135.99999999999997</ele><time>2026-04-25T07:05:59.221Z</time></trkpt><trkpt lat="43.5543462" lon="11.5453738"><ele>136.0</ele><time>2026-04-25T07:06:01.219Z</time></trkpt><trkpt lat="43.5543032" lon="11.5453059"><ele>135.83333333333334</ele><time>2026-04-25T07:06:03.221Z</time></trkpt><trkpt lat="43.5542553" lon="11.5452475"><ele>135.66666666666669</ele><time>2026-04-25T07:06:05.221Z</time></trkpt><trkpt lat="43.5541692" lon="11.5452494"><ele>135.5</ele><time>2026-04-25T07:06:08.223Z</time></trkpt><trkpt lat="43.5540865" lon="11.5453109"><ele>135.33333333333334</ele><time>2026-04-25T07:06:10.222Z</time></trkpt><trkpt lat="43.5540203" lon="11.5454033"><ele>135.16666666666666</ele><time>2026-04-25T07:06:12.225Z</time></trkpt><trkpt lat="43.553959" lon="11.5454941"><ele>135.0</ele><time>2026-04-25T07:06:14.215Z</time></trkpt><trkpt lat="43.5540202" lon="11.5454054"><ele>135.0</ele><time>2026-04-25T07:06:22.213Z</time></trkpt><trkpt lat="43.554083" lon="11.5453434"><ele>135.0</ele><time>2026-04-25T07:06:24.217Z</time></trkpt><trkpt lat="43.5541366" lon="11.5452727"><ele>135.0</ele><time>2026-04-25T07:06:26.22Z</time></trkpt><trkpt lat="43.5541821" lon="11.5451875"><ele>135.0</ele><time>2026-04-25T07:06:28.217Z</time></trkpt><trkpt lat="43.5542151" lon="11.5450744"><ele>135.0</ele><time>2026-04-25T07:06:30.217Z</time></trkpt><trkpt lat="43.5542331" lon="11.5449523"><ele>135.0</ele><time>2026-04-25T07:06:32.22Z</time></trkpt><trkpt lat="43.5542346" lon="11.5448388"><ele>135.0</ele><time>2026-04-25T07:06:34.217Z</time></trkpt><trkpt lat="43.5542309" lon="11.5447314"><ele>135.0</ele><time>2026-04-25T07:06:36.216Z</time></trkpt><trkpt lat="43.554219" lon="11.5446289"><ele>135.0</ele><time>2026-04-25T07:06:38.215Z</time></trkpt><trkpt lat="43.5542085" lon="11.5445419"><ele>135.0</ele><time>2026-04-25T07:06:40.217Z</time></trkpt><trkpt lat="43.5541787" lon="11.5444537"><ele>135.0</ele><time>2026-04-25T07:06:43.217Z</time></trkpt><trkpt lat="43.5541272" lon="11.544394"><ele>135.0</ele><time>2026-04-25T07:06:48.225Z</time></trkpt><trkpt lat="43.5540461" lon="11.5444171"><ele>135.0</ele><time>2026-04-25T07:06:51.216Z</time></trkpt><trkpt lat="43.5539755" lon="11.5444511"><ele>135.0</ele><time>2026-04-25T07:06:53.218Z</time></trkpt><trkpt lat="43.5538913" lon="11.5444216"><ele>135.0</ele><time>2026-04-25T07:06:56.218Z</time></trkpt><trkpt lat="43.5538398" lon="11.5443633"><ele>135.0</ele><time>2026-04-25T07:06:58.215Z</time></trkpt><trkpt lat="43.5537836" lon="11.5442915"><ele>135.0</ele><time>2026-04-25T07:07:00.21Z</time></trkpt><trkpt lat="43.5537249" lon="11.5442104"><ele>135.0</ele><time>2026-04-25T07:07:02.213Z</time></trkpt><trkpt lat="43.5536696" lon="11.5441214"><ele>135.0</ele><time>2026-04-25T07:07:04.217Z</time></trkpt><trkpt lat="43.5536204" lon="11.5440421"><ele>135.0</ele><time>2026-04-25T07:07:06.224Z</time></trkpt><trkpt lat="43.5535677" lon="11.5439568"><ele>135.0</ele><time>2026-04-25T07:07:08.215Z</time></trkpt><trkpt lat="43.5535143" lon="11.5438722"><ele>135.0</ele><time>2026-04-25T07:07:10.215Z</time></trkpt><trkpt lat="43.5534581" lon="11.5438008"><ele>135.0</ele><time>2026-04-25T07:07:12.213Z</time></trkpt><trkpt lat="43.5533994" lon="11.5437163"><ele>135.0</ele><time>2026-04-25T07:07:14.208Z</time></trkpt><trkpt lat="43.5533446" lon="11.5436283"><ele>135.0</ele><time>2026-04-25T07:07:16.223Z</time></trkpt><trkpt lat="43.5532809" lon="11.5435434"><ele>135.16666666666666</ele><time>2026-04-25T07:07:18.214Z</time></trkpt><trkpt lat="43.5532138" lon="11.5434602"><ele>135.33333333333334</ele><time>2026-04-25T07:07:20.222Z</time></trkpt><trkpt lat="43.5531488" lon="11.5433651"><ele>135.5</ele><time>2026-04-25T07:07:22.209Z</time></trkpt><trkpt lat="43.5530906" lon="11.5432723"><ele>135.66666666666669</ele><time>2026-04-25T07:07:24.203Z</time></trkpt><trkpt lat="43.5530353" lon="11.543187"><ele>135.83333333333334</ele><time>2026-04-25T07:07:26.204Z</time></trkpt><trkpt lat="43.5529779" lon="11.5430969"><ele>136.0</ele><time>2026-04-25T07:07:28.205Z</time></trkpt><trkpt lat="43.5529233" lon="11.5429974"><ele>136.0</ele><time>2026-04-25T07:07:30.199Z</time></trkpt><trkpt lat="43.5528705" lon="11.5429007"><ele>136.0</ele><time>2026-04-25T07:07:32.21Z</time></trkpt><trkpt lat="43.5528153" lon="11.5428182"><ele>136.0</ele><time>2026-04-25T07:07:34.213Z</time></trkpt><trkpt lat="43.5527669" lon="11.5427229"><ele>136.0</ele><time>2026-04-25T07:07:36.207Z</time></trkpt><trkpt lat="43.5527189" lon="11.5426265"><ele>136.0</ele><time>2026-04-25T07:07:38.199Z</time></trkpt><trkpt lat="43.5526697" lon="11.542532"><ele>136.0</ele><time>2026-04-25T07:07:40.205Z</time></trkpt><trkpt lat="43.5526162" lon="11.5424331"><ele>136.0</ele><time>2026-04-25T07:07:42.206Z</time></trkpt><trkpt lat="43.5525621" lon="11.5423336"><ele>136.0</ele><time>2026-04-25T07:07:44.202Z</time></trkpt><trkpt lat="43.5525045" lon="11.5422295"><ele>136.0</ele><time>2026-04-25T07:07:46.208Z</time></trkpt><trkpt lat="43.5524518" lon="11.5421271"><ele>136.0</ele><time>2026-04-25T07:07:48.201Z</time></trkpt><trkpt lat="43.5523968" lon="11.5420312"><ele>136.0</ele><time>2026-04-25T07:07:50.208Z</time></trkpt><trkpt lat="43.5523588" lon="11.541934"><ele>136.0</ele><time>2026-04-25T07:07:52.21Z</time></trkpt><trkpt lat="43.5523328" lon="11.5418438"><ele>135.83333333333334</ele><time>2026-04-25T07:07:54.23Z</time></trkpt><trkpt lat="43.5523157" lon="11.5417448"><ele>135.66666666666669</ele><time>2026-04-25T07:07:56.222Z</time></trkpt><trkpt lat="43.5523277" lon="11.5416259"><ele>135.5</ele><time>2026-04-25T07:07:58.216Z</time></trkpt><trkpt lat="43.5523313" lon="11.5415048"><ele>135.33333333333334</ele><time>2026-04-25T07:08:00.215Z</time></trkpt><trkpt lat="43.5522963" lon="11.5414014"><ele>135.16666666666666</ele><time>2026-04-25T07:08:02.223Z</time></trkpt><trkpt lat="43.5522073" lon="11.5413596"><ele>135.0</ele><time>2026-04-25T07:08:04.212Z</time></trkpt><trkpt lat="43.5521017" lon="11.5413974"><ele>135.6</ele><time>2026-04-25T07:08:06.217Z</time></trkpt><trkpt lat="43.5520217" lon="11.5414748"><ele>136.2</ele><time>2026-04-25T07:08:08.22Z</time></trkpt><trkpt lat="43.5519678" lon="11.5415914"><ele>136.8</ele><time>2026-04-25T07:08:10.226Z</time></trkpt><trkpt lat="43.5519132" lon="11.5417126"><ele>137.4</ele><time>2026-04-25T07:08:12.225Z</time></trkpt><trkpt lat="43.5518503" lon="11.5417959"><ele>138.0</ele><time>2026-04-25T07:08:14.211Z</time></trkpt><trkpt lat="43.551778" lon="11.5418633"><ele>138.0</ele><time>2026-04-25T07:08:16.212Z</time></trkpt><trkpt lat="43.5517018" lon="11.5419325"><ele>138.0</ele><time>2026-04-25T07:08:18.219Z</time></trkpt><trkpt lat="43.5516256" lon="11.5420006"><ele>138.0</ele><time>2026-04-25T07:08:20.24Z</time></trkpt><trkpt lat="43.5515429" lon="11.5420678"><ele>138.0</ele><time>2026-04-25T07:08:22.234Z</time></trkpt><trkpt lat="43.5514626" lon="11.5421471"><ele>138.0</ele><time>2026-04-25T07:08:24.233Z</time></trkpt><trkpt lat="43.5513854" lon="11.5422154"><ele>138.0</ele><time>2026-04-25T07:08:26.222Z</time></trkpt><trkpt lat="43.5513085" lon="11.5422904"><ele>138.0</ele><time>2026-04-25T07:08:28.227Z</time></trkpt><trkpt lat="43.5512257" lon="11.5423739"><ele>138.0</ele><time>2026-04-25T07:08:30.214Z</time></trkpt><trkpt lat="43.5511407" lon="11.5424468"><ele>138.0</ele><time>2026-04-25T07:08:32.21Z</time></trkpt><trkpt lat="43.5510548" lon="11.5425144"><ele>138.0</ele><time>2026-04-25T07:08:34.225Z</time></trkpt><trkpt lat="43.5509698" lon="11.5425787"><ele>138.0</ele><time>2026-04-25T07:08:36.217Z</time></trkpt><trkpt lat="43.550885" lon="11.5426425"><ele>138.0</ele><time>2026-04-25T07:08:38.23Z</time></trkpt><trkpt lat="43.550813" lon="11.5427222"><ele>138.0</ele><time>2026-04-25T07:08:40.217Z</time></trkpt><trkpt lat="43.5507406" lon="11.5427933"><ele>138.0</ele><time>2026-04-25T07:08:42.218Z</time></trkpt><trkpt lat="43.5506718" lon="11.5428729"><ele>138.0</ele><time>2026-04-25T07:08:44.213Z</time></trkpt><trkpt lat="43.5505931" lon="11.5429515"><ele>138.0</ele><time>2026-04-25T07:08:46.215Z</time></trkpt><trkpt lat="43.5505147" lon="11.5430163"><ele>138.0</ele><time>2026-04-25T07:08:48.22Z</time></trkpt><trkpt lat="43.5504372" lon="11.5430749"><ele>138.0</ele><time>2026-04-25T07:08:50.218Z</time></trkpt><trkpt lat="43.5503568" lon="11.5431478"><ele>138.0</ele><time>2026-04-25T07:08:52.211Z</time></trkpt><trkpt lat="43.5502809" lon="11.5432203"><ele>138.0</ele><time>2026-04-25T07:08:54.209Z</time></trkpt><trkpt lat="43.5502075" lon="11.5432919"><ele>137.83333333333334</ele><time>2026-04-25T07:08:56.233Z</time></trkpt><trkpt lat="43.5501374" lon="11.5433576"><ele>137.66666666666666</ele><time>2026-04-25T07:08:58.218Z</time></trkpt><trkpt lat="43.5500686" lon="11.5434145"><ele>137.5</ele><time>2026-04-25T07:09:00.212Z</time></trkpt><trkpt lat="43.5499994" lon="11.5434799"><ele>137.33333333333331</ele><time>2026-04-25T07:09:02.216Z</time></trkpt><trkpt lat="43.5499179" lon="11.5435438"><ele>137.16666666666666</ele><time>2026-04-25T07:09:04.21Z</time></trkpt><trkpt lat="43.5498399" lon="11.5436082"><ele>137.0</ele><time>2026-04-25T07:09:06.209Z</time></trkpt><trkpt lat="43.5497558" lon="11.5436654"><ele>137.0</ele><time>2026-04-25T07:09:08.21Z</time></trkpt><trkpt lat="43.5496856" lon="11.5437296"><ele>137.0</ele><time>2026-04-25T07:09:10.222Z</time></trkpt><trkpt lat="43.5496126" lon="11.5437881"><ele>137.0</ele><time>2026-04-25T07:09:12.221Z</time></trkpt><trkpt lat="43.5495389" lon="11.5438463"><ele>137.0</ele><time>2026-04-25T07:09:14.219Z</time></trkpt><trkpt lat="43.5494648" lon="11.5438926"><ele>137.0</ele><time>2026-04-25T07:09:16.216Z</time></trkpt><trkpt lat="43.5493931" lon="11.5439016"><ele>137.0</ele><time>2026-04-25T07:09:18.207Z</time></trkpt><trkpt lat="43.5493244" lon="11.5438642"><ele>137.0</ele><time>2026-04-25T07:09:20.216Z</time></trkpt><trkpt lat="43.5492482" lon="11.5437777"><ele>137.0</ele><time>2026-04-25T07:09:22.221Z</time></trkpt><trkpt lat="43.5491742" lon="11.5436624"><ele>137.0</ele><time>2026-04-25T07:09:24.216Z</time></trkpt><trkpt lat="43.5490985" lon="11.5435331"><ele>137.0</ele><time>2026-04-25T07:09:26.216Z</time></trkpt><trkpt lat="43.5490276" lon="11.5433954"><ele>137.0</ele><time>2026-04-25T07:09:28.205Z</time></trkpt><trkpt lat="43.5489886" lon="11.5433209"><ele>137.0</ele><time>2026-04-25T07:09:29.205Z</time></trkpt><trkpt lat="43.5489422" lon="11.5432412"><ele>137.0</ele><time>2026-04-25T07:09:30.202Z</time></trkpt><trkpt lat="43.5489049" lon="11.5431681"><ele>137.0</ele><time>2026-04-25T07:09:31.199Z</time></trkpt><trkpt lat="43.5488432" lon="11.5430411"><ele>137.0</ele><time>2026-04-25T07:09:33.203Z</time></trkpt><trkpt lat="43.5487965" lon="11.5429253"><ele>137.0</ele><time>2026-04-25T07:09:35.204Z</time></trkpt><trkpt lat="43.5487577" lon="11.5428304"><ele>137.0</ele><time>2026-04-25T07:09:37.218Z</time></trkpt><trkpt lat="43.5487196" lon="11.5427468"><ele>137.0</ele><time>2026-04-25T07:09:39.213Z</time></trkpt><trkpt lat="43.5486735" lon="11.5426637"><ele>137.0</ele><time>2026-04-25T07:09:41.218Z</time></trkpt><trkpt lat="43.5486159" lon="11.5425892"><ele>137.0</ele><time>2026-04-25T07:09:43.217Z</time></trkpt><trkpt lat="43.5485368" lon="11.5425686"><ele>137.0</ele><time>2026-04-25T07:09:45.22Z</time></trkpt><trkpt lat="43.5484553" lon="11.5426033"><ele>137.0</ele><time>2026-04-25T07:09:47.217Z</time></trkpt><trkpt lat="43.5483852" lon="11.5426764"><ele>137.0</ele><time>2026-04-25T07:09:49.213Z</time></trkpt><trkpt lat="43.5483152" lon="11.5427489"><ele>137.0</ele><time>2026-04-25T07:09:51.221Z</time></trkpt><trkpt lat="43.548246" lon="11.54283"><ele>137.0</ele><time>2026-04-25T07:09:53.222Z</time></trkpt><trkpt lat="43.5481706" lon="11.5429094"><ele>137.0</ele><time>2026-04-25T07:09:55.22Z</time></trkpt><trkpt lat="43.5480987" lon="11.542984"><ele>137.0</ele><time>2026-04-25T07:09:57.221Z</time></trkpt><trkpt lat="43.5480233" lon="11.5430572"><ele>137.16666666666666</ele><time>2026-04-25T07:09:59.232Z</time></trkpt><trkpt lat="43.5479534" lon="11.5431294"><ele>137.33333333333331</ele><time>2026-04-25T07:10:01.228Z</time></trkpt><trkpt lat="43.5478844" lon="11.5432041"><ele>137.5</ele><time>2026-04-25T07:10:03.221Z</time></trkpt><trkpt lat="43.547819" lon="11.5432781"><ele>137.66666666666666</ele><time>2026-04-25T07:10:05.228Z</time></trkpt><trkpt lat="43.5477531" lon="11.5433475"><ele>137.83333333333334</ele><time>2026-04-25T07:10:07.217Z</time></trkpt><trkpt lat="43.5476862" lon="11.5434167"><ele>138.0</ele><time>2026-04-25T07:10:09.217Z</time></trkpt><trkpt lat="43.5476252" lon="11.5434837"><ele>138.0</ele><time>2026-04-25T07:10:11.222Z</time></trkpt><trkpt lat="43.5475615" lon="11.5435395"><ele>138.0</ele><time>2026-04-25T07:10:13.213Z</time></trkpt><trkpt lat="43.5474779" lon="11.5435841"><ele>138.0</ele><time>2026-04-25T07:10:15.215Z</time></trkpt><trkpt lat="43.5474017" lon="11.543615"><ele>138.0</ele><time>2026-04-25T07:10:17.212Z</time></trkpt><trkpt lat="43.5473111" lon="11.5436133"><ele>138.0</ele><time>2026-04-25T07:10:19.218Z</time></trkpt><trkpt lat="43.5472144" lon="11.5436078"><ele>138.0</ele><time>2026-04-25T07:10:21.213Z</time></trkpt><trkpt lat="43.5471243" lon="11.5435878"><ele>137.66666666666666</ele><time>2026-04-25T07:10:23.217Z</time></trkpt><trkpt lat="43.5470433" lon="11.5435511"><ele>137.33333333333334</ele><time>2026-04-25T07:10:25.224Z</time></trkpt><trkpt lat="43.5469643" lon="11.5435233"><ele>137.0</ele><time>2026-04-25T07:10:27.218Z</time></trkpt><trkpt lat="43.5468762" lon="11.5435054"><ele>136.66666666666669</ele><time>2026-04-25T07:10:29.242Z</time></trkpt><trkpt lat="43.5467859" lon="11.5434852"><ele>136.33333333333334</ele><time>2026-04-25T07:10:31.213Z</time></trkpt><trkpt lat="43.5466988" lon="11.5434689"><ele>136.0</ele><time>2026-04-25T07:10:33.222Z</time></trkpt><trkpt lat="43.5466179" lon="11.5434483"><ele>136.0</ele><time>2026-04-25T07:10:35.22Z</time></trkpt><trkpt lat="43.5465225" lon="11.5434348"><ele>136.0</ele><time>2026-04-25T07:10:37.24Z</time></trkpt><trkpt lat="43.5464272" lon="11.5434167"><ele>136.0</ele><time>2026-04-25T07:10:39.219Z</time></trkpt><trkpt lat="43.5463337" lon="11.5433965"><ele>136.0</ele><time>2026-04-25T07:10:41.222Z</time></trkpt><trkpt lat="43.5462416" lon="11.5433798"><ele>136.0</ele><time>2026-04-25T07:10:43.247Z</time></trkpt><trkpt lat="43.5461555" lon="11.5433648"><ele>135.83333333333334</ele><time>2026-04-25T07:10:45.253Z</time></trkpt><trkpt lat="43.5460639" lon="11.5433528"><ele>135.66666666666669</ele><time>2026-04-25T07:10:47.241Z</time></trkpt><trkpt lat="43.545975" lon="11.5433398"><ele>135.5</ele><time>2026-04-25T07:10:49.223Z</time></trkpt><trkpt lat="43.5458865" lon="11.5433232"><ele>135.33333333333334</ele><time>2026-04-25T07:10:51.232Z</time></trkpt><trkpt lat="43.5457998" lon="11.5433073"><ele>135.16666666666666</ele><time>2026-04-25T07:10:53.222Z</time></trkpt><trkpt lat="43.545717" lon="11.5432934"><ele>135.0</ele><time>2026-04-25T07:10:55.257Z</time></trkpt><trkpt lat="43.5456263" lon="11.5432791"><ele>135.0</ele><time>2026-04-25T07:10:57.26Z</time></trkpt><trkpt lat="43.5455364" lon="11.5432673"><ele>135.0</ele><time>2026-04-25T07:10:59.254Z</time></trkpt><trkpt lat="43.545445" lon="11.5432651"><ele>135.0</ele><time>2026-04-25T07:11:01.242Z</time></trkpt><trkpt lat="43.5453484" lon="11.5432676"><ele>135.0</ele><time>2026-04-25T07:11:03.24Z</time></trkpt><trkpt lat="43.5452495" lon="11.5432835"><ele>135.0</ele><time>2026-04-25T07:11:05.249Z</time></trkpt><trkpt lat="43.5451539" lon="11.5433021"><ele>135.33333333333334</ele><time>2026-04-25T07:11:07.239Z</time></trkpt><trkpt lat="43.5450581" lon="11.5433185"><ele>135.66666666666666</ele><time>2026-04-25T07:11:09.222Z</time></trkpt><trkpt lat="43.5449748" lon="11.5433331"><ele>136.0</ele><time>2026-04-25T07:11:11.214Z</time></trkpt><trkpt lat="43.5448965" lon="11.543354"><ele>136.33333333333331</ele><time>2026-04-25T07:11:13.237Z</time></trkpt><trkpt lat="43.5448081" lon="11.5433726"><ele>136.66666666666666</ele><time>2026-04-25T07:11:15.23Z</time></trkpt><trkpt lat="43.5447203" lon="11.5433847"><ele>137.0</ele><time>2026-04-25T07:11:17.231Z</time></trkpt><trkpt lat="43.5446349" lon="11.5433956"><ele>137.0</ele><time>2026-04-25T07:11:19.233Z</time></trkpt><trkpt lat="43.5445478" lon="11.5434076"><ele>137.0</ele><time>2026-04-25T07:11:21.233Z</time></trkpt><trkpt lat="43.5444601" lon="11.5434236"><ele>137.0</ele><time>2026-04-25T07:11:23.221Z</time></trkpt><trkpt lat="43.5443712" lon="11.5434432"><ele>137.0</ele><time>2026-04-25T07:11:25.216Z</time></trkpt><trkpt lat="43.5442892" lon="11.5434629"><ele>137.0</ele><time>2026-04-25T07:11:27.226Z</time></trkpt><trkpt lat="43.544207" lon="11.5434816"><ele>137.0</ele><time>2026-04-25T07:11:29.23Z</time></trkpt><trkpt lat="43.5441201" lon="11.5435036"><ele>137.33333333333331</ele><time>2026-04-25T07:11:31.264Z</time></trkpt><trkpt lat="43.5440346" lon="11.5435303"><ele>137.66666666666666</ele><time>2026-04-25T07:11:33.225Z</time></trkpt><trkpt lat="43.5439481" lon="11.5435512"><ele>138.0</ele><time>2026-04-25T07:11:35.249Z</time></trkpt><trkpt lat="43.5438625" lon="11.5435671"><ele>138.33333333333334</ele><time>2026-04-25T07:11:37.249Z</time></trkpt><trkpt lat="43.5437762" lon="11.5435825"><ele>138.66666666666669</ele><time>2026-04-25T07:11:39.247Z</time></trkpt><trkpt lat="43.5436906" lon="11.5436036"><ele>139.0</ele><time>2026-04-25T07:11:41.254Z</time></trkpt><trkpt lat="43.5436054" lon="11.5436259"><ele>139.0</ele><time>2026-04-25T07:11:43.245Z</time></trkpt><trkpt lat="43.543519" lon="11.5436516"><ele>139.0</ele><time>2026-04-25T07:11:45.246Z</time></trkpt><trkpt lat="43.5434337" lon="11.5436862"><ele>139.0</ele><time>2026-04-25T07:11:47.249Z</time></trkpt><trkpt lat="43.5433497" lon="11.5437257"><ele>139.0</ele><time>2026-04-25T07:11:49.252Z</time></trkpt><trkpt lat="43.54326" lon="11.5437536"><ele>139.0</ele><time>2026-04-25T07:11:51.25Z</time></trkpt><trkpt lat="43.5431753" lon="11.5437912"><ele>139.0</ele><time>2026-04-25T07:11:53.244Z</time></trkpt><trkpt lat="43.5431013" lon="11.5438257"><ele>139.0</ele><time>2026-04-25T07:11:55.242Z</time></trkpt><trkpt lat="43.5430266" lon="11.5438573"><ele>139.0</ele><time>2026-04-25T07:11:57.246Z</time></trkpt><trkpt lat="43.5429382" lon="11.5438788"><ele>139.0</ele><time>2026-04-25T07:11:59.225Z</time></trkpt><trkpt lat="43.5428541" lon="11.5438905"><ele>139.0</ele><time>2026-04-25T07:12:01.243Z</time></trkpt><trkpt lat="43.5427698" lon="11.543903"><ele>139.0</ele><time>2026-04-25T07:12:03.246Z</time></trkpt><trkpt lat="43.5426784" lon="11.5439111"><ele>139.0</ele><time>2026-04-25T07:12:05.245Z</time></trkpt><trkpt lat="43.5425936" lon="11.5439195"><ele>139.5</ele><time>2026-04-25T07:12:07.251Z</time></trkpt><trkpt lat="43.5425139" lon="11.5439354"><ele>140.0</ele><time>2026-04-25T07:12:09.224Z</time></trkpt><trkpt lat="43.5424311" lon="11.5439594"><ele>140.5</ele><time>2026-04-25T07:12:11.227Z</time></trkpt><trkpt lat="43.5423584" lon="11.5439845"><ele>141.0</ele><time>2026-04-25T07:12:13.222Z</time></trkpt><trkpt lat="43.5422736" lon="11.5440009"><ele>141.5</ele><time>2026-04-25T07:12:15.224Z</time></trkpt><trkpt lat="43.5421819" lon="11.5440149"><ele>142.0</ele><time>2026-04-25T07:12:17.22Z</time></trkpt><trkpt lat="43.5420968" lon="11.5440164"><ele>142.66666666666669</ele><time>2026-04-25T07:12:19.221Z</time></trkpt><trkpt lat="43.5420191" lon="11.5440219"><ele>143.33333333333334</ele><time>2026-04-25T07:12:21.224Z</time></trkpt><trkpt lat="43.5419332" lon="11.5440375"><ele>144.0</ele><time>2026-04-25T07:12:23.226Z</time></trkpt><trkpt lat="43.5418484" lon="11.5440539"><ele>144.66666666666666</ele><time>2026-04-25T07:12:25.219Z</time></trkpt><trkpt lat="43.5417697" lon="11.5440676"><ele>145.33333333333331</ele><time>2026-04-25T07:12:27.223Z</time></trkpt><trkpt lat="43.5416869" lon="11.544083"><ele>146.0</ele><time>2026-04-25T07:12:29.228Z</time></trkpt><trkpt lat="43.5416134" lon="11.5441055"><ele>146.0</ele><time>2026-04-25T07:12:31.228Z</time></trkpt><trkpt lat="43.5415353" lon="11.544133"><ele>146.0</ele><time>2026-04-25T07:12:33.244Z</time></trkpt><trkpt lat="43.5414494" lon="11.544147"><ele>146.0</ele><time>2026-04-25T07:12:35.223Z</time></trkpt><trkpt lat="43.5413629" lon="11.5441613"><ele>146.0</ele><time>2026-04-25T07:12:37.223Z</time></trkpt><trkpt lat="43.541275" lon="11.5441807"><ele>146.0</ele><time>2026-04-25T07:12:39.224Z</time></trkpt><trkpt lat="43.541186" lon="11.5442071"><ele>146.0</ele><time>2026-04-25T07:12:41.222Z</time></trkpt><trkpt lat="43.5411057" lon="11.5442386"><ele>146.0</ele><time>2026-04-25T07:12:43.219Z</time></trkpt><trkpt lat="43.5410171" lon="11.5442665"><ele>146.0</ele><time>2026-04-25T07:12:45.222Z</time></trkpt><trkpt lat="43.5409259" lon="11.5442972"><ele>146.0</ele><time>2026-04-25T07:12:47.218Z</time></trkpt><trkpt lat="43.5408303" lon="11.5443287"><ele>146.0</ele><time>2026-04-25T07:12:49.216Z</time></trkpt><trkpt lat="43.5407379" lon="11.5443687"><ele>146.0</ele><time>2026-04-25T07:12:51.221Z</time></trkpt><trkpt lat="43.5406426" lon="11.544398"><ele>146.0</ele><time>2026-04-25T07:12:53.213Z</time></trkpt><trkpt lat="43.5405558" lon="11.5444162"><ele>146.0</ele><time>2026-04-25T07:12:55.228Z</time></trkpt><trkpt lat="43.5404661" lon="11.5444246"><ele>146.0</ele><time>2026-04-25T07:12:57.222Z</time></trkpt><trkpt lat="43.540379" lon="11.5444102"><ele>146.0</ele><time>2026-04-25T07:12:59.212Z</time></trkpt><trkpt lat="43.5402889" lon="11.5443915"><ele>146.0</ele><time>2026-04-25T07:13:01.216Z</time></trkpt><trkpt lat="43.5401917" lon="11.5443531"><ele>146.2</ele><time>2026-04-25T07:13:03.209Z</time></trkpt><trkpt lat="43.5400984" lon="11.5443095"><ele>146.39999999999998</ele><time>2026-04-25T07:13:05.212Z</time></trkpt><trkpt lat="43.5400129" lon="11.5442657"><ele>146.6</ele><time>2026-04-25T07:13:07.212Z</time></trkpt><trkpt lat="43.5399319" lon="11.5442142"><ele>146.79999999999998</ele><time>2026-04-25T07:13:09.214Z</time></trkpt><trkpt lat="43.5398574" lon="11.544159"><ele>147.0</ele><time>2026-04-25T07:13:11.209Z</time></trkpt><trkpt lat="43.539779" lon="11.5441034"><ele>147.0</ele><time>2026-04-25T07:13:13.208Z</time></trkpt><trkpt lat="43.5396981" lon="11.5440418"><ele>147.0</ele><time>2026-04-25T07:13:15.214Z</time></trkpt><trkpt lat="43.5396239" lon="11.5439858"><ele>147.0</ele><time>2026-04-25T07:13:17.221Z</time></trkpt><trkpt lat="43.5395422" lon="11.5439313"><ele>147.0</ele><time>2026-04-25T07:13:19.213Z</time></trkpt><trkpt lat="43.5394613" lon="11.5438921"><ele>147.0</ele><time>2026-04-25T07:13:21.22Z</time></trkpt><trkpt lat="43.5393812" lon="11.5438571"><ele>147.0</ele><time>2026-04-25T07:13:23.216Z</time></trkpt><trkpt lat="43.5392955" lon="11.5438387"><ele>147.6</ele><time>2026-04-25T07:13:25.217Z</time></trkpt><trkpt lat="43.5392011" lon="11.5438309"><ele>148.2</ele><time>2026-04-25T07:13:27.221Z</time></trkpt><trkpt lat="43.5391067" lon="11.5438308"><ele>148.8</ele><time>2026-04-25T07:13:29.228Z</time></trkpt><trkpt lat="43.5390159" lon="11.5438361"><ele>149.4</ele><time>2026-04-25T07:13:31.222Z</time></trkpt><trkpt lat="43.5389212" lon="11.5438359"><ele>150.0</ele><time>2026-04-25T07:13:33.224Z</time></trkpt><trkpt lat="43.5388212" lon="11.5438358"><ele>150.0</ele><time>2026-04-25T07:13:35.212Z</time></trkpt><trkpt lat="43.5387223" lon="11.5438403"><ele>150.0</ele><time>2026-04-25T07:13:37.209Z</time></trkpt><trkpt lat="43.5386276" lon="11.5438427"><ele>150.0</ele><time>2026-04-25T07:13:39.204Z</time></trkpt><trkpt lat="43.5385379" lon="11.5438392"><ele>150.0</ele><time>2026-04-25T07:13:41.212Z</time></trkpt><trkpt lat="43.5384522" lon="11.5438375"><ele>150.0</ele><time>2026-04-25T07:13:43.219Z</time></trkpt><trkpt lat="43.5383536" lon="11.5438532"><ele>150.16666666666666</ele><time>2026-04-25T07:13:45.212Z</time></trkpt><trkpt lat="43.5382574" lon="11.5438768"><ele>150.33333333333334</ele><time>2026-04-25T07:13:47.224Z</time></trkpt><trkpt lat="43.5381655" lon="11.5439014"><ele>150.5</ele><time>2026-04-25T07:13:49.215Z</time></trkpt><trkpt lat="43.5380818" lon="11.5439079"><ele>150.66666666666669</ele><time>2026-04-25T07:13:51.216Z</time></trkpt><trkpt lat="43.5380039" lon="11.5438953"><ele>150.83333333333334</ele><time>2026-04-25T07:13:53.208Z</time></trkpt><trkpt lat="43.5379304" lon="11.5438464"><ele>151.0</ele><time>2026-04-25T07:13:55.21Z</time></trkpt><trkpt lat="43.5378805" lon="11.543754"><ele>150.6</ele><time>2026-04-25T07:13:57.212Z</time></trkpt><trkpt lat="43.5378377" lon="11.5436336"><ele>150.2</ele><time>2026-04-25T07:13:59.212Z</time></trkpt><trkpt lat="43.5377928" lon="11.5435151"><ele>149.8</ele><time>2026-04-25T07:14:01.207Z</time></trkpt><trkpt lat="43.5377495" lon="11.5433972"><ele>149.4</ele><time>2026-04-25T07:14:03.219Z</time></trkpt><trkpt lat="43.5377128" lon="11.5432908"><ele>149.0</ele><time>2026-04-25T07:14:05.235Z</time></trkpt><trkpt lat="43.5376703" lon="11.5431827"><ele>149.0</ele><time>2026-04-25T07:14:07.229Z</time></trkpt><trkpt lat="43.5376293" lon="11.5430781"><ele>149.0</ele><time>2026-04-25T07:14:09.218Z</time></trkpt><trkpt lat="43.5375781" lon="11.542976"><ele>149.0</ele><time>2026-04-25T07:14:11.224Z</time></trkpt><trkpt lat="43.5375222" lon="11.5428804"><ele>149.0</ele><time>2026-04-25T07:14:13.216Z</time></trkpt><trkpt lat="43.5374632" lon="11.5427936"><ele>149.0</ele><time>2026-04-25T07:14:15.218Z</time></trkpt><trkpt lat="43.5373942" lon="11.542728"><ele>149.0</ele><time>2026-04-25T07:14:17.22Z</time></trkpt><trkpt lat="43.5373202" lon="11.5426865"><ele>149.2</ele><time>2026-04-25T07:14:19.218Z</time></trkpt><trkpt lat="43.5372279" lon="11.5426553"><ele>149.4</ele><time>2026-04-25T07:14:21.217Z</time></trkpt><trkpt lat="43.5371268" lon="11.5426346"><ele>149.6</ele><time>2026-04-25T07:14:23.211Z</time></trkpt><trkpt lat="43.5370278" lon="11.542621"><ele>149.8</ele><time>2026-04-25T07:14:25.209Z</time></trkpt><trkpt lat="43.5369404" lon="11.5426078"><ele>150.0</ele><time>2026-04-25T07:14:27.217Z</time></trkpt><trkpt lat="43.5368507" lon="11.5425844"><ele>150.0</ele><time>2026-04-25T07:14:29.22Z</time></trkpt><trkpt lat="43.5367523" lon="11.5425617"><ele>150.0</ele><time>2026-04-25T07:14:31.211Z</time></trkpt><trkpt lat="43.5366593" lon="11.5425438"><ele>150.0</ele><time>2026-04-25T07:14:33.216Z</time></trkpt><trkpt lat="43.5365652" lon="11.5425362"><ele>150.0</ele><time>2026-04-25T07:14:35.211Z</time></trkpt><trkpt lat="43.5364667" lon="11.5425259"><ele>150.0</ele><time>2026-04-25T07:14:37.207Z</time></trkpt><trkpt lat="43.5363724" lon="11.5425358"><ele>150.0</ele><time>2026-04-25T07:14:39.204Z</time></trkpt><trkpt lat="43.5362761" lon="11.5425405"><ele>150.0</ele><time>2026-04-25T07:14:41.204Z</time></trkpt><trkpt lat="43.5361769" lon="11.54256"><ele>150.0</ele><time>2026-04-25T07:14:43.208Z</time></trkpt><trkpt lat="43.5360718" lon="11.5425858"><ele>150.0</ele><time>2026-04-25T07:14:45.215Z</time></trkpt><trkpt lat="43.5359707" lon="11.5426049"><ele>150.0</ele><time>2026-04-25T07:14:47.204Z</time></trkpt><trkpt lat="43.5358799" lon="11.542606"><ele>150.33333333333334</ele><time>2026-04-25T07:14:49.2Z</time></trkpt><trkpt lat="43.5357865" lon="11.5426081"><ele>150.66666666666666</ele><time>2026-04-25T07:14:51.206Z</time></trkpt><trkpt lat="43.5357007" lon="11.542589"><ele>151.0</ele><time>2026-04-25T07:14:53.206Z</time></trkpt><trkpt lat="43.5356251" lon="11.5425366"><ele>151.33333333333331</ele><time>2026-04-25T07:14:55.194Z</time></trkpt><trkpt lat="43.5355642" lon="11.5424418"><ele>151.66666666666666</ele><time>2026-04-25T07:14:57.201Z</time></trkpt><trkpt lat="43.535525" lon="11.5423317"><ele>152.0</ele><time>2026-04-25T07:14:59.207Z</time></trkpt><trkpt lat="43.5354799" lon="11.5422123"><ele>152.0</ele><time>2026-04-25T07:15:01.204Z</time></trkpt><trkpt lat="43.5354361" lon="11.5420994"><ele>152.0</ele><time>2026-04-25T07:15:03.219Z</time></trkpt><trkpt lat="43.5353952" lon="11.5419898"><ele>152.0</ele><time>2026-04-25T07:15:05.215Z</time></trkpt><trkpt lat="43.5353592" lon="11.5418776"><ele>152.0</ele><time>2026-04-25T07:15:07.231Z</time></trkpt><trkpt lat="43.5353207" lon="11.5417668"><ele>152.0</ele><time>2026-04-25T07:15:09.217Z</time></trkpt><trkpt lat="43.5352863" lon="11.5416644"><ele>152.0</ele><time>2026-04-25T07:15:11.211Z</time></trkpt><trkpt lat="43.5352467" lon="11.5415695"><ele>152.0</ele><time>2026-04-25T07:15:13.209Z</time></trkpt><trkpt lat="43.5351835" lon="11.5414814"><ele>152.0</ele><time>2026-04-25T07:15:15.214Z</time></trkpt><trkpt lat="43.5351118" lon="11.5413892"><ele>152.0</ele><time>2026-04-25T07:15:17.201Z</time></trkpt><trkpt lat="43.5350395" lon="11.5412964"><ele>152.0</ele><time>2026-04-25T07:15:19.203Z</time></trkpt><trkpt lat="43.5349809" lon="11.5412066"><ele>152.0</ele><time>2026-04-25T07:15:21.204Z</time></trkpt><trkpt lat="43.5349229" lon="11.5411132"><ele>151.83333333333331</ele><time>2026-04-25T07:15:23.202Z</time></trkpt><trkpt lat="43.534866" lon="11.5410173"><ele>151.66666666666666</ele><time>2026-04-25T07:15:25.201Z</time></trkpt><trkpt lat="43.5348151" lon="11.5409235"><ele>151.5</ele><time>2026-04-25T07:15:27.202Z</time></trkpt><trkpt lat="43.5347591" lon="11.5408317"><ele>151.33333333333334</ele><time>2026-04-25T07:15:29.204Z</time></trkpt><trkpt lat="43.5347171" lon="11.5407364"><ele>151.16666666666669</ele><time>2026-04-25T07:15:31.209Z</time></trkpt><trkpt lat="43.5346536" lon="11.5406453"><ele>151.0</ele><time>2026-04-25T07:15:33.204Z</time></trkpt><trkpt lat="43.534585" lon="11.5405583"><ele>151.4</ele><time>2026-04-25T07:15:35.203Z</time></trkpt><trkpt lat="43.5345121" lon="11.5404788"><ele>151.8</ele><time>2026-04-25T07:15:37.211Z</time></trkpt><trkpt lat="43.5344425" lon="11.5404097"><ele>152.20000000000002</ele><time>2026-04-25T07:15:39.206Z</time></trkpt><trkpt lat="43.5343631" lon="11.540337"><ele>152.6</ele><time>2026-04-25T07:15:41.202Z</time></trkpt><trkpt lat="43.5342888" lon="11.5402652"><ele>153.0</ele><time>2026-04-25T07:15:43.198Z</time></trkpt><trkpt lat="43.5342192" lon="11.5401863"><ele>153.0</ele><time>2026-04-25T07:15:45.209Z</time></trkpt><trkpt lat="43.5341377" lon="11.5401216"><ele>153.0</ele><time>2026-04-25T07:15:47.21Z</time></trkpt><trkpt lat="43.5340559" lon="11.5400597"><ele>153.0</ele><time>2026-04-25T07:15:49.208Z</time></trkpt><trkpt lat="43.5339721" lon="11.5400042"><ele>153.0</ele><time>2026-04-25T07:15:51.204Z</time></trkpt><trkpt lat="43.5338947" lon="11.5399431"><ele>153.0</ele><time>2026-04-25T07:15:53.208Z</time></trkpt><trkpt lat="43.5338217" lon="11.5398681"><ele>153.0</ele><time>2026-04-25T07:15:55.211Z</time></trkpt><trkpt lat="43.5337577" lon="11.5397693"><ele>153.0</ele><time>2026-04-25T07:15:57.2Z</time></trkpt><trkpt lat="43.5337036" lon="11.5396593"><ele>153.0</ele><time>2026-04-25T07:15:59.207Z</time></trkpt><trkpt lat="43.5336528" lon="11.539551"><ele>153.0</ele><time>2026-04-25T07:16:01.204Z</time></trkpt><trkpt lat="43.5336013" lon="11.5394372"><ele>153.0</ele><time>2026-04-25T07:16:03.204Z</time></trkpt><trkpt lat="43.5335395" lon="11.53933"><ele>152.66666666666666</ele><time>2026-04-25T07:16:05.207Z</time></trkpt><trkpt lat="43.5334757" lon="11.5392436"><ele>152.33333333333334</ele><time>2026-04-25T07:16:07.208Z</time></trkpt><trkpt lat="43.533405" lon="11.5391591"><ele>152.0</ele><time>2026-04-25T07:16:09.226Z</time></trkpt><trkpt lat="43.5333453" lon="11.5390804"><ele>151.66666666666669</ele><time>2026-04-25T07:16:11.224Z</time></trkpt><trkpt lat="43.5332794" lon="11.5389973"><ele>151.33333333333334</ele><time>2026-04-25T07:16:13.211Z</time></trkpt><trkpt lat="43.5332166" lon="11.5389223"><ele>151.0</ele><time>2026-04-25T07:16:15.216Z</time></trkpt><trkpt lat="43.5331539" lon="11.5388379"><ele>151.0</ele><time>2026-04-25T07:16:17.21Z</time></trkpt><trkpt lat="43.5331066" lon="11.5387491"><ele>151.0</ele><time>2026-04-25T07:16:19.207Z</time></trkpt><trkpt lat="43.5330613" lon="11.5386533"><ele>151.0</ele><time>2026-04-25T07:16:21.224Z</time></trkpt><trkpt lat="43.5330127" lon="11.5385472"><ele>151.0</ele><time>2026-04-25T07:16:23.21Z</time></trkpt><trkpt lat="43.5329806" lon="11.5384403"><ele>151.0</ele><time>2026-04-25T07:16:25.208Z</time></trkpt><trkpt lat="43.5329607" lon="11.538337"><ele>151.0</ele><time>2026-04-25T07:16:27.209Z</time></trkpt><trkpt lat="43.5329452" lon="11.5382178"><ele>151.0</ele><time>2026-04-25T07:16:29.207Z</time></trkpt><trkpt lat="43.5329505" lon="11.5380956"><ele>151.0</ele><time>2026-04-25T07:16:31.206Z</time></trkpt><trkpt lat="43.5329553" lon="11.5379771"><ele>151.0</ele><time>2026-04-25T07:16:33.207Z</time></trkpt><trkpt lat="43.5329541" lon="11.5378629"><ele>151.0</ele><time>2026-04-25T07:16:35.205Z</time></trkpt><trkpt lat="43.5329546" lon="11.5377511"><ele>151.0</ele><time>2026-04-25T07:16:37.204Z</time></trkpt><trkpt lat="43.5329534" lon="11.5376273"><ele>151.0</ele><time>2026-04-25T07:16:39.212Z</time></trkpt><trkpt lat="43.5329426" lon="11.5375058"><ele>152.4</ele><time>2026-04-25T07:16:41.21Z</time></trkpt><trkpt lat="43.5329319" lon="11.5373766"><ele>153.8</ele><time>2026-04-25T07:16:43.208Z</time></trkpt><trkpt lat="43.5329222" lon="11.5372467"><ele>155.20000000000002</ele><time>2026-04-25T07:16:45.206Z</time></trkpt><trkpt lat="43.5329081" lon="11.5371192"><ele>156.6</ele><time>2026-04-25T07:16:47.204Z</time></trkpt><trkpt lat="43.5328885" lon="11.536999"><ele>158.0</ele><time>2026-04-25T07:16:49.211Z</time></trkpt><trkpt lat="43.5328463" lon="11.5368834"><ele>158.20000000000002</ele><time>2026-04-25T07:16:51.207Z</time></trkpt><trkpt lat="43.5328032" lon="11.5367643"><ele>158.4</ele><time>2026-04-25T07:16:53.213Z</time></trkpt><trkpt lat="43.5327586" lon="11.5366516"><ele>158.60000000000002</ele><time>2026-04-25T07:16:55.207Z</time></trkpt><trkpt lat="43.532713" lon="11.5365362"><ele>158.8</ele><time>2026-04-25T07:16:57.206Z</time></trkpt><trkpt lat="43.5326786" lon="11.5364191"><ele>159.0</ele><time>2026-04-25T07:16:59.202Z</time></trkpt><trkpt lat="43.532652" lon="11.5363005"><ele>158.83333333333334</ele><time>2026-04-25T07:17:01.202Z</time></trkpt><trkpt lat="43.5326049" lon="11.536183"><ele>158.66666666666666</ele><time>2026-04-25T07:17:03.207Z</time></trkpt><trkpt lat="43.5325745" lon="11.5360629"><ele>158.5</ele><time>2026-04-25T07:17:05.207Z</time></trkpt><trkpt lat="43.5325427" lon="11.5359484"><ele>158.33333333333331</ele><time>2026-04-25T07:17:07.206Z</time></trkpt><trkpt lat="43.5325044" lon="11.5358466"><ele>158.16666666666666</ele><time>2026-04-25T07:17:09.209Z</time></trkpt><trkpt lat="43.5324637" lon="11.535749"><ele>158.0</ele><time>2026-04-25T07:17:11.222Z</time></trkpt><trkpt lat="43.5324086" lon="11.535668"><ele>158.0</ele><time>2026-04-25T07:17:13.204Z</time></trkpt><trkpt lat="43.5323468" lon="11.535601"><ele>158.0</ele><time>2026-04-25T07:17:15.213Z</time></trkpt><trkpt lat="43.5322642" lon="11.5355455"><ele>158.0</ele><time>2026-04-25T07:17:17.21Z</time></trkpt><trkpt lat="43.532171" lon="11.5354917"><ele>158.0</ele><time>2026-04-25T07:17:19.209Z</time></trkpt><trkpt lat="43.5320863" lon="11.5354478"><ele>158.0</ele><time>2026-04-25T07:17:21.209Z</time></trkpt><trkpt lat="43.5320122" lon="11.5353922"><ele>158.0</ele><time>2026-04-25T07:17:23.207Z</time></trkpt><trkpt lat="43.5319355" lon="11.5353205"><ele>158.0</ele><time>2026-04-25T07:17:25.205Z</time></trkpt><trkpt lat="43.5318634" lon="11.535243"><ele>158.0</ele><time>2026-04-25T07:17:27.211Z</time></trkpt><trkpt lat="43.5317996" lon="11.5351564"><ele>158.0</ele><time>2026-04-25T07:17:29.211Z</time></trkpt><trkpt lat="43.5317355" lon="11.5350682"><ele>158.0</ele><time>2026-04-25T07:17:31.207Z</time></trkpt><trkpt lat="43.5316832" lon="11.534977"><ele>158.0</ele><time>2026-04-25T07:17:33.203Z</time></trkpt><trkpt lat="43.5316297" lon="11.5348819"><ele>158.0</ele><time>2026-04-25T07:17:35.207Z</time></trkpt><trkpt lat="43.5315712" lon="11.5347922"><ele>158.0</ele><time>2026-04-25T07:17:37.209Z</time></trkpt><trkpt lat="43.531504" lon="11.5347067"><ele>158.0</ele><time>2026-04-25T07:17:39.211Z</time></trkpt><trkpt lat="43.531452" lon="11.5346261"><ele>158.0</ele><time>2026-04-25T07:17:41.21Z</time></trkpt><trkpt lat="43.5314013" lon="11.5345329"><ele>158.0</ele><time>2026-04-25T07:17:43.207Z</time></trkpt><trkpt lat="43.5313563" lon="11.5344309"><ele>158.0</ele><time>2026-04-25T07:17:45.214Z</time></trkpt><trkpt lat="43.5313094" lon="11.5343297"><ele>158.0</ele><time>2026-04-25T07:17:47.217Z</time></trkpt><trkpt lat="43.5312539" lon="11.5342353"><ele>158.33333333333331</ele><time>2026-04-25T07:17:49.213Z</time></trkpt><trkpt lat="43.5312028" lon="11.5341396"><ele>158.66666666666666</ele><time>2026-04-25T07:17:51.214Z</time></trkpt><trkpt lat="43.5311443" lon="11.5340395"><ele>159.0</ele><time>2026-04-25T07:17:53.211Z</time></trkpt><trkpt lat="43.5310892" lon="11.5339523"><ele>159.33333333333334</ele><time>2026-04-25T07:17:55.204Z</time></trkpt><trkpt lat="43.5310338" lon="11.5338618"><ele>159.66666666666669</ele><time>2026-04-25T07:17:57.21Z</time></trkpt><trkpt lat="43.5309763" lon="11.5337726"><ele>160.0</ele><time>2026-04-25T07:17:59.208Z</time></trkpt><trkpt lat="43.5309148" lon="11.533684"><ele>160.0</ele><time>2026-04-25T07:18:01.208Z</time></trkpt><trkpt lat="43.5308467" lon="11.5335912"><ele>160.0</ele><time>2026-04-25T07:18:03.206Z</time></trkpt><trkpt lat="43.5307874" lon="11.5334953"><ele>160.0</ele><time>2026-04-25T07:18:05.207Z</time></trkpt><trkpt lat="43.5307356" lon="11.5334002"><ele>160.0</ele><time>2026-04-25T07:18:07.206Z</time></trkpt><trkpt lat="43.5306828" lon="11.5333009"><ele>160.0</ele><time>2026-04-25T07:18:09.207Z</time></trkpt><trkpt lat="43.530631" lon="11.5331891"><ele>160.0</ele><time>2026-04-25T07:18:11.206Z</time></trkpt><trkpt lat="43.5305846" lon="11.5330857"><ele>160.0</ele><time>2026-04-25T07:18:13.204Z</time></trkpt><trkpt lat="43.5305393" lon="11.5329839"><ele>160.0</ele><time>2026-04-25T07:18:15.214Z</time></trkpt><trkpt lat="43.5304937" lon="11.5328804"><ele>160.0</ele><time>2026-04-25T07:18:17.206Z</time></trkpt><trkpt lat="43.530458" lon="11.5327876"><ele>160.0</ele><time>2026-04-25T07:18:19.207Z</time></trkpt><trkpt lat="43.5304183" lon="11.5326939"><ele>160.0</ele><time>2026-04-25T07:18:21.207Z</time></trkpt><trkpt lat="43.5303748" lon="11.5325883"><ele>160.83333333333334</ele><time>2026-04-25T07:18:23.204Z</time></trkpt><trkpt lat="43.5303507" lon="11.5324806"><ele>161.66666666666669</ele><time>2026-04-25T07:18:25.208Z</time></trkpt><trkpt lat="43.5303327" lon="11.5323709"><ele>162.5</ele><time>2026-04-25T07:18:27.208Z</time></trkpt><trkpt lat="43.5303149" lon="11.5322701"><ele>163.33333333333334</ele><time>2026-04-25T07:18:29.209Z</time></trkpt><trkpt lat="43.5302875" lon="11.5321713"><ele>164.16666666666666</ele><time>2026-04-25T07:18:31.208Z</time></trkpt><trkpt lat="43.5302538" lon="11.5320699"><ele>165.0</ele><time>2026-04-25T07:18:33.206Z</time></trkpt><trkpt lat="43.5302255" lon="11.5319654"><ele>165.0</ele><time>2026-04-25T07:18:35.207Z</time></trkpt><trkpt lat="43.5301916" lon="11.5318592"><ele>165.0</ele><time>2026-04-25T07:18:37.207Z</time></trkpt><trkpt lat="43.5301534" lon="11.5317499"><ele>165.0</ele><time>2026-04-25T07:18:39.209Z</time></trkpt><trkpt lat="43.5301244" lon="11.5316481"><ele>165.0</ele><time>2026-04-25T07:18:41.204Z</time></trkpt><trkpt lat="43.5300981" lon="11.531543"><ele>165.0</ele><time>2026-04-25T07:18:43.231Z</time></trkpt><trkpt lat="43.5300673" lon="11.5314382"><ele>165.0</ele><time>2026-04-25T07:18:45.205Z</time></trkpt><trkpt lat="43.5300313" lon="11.5313341"><ele>165.0</ele><time>2026-04-25T07:18:47.201Z</time></trkpt><trkpt lat="43.5299878" lon="11.531236"><ele>165.0</ele><time>2026-04-25T07:18:49.201Z</time></trkpt><trkpt lat="43.5299492" lon="11.531154"><ele>165.0</ele><time>2026-04-25T07:18:51.202Z</time></trkpt><trkpt lat="43.5299056" lon="11.5310654"><ele>165.0</ele><time>2026-04-25T07:18:53.216Z</time></trkpt><trkpt lat="43.5298613" lon="11.5309583"><ele>165.0</ele><time>2026-04-25T07:18:55.201Z</time></trkpt><trkpt lat="43.5298194" lon="11.5308586"><ele>165.0</ele><time>2026-04-25T07:18:57.2Z</time></trkpt><trkpt lat="43.5297802" lon="11.5307604"><ele>165.16666666666666</ele><time>2026-04-25T07:18:59.204Z</time></trkpt><trkpt lat="43.5297376" lon="11.5306642"><ele>165.33333333333334</ele><time>2026-04-25T07:19:01.206Z</time></trkpt><trkpt lat="43.5296876" lon="11.5305718"><ele>165.5</ele><time>2026-04-25T07:19:03.205Z</time></trkpt><trkpt lat="43.5296447" lon="11.5304644"><ele>165.66666666666669</ele><time>2026-04-25T07:19:05.208Z</time></trkpt><trkpt lat="43.5296086" lon="11.5303501"><ele>165.83333333333334</ele><time>2026-04-25T07:19:07.204Z</time></trkpt><trkpt lat="43.5295681" lon="11.5302448"><ele>166.0</ele><time>2026-04-25T07:19:09.208Z</time></trkpt><trkpt lat="43.5295256" lon="11.5301487"><ele>166.16666666666669</ele><time>2026-04-25T07:19:11.21Z</time></trkpt><trkpt lat="43.5294789" lon="11.5300501"><ele>166.33333333333334</ele><time>2026-04-25T07:19:13.211Z</time></trkpt><trkpt lat="43.5294273" lon="11.529958"><ele>166.5</ele><time>2026-04-25T07:19:15.209Z</time></trkpt><trkpt lat="43.5293736" lon="11.5298789"><ele>166.66666666666666</ele><time>2026-04-25T07:19:17.206Z</time></trkpt><trkpt lat="43.5293243" lon="11.5298053"><ele>166.83333333333331</ele><time>2026-04-25T07:19:19.215Z</time></trkpt><trkpt lat="43.5292699" lon="11.5297373"><ele>167.0</ele><time>2026-04-25T07:19:21.214Z</time></trkpt><trkpt lat="43.5292064" lon="11.5296647"><ele>167.0</ele><time>2026-04-25T07:19:23.214Z</time></trkpt><trkpt lat="43.5291422" lon="11.5295883"><ele>167.0</ele><time>2026-04-25T07:19:25.217Z</time></trkpt><trkpt lat="43.5290762" lon="11.5295153"><ele>167.0</ele><time>2026-04-25T07:19:27.216Z</time></trkpt><trkpt lat="43.5290175" lon="11.5294427"><ele>167.0</ele><time>2026-04-25T07:19:29.212Z</time></trkpt><trkpt lat="43.528963" lon="11.5293678"><ele>167.0</ele><time>2026-04-25T07:19:31.208Z</time></trkpt><trkpt lat="43.5289042" lon="11.52929"><ele>167.0</ele><time>2026-04-25T07:19:33.209Z</time></trkpt><trkpt lat="43.5288403" lon="11.5292154"><ele>167.0</ele><time>2026-04-25T07:19:35.209Z</time></trkpt><trkpt lat="43.5287768" lon="11.5291434"><ele>167.0</ele><time>2026-04-25T07:19:37.207Z</time></trkpt><trkpt lat="43.5287151" lon="11.5290699"><ele>167.0</ele><time>2026-04-25T07:19:39.206Z</time></trkpt><trkpt lat="43.528646" lon="11.528986"><ele>167.0</ele><time>2026-04-25T07:19:41.199Z</time></trkpt><trkpt lat="43.5285903" lon="11.52893"><ele>167.0</ele><time>2026-04-25T07:19:43.209Z</time></trkpt><trkpt lat="43.5285296" lon="11.5288846"><ele>167.0</ele><time>2026-04-25T07:19:45.23Z</time></trkpt><trkpt lat="43.5284555" lon="11.5288345"><ele>167.5</ele><time>2026-04-25T07:19:47.21Z</time></trkpt><trkpt lat="43.5283734" lon="11.5287783"><ele>168.0</ele><time>2026-04-25T07:19:49.209Z</time></trkpt><trkpt lat="43.528298" lon="11.528731"><ele>168.5</ele><time>2026-04-25T07:19:51.209Z</time></trkpt><trkpt lat="43.528221" lon="11.5286817"><ele>169.0</ele><time>2026-04-25T07:19:53.208Z</time></trkpt><trkpt lat="43.5281384" lon="11.5286353"><ele>169.5</ele><time>2026-04-25T07:19:55.209Z</time></trkpt><trkpt lat="43.5280676" lon="11.5285879"><ele>170.0</ele><time>2026-04-25T07:19:57.203Z</time></trkpt><trkpt lat="43.5280112" lon="11.5285292"><ele>170.57142857142858</ele><time>2026-04-25T07:19:59.198Z</time></trkpt><trkpt lat="43.5279729" lon="11.5284577"><ele>171.14285714285714</ele><time>2026-04-25T07:20:02.195Z</time></trkpt><trkpt lat="43.5279376" lon="11.5283666"><ele>171.71428571428572</ele><time>2026-04-25T07:20:05.196Z</time></trkpt><trkpt lat="43.5279239" lon="11.5282769"><ele>172.28571428571428</ele><time>2026-04-25T07:20:08.192Z</time></trkpt><trkpt lat="43.5279219" lon="11.528184"><ele>172.85714285714286</ele><time>2026-04-25T07:20:11.2Z</time></trkpt><trkpt lat="43.5279282" lon="11.5280921"><ele>173.42857142857142</ele><time>2026-04-25T07:20:15.205Z</time></trkpt><trkpt lat="43.5279321" lon="11.5279848"><ele>174.0</ele><time>2026-04-25T07:20:19.202Z</time></trkpt><trkpt lat="43.5279342" lon="11.5278751"><ele>174.85714285714286</ele><time>2026-04-25T07:20:22.201Z</time></trkpt><trkpt lat="43.5279299" lon="11.5277809"><ele>175.71428571428572</ele><time>2026-04-25T07:20:24.204Z</time></trkpt><trkpt lat="43.527911" lon="11.5276909"><ele>176.57142857142856</ele><time>2026-04-25T07:20:26.205Z</time></trkpt><trkpt lat="43.5278879" lon="11.5275939"><ele>177.42857142857144</ele><time>2026-04-25T07:20:28.204Z</time></trkpt><trkpt lat="43.5278703" lon="11.5274988"><ele>178.2857142857143</ele><time>2026-04-25T07:20:30.2Z</time></trkpt><trkpt lat="43.52786" lon="11.5274096"><ele>179.14285714285714</ele><time>2026-04-25T07:20:32.194Z</time></trkpt><trkpt lat="43.5278549" lon="11.5273136"><ele>180.0</ele><time>2026-04-25T07:20:35.202Z</time></trkpt><trkpt lat="43.5278405" lon="11.527211"><ele>181.16666666666666</ele><time>2026-04-25T07:20:38.194Z</time></trkpt><trkpt lat="43.5278279" lon="11.5271102"><ele>182.33333333333334</ele><time>2026-04-25T07:20:41.196Z</time></trkpt><trkpt lat="43.52781" lon="11.5270188"><ele>183.5</ele><time>2026-04-25T07:20:44.202Z</time></trkpt><trkpt lat="43.527792" lon="11.526906"><ele>184.66666666666669</ele><time>2026-04-25T07:20:47.212Z</time></trkpt><trkpt lat="43.5277633" lon="11.5268175"><ele>185.83333333333334</ele><time>2026-04-25T07:20:49.203Z</time></trkpt><trkpt lat="43.5277198" lon="11.5267457"><ele>187.0</ele><time>2026-04-25T07:20:51.202Z</time></trkpt><trkpt lat="43.5276508" lon="11.5266666"><ele>187.0</ele><time>2026-04-25T07:20:54.205Z</time></trkpt><trkpt lat="43.5275896" lon="11.5266101"><ele>187.0</ele><time>2026-04-25T07:20:58.199Z</time></trkpt><trkpt lat="43.5274965" lon="11.5265845"><ele>187.0</ele><time>2026-04-25T07:21:01.198Z</time></trkpt><trkpt lat="43.5274327" lon="11.5265895"><ele>187.0</ele><time>2026-04-25T07:21:03.2Z</time></trkpt><trkpt lat="43.5273554" lon="11.5265735"><ele>187.0</ele><time>2026-04-25T07:21:06.196Z</time></trkpt><trkpt lat="43.5272863" lon="11.5265279"><ele>187.0</ele><time>2026-04-25T07:21:11.196Z</time></trkpt><trkpt lat="43.5272254" lon="11.526489"><ele>187.0</ele><time>2026-04-25T07:21:15.213Z</time></trkpt><trkpt lat="43.5271788" lon="11.526414"><ele>187.0</ele><time>2026-04-25T07:21:19.197Z</time></trkpt><trkpt lat="43.5271294" lon="11.5263487"><ele>187.0</ele><time>2026-04-25T07:21:24.201Z</time></trkpt><trkpt lat="43.5270935" lon="11.5262745"><ele>187.0</ele><time>2026-04-25T07:21:27.198Z</time></trkpt><trkpt lat="43.5270546" lon="11.5262028"><ele>187.0</ele><time>2026-04-25T07:21:30.202Z</time></trkpt><trkpt lat="43.5270077" lon="11.5261445"><ele>187.0</ele><time>2026-04-25T07:21:33.189Z</time></trkpt><trkpt lat="43.5269742" lon="11.5260595"><ele>187.0</ele><time>2026-04-25T07:21:36.199Z</time></trkpt><trkpt lat="43.5269137" lon="11.5259818"><ele>189.57142857142856</ele><time>2026-04-25T07:21:39.198Z</time></trkpt><trkpt lat="43.5268618" lon="11.5259246"><ele>192.14285714285717</ele><time>2026-04-25T07:21:41.2Z</time></trkpt><trkpt lat="43.5268194" lon="11.5258514"><ele>194.71428571428572</ele><time>2026-04-25T07:21:44.197Z</time></trkpt><trkpt lat="43.5267575" lon="11.5257795"><ele>197.28571428571428</ele><time>2026-04-25T07:21:48.204Z</time></trkpt><trkpt lat="43.5266942" lon="11.5257104"><ele>199.85714285714283</ele><time>2026-04-25T07:21:51.2Z</time></trkpt><trkpt lat="43.5266552" lon="11.5256328"><ele>202.42857142857144</ele><time>2026-04-25T07:21:55.199Z</time></trkpt><trkpt lat="43.5265973" lon="11.5255758"><ele>205.0</ele><time>2026-04-25T07:21:58.197Z</time></trkpt><trkpt lat="43.52654" lon="11.5255245"><ele>205.0</ele><time>2026-04-25T07:22:01.199Z</time></trkpt><trkpt lat="43.5264797" lon="11.525459"><ele>205.0</ele><time>2026-04-25T07:22:05.206Z</time></trkpt><trkpt lat="43.5264329" lon="11.5253875"><ele>205.0</ele><time>2026-04-25T07:22:08.203Z</time></trkpt><trkpt lat="43.5263815" lon="11.5253217"><ele>205.0</ele><time>2026-04-25T07:22:11.199Z</time></trkpt><trkpt lat="43.5263279" lon="11.5252644"><ele>205.0</ele><time>2026-04-25T07:22:15.195Z</time></trkpt><trkpt lat="43.5262586" lon="11.52521"><ele>205.0</ele><time>2026-04-25T07:22:19.198Z</time></trkpt><trkpt lat="43.5261777" lon="11.5251774"><ele>205.0</ele><time>2026-04-25T07:22:22.201Z</time></trkpt><trkpt lat="43.5260925" lon="11.5251652"><ele>206.42857142857144</ele><time>2026-04-25T07:22:26.203Z</time></trkpt><trkpt lat="43.5260091" lon="11.5251585"><ele>207.85714285714283</ele><time>2026-04-25T07:22:29.204Z</time></trkpt><trkpt lat="43.5259286" lon="11.5251752"><ele>209.28571428571428</ele><time>2026-04-25T07:22:32.198Z</time></trkpt><trkpt lat="43.5258752" lon="11.5252217"><ele>210.71428571428572</ele><time>2026-04-25T07:22:35.199Z</time></trkpt><trkpt lat="43.5258095" lon="11.5252976"><ele>212.14285714285717</ele><time>2026-04-25T07:22:39.196Z</time></trkpt><trkpt lat="43.5257663" lon="11.5253686"><ele>213.57142857142856</ele><time>2026-04-25T07:22:42.202Z</time></trkpt><trkpt lat="43.5257427" lon="11.5254542"><ele>215.0</ele><time>2026-04-25T07:22:45.204Z</time></trkpt><trkpt lat="43.5257316" lon="11.5255558"><ele>215.00000000000003</ele><time>2026-04-25T07:22:48.209Z</time></trkpt><trkpt lat="43.5257356" lon="11.5256813"><ele>215.0</ele><time>2026-04-25T07:22:51.201Z</time></trkpt><trkpt lat="43.525744" lon="11.5257767"><ele>215.0</ele><time>2026-04-25T07:22:54.211Z</time></trkpt><trkpt lat="43.5257656" lon="11.5258733"><ele>215.0</ele><time>2026-04-25T07:22:57.208Z</time></trkpt><trkpt lat="43.5258041" lon="11.525971"><ele>215.00000000000003</ele><time>2026-04-25T07:23:03.209Z</time></trkpt><trkpt lat="43.5258274" lon="11.5260532"><ele>215.0</ele><time>2026-04-25T07:23:05.204Z</time></trkpt><trkpt lat="43.5258719" lon="11.5261336"><ele>215.00000000000003</ele><time>2026-04-25T07:23:07.212Z</time></trkpt><trkpt lat="43.5259005" lon="11.5262219"><ele>215.0</ele><time>2026-04-25T07:23:09.208Z</time></trkpt><trkpt lat="43.5258317" lon="11.5261947"><ele>215.0</ele><time>2026-04-25T07:26:53.213Z</time></trkpt><trkpt lat="43.5257787" lon="11.5261269"><ele>215.0</ele><time>2026-04-25T07:26:56.216Z</time></trkpt><trkpt lat="43.5257245" lon="11.5260643"><ele>215.00000000000003</ele><time>2026-04-25T07:26:59.21Z</time></trkpt><trkpt lat="43.5256662" lon="11.5259811"><ele>215.0</ele><time>2026-04-25T07:27:02.205Z</time></trkpt><trkpt lat="43.5255883" lon="11.5259112"><ele>215.00000000000003</ele><time>2026-04-25T07:27:05.214Z</time></trkpt><trkpt lat="43.5255192" lon="11.525857"><ele>215.0</ele><time>2026-04-25T07:27:08.214Z</time></trkpt><trkpt lat="43.5254393" lon="11.525809"><ele>215.0</ele><time>2026-04-25T07:27:11.211Z</time></trkpt><trkpt lat="43.5253765" lon="11.5257965"><ele>215.0</ele><time>2026-04-25T07:27:13.21Z</time></trkpt><trkpt lat="43.5252914" lon="11.5258006"><ele>215.00000000000003</ele><time>2026-04-25T07:27:16.212Z</time></trkpt><trkpt lat="43.5251956" lon="11.525819"><ele>215.0</ele><time>2026-04-25T07:27:19.215Z</time></trkpt><trkpt lat="43.5251306" lon="11.5258384"><ele>216.50000000000003</ele><time>2026-04-25T07:27:21.221Z</time></trkpt><trkpt lat="43.5250694" lon="11.5258639"><ele>218.0</ele><time>2026-04-25T07:27:23.218Z</time></trkpt><trkpt lat="43.5249843" lon="11.5258821"><ele>219.5</ele><time>2026-04-25T07:27:26.219Z</time></trkpt><trkpt lat="43.524902" lon="11.5258709"><ele>221.0</ele><time>2026-04-25T07:27:29.231Z</time></trkpt><trkpt lat="43.5248354" lon="11.525827"><ele>222.50000000000003</ele><time>2026-04-25T07:27:32.214Z</time></trkpt><trkpt lat="43.5247786" lon="11.5257452"><ele>224.0</ele><time>2026-04-25T07:27:35.219Z</time></trkpt><trkpt lat="43.5247417" lon="11.5256362"><ele>224.00000000000003</ele><time>2026-04-25T07:27:38.22Z</time></trkpt><trkpt lat="43.5247367" lon="11.5255366"><ele>224.0</ele><time>2026-04-25T07:27:41.217Z</time></trkpt><trkpt lat="43.5247295" lon="11.5254224"><ele>224.0</ele><time>2026-04-25T07:27:44.216Z</time></trkpt><trkpt lat="43.5247249" lon="11.5253015"><ele>224.0</ele><time>2026-04-25T07:27:47.212Z</time></trkpt><trkpt lat="43.5247203" lon="11.5251846"><ele>224.00000000000003</ele><time>2026-04-25T07:27:50.224Z</time></trkpt><trkpt lat="43.524725" lon="11.5250706"><ele>224.0</ele><time>2026-04-25T07:27:53.213Z</time></trkpt><trkpt lat="43.5247292" lon="11.5249512"><ele>225.33333333333334</ele><time>2026-04-25T07:27:56.215Z</time></trkpt><trkpt lat="43.5247146" lon="11.52483"><ele>226.66666666666669</ele><time>2026-04-25T07:27:59.218Z</time></trkpt><trkpt lat="43.5247143" lon="11.5247145"><ele>228.0</ele><time>2026-04-25T07:28:02.212Z</time></trkpt><trkpt lat="43.5247112" lon="11.5245978"><ele>229.33333333333331</ele><time>2026-04-25T07:28:05.212Z</time></trkpt><trkpt lat="43.5247129" lon="11.5244809"><ele>230.66666666666666</ele><time>2026-04-25T07:28:08.215Z</time></trkpt><trkpt lat="43.5247023" lon="11.524363"><ele>232.0</ele><time>2026-04-25T07:28:11.208Z</time></trkpt><trkpt lat="43.5246991" lon="11.5242484"><ele>231.99999999999997</ele><time>2026-04-25T07:28:14.212Z</time></trkpt><trkpt lat="43.5246826" lon="11.5241212"><ele>232.0</ele><time>2026-04-25T07:28:17.202Z</time></trkpt><trkpt lat="43.5246464" lon="11.5240098"><ele>232.0</ele><time>2026-04-25T07:28:20.205Z</time></trkpt><trkpt lat="43.5246214" lon="11.5239269"><ele>232.0</ele><time>2026-04-25T07:28:22.206Z</time></trkpt><trkpt lat="43.5245821" lon="11.5238316"><ele>231.99999999999997</ele><time>2026-04-25T07:28:25.206Z</time></trkpt><trkpt lat="43.5245394" lon="11.5237309"><ele>232.0</ele><time>2026-04-25T07:28:28.204Z</time></trkpt><trkpt lat="43.5244773" lon="11.5236438"><ele>233.66666666666666</ele><time>2026-04-25T07:28:31.236Z</time></trkpt><trkpt lat="43.5244082" lon="11.5235779"><ele>235.33333333333331</ele><time>2026-04-25T07:28:34.209Z</time></trkpt><trkpt lat="43.5243221" lon="11.5235299"><ele>237.0</ele><time>2026-04-25T07:28:37.21Z</time></trkpt><trkpt lat="43.5242592" lon="11.5235214"><ele>238.66666666666669</ele><time>2026-04-25T07:28:39.213Z</time></trkpt><trkpt lat="43.5241925" lon="11.5235265"><ele>240.33333333333334</ele><time>2026-04-25T07:28:41.213Z</time></trkpt><trkpt lat="43.5241059" lon="11.5235458"><ele>242.0</ele><time>2026-04-25T07:28:44.212Z</time></trkpt><trkpt lat="43.5240192" lon="11.5235639"><ele>242.0</ele><time>2026-04-25T07:28:47.21Z</time></trkpt><trkpt lat="43.523941" lon="11.5235874"><ele>241.99999999999997</ele><time>2026-04-25T07:28:50.209Z</time></trkpt><trkpt lat="43.5238758" lon="11.5236029"><ele>242.0</ele><time>2026-04-25T07:28:52.203Z</time></trkpt><trkpt lat="43.5238061" lon="11.5236181"><ele>242.0</ele><time>2026-04-25T07:28:54.205Z</time></trkpt><trkpt lat="43.523718" lon="11.5236516"><ele>241.99999999999997</ele><time>2026-04-25T07:28:57.209Z</time></trkpt><trkpt lat="43.5236528" lon="11.5236703"><ele>242.0</ele><time>2026-04-25T07:28:59.208Z</time></trkpt><trkpt lat="43.5235833" lon="11.5236887"><ele>242.0</ele><time>2026-04-25T07:29:01.223Z</time></trkpt><trkpt lat="43.5235216" lon="11.5237069"><ele>242.66666666666669</ele><time>2026-04-25T07:29:03.215Z</time></trkpt><trkpt lat="43.5234391" lon="11.5237252"><ele>243.33333333333334</ele><time>2026-04-25T07:29:06.21Z</time></trkpt><trkpt lat="43.5233525" lon="11.5237122"><ele>244.0</ele><time>2026-04-25T07:29:09.211Z</time></trkpt><trkpt lat="43.5232699" lon="11.5236416"><ele>244.66666666666669</ele><time>2026-04-25T07:29:12.215Z</time></trkpt><trkpt lat="43.5232209" lon="11.5235652"><ele>245.33333333333334</ele><time>2026-04-25T07:29:14.213Z</time></trkpt><trkpt lat="43.5231732" lon="11.5234808"><ele>246.0</ele><time>2026-04-25T07:29:16.221Z</time></trkpt><trkpt lat="43.5231367" lon="11.5233979"><ele>246.00000000000003</ele><time>2026-04-25T07:29:18.218Z</time></trkpt><trkpt lat="43.5231064" lon="11.5233152"><ele>246.0</ele><time>2026-04-25T07:29:20.22Z</time></trkpt><trkpt lat="43.5230769" lon="11.5232315"><ele>246.00000000000003</ele><time>2026-04-25T07:29:22.208Z</time></trkpt><trkpt lat="43.5230402" lon="11.5231543"><ele>246.00000000000003</ele><time>2026-04-25T07:29:24.203Z</time></trkpt><trkpt lat="43.523008" lon="11.5230742"><ele>246.0</ele><time>2026-04-25T07:29:26.21Z</time></trkpt><trkpt lat="43.5229731" lon="11.5229883"><ele>246.00000000000003</ele><time>2026-04-25T07:29:28.209Z</time></trkpt><trkpt lat="43.5229305" lon="11.522904"><ele>246.00000000000003</ele><time>2026-04-25T07:29:30.211Z</time></trkpt><trkpt lat="43.522891" lon="11.5228083"><ele>245.5</ele><time>2026-04-25T07:29:32.218Z</time></trkpt><trkpt lat="43.5228514" lon="11.5227256"><ele>245.0</ele><time>2026-04-25T07:29:34.22Z</time></trkpt><trkpt lat="43.52281" lon="11.522625"><ele>244.5</ele><time>2026-04-25T07:29:36.221Z</time></trkpt><trkpt lat="43.5227769" lon="11.5225325"><ele>244.0</ele><time>2026-04-25T07:29:38.219Z</time></trkpt><trkpt lat="43.5227352" lon="11.5224403"><ele>243.5</ele><time>2026-04-25T07:29:40.235Z</time></trkpt><trkpt lat="43.5226951" lon="11.5223485"><ele>243.0</ele><time>2026-04-25T07:29:42.229Z</time></trkpt><trkpt lat="43.5226581" lon="11.5222603"><ele>243.0</ele><time>2026-04-25T07:29:44.229Z</time></trkpt><trkpt lat="43.5226186" lon="11.5221692"><ele>243.0</ele><time>2026-04-25T07:29:46.229Z</time></trkpt><trkpt lat="43.5225746" lon="11.522077"><ele>243.0</ele><time>2026-04-25T07:29:48.227Z</time></trkpt><trkpt lat="43.5225352" lon="11.5219849"><ele>243.0</ele><time>2026-04-25T07:29:50.226Z</time></trkpt><trkpt lat="43.5224916" lon="11.5218859"><ele>243.0</ele><time>2026-04-25T07:29:52.22Z</time></trkpt><trkpt lat="43.5224464" lon="11.5217884"><ele>243.0</ele><time>2026-04-25T07:29:54.227Z</time></trkpt><trkpt lat="43.5224052" lon="11.5216893"><ele>243.5</ele><time>2026-04-25T07:29:56.225Z</time></trkpt><trkpt lat="43.5223633" lon="11.5215864"><ele>244.0</ele><time>2026-04-25T07:29:58.232Z</time></trkpt><trkpt lat="43.5223341" lon="11.5214835"><ele>244.5</ele><time>2026-04-25T07:30:00.223Z</time></trkpt><trkpt lat="43.5223123" lon="11.5213794"><ele>245.0</ele><time>2026-04-25T07:30:02.216Z</time></trkpt><trkpt lat="43.5222888" lon="11.5212854"><ele>245.5</ele><time>2026-04-25T07:30:04.223Z</time></trkpt><trkpt lat="43.5222732" lon="11.5211844"><ele>246.0</ele><time>2026-04-25T07:30:06.214Z</time></trkpt><trkpt lat="43.5222571" lon="11.521075"><ele>246.66666666666666</ele><time>2026-04-25T07:30:08.214Z</time></trkpt><trkpt lat="43.5222396" lon="11.5209653"><ele>247.33333333333331</ele><time>2026-04-25T07:30:10.217Z</time></trkpt><trkpt lat="43.5222211" lon="11.5208529"><ele>248.0</ele><time>2026-04-25T07:30:12.23Z</time></trkpt><trkpt lat="43.5222045" lon="11.5207394"><ele>248.66666666666666</ele><time>2026-04-25T07:30:14.215Z</time></trkpt><trkpt lat="43.5221875" lon="11.5206353"><ele>249.33333333333331</ele><time>2026-04-25T07:30:16.218Z</time></trkpt><trkpt lat="43.5221688" lon="11.5205364"><ele>250.0</ele><time>2026-04-25T07:30:18.219Z</time></trkpt><trkpt lat="43.522148" lon="11.5204362"><ele>250.49999999999997</ele><time>2026-04-25T07:30:20.221Z</time></trkpt><trkpt lat="43.5221297" lon="11.5203267"><ele>251.0</ele><time>2026-04-25T07:30:22.229Z</time></trkpt><trkpt lat="43.5221151" lon="11.5202221"><ele>251.5</ele><time>2026-04-25T07:30:24.216Z</time></trkpt><trkpt lat="43.5221035" lon="11.5201121"><ele>252.0</ele><time>2026-04-25T07:30:26.223Z</time></trkpt><trkpt lat="43.5220839" lon="11.5200132"><ele>252.49999999999997</ele><time>2026-04-25T07:30:28.219Z</time></trkpt><trkpt lat="43.5220612" lon="11.5199097"><ele>253.0</ele><time>2026-04-25T07:30:30.21Z</time></trkpt><trkpt lat="43.5220387" lon="11.5198022"><ele>252.99999999999997</ele><time>2026-04-25T07:30:32.221Z</time></trkpt><trkpt lat="43.5220307" lon="11.519707"><ele>253.0</ele><time>2026-04-25T07:30:34.21Z</time></trkpt><trkpt lat="43.5220181" lon="11.5195777"><ele>253.0</ele><time>2026-04-25T07:30:37.213Z</time></trkpt><trkpt lat="43.5220032" lon="11.5194825"><ele>253.0</ele><time>2026-04-25T07:30:39.21Z</time></trkpt><trkpt lat="43.5219862" lon="11.5193901"><ele>252.99999999999997</ele><time>2026-04-25T07:30:41.207Z</time></trkpt><trkpt lat="43.5219656" lon="11.5192821"><ele>253.0</ele><time>2026-04-25T07:30:43.206Z</time></trkpt><trkpt lat="43.5219527" lon="11.5191675"><ele>253.49999999999997</ele><time>2026-04-25T07:30:45.217Z</time></trkpt><trkpt lat="43.5219412" lon="11.519054"><ele>254.0</ele><time>2026-04-25T07:30:47.211Z</time></trkpt><trkpt lat="43.5219329" lon="11.5189418"><ele>254.5</ele><time>2026-04-25T07:30:49.208Z</time></trkpt><trkpt lat="43.5219207" lon="11.5188308"><ele>255.0</ele><time>2026-04-25T07:30:51.21Z</time></trkpt><trkpt lat="43.5219006" lon="11.5187255"><ele>255.49999999999997</ele><time>2026-04-25T07:30:53.209Z</time></trkpt><trkpt lat="43.5218753" lon="11.5186268"><ele>256.0</ele><time>2026-04-25T07:30:55.205Z</time></trkpt><trkpt lat="43.5218606" lon="11.518529"><ele>256.66666666666663</ele><time>2026-04-25T07:30:57.21Z</time></trkpt><trkpt lat="43.5218392" lon="11.5184303"><ele>257.3333333333333</ele><time>2026-04-25T07:30:59.205Z</time></trkpt><trkpt lat="43.5218185" lon="11.5183386"><ele>258.0</ele><time>2026-04-25T07:31:01.208Z</time></trkpt><trkpt lat="43.5217959" lon="11.5182368"><ele>258.6666666666667</ele><time>2026-04-25T07:31:03.207Z</time></trkpt><trkpt lat="43.5217724" lon="11.5181313"><ele>259.33333333333337</ele><time>2026-04-25T07:31:05.209Z</time></trkpt><trkpt lat="43.5217588" lon="11.5180286"><ele>260.0</ele><time>2026-04-25T07:31:07.208Z</time></trkpt><trkpt lat="43.5217419" lon="11.5179295"><ele>260.5</ele><time>2026-04-25T07:31:09.198Z</time></trkpt><trkpt lat="43.5217252" lon="11.5178352"><ele>261.0</ele><time>2026-04-25T07:31:11.208Z</time></trkpt><trkpt lat="43.5217036" lon="11.5177462"><ele>261.5</ele><time>2026-04-25T07:31:13.209Z</time></trkpt><trkpt lat="43.5216669" lon="11.5176542"><ele>262.0</ele><time>2026-04-25T07:31:15.207Z</time></trkpt><trkpt lat="43.5216334" lon="11.5175625"><ele>262.5</ele><time>2026-04-25T07:31:17.211Z</time></trkpt><trkpt lat="43.5215832" lon="11.517481"><ele>263.0</ele><time>2026-04-25T07:31:19.208Z</time></trkpt><trkpt lat="43.5215108" lon="11.5174141"><ele>263.0</ele><time>2026-04-25T07:31:21.216Z</time></trkpt><trkpt lat="43.5214412" lon="11.5173547"><ele>263.0</ele><time>2026-04-25T07:31:23.22Z</time></trkpt><trkpt lat="43.5213776" lon="11.517318"><ele>263.0</ele><time>2026-04-25T07:31:25.22Z</time></trkpt><trkpt lat="43.5213068" lon="11.5172963"><ele>263.0</ele><time>2026-04-25T07:31:27.217Z</time></trkpt><trkpt lat="43.5212296" lon="11.5172954"><ele>263.0</ele><time>2026-04-25T07:31:29.213Z</time></trkpt><trkpt lat="43.5211559" lon="11.5172936"><ele>263.0</ele><time>2026-04-25T07:31:31.21Z</time></trkpt><trkpt lat="43.5210761" lon="11.5172798"><ele>263.33333333333337</ele><time>2026-04-25T07:31:33.224Z</time></trkpt><trkpt lat="43.5210016" lon="11.5172712"><ele>263.6666666666667</ele><time>2026-04-25T07:31:35.209Z</time></trkpt><trkpt lat="43.5209153" lon="11.5172587"><ele>264.0</ele><time>2026-04-25T07:31:37.236Z</time></trkpt><trkpt lat="43.5208306" lon="11.5172486"><ele>264.3333333333333</ele><time>2026-04-25T07:31:39.216Z</time></trkpt><trkpt lat="43.520752" lon="11.5172431"><ele>264.66666666666663</ele><time>2026-04-25T07:31:41.205Z</time></trkpt><trkpt lat="43.5206714" lon="11.5172369"><ele>265.0</ele><time>2026-04-25T07:31:43.215Z</time></trkpt><trkpt lat="43.5205963" lon="11.5172185"><ele>265.0</ele><time>2026-04-25T07:31:45.204Z</time></trkpt><trkpt lat="43.5205142" lon="11.5171918"><ele>265.0</ele><time>2026-04-25T07:31:47.208Z</time></trkpt><trkpt lat="43.5204351" lon="11.5171843"><ele>265.0</ele><time>2026-04-25T07:31:49.201Z</time></trkpt><trkpt lat="43.520338" lon="11.5171887"><ele>265.0</ele><time>2026-04-25T07:31:51.19Z</time></trkpt><trkpt lat="43.5202359" lon="11.5171857"><ele>265.0</ele><time>2026-04-25T07:31:53.184Z</time></trkpt><trkpt lat="43.52014" lon="11.5171759"><ele>264.8333333333333</ele><time>2026-04-25T07:31:55.195Z</time></trkpt><trkpt lat="43.5200464" lon="11.5171666"><ele>264.66666666666663</ele><time>2026-04-25T07:31:57.197Z</time></trkpt><trkpt lat="43.5199646" lon="11.5171642"><ele>264.5</ele><time>2026-04-25T07:31:59.205Z</time></trkpt><trkpt lat="43.5198793" lon="11.5171515"><ele>264.3333333333333</ele><time>2026-04-25T07:32:01.202Z</time></trkpt><trkpt lat="43.5197989" lon="11.5171362"><ele>264.1666666666667</ele><time>2026-04-25T07:32:03.208Z</time></trkpt><trkpt lat="43.5197245" lon="11.5171301"><ele>264.0</ele><time>2026-04-25T07:32:05.213Z</time></trkpt><trkpt lat="43.5196572" lon="11.5171205"><ele>263.8</ele><time>2026-04-25T07:32:07.231Z</time></trkpt><trkpt lat="43.5195552" lon="11.5170989"><ele>263.59999999999997</ele><time>2026-04-25T07:32:10.214Z</time></trkpt><trkpt lat="43.5194641" lon="11.5170805"><ele>263.4</ele><time>2026-04-25T07:32:12.223Z</time></trkpt><trkpt lat="43.5193799" lon="11.517052"><ele>263.2</ele><time>2026-04-25T07:32:14.218Z</time></trkpt><trkpt lat="43.5192963" lon="11.5170153"><ele>263.0</ele><time>2026-04-25T07:32:16.225Z</time></trkpt><trkpt lat="43.5192133" lon="11.5169751"><ele>263.83333333333337</ele><time>2026-04-25T07:32:18.218Z</time></trkpt><trkpt lat="43.5191357" lon="11.516929"><ele>264.6666666666667</ele><time>2026-04-25T07:32:20.223Z</time></trkpt><trkpt lat="43.5190624" lon="11.5168743"><ele>265.5</ele><time>2026-04-25T07:32:22.228Z</time></trkpt><trkpt lat="43.5189855" lon="11.516806"><ele>266.3333333333333</ele><time>2026-04-25T07:32:24.224Z</time></trkpt><trkpt lat="43.5189265" lon="11.5167386"><ele>267.16666666666663</ele><time>2026-04-25T07:32:26.235Z</time></trkpt><trkpt lat="43.5188736" lon="11.5166719"><ele>268.0</ele><time>2026-04-25T07:32:28.223Z</time></trkpt><trkpt lat="43.5188238" lon="11.5165952"><ele>268.0</ele><time>2026-04-25T07:32:30.222Z</time></trkpt><trkpt lat="43.5187706" lon="11.5165123"><ele>268.0</ele><time>2026-04-25T07:32:32.217Z</time></trkpt><trkpt lat="43.5187138" lon="11.5164266"><ele>268.0</ele><time>2026-04-25T07:32:34.221Z</time></trkpt><trkpt lat="43.5186535" lon="11.5163313"><ele>268.0</ele><time>2026-04-25T07:32:36.221Z</time></trkpt><trkpt lat="43.5185893" lon="11.5162383"><ele>268.0</ele><time>2026-04-25T07:32:38.233Z</time></trkpt><trkpt lat="43.5185236" lon="11.516147"><ele>268.0</ele><time>2026-04-25T07:32:40.22Z</time></trkpt><trkpt lat="43.5184642" lon="11.5160542"><ele>268.0</ele><time>2026-04-25T07:32:42.224Z</time></trkpt><trkpt lat="43.5184041" lon="11.5159548"><ele>268.0</ele><time>2026-04-25T07:32:44.22Z</time></trkpt><trkpt lat="43.5183457" lon="11.5158604"><ele>268.0</ele><time>2026-04-25T07:32:46.224Z</time></trkpt><trkpt lat="43.5182902" lon="11.5157635"><ele>268.0</ele><time>2026-04-25T07:32:48.232Z</time></trkpt><trkpt lat="43.5182454" lon="11.5156626"><ele>268.0</ele><time>2026-04-25T07:32:50.224Z</time></trkpt><trkpt lat="43.5182002" lon="11.5155624"><ele>268.0</ele><time>2026-04-25T07:32:52.225Z</time></trkpt><trkpt lat="43.5181594" lon="11.5154529"><ele>268.3333333333333</ele><time>2026-04-25T07:32:54.22Z</time></trkpt><trkpt lat="43.5181214" lon="11.5153406"><ele>268.66666666666663</ele><time>2026-04-25T07:32:56.225Z</time></trkpt><trkpt lat="43.518081" lon="11.5152262"><ele>269.0</ele><time>2026-04-25T07:32:58.22Z</time></trkpt><trkpt lat="43.5180499" lon="11.5151085"><ele>269.3333333333333</ele><time>2026-04-25T07:33:00.224Z</time></trkpt><trkpt lat="43.5180238" lon="11.5149987"><ele>269.6666666666667</ele><time>2026-04-25T07:33:02.22Z</time></trkpt><trkpt lat="43.5179987" lon="11.5148831"><ele>270.0</ele><time>2026-04-25T07:33:04.218Z</time></trkpt><trkpt lat="43.5179867" lon="11.5147611"><ele>270.0</ele><time>2026-04-25T07:33:06.218Z</time></trkpt><trkpt lat="43.517972" lon="11.514648"><ele>270.0</ele><time>2026-04-25T07:33:08.216Z</time></trkpt><trkpt lat="43.517959" lon="11.5145391"><ele>270.0</ele><time>2026-04-25T07:33:10.221Z</time></trkpt><trkpt lat="43.517948" lon="11.5144249"><ele>270.0</ele><time>2026-04-25T07:33:12.224Z</time></trkpt><trkpt lat="43.5179468" lon="11.5143013"><ele>270.0</ele><time>2026-04-25T07:33:14.215Z</time></trkpt><trkpt lat="43.5179527" lon="11.5141897"><ele>270.0</ele><time>2026-04-25T07:33:16.216Z</time></trkpt><trkpt lat="43.5179568" lon="11.5140782"><ele>270.1666666666667</ele><time>2026-04-25T07:33:18.222Z</time></trkpt><trkpt lat="43.5179591" lon="11.5139627"><ele>270.3333333333333</ele><time>2026-04-25T07:33:20.224Z</time></trkpt><trkpt lat="43.5179678" lon="11.513855"><ele>270.5</ele><time>2026-04-25T07:33:22.221Z</time></trkpt><trkpt lat="43.5179817" lon="11.5137389"><ele>270.66666666666663</ele><time>2026-04-25T07:33:24.215Z</time></trkpt><trkpt lat="43.5179935" lon="11.5136206"><ele>270.8333333333333</ele><time>2026-04-25T07:33:26.217Z</time></trkpt><trkpt lat="43.5180018" lon="11.513513"><ele>271.0</ele><time>2026-04-25T07:33:28.229Z</time></trkpt><trkpt lat="43.5180089" lon="11.5133954"><ele>271.0</ele><time>2026-04-25T07:33:30.215Z</time></trkpt><trkpt lat="43.5180141" lon="11.5132785"><ele>271.0</ele><time>2026-04-25T07:33:32.222Z</time></trkpt><trkpt lat="43.5180232" lon="11.5131621"><ele>271.0</ele><time>2026-04-25T07:33:34.219Z</time></trkpt><trkpt lat="43.5180313" lon="11.5130472"><ele>271.0</ele><time>2026-04-25T07:33:36.228Z</time></trkpt><trkpt lat="43.5180422" lon="11.5129353"><ele>271.0</ele><time>2026-04-25T07:33:38.229Z</time></trkpt><trkpt lat="43.5180522" lon="11.512822"><ele>271.0</ele><time>2026-04-25T07:33:40.238Z</time></trkpt><trkpt lat="43.5180624" lon="11.5127043"><ele>271.3333333333333</ele><time>2026-04-25T07:33:42.228Z</time></trkpt><trkpt lat="43.5180687" lon="11.5125809"><ele>271.66666666666663</ele><time>2026-04-25T07:33:44.227Z</time></trkpt><trkpt lat="43.5180695" lon="11.5124611"><ele>272.0</ele><time>2026-04-25T07:33:46.222Z</time></trkpt><trkpt lat="43.5180677" lon="11.5123478"><ele>272.3333333333333</ele><time>2026-04-25T07:33:48.221Z</time></trkpt><trkpt lat="43.5180599" lon="11.5122373"><ele>272.6666666666667</ele><time>2026-04-25T07:33:50.221Z</time></trkpt><trkpt lat="43.5180494" lon="11.5121192"><ele>273.0</ele><time>2026-04-25T07:33:52.227Z</time></trkpt><trkpt lat="43.5180386" lon="11.5120005"><ele>273.3333333333333</ele><time>2026-04-25T07:33:54.229Z</time></trkpt><trkpt lat="43.5180303" lon="11.5118904"><ele>273.6666666666667</ele><time>2026-04-25T07:33:56.228Z</time></trkpt><trkpt lat="43.5180242" lon="11.5117858"><ele>274.0</ele><time>2026-04-25T07:33:58.229Z</time></trkpt><trkpt lat="43.5180188" lon="11.5116807"><ele>274.33333333333337</ele><time>2026-04-25T07:34:00.227Z</time></trkpt><trkpt lat="43.5180125" lon="11.5115725"><ele>274.6666666666667</ele><time>2026-04-25T07:34:02.227Z</time></trkpt><trkpt lat="43.5180091" lon="11.5114651"><ele>275.0</ele><time>2026-04-25T07:34:04.231Z</time></trkpt><trkpt lat="43.5180044" lon="11.511347"><ele>275.0</ele><time>2026-04-25T07:34:06.236Z</time></trkpt><trkpt lat="43.5179975" lon="11.5112334"><ele>275.0</ele><time>2026-04-25T07:34:08.224Z</time></trkpt><trkpt lat="43.5179899" lon="11.5111277"><ele>275.0</ele><time>2026-04-25T07:34:10.231Z</time></trkpt><trkpt lat="43.5179816" lon="11.5110246"><ele>275.0</ele><time>2026-04-25T07:34:12.228Z</time></trkpt><trkpt lat="43.5179794" lon="11.5109187"><ele>275.0</ele><time>2026-04-25T07:34:14.226Z</time></trkpt><trkpt lat="43.5179769" lon="11.5108073"><ele>275.0</ele><time>2026-04-25T07:34:16.236Z</time></trkpt><trkpt lat="43.5179677" lon="11.5106932"><ele>275.0</ele><time>2026-04-25T07:34:18.222Z</time></trkpt><trkpt lat="43.5179647" lon="11.5105899"><ele>275.0</ele><time>2026-04-25T07:34:20.223Z</time></trkpt><trkpt lat="43.517957" lon="11.5104866"><ele>275.0</ele><time>2026-04-25T07:34:22.224Z</time></trkpt><trkpt lat="43.517949" lon="11.5103819"><ele>275.0</ele><time>2026-04-25T07:34:24.228Z</time></trkpt><trkpt lat="43.5179397" lon="11.5102656"><ele>275.0</ele><time>2026-04-25T07:34:26.224Z</time></trkpt><trkpt lat="43.517936" lon="11.5101618"><ele>275.0</ele><time>2026-04-25T07:34:28.224Z</time></trkpt><trkpt lat="43.5179303" lon="11.5100564"><ele>274.83333333333337</ele><time>2026-04-25T07:34:30.224Z</time></trkpt><trkpt lat="43.5179195" lon="11.5099461"><ele>274.6666666666667</ele><time>2026-04-25T07:34:32.227Z</time></trkpt><trkpt lat="43.5179012" lon="11.5098351"><ele>274.5</ele><time>2026-04-25T07:34:34.228Z</time></trkpt><trkpt lat="43.5178786" lon="11.5097211"><ele>274.3333333333333</ele><time>2026-04-25T07:34:36.226Z</time></trkpt><trkpt lat="43.5178544" lon="11.5096106"><ele>274.16666666666663</ele><time>2026-04-25T07:34:38.229Z</time></trkpt><trkpt lat="43.51783" lon="11.509506"><ele>274.0</ele><time>2026-04-25T07:34:40.228Z</time></trkpt><trkpt lat="43.5177981" lon="11.5094076"><ele>274.8333333333333</ele><time>2026-04-25T07:34:42.252Z</time></trkpt><trkpt lat="43.5177689" lon="11.5093046"><ele>275.66666666666663</ele><time>2026-04-25T07:34:44.237Z</time></trkpt><trkpt lat="43.5177331" lon="11.5091992"><ele>276.5</ele><time>2026-04-25T07:34:46.232Z</time></trkpt><trkpt lat="43.5176959" lon="11.5091"><ele>277.3333333333333</ele><time>2026-04-25T07:34:48.235Z</time></trkpt><trkpt lat="43.5176589" lon="11.5090014"><ele>278.1666666666667</ele><time>2026-04-25T07:34:50.234Z</time></trkpt><trkpt lat="43.5176168" lon="11.5089008"><ele>279.0</ele><time>2026-04-25T07:34:52.23Z</time></trkpt><trkpt lat="43.5175781" lon="11.5088046"><ele>278.8333333333333</ele><time>2026-04-25T07:34:54.233Z</time></trkpt><trkpt lat="43.5175391" lon="11.5087072"><ele>278.6666666666667</ele><time>2026-04-25T07:34:56.26Z</time></trkpt><trkpt lat="43.5175048" lon="11.5086075"><ele>278.5</ele><time>2026-04-25T07:34:58.26Z</time></trkpt><trkpt lat="43.5174664" lon="11.5085125"><ele>278.33333333333337</ele><time>2026-04-25T07:35:00.254Z</time></trkpt><trkpt lat="43.5174367" lon="11.5084159"><ele>278.1666666666667</ele><time>2026-04-25T07:35:02.252Z</time></trkpt><trkpt lat="43.5173966" lon="11.508316"><ele>278.0</ele><time>2026-04-25T07:35:04.253Z</time></trkpt><trkpt lat="43.5173513" lon="11.5082212"><ele>278.0</ele><time>2026-04-25T07:35:06.252Z</time></trkpt><trkpt lat="43.5173109" lon="11.5081345"><ele>278.0</ele><time>2026-04-25T07:35:08.248Z</time></trkpt><trkpt lat="43.5172684" lon="11.5080512"><ele>278.0</ele><time>2026-04-25T07:35:10.254Z</time></trkpt><trkpt lat="43.5172181" lon="11.5079814"><ele>278.0</ele><time>2026-04-25T07:35:12.256Z</time></trkpt><trkpt lat="43.5171604" lon="11.5079267"><ele>278.0</ele><time>2026-04-25T07:35:14.226Z</time></trkpt><trkpt lat="43.5170993" lon="11.5078724"><ele>278.0</ele><time>2026-04-25T07:35:16.221Z</time></trkpt><trkpt lat="43.5170339" lon="11.5078177"><ele>278.0</ele><time>2026-04-25T07:35:18.223Z</time></trkpt><trkpt lat="43.5169569" lon="11.507769"><ele>279.6</ele><time>2026-04-25T07:35:20.229Z</time></trkpt><trkpt lat="43.5168727" lon="11.5077041"><ele>281.20000000000005</ele><time>2026-04-25T07:35:22.223Z</time></trkpt><trkpt lat="43.5167883" lon="11.5076485"><ele>282.8</ele><time>2026-04-25T07:35:24.237Z</time></trkpt><trkpt lat="43.5166971" lon="11.5075941"><ele>284.40000000000003</ele><time>2026-04-25T07:35:26.243Z</time></trkpt><trkpt lat="43.5166094" lon="11.5075421"><ele>286.0</ele><time>2026-04-25T07:35:28.239Z</time></trkpt><trkpt lat="43.516531" lon="11.5074916"><ele>286.0</ele><time>2026-04-25T07:35:30.226Z</time></trkpt><trkpt lat="43.5164568" lon="11.50743"><ele>286.0</ele><time>2026-04-25T07:35:32.247Z</time></trkpt><trkpt lat="43.5163864" lon="11.5073606"><ele>286.0</ele><time>2026-04-25T07:35:34.22Z</time></trkpt><trkpt lat="43.5163362" lon="11.5072733"><ele>286.0</ele><time>2026-04-25T07:35:36.214Z</time></trkpt><trkpt lat="43.5162864" lon="11.5071555"><ele>286.0</ele><time>2026-04-25T07:35:38.223Z</time></trkpt><trkpt lat="43.5162424" lon="11.5070337"><ele>285.8</ele><time>2026-04-25T07:35:40.213Z</time></trkpt><trkpt lat="43.5162103" lon="11.5069132"><ele>285.6</ele><time>2026-04-25T07:35:42.211Z</time></trkpt><trkpt lat="43.5161756" lon="11.5067867"><ele>285.4</ele><time>2026-04-25T07:35:44.238Z</time></trkpt><trkpt lat="43.5161342" lon="11.50666"><ele>285.2</ele><time>2026-04-25T07:35:46.213Z</time></trkpt><trkpt lat="43.5160925" lon="11.5065371"><ele>285.0</ele><time>2026-04-25T07:35:48.214Z</time></trkpt><trkpt lat="43.516055" lon="11.5064052"><ele>285.0</ele><time>2026-04-25T07:35:50.212Z</time></trkpt><trkpt lat="43.5160163" lon="11.5062702"><ele>285.0</ele><time>2026-04-25T07:35:52.207Z</time></trkpt><trkpt lat="43.5159788" lon="11.5061368"><ele>285.0</ele><time>2026-04-25T07:35:54.21Z</time></trkpt><trkpt lat="43.5159379" lon="11.5060147"><ele>285.0</ele><time>2026-04-25T07:35:56.214Z</time></trkpt><trkpt lat="43.5158906" lon="11.5058863"><ele>285.0</ele><time>2026-04-25T07:35:58.206Z</time></trkpt><trkpt lat="43.5158465" lon="11.5057573"><ele>285.4</ele><time>2026-04-25T07:36:00.212Z</time></trkpt><trkpt lat="43.5158012" lon="11.5056296"><ele>285.8</ele><time>2026-04-25T07:36:02.209Z</time></trkpt><trkpt lat="43.5157609" lon="11.5055122"><ele>286.2</ele><time>2026-04-25T07:36:04.205Z</time></trkpt><trkpt lat="43.5157286" lon="11.5054048"><ele>286.6</ele><time>2026-04-25T07:36:06.219Z</time></trkpt><trkpt lat="43.5157096" lon="11.5052887"><ele>287.0</ele><time>2026-04-25T07:36:08.219Z</time></trkpt><trkpt lat="43.515692" lon="11.5051612"><ele>287.2</ele><time>2026-04-25T07:36:10.204Z</time></trkpt><trkpt lat="43.5156848" lon="11.5050307"><ele>287.4</ele><time>2026-04-25T07:36:12.215Z</time></trkpt><trkpt lat="43.5156894" lon="11.5048975"><ele>287.6</ele><time>2026-04-25T07:36:14.209Z</time></trkpt><trkpt lat="43.5156928" lon="11.5047558"><ele>287.8</ele><time>2026-04-25T07:36:16.217Z</time></trkpt><trkpt lat="43.5156992" lon="11.5046123"><ele>288.0</ele><time>2026-04-25T07:36:18.213Z</time></trkpt><trkpt lat="43.5157102" lon="11.504474"><ele>288.0</ele><time>2026-04-25T07:36:20.214Z</time></trkpt><trkpt lat="43.5157179" lon="11.5043406"><ele>288.0</ele><time>2026-04-25T07:36:22.215Z</time></trkpt><trkpt lat="43.5157244" lon="11.5041964"><ele>288.0</ele><time>2026-04-25T07:36:24.216Z</time></trkpt><trkpt lat="43.5157364" lon="11.5040564"><ele>288.0</ele><time>2026-04-25T07:36:26.217Z</time></trkpt><trkpt lat="43.5157549" lon="11.503912"><ele>288.0</ele><time>2026-04-25T07:36:28.216Z</time></trkpt><trkpt lat="43.515784" lon="11.5037611"><ele>287.2</ele><time>2026-04-25T07:36:30.214Z</time></trkpt><trkpt lat="43.5158219" lon="11.5036127"><ele>286.4</ele><time>2026-04-25T07:36:32.209Z</time></trkpt><trkpt lat="43.5158576" lon="11.5034698"><ele>285.59999999999997</ele><time>2026-04-25T07:36:34.208Z</time></trkpt><trkpt lat="43.5159137" lon="11.5033306"><ele>284.8</ele><time>2026-04-25T07:36:36.209Z</time></trkpt><trkpt lat="43.5159515" lon="11.5032591"><ele>284.0</ele><time>2026-04-25T07:36:37.209Z</time></trkpt><trkpt lat="43.5160426" lon="11.503136"><ele>284.0</ele><time>2026-04-25T07:36:39.216Z</time></trkpt><trkpt lat="43.5160821" lon="11.5030664"><ele>284.0</ele><time>2026-04-25T07:36:40.215Z</time></trkpt><trkpt lat="43.5161147" lon="11.5029871"><ele>284.0</ele><time>2026-04-25T07:36:41.216Z</time></trkpt><trkpt lat="43.5161391" lon="11.5028977"><ele>284.0</ele><time>2026-04-25T07:36:42.221Z</time></trkpt><trkpt lat="43.5161452" lon="11.5028036"><ele>284.0</ele><time>2026-04-25T07:36:43.219Z</time></trkpt><trkpt lat="43.5161372" lon="11.5027062"><ele>284.0</ele><time>2026-04-25T07:36:44.212Z</time></trkpt><trkpt lat="43.5161126" lon="11.5026178"><ele>284.0</ele><time>2026-04-25T07:36:45.229Z</time></trkpt><trkpt lat="43.5160751" lon="11.5025425"><ele>284.0</ele><time>2026-04-25T07:36:46.219Z</time></trkpt><trkpt lat="43.5159846" lon="11.5024278"><ele>284.0</ele><time>2026-04-25T07:36:48.24Z</time></trkpt><trkpt lat="43.5158893" lon="11.5023515"><ele>284.0</ele><time>2026-04-25T07:36:50.227Z</time></trkpt><trkpt lat="43.5157867" lon="11.5023351"><ele>284.0</ele><time>2026-04-25T07:36:52.219Z</time></trkpt><trkpt lat="43.5156858" lon="11.5023581"><ele>284.0</ele><time>2026-04-25T07:36:54.217Z</time></trkpt><trkpt lat="43.5156049" lon="11.5023958"><ele>284.0</ele><time>2026-04-25T07:36:56.23Z</time></trkpt><trkpt lat="43.5155261" lon="11.5024349"><ele>284.0</ele><time>2026-04-25T07:36:58.227Z</time></trkpt><trkpt lat="43.5154444" lon="11.5024485"><ele>284.0</ele><time>2026-04-25T07:37:00.22Z</time></trkpt><trkpt lat="43.5153781" lon="11.5024413"><ele>284.0</ele><time>2026-04-25T07:37:02.226Z</time></trkpt><trkpt lat="43.5153184" lon="11.5024077"><ele>284.0</ele><time>2026-04-25T07:37:04.22Z</time></trkpt><trkpt lat="43.515257" lon="11.5023474"><ele>284.0</ele><time>2026-04-25T07:37:06.216Z</time></trkpt><trkpt lat="43.5152021" lon="11.5022721"><ele>284.6666666666667</ele><time>2026-04-25T07:37:08.214Z</time></trkpt><trkpt lat="43.5151476" lon="11.5021803"><ele>285.33333333333337</ele><time>2026-04-25T07:37:10.218Z</time></trkpt><trkpt lat="43.5150905" lon="11.5020874"><ele>286.0</ele><time>2026-04-25T07:37:12.222Z</time></trkpt><trkpt lat="43.515028" lon="11.5020002"><ele>286.6666666666667</ele><time>2026-04-25T07:37:14.216Z</time></trkpt><trkpt lat="43.5149746" lon="11.5019108"><ele>287.3333333333333</ele><time>2026-04-25T07:37:16.239Z</time></trkpt><trkpt lat="43.5149301" lon="11.5018215"><ele>288.0</ele><time>2026-04-25T07:37:18.228Z</time></trkpt><trkpt lat="43.5148902" lon="11.5017187"><ele>288.8</ele><time>2026-04-25T07:37:20.224Z</time></trkpt><trkpt lat="43.514846" lon="11.5016017"><ele>289.6</ele><time>2026-04-25T07:37:22.226Z</time></trkpt><trkpt lat="43.514799" lon="11.5014731"><ele>290.4</ele><time>2026-04-25T07:37:24.226Z</time></trkpt><trkpt lat="43.5147502" lon="11.5013234"><ele>291.2</ele><time>2026-04-25T07:37:26.222Z</time></trkpt><trkpt lat="43.5147239" lon="11.5012394"><ele>292.0</ele><time>2026-04-25T07:37:27.222Z</time></trkpt><trkpt lat="43.5147008" lon="11.501153"><ele>292.0</ele><time>2026-04-25T07:37:28.213Z</time></trkpt><trkpt lat="43.5146789" lon="11.50107"><ele>292.0</ele><time>2026-04-25T07:37:29.219Z</time></trkpt><trkpt lat="43.5146484" lon="11.5009077"><ele>292.0</ele><time>2026-04-25T07:37:31.216Z</time></trkpt><trkpt lat="43.5146119" lon="11.5007554"><ele>292.0</ele><time>2026-04-25T07:37:33.224Z</time></trkpt><trkpt lat="43.5145779" lon="11.5006193"><ele>292.0</ele><time>2026-04-25T07:37:35.214Z</time></trkpt><trkpt lat="43.5145424" lon="11.500502"><ele>291.66666666666663</ele><time>2026-04-25T07:37:37.218Z</time></trkpt><trkpt lat="43.5145108" lon="11.5003916"><ele>291.3333333333333</ele><time>2026-04-25T07:37:39.226Z</time></trkpt><trkpt lat="43.514481" lon="11.5002804"><ele>291.0</ele><time>2026-04-25T07:37:41.227Z</time></trkpt><trkpt lat="43.5144494" lon="11.5001792"><ele>290.6666666666667</ele><time>2026-04-25T07:37:43.225Z</time></trkpt><trkpt lat="43.5144181" lon="11.500074"><ele>290.33333333333337</ele><time>2026-04-25T07:37:45.232Z</time></trkpt><trkpt lat="43.5143867" lon="11.49997"><ele>290.0</ele><time>2026-04-25T07:37:47.242Z</time></trkpt><trkpt lat="43.5143606" lon="11.4998596"><ele>290.0</ele><time>2026-04-25T07:37:49.223Z</time></trkpt><trkpt lat="43.5143398" lon="11.4997488"><ele>290.0</ele><time>2026-04-25T07:37:51.226Z</time></trkpt><trkpt lat="43.5143194" lon="11.4996402"><ele>290.0</ele><time>2026-04-25T07:37:53.238Z</time></trkpt><trkpt lat="43.5142973" lon="11.4995327"><ele>290.0</ele><time>2026-04-25T07:37:55.23Z</time></trkpt><trkpt lat="43.5142815" lon="11.4994189"><ele>290.0</ele><time>2026-04-25T07:37:57.228Z</time></trkpt><trkpt lat="43.5142718" lon="11.4993017"><ele>290.0</ele><time>2026-04-25T07:37:59.244Z</time></trkpt><trkpt lat="43.5142446" lon="11.4991875"><ele>290.4</ele><time>2026-04-25T07:38:01.225Z</time></trkpt><trkpt lat="43.5142092" lon="11.4990753"><ele>290.8</ele><time>2026-04-25T07:38:03.232Z</time></trkpt><trkpt lat="43.5141716" lon="11.4989636"><ele>291.2</ele><time>2026-04-25T07:38:05.23Z</time></trkpt><trkpt lat="43.5141351" lon="11.4988429"><ele>291.6</ele><time>2026-04-25T07:38:07.226Z</time></trkpt><trkpt lat="43.5141074" lon="11.4987255"><ele>292.0</ele><time>2026-04-25T07:38:09.239Z</time></trkpt><trkpt lat="43.5140802" lon="11.4986102"><ele>292.4</ele><time>2026-04-25T07:38:11.234Z</time></trkpt><trkpt lat="43.5140517" lon="11.4984903"><ele>292.79999999999995</ele><time>2026-04-25T07:38:13.227Z</time></trkpt><trkpt lat="43.5140172" lon="11.4983685"><ele>293.2</ele><time>2026-04-25T07:38:15.22Z</time></trkpt><trkpt lat="43.5139863" lon="11.4982479"><ele>293.59999999999997</ele><time>2026-04-25T07:38:17.22Z</time></trkpt><trkpt lat="43.5139591" lon="11.4981302"><ele>294.0</ele><time>2026-04-25T07:38:19.228Z</time></trkpt><trkpt lat="43.5139327" lon="11.4980156"><ele>294.1666666666667</ele><time>2026-04-25T07:38:21.222Z</time></trkpt><trkpt lat="43.5139065" lon="11.4979004"><ele>294.3333333333333</ele><time>2026-04-25T07:38:23.225Z</time></trkpt><trkpt lat="43.5138779" lon="11.497784"><ele>294.5</ele><time>2026-04-25T07:38:25.23Z</time></trkpt><trkpt lat="43.5138555" lon="11.497678"><ele>294.66666666666663</ele><time>2026-04-25T07:38:27.231Z</time></trkpt><trkpt lat="43.5138325" lon="11.4975603"><ele>294.8333333333333</ele><time>2026-04-25T07:38:29.226Z</time></trkpt><trkpt lat="43.513812" lon="11.4974441"><ele>295.0</ele><time>2026-04-25T07:38:31.225Z</time></trkpt><trkpt lat="43.5137793" lon="11.4973213"><ele>295.0</ele><time>2026-04-25T07:38:33.219Z</time></trkpt><trkpt lat="43.5137527" lon="11.4971773"><ele>295.0</ele><time>2026-04-25T07:38:35.217Z</time></trkpt><trkpt lat="43.513736" lon="11.4970297"><ele>295.0</ele><time>2026-04-25T07:38:37.217Z</time></trkpt><trkpt lat="43.5137128" lon="11.4968741"><ele>295.0</ele><time>2026-04-25T07:38:39.21Z</time></trkpt><trkpt lat="43.5136757" lon="11.4967191"><ele>294.3333333333333</ele><time>2026-04-25T07:38:41.212Z</time></trkpt><trkpt lat="43.5135993" lon="11.4965853"><ele>293.66666666666663</ele><time>2026-04-25T07:38:43.215Z</time></trkpt><trkpt lat="43.5135341" lon="11.4965491"><ele>293.0</ele><time>2026-04-25T07:38:44.21Z</time></trkpt><trkpt lat="43.5134565" lon="11.4965178"><ele>292.3333333333333</ele><time>2026-04-25T07:38:45.213Z</time></trkpt><trkpt lat="43.5133748" lon="11.4964917"><ele>291.6666666666667</ele><time>2026-04-25T07:38:46.212Z</time></trkpt><trkpt lat="43.5132866" lon="11.4964748"><ele>291.0</ele><time>2026-04-25T07:38:47.213Z</time></trkpt><trkpt lat="43.5131951" lon="11.4964723"><ele>291.0</ele><time>2026-04-25T07:38:48.214Z</time></trkpt><trkpt lat="43.5131035" lon="11.4964868"><ele>291.0</ele><time>2026-04-25T07:38:49.222Z</time></trkpt><trkpt lat="43.5130101" lon="11.4965056"><ele>291.0</ele><time>2026-04-25T07:38:50.221Z</time></trkpt><trkpt lat="43.5129153" lon="11.4965183"><ele>291.0</ele><time>2026-04-25T07:38:51.212Z</time></trkpt><trkpt lat="43.5128232" lon="11.4965141"><ele>291.0</ele><time>2026-04-25T07:38:52.214Z</time></trkpt><trkpt lat="43.5127329" lon="11.4964728"><ele>289.2</ele><time>2026-04-25T07:38:53.209Z</time></trkpt><trkpt lat="43.5126455" lon="11.4963958"><ele>287.40000000000003</ele><time>2026-04-25T07:38:54.211Z</time></trkpt><trkpt lat="43.5125768" lon="11.4962786"><ele>285.6</ele><time>2026-04-25T07:38:55.207Z</time></trkpt><trkpt lat="43.5125139" lon="11.4961512"><ele>283.8</ele><time>2026-04-25T07:38:56.207Z</time></trkpt><trkpt lat="43.5124439" lon="11.4960376"><ele>282.0</ele><time>2026-04-25T07:38:57.206Z</time></trkpt><trkpt lat="43.5123655" lon="11.4959416"><ele>282.0</ele><time>2026-04-25T07:38:58.207Z</time></trkpt><trkpt lat="43.5122869" lon="11.4958588"><ele>282.0</ele><time>2026-04-25T07:38:59.212Z</time></trkpt><trkpt lat="43.5122071" lon="11.4957976"><ele>282.0</ele><time>2026-04-25T07:39:00.202Z</time></trkpt><trkpt lat="43.5121207" lon="11.4957518"><ele>282.0</ele><time>2026-04-25T07:39:01.213Z</time></trkpt><trkpt lat="43.5120271" lon="11.4957309"><ele>282.0</ele><time>2026-04-25T07:39:02.204Z</time></trkpt><trkpt lat="43.5119348" lon="11.4957231"><ele>282.8333333333333</ele><time>2026-04-25T07:39:03.21Z</time></trkpt><trkpt lat="43.5118502" lon="11.4957276"><ele>283.6666666666667</ele><time>2026-04-25T07:39:04.206Z</time></trkpt><trkpt lat="43.5117748" lon="11.4957478"><ele>284.5</ele><time>2026-04-25T07:39:05.208Z</time></trkpt><trkpt lat="43.5117021" lon="11.4957829"><ele>285.33333333333337</ele><time>2026-04-25T07:39:06.2Z</time></trkpt><trkpt lat="43.5116366" lon="11.4958347"><ele>286.1666666666667</ele><time>2026-04-25T07:39:07.196Z</time></trkpt><trkpt lat="43.5115761" lon="11.4958936"><ele>287.0</ele><time>2026-04-25T07:39:08.22Z</time></trkpt><trkpt lat="43.5115316" lon="11.496029"><ele>287.0</ele><time>2026-04-25T07:39:10.214Z</time></trkpt><trkpt lat="43.5115129" lon="11.4961748"><ele>287.0</ele><time>2026-04-25T07:39:12.219Z</time></trkpt><trkpt lat="43.5115126" lon="11.4963228"><ele>287.0</ele><time>2026-04-25T07:39:14.218Z</time></trkpt><trkpt lat="43.5114987" lon="11.496447"><ele>287.0</ele><time>2026-04-25T07:39:16.226Z</time></trkpt><trkpt lat="43.5114768" lon="11.4965655"><ele>287.0</ele><time>2026-04-25T07:39:18.234Z</time></trkpt><trkpt lat="43.5114491" lon="11.4966705"><ele>286.85714285714283</ele><time>2026-04-25T07:39:20.274Z</time></trkpt><trkpt lat="43.5114198" lon="11.4967647"><ele>286.7142857142857</ele><time>2026-04-25T07:39:22.26Z</time></trkpt><trkpt lat="43.5113885" lon="11.4968578"><ele>286.57142857142856</ele><time>2026-04-25T07:39:24.257Z</time></trkpt><trkpt lat="43.5113559" lon="11.4969417"><ele>286.42857142857144</ele><time>2026-04-25T07:39:26.261Z</time></trkpt><trkpt lat="43.5113144" lon="11.4970283"><ele>286.2857142857143</ele><time>2026-04-25T07:39:28.258Z</time></trkpt><trkpt lat="43.511268" lon="11.49711"><ele>286.1428571428571</ele><time>2026-04-25T07:39:30.259Z</time></trkpt><trkpt lat="43.5112208" lon="11.4971858"><ele>286.0</ele><time>2026-04-25T07:39:32.254Z</time></trkpt><trkpt lat="43.511171" lon="11.4972702"><ele>287.5</ele><time>2026-04-25T07:39:34.263Z</time></trkpt><trkpt lat="43.5111148" lon="11.4973547"><ele>289.0</ele><time>2026-04-25T07:39:36.262Z</time></trkpt><trkpt lat="43.5110687" lon="11.4974415"><ele>290.5</ele><time>2026-04-25T07:39:38.255Z</time></trkpt><trkpt lat="43.5110201" lon="11.4975366"><ele>292.0</ele><time>2026-04-25T07:39:40.26Z</time></trkpt><trkpt lat="43.5109755" lon="11.4976196"><ele>293.5</ele><time>2026-04-25T07:39:42.257Z</time></trkpt><trkpt lat="43.5109163" lon="11.4976984"><ele>295.0</ele><time>2026-04-25T07:39:44.256Z</time></trkpt><trkpt lat="43.5108654" lon="11.4977506"><ele>295.0</ele><time>2026-04-25T07:39:46.254Z</time></trkpt><trkpt lat="43.5107816" lon="11.4977858"><ele>295.0</ele><time>2026-04-25T07:39:49.228Z</time></trkpt><trkpt lat="43.5106954" lon="11.4977705"><ele>295.0</ele><time>2026-04-25T07:39:52.222Z</time></trkpt><trkpt lat="43.5106273" lon="11.497713"><ele>295.0</ele><time>2026-04-25T07:39:55.233Z</time></trkpt><trkpt lat="43.5105593" lon="11.4976176"><ele>295.0</ele><time>2026-04-25T07:39:58.228Z</time></trkpt><trkpt lat="43.5105231" lon="11.4975465"><ele>295.0</ele><time>2026-04-25T07:40:00.232Z</time></trkpt><trkpt lat="43.5104841" lon="11.4974333"><ele>295.00000000000006</ele><time>2026-04-25T07:40:03.254Z</time></trkpt><trkpt lat="43.5104606" lon="11.4973508"><ele>295.0</ele><time>2026-04-25T07:40:05.231Z</time></trkpt><trkpt lat="43.5104426" lon="11.4972665"><ele>295.0</ele><time>2026-04-25T07:40:07.228Z</time></trkpt><trkpt lat="43.5104275" lon="11.4971771"><ele>295.0</ele><time>2026-04-25T07:40:09.231Z</time></trkpt><trkpt lat="43.5104054" lon="11.4970871"><ele>295.0</ele><time>2026-04-25T07:40:11.225Z</time></trkpt><trkpt lat="43.5103824" lon="11.4969999"><ele>295.00000000000006</ele><time>2026-04-25T07:40:13.217Z</time></trkpt><trkpt lat="43.5103553" lon="11.4969189"><ele>295.0</ele><time>2026-04-25T07:40:15.22Z</time></trkpt><trkpt lat="43.5103095" lon="11.4968094"><ele>296.8333333333333</ele><time>2026-04-25T07:40:18.22Z</time></trkpt><trkpt lat="43.5102528" lon="11.4967128"><ele>298.66666666666663</ele><time>2026-04-25T07:40:21.215Z</time></trkpt><trkpt lat="43.5101898" lon="11.4966288"><ele>300.5</ele><time>2026-04-25T07:40:24.215Z</time></trkpt><trkpt lat="43.5101175" lon="11.4965607"><ele>302.3333333333333</ele><time>2026-04-25T07:40:27.211Z</time></trkpt><trkpt lat="43.5100367" lon="11.4965306"><ele>304.1666666666667</ele><time>2026-04-25T07:40:30.206Z</time></trkpt><trkpt lat="43.50995" lon="11.4965127"><ele>306.0</ele><time>2026-04-25T07:40:33.211Z</time></trkpt><trkpt lat="43.5098869" lon="11.4964961"><ele>306.0</ele><time>2026-04-25T07:40:35.206Z</time></trkpt><trkpt lat="43.5098046" lon="11.4964675"><ele>306.0</ele><time>2026-04-25T07:40:38.216Z</time></trkpt><trkpt lat="43.5097455" lon="11.4964322"><ele>306.0</ele><time>2026-04-25T07:40:40.215Z</time></trkpt><trkpt lat="43.5096691" lon="11.4963728"><ele>306.0</ele><time>2026-04-25T07:40:43.212Z</time></trkpt><trkpt lat="43.5095936" lon="11.4963062"><ele>306.0</ele><time>2026-04-25T07:40:46.217Z</time></trkpt><trkpt lat="43.5095395" lon="11.4962613"><ele>306.0</ele><time>2026-04-25T07:40:48.214Z</time></trkpt><trkpt lat="43.5094599" lon="11.4962151"><ele>307.5</ele><time>2026-04-25T07:40:51.212Z</time></trkpt><trkpt lat="43.5093818" lon="11.4961675"><ele>309.0</ele><time>2026-04-25T07:40:54.218Z</time></trkpt><trkpt lat="43.5093214" lon="11.4961255"><ele>310.5</ele><time>2026-04-25T07:40:56.232Z</time></trkpt><trkpt lat="43.5092509" lon="11.4960621"><ele>312.0</ele><time>2026-04-25T07:40:59.225Z</time></trkpt><trkpt lat="43.5091939" lon="11.4959791"><ele>313.5</ele><time>2026-04-25T07:41:02.214Z</time></trkpt><trkpt lat="43.5091515" lon="11.4958998"><ele>315.0</ele><time>2026-04-25T07:41:05.217Z</time></trkpt><trkpt lat="43.5091115" lon="11.4958029"><ele>315.0</ele><time>2026-04-25T07:41:08.214Z</time></trkpt><trkpt lat="43.5090729" lon="11.4956915"><ele>315.0</ele><time>2026-04-25T07:41:11.216Z</time></trkpt><trkpt lat="43.5090297" lon="11.4955745"><ele>315.0</ele><time>2026-04-25T07:41:14.215Z</time></trkpt><trkpt lat="43.5089778" lon="11.4954752"><ele>315.0</ele><time>2026-04-25T07:41:17.215Z</time></trkpt><trkpt lat="43.5089094" lon="11.4954047"><ele>315.0</ele><time>2026-04-25T07:41:20.218Z</time></trkpt><trkpt lat="43.5088493" lon="11.4953727"><ele>315.0</ele><time>2026-04-25T07:41:22.212Z</time></trkpt><trkpt lat="43.5087876" lon="11.4953489"><ele>316.7142857142857</ele><time>2026-04-25T07:41:24.229Z</time></trkpt><trkpt lat="43.5086965" lon="11.4953227"><ele>318.42857142857144</ele><time>2026-04-25T07:41:27.223Z</time></trkpt><trkpt lat="43.5086293" lon="11.4953051"><ele>320.1428571428571</ele><time>2026-04-25T07:41:29.222Z</time></trkpt><trkpt lat="43.5085621" lon="11.4952954"><ele>321.8571428571429</ele><time>2026-04-25T07:41:31.213Z</time></trkpt><trkpt lat="43.5084757" lon="11.4952691"><ele>323.57142857142856</ele><time>2026-04-25T07:41:34.223Z</time></trkpt><trkpt lat="43.5084128" lon="11.4952633"><ele>325.2857142857143</ele><time>2026-04-25T07:41:36.217Z</time></trkpt><trkpt lat="43.5083479" lon="11.4952583"><ele>327.0</ele><time>2026-04-25T07:41:38.224Z</time></trkpt><trkpt lat="43.5082798" lon="11.4952431"><ele>327.0</ele><time>2026-04-25T07:41:40.215Z</time></trkpt><trkpt lat="43.5081884" lon="11.495223"><ele>327.0</ele><time>2026-04-25T07:41:43.243Z</time></trkpt><trkpt lat="43.5080957" lon="11.4952086"><ele>327.0</ele><time>2026-04-25T07:41:46.243Z</time></trkpt><trkpt lat="43.5080022" lon="11.4951854"><ele>327.0</ele><time>2026-04-25T07:41:49.22Z</time></trkpt><trkpt lat="43.5079423" lon="11.4951578"><ele>327.0</ele><time>2026-04-25T07:41:51.223Z</time></trkpt><trkpt lat="43.5078619" lon="11.4951038"><ele>327.0</ele><time>2026-04-25T07:41:54.222Z</time></trkpt><trkpt lat="43.5077909" lon="11.4950343"><ele>326.1666666666667</ele><time>2026-04-25T07:41:57.223Z</time></trkpt><trkpt lat="43.5077406" lon="11.4949818"><ele>325.3333333333333</ele><time>2026-04-25T07:41:59.227Z</time></trkpt><trkpt lat="43.5076818" lon="11.4948909"><ele>324.5</ele><time>2026-04-25T07:42:02.224Z</time></trkpt><trkpt lat="43.5076402" lon="11.4947802"><ele>323.66666666666663</ele><time>2026-04-25T07:42:05.225Z</time></trkpt><trkpt lat="43.5076252" lon="11.4946959"><ele>322.8333333333333</ele><time>2026-04-25T07:42:07.232Z</time></trkpt><trkpt lat="43.5076343" lon="11.4945716"><ele>322.0</ele><time>2026-04-25T07:42:10.218Z</time></trkpt><trkpt lat="43.5076801" lon="11.4944648"><ele>323.66666666666663</ele><time>2026-04-25T07:42:13.219Z</time></trkpt><trkpt lat="43.5077295" lon="11.4943534"><ele>325.3333333333333</ele><time>2026-04-25T07:42:16.219Z</time></trkpt><trkpt lat="43.50776" lon="11.4942762"><ele>327.0</ele><time>2026-04-25T07:42:18.221Z</time></trkpt><trkpt lat="43.5077884" lon="11.4941938"><ele>328.6666666666667</ele><time>2026-04-25T07:42:20.218Z</time></trkpt><trkpt lat="43.5078062" lon="11.4940645"><ele>330.33333333333337</ele><time>2026-04-25T07:42:23.223Z</time></trkpt><trkpt lat="43.5077814" lon="11.4939402"><ele>332.0</ele><time>2026-04-25T07:42:26.233Z</time></trkpt><trkpt lat="43.5077449" lon="11.4938246"><ele>334.5</ele><time>2026-04-25T07:42:29.216Z</time></trkpt><trkpt lat="43.5076978" lon="11.4937179"><ele>337.0</ele><time>2026-04-25T07:42:32.212Z</time></trkpt><trkpt lat="43.5076411" lon="11.4936245"><ele>339.5</ele><time>2026-04-25T07:42:35.223Z</time></trkpt><trkpt lat="43.50756" lon="11.4935676"><ele>342.0</ele><time>2026-04-25T07:42:38.218Z</time></trkpt><trkpt lat="43.5074936" lon="11.4935635"><ele>344.5</ele><time>2026-04-25T07:42:40.223Z</time></trkpt><trkpt lat="43.5074068" lon="11.4936141"><ele>347.0</ele><time>2026-04-25T07:42:43.218Z</time></trkpt><trkpt lat="43.5073542" lon="11.4936652"><ele>347.0</ele><time>2026-04-25T07:42:45.218Z</time></trkpt><trkpt lat="43.5072872" lon="11.4937097"><ele>347.0</ele><time>2026-04-25T07:42:47.205Z</time></trkpt><trkpt lat="43.5072047" lon="11.4937533"><ele>347.0</ele><time>2026-04-25T07:42:50.205Z</time></trkpt><trkpt lat="43.507141" lon="11.493788"><ele>347.0</ele><time>2026-04-25T07:42:52.205Z</time></trkpt><trkpt lat="43.5070775" lon="11.493837"><ele>347.0</ele><time>2026-04-25T07:42:54.207Z</time></trkpt><trkpt lat="43.507022" lon="11.4939064"><ele>347.0</ele><time>2026-04-25T07:42:56.21Z</time></trkpt><trkpt lat="43.5069534" lon="11.4939968"><ele>345.83333333333337</ele><time>2026-04-25T07:42:59.236Z</time></trkpt><trkpt lat="43.5068748" lon="11.4940504"><ele>344.6666666666667</ele><time>2026-04-25T07:43:02.241Z</time></trkpt><trkpt lat="43.5067944" lon="11.4940853"><ele>343.5</ele><time>2026-04-25T07:43:05.218Z</time></trkpt><trkpt lat="43.5067073" lon="11.4940978"><ele>342.3333333333333</ele><time>2026-04-25T07:43:08.217Z</time></trkpt><trkpt lat="43.5066217" lon="11.4940815"><ele>341.16666666666663</ele><time>2026-04-25T07:43:11.219Z</time></trkpt><trkpt lat="43.5065484" lon="11.4940556"><ele>340.0</ele><time>2026-04-25T07:43:14.212Z</time></trkpt><trkpt lat="43.5064931" lon="11.493987"><ele>340.0</ele><time>2026-04-25T07:43:17.216Z</time></trkpt><trkpt lat="43.5064646" lon="11.4938597"><ele>340.0</ele><time>2026-04-25T07:43:20.223Z</time></trkpt><trkpt lat="43.5064461" lon="11.4937733"><ele>340.0</ele><time>2026-04-25T07:43:22.219Z</time></trkpt><trkpt lat="43.5064196" lon="11.4936918"><ele>340.0</ele><time>2026-04-25T07:43:24.225Z</time></trkpt><trkpt lat="43.5063533" lon="11.4936049"><ele>340.0</ele><time>2026-04-25T07:43:27.223Z</time></trkpt><trkpt lat="43.5062618" lon="11.4935771"><ele>340.0</ele><time>2026-04-25T07:43:30.216Z</time></trkpt><trkpt lat="43.5061933" lon="11.4935748"><ele>343.2857142857143</ele><time>2026-04-25T07:43:32.216Z</time></trkpt><trkpt lat="43.5061268" lon="11.4935613"><ele>346.57142857142856</ele><time>2026-04-25T07:43:34.22Z</time></trkpt><trkpt lat="43.5060577" lon="11.493552"><ele>349.85714285714283</ele><time>2026-04-25T07:43:36.218Z</time></trkpt><trkpt lat="43.5059924" lon="11.4935439"><ele>353.1428571428571</ele><time>2026-04-25T07:43:38.228Z</time></trkpt><trkpt lat="43.5059302" lon="11.493529"><ele>356.42857142857144</ele><time>2026-04-25T07:43:40.21Z</time></trkpt><trkpt lat="43.5058428" lon="11.4935127"><ele>359.71428571428567</ele><time>2026-04-25T07:43:43.213Z</time></trkpt><trkpt lat="43.5057575" lon="11.4935295"><ele>363.0</ele><time>2026-04-25T07:43:46.211Z</time></trkpt><trkpt lat="43.5056926" lon="11.493552"><ele>362.99999999999994</ele><time>2026-04-25T07:43:48.209Z</time></trkpt><trkpt lat="43.505606" lon="11.4936062"><ele>363.0</ele><time>2026-04-25T07:43:51.21Z</time></trkpt><trkpt lat="43.5055486" lon="11.4936423"><ele>363.0</ele><time>2026-04-25T07:43:53.207Z</time></trkpt><trkpt lat="43.5054895" lon="11.4936787"><ele>363.0</ele><time>2026-04-25T07:43:55.21Z</time></trkpt><trkpt lat="43.5054303" lon="11.49374"><ele>363.0</ele><time>2026-04-25T07:43:57.207Z</time></trkpt><trkpt lat="43.5054004" lon="11.4938216"><ele>362.99999999999994</ele><time>2026-04-25T07:43:59.223Z</time></trkpt><trkpt lat="43.5054037" lon="11.4939111"><ele>363.0</ele><time>2026-04-25T07:44:01.21Z</time></trkpt><trkpt lat="43.5054338" lon="11.4939921"><ele>364.2857142857143</ele><time>2026-04-25T07:44:03.213Z</time></trkpt><trkpt lat="43.5054685" lon="11.4940699"><ele>365.57142857142856</ele><time>2026-04-25T07:44:05.206Z</time></trkpt><trkpt lat="43.5055099" lon="11.4941499"><ele>366.8571428571429</ele><time>2026-04-25T07:44:07.212Z</time></trkpt><trkpt lat="43.5055459" lon="11.4942388"><ele>368.1428571428571</ele><time>2026-04-25T07:44:09.214Z</time></trkpt><trkpt lat="43.5055545" lon="11.4943284"><ele>369.42857142857144</ele><time>2026-04-25T07:44:11.214Z</time></trkpt><trkpt lat="43.5055205" lon="11.4944221"><ele>370.7142857142857</ele><time>2026-04-25T07:44:14.221Z</time></trkpt><trkpt lat="43.5054296" lon="11.4944409"><ele>372.0</ele><time>2026-04-25T07:44:17.216Z</time></trkpt><trkpt lat="43.5053539" lon="11.4944315"><ele>372.00000000000006</ele><time>2026-04-25T07:44:19.216Z</time></trkpt><trkpt lat="43.5052862" lon="11.4944063"><ele>372.0</ele><time>2026-04-25T07:44:21.216Z</time></trkpt><trkpt lat="43.5052146" lon="11.4943766"><ele>372.0</ele><time>2026-04-25T07:44:23.218Z</time></trkpt><trkpt lat="43.505138" lon="11.494358"><ele>372.0</ele><time>2026-04-25T07:44:25.214Z</time></trkpt><trkpt lat="43.505071" lon="11.4943611"><ele>372.0</ele><time>2026-04-25T07:44:27.217Z</time></trkpt><trkpt lat="43.5050104" lon="11.4944067"><ele>372.00000000000006</ele><time>2026-04-25T07:44:29.214Z</time></trkpt><trkpt lat="43.5049673" lon="11.4944898"><ele>372.0</ele><time>2026-04-25T07:44:31.217Z</time></trkpt><trkpt lat="43.5049334" lon="11.4945723"><ele>369.6666666666667</ele><time>2026-04-25T07:44:33.226Z</time></trkpt><trkpt lat="43.5049203" lon="11.4946686"><ele>367.3333333333333</ele><time>2026-04-25T07:44:35.226Z</time></trkpt><trkpt lat="43.5049101" lon="11.4947563"><ele>365.0</ele><time>2026-04-25T07:44:37.228Z</time></trkpt><trkpt lat="43.5048807" lon="11.4948406"><ele>362.66666666666663</ele><time>2026-04-25T07:44:39.562Z</time></trkpt><trkpt lat="43.504832" lon="11.4949375"><ele>360.3333333333333</ele><time>2026-04-25T07:44:42.224Z</time></trkpt><trkpt lat="43.5047598" lon="11.4949975"><ele>358.0</ele><time>2026-04-25T07:44:45.222Z</time></trkpt><trkpt lat="43.504683" lon="11.4950223"><ele>358.00000000000006</ele><time>2026-04-25T07:44:47.216Z</time></trkpt><trkpt lat="43.5046171" lon="11.4950311"><ele>358.0</ele><time>2026-04-25T07:44:49.223Z</time></trkpt><trkpt lat="43.5045434" lon="11.4950327"><ele>358.0</ele><time>2026-04-25T07:44:51.212Z</time></trkpt><trkpt lat="43.5044739" lon="11.495034"><ele>358.0</ele><time>2026-04-25T07:44:53.213Z</time></trkpt><trkpt lat="43.5044096" lon="11.4950444"><ele>358.0</ele><time>2026-04-25T07:44:55.212Z</time></trkpt><trkpt lat="43.5043413" lon="11.4950541"><ele>358.00000000000006</ele><time>2026-04-25T07:44:57.211Z</time></trkpt><trkpt lat="43.5042768" lon="11.4950715"><ele>358.0</ele><time>2026-04-25T07:44:59.193Z</time></trkpt><trkpt lat="43.5042059" lon="11.4950925"><ele>360.66666666666663</ele><time>2026-04-25T07:45:01.192Z</time></trkpt><trkpt lat="43.5041164" lon="11.495119"><ele>363.3333333333333</ele><time>2026-04-25T07:45:04.178Z</time></trkpt><trkpt lat="43.5040538" lon="11.4951303"><ele>366.0</ele><time>2026-04-25T07:45:06.185Z</time></trkpt><trkpt lat="43.5039884" lon="11.4951466"><ele>368.6666666666667</ele><time>2026-04-25T07:45:08.191Z</time></trkpt><trkpt lat="43.5039018" lon="11.4951855"><ele>371.33333333333337</ele><time>2026-04-25T07:45:11.186Z</time></trkpt><trkpt lat="43.5038182" lon="11.4952491"><ele>374.0</ele><time>2026-04-25T07:45:14.188Z</time></trkpt><trkpt lat="43.5037586" lon="11.4952928"><ele>375.83333333333337</ele><time>2026-04-25T07:45:16.194Z</time></trkpt><trkpt lat="43.5036754" lon="11.4953236"><ele>377.6666666666667</ele><time>2026-04-25T07:45:19.193Z</time></trkpt><trkpt lat="43.5035853" lon="11.4952943"><ele>379.5</ele><time>2026-04-25T07:45:22.19Z</time></trkpt><trkpt lat="43.5035067" lon="11.4952402"><ele>381.33333333333337</ele><time>2026-04-25T07:45:25.191Z</time></trkpt><trkpt lat="43.5034509" lon="11.4951984"><ele>383.1666666666667</ele><time>2026-04-25T07:45:27.192Z</time></trkpt><trkpt lat="43.5033845" lon="11.4951609"><ele>385.0</ele><time>2026-04-25T07:45:29.191Z</time></trkpt><trkpt lat="43.5033165" lon="11.4951488"><ele>385.00000000000006</ele><time>2026-04-25T07:45:31.19Z</time></trkpt><trkpt lat="43.503249" lon="11.4951543"><ele>385.0</ele><time>2026-04-25T07:45:33.188Z</time></trkpt><trkpt lat="43.5031585" lon="11.4951935"><ele>385.0</ele><time>2026-04-25T07:45:36.19Z</time></trkpt><trkpt lat="43.5030777" lon="11.4952622"><ele>385.0</ele><time>2026-04-25T07:45:39.199Z</time></trkpt><trkpt lat="43.5030002" lon="11.495325"><ele>385.00000000000006</ele><time>2026-04-25T07:45:42.189Z</time></trkpt><trkpt lat="43.5029134" lon="11.4953582"><ele>385.0</ele><time>2026-04-25T07:45:45.192Z</time></trkpt><trkpt lat="43.5028402" lon="11.4953807"><ele>384.14285714285717</ele><time>2026-04-25T07:45:47.197Z</time></trkpt><trkpt lat="43.5027666" lon="11.4953777"><ele>383.2857142857143</ele><time>2026-04-25T07:45:49.19Z</time></trkpt><trkpt lat="43.5027037" lon="11.4953476"><ele>382.42857142857144</ele><time>2026-04-25T07:45:51.19Z</time></trkpt><trkpt lat="43.502609" lon="11.4953307"><ele>381.57142857142856</ele><time>2026-04-25T07:45:54.193Z</time></trkpt><trkpt lat="43.5025404" lon="11.4953437"><ele>380.7142857142857</ele><time>2026-04-25T07:45:56.194Z</time></trkpt><trkpt lat="43.5024731" lon="11.4953708"><ele>379.8571428571429</ele><time>2026-04-25T07:45:58.194Z</time></trkpt><trkpt lat="43.5024188" lon="11.4954154"><ele>379.0</ele><time>2026-04-25T07:46:00.206Z</time></trkpt><trkpt lat="43.5023649" lon="11.4954731"><ele>379.00000000000006</ele><time>2026-04-25T07:46:02.208Z</time></trkpt><trkpt lat="43.5023041" lon="11.4955283"><ele>379.0</ele><time>2026-04-25T07:46:04.19Z</time></trkpt><trkpt lat="43.5022484" lon="11.4955806"><ele>379.0</ele><time>2026-04-25T07:46:06.188Z</time></trkpt><trkpt lat="43.5021898" lon="11.4956218"><ele>379.0</ele><time>2026-04-25T07:46:08.198Z</time></trkpt><trkpt lat="43.5021292" lon="11.4956547"><ele>379.0</ele><time>2026-04-25T07:46:10.202Z</time></trkpt><trkpt lat="43.5020405" lon="11.4956906"><ele>379.00000000000006</ele><time>2026-04-25T07:46:13.192Z</time></trkpt><trkpt lat="43.5019741" lon="11.495714"><ele>379.0</ele><time>2026-04-25T07:46:15.197Z</time></trkpt><trkpt lat="43.5019142" lon="11.4957464"><ele>380.28571428571433</ele><time>2026-04-25T07:46:17.194Z</time></trkpt><trkpt lat="43.5018633" lon="11.4958013"><ele>381.57142857142856</ele><time>2026-04-25T07:46:19.193Z</time></trkpt><trkpt lat="43.5018186" lon="11.4958845"><ele>382.8571428571429</ele><time>2026-04-25T07:46:22.19Z</time></trkpt><trkpt lat="43.5018006" lon="11.4959738"><ele>384.14285714285717</ele><time>2026-04-25T07:46:24.194Z</time></trkpt><trkpt lat="43.50177" lon="11.4960704"><ele>385.42857142857144</ele><time>2026-04-25T07:46:26.194Z</time></trkpt><trkpt lat="43.501758" lon="11.4961656"><ele>386.7142857142857</ele><time>2026-04-25T07:46:28.199Z</time></trkpt><trkpt lat="43.5017373" lon="11.4962605"><ele>388.0</ele><time>2026-04-25T07:46:30.197Z</time></trkpt><trkpt lat="43.5017171" lon="11.4963576"><ele>388.00000000000006</ele><time>2026-04-25T07:46:32.202Z</time></trkpt><trkpt lat="43.5017021" lon="11.4964583"><ele>388.0</ele><time>2026-04-25T07:46:34.2Z</time></trkpt><trkpt lat="43.5016952" lon="11.4965453"><ele>388.0</ele><time>2026-04-25T07:46:36.207Z</time></trkpt><trkpt lat="43.5016769" lon="11.4966731"><ele>388.0</ele><time>2026-04-25T07:46:39.207Z</time></trkpt><trkpt lat="43.5016376" lon="11.4967936"><ele>388.00000000000006</ele><time>2026-04-25T07:46:42.207Z</time></trkpt><trkpt lat="43.5015712" lon="11.4968833"><ele>388.0</ele><time>2026-04-25T07:46:45.2Z</time></trkpt><trkpt lat="43.5015254" lon="11.4969527"><ele>388.0</ele><time>2026-04-25T07:46:47.223Z</time></trkpt><trkpt lat="43.5014755" lon="11.4970153"><ele>388.0</ele><time>2026-04-25T07:46:49.225Z</time></trkpt><trkpt lat="43.5014183" lon="11.4970703"><ele>388.0</ele><time>2026-04-25T07:46:51.235Z</time></trkpt><trkpt lat="43.5013616" lon="11.4971174"><ele>388.0</ele><time>2026-04-25T07:46:53.231Z</time></trkpt><trkpt lat="43.5013009" lon="11.4971483"><ele>388.0</ele><time>2026-04-25T07:46:55.232Z</time></trkpt><trkpt lat="43.5012222" lon="11.4971554"><ele>388.0</ele><time>2026-04-25T07:46:58.212Z</time></trkpt><trkpt lat="43.5011304" lon="11.4971693"><ele>388.0</ele><time>2026-04-25T07:47:01.21Z</time></trkpt><trkpt lat="43.5010518" lon="11.4971782"><ele>387.0</ele><time>2026-04-25T07:47:04.218Z</time></trkpt><trkpt lat="43.5009812" lon="11.4971706"><ele>386.0</ele><time>2026-04-25T07:47:07.193Z</time></trkpt><trkpt lat="43.5009121" lon="11.4971522"><ele>385.0</ele><time>2026-04-25T07:47:09.205Z</time></trkpt><trkpt lat="43.5008427" lon="11.4971365"><ele>384.0</ele><time>2026-04-25T07:47:11.21Z</time></trkpt><trkpt lat="43.5007646" lon="11.4971179"><ele>383.0</ele><time>2026-04-25T07:47:13.207Z</time></trkpt><trkpt lat="43.5007032" lon="11.4970866"><ele>382.0</ele><time>2026-04-25T07:47:15.2Z</time></trkpt><trkpt lat="43.5006344" lon="11.4970671"><ele>381.0</ele><time>2026-04-25T07:47:17.198Z</time></trkpt><trkpt lat="43.5005511" lon="11.4970402"><ele>384.6666666666667</ele><time>2026-04-25T07:47:20.197Z</time></trkpt><trkpt lat="43.5004626" lon="11.4970196"><ele>388.33333333333337</ele><time>2026-04-25T07:47:23.199Z</time></trkpt><trkpt lat="43.5004002" lon="11.4970026"><ele>392.0</ele><time>2026-04-25T07:47:25.194Z</time></trkpt><trkpt lat="43.5003329" lon="11.496985"><ele>395.6666666666667</ele><time>2026-04-25T07:47:27.193Z</time></trkpt><trkpt lat="43.500252" lon="11.4969361"><ele>399.33333333333337</ele><time>2026-04-25T07:47:30.201Z</time></trkpt><trkpt lat="43.5001812" lon="11.4968695"><ele>403.0</ele><time>2026-04-25T07:47:33.2Z</time></trkpt><trkpt lat="43.5001286" lon="11.4968081"><ele>403.0</ele><time>2026-04-25T07:47:36.193Z</time></trkpt><trkpt lat="43.5000862" lon="11.4967075"><ele>403.0</ele><time>2026-04-25T07:47:39.196Z</time></trkpt><trkpt lat="43.5000548" lon="11.496605"><ele>403.0</ele><time>2026-04-25T07:47:42.193Z</time></trkpt><trkpt lat="43.5000142" lon="11.4965367"><ele>403.0</ele><time>2026-04-25T07:47:44.193Z</time></trkpt><trkpt lat="43.4999599" lon="11.4964667"><ele>403.0</ele><time>2026-04-25T07:47:46.197Z</time></trkpt><trkpt lat="43.499913" lon="11.4964049"><ele>403.0</ele><time>2026-04-25T07:47:48.197Z</time></trkpt><trkpt lat="43.4998592" lon="11.4963582"><ele>403.0</ele><time>2026-04-25T07:47:50.192Z</time></trkpt><trkpt lat="43.4997938" lon="11.4962802"><ele>405.83333333333337</ele><time>2026-04-25T07:47:53.189Z</time></trkpt><trkpt lat="43.4997549" lon="11.4961914"><ele>408.6666666666667</ele><time>2026-04-25T07:47:56.191Z</time></trkpt><trkpt lat="43.499746" lon="11.4960732"><ele>411.5</ele><time>2026-04-25T07:47:59.188Z</time></trkpt><trkpt lat="43.4997542" lon="11.4959575"><ele>414.33333333333337</ele><time>2026-04-25T07:48:02.184Z</time></trkpt><trkpt lat="43.4997851" lon="11.4958397"><ele>417.1666666666667</ele><time>2026-04-25T07:48:05.189Z</time></trkpt><trkpt lat="43.499819" lon="11.4957323"><ele>420.0</ele><time>2026-04-25T07:48:08.188Z</time></trkpt><trkpt lat="43.4998481" lon="11.4956389"><ele>420.0</ele><time>2026-04-25T07:48:11.188Z</time></trkpt><trkpt lat="43.4998702" lon="11.4955509"><ele>420.0</ele><time>2026-04-25T07:48:13.192Z</time></trkpt><trkpt lat="43.4998836" lon="11.4954554"><ele>420.0</ele><time>2026-04-25T07:48:15.199Z</time></trkpt><trkpt lat="43.4999092" lon="11.495353"><ele>420.0</ele><time>2026-04-25T07:48:17.188Z</time></trkpt><trkpt lat="43.4999254" lon="11.4952611"><ele>420.0</ele><time>2026-04-25T07:48:19.189Z</time></trkpt><trkpt lat="43.4999552" lon="11.4951556"><ele>420.0</ele><time>2026-04-25T07:48:21.197Z</time></trkpt><trkpt lat="43.4999724" lon="11.4950529"><ele>420.0</ele><time>2026-04-25T07:48:23.189Z</time></trkpt><trkpt lat="43.4999868" lon="11.4949408"><ele>421.0</ele><time>2026-04-25T07:48:25.187Z</time></trkpt><trkpt lat="43.4999443" lon="11.4948411"><ele>422.0</ele><time>2026-04-25T07:48:28.199Z</time></trkpt><trkpt lat="43.4998747" lon="11.4948501"><ele>423.0</ele><time>2026-04-25T07:48:30.19Z</time></trkpt><trkpt lat="43.4998052" lon="11.4948879"><ele>424.0</ele><time>2026-04-25T07:48:32.207Z</time></trkpt><trkpt lat="43.4997399" lon="11.4949341"><ele>425.0</ele><time>2026-04-25T07:48:34.195Z</time></trkpt><trkpt lat="43.4996749" lon="11.4949528"><ele>426.0</ele><time>2026-04-25T07:48:36.197Z</time></trkpt><trkpt lat="43.4996072" lon="11.4949599"><ele>427.0</ele><time>2026-04-25T07:48:38.206Z</time></trkpt><trkpt lat="43.4995138" lon="11.4949445"><ele>425.0</ele><time>2026-04-25T07:48:41.204Z</time></trkpt><trkpt lat="43.4994509" lon="11.4949277"><ele>423.0</ele><time>2026-04-25T07:48:43.192Z</time></trkpt><trkpt lat="43.4993854" lon="11.4948844"><ele>421.0</ele><time>2026-04-25T07:48:45.188Z</time></trkpt><trkpt lat="43.4993257" lon="11.4948431"><ele>419.0</ele><time>2026-04-25T07:48:47.181Z</time></trkpt><trkpt lat="43.4992677" lon="11.4947809"><ele>417.0</ele><time>2026-04-25T07:48:49.185Z</time></trkpt><trkpt lat="43.4992013" lon="11.4947102"><ele>415.0</ele><time>2026-04-25T07:48:51.184Z</time></trkpt><trkpt lat="43.4991921" lon="11.4946233"><ele>413.0</ele><time>2026-04-25T07:48:54.181Z</time></trkpt><trkpt lat="43.4993066" lon="11.4946025"><ele>415.16666666666663</ele><time>2026-04-25T07:48:56.188Z</time></trkpt><trkpt lat="43.499416" lon="11.4945784"><ele>417.3333333333333</ele><time>2026-04-25T07:48:58.183Z</time></trkpt><trkpt lat="43.4995084" lon="11.4945649"><ele>419.5</ele><time>2026-04-25T07:49:00.185Z</time></trkpt><trkpt lat="43.4996027" lon="11.4945622"><ele>421.66666666666663</ele><time>2026-04-25T07:49:03.19Z</time></trkpt><trkpt lat="43.4996737" lon="11.4945589"><ele>423.8333333333333</ele><time>2026-04-25T07:49:05.194Z</time></trkpt><trkpt lat="43.4997405" lon="11.4945679"><ele>426.0</ele><time>2026-04-25T07:49:07.201Z</time></trkpt><trkpt lat="43.4998228" lon="11.4945536"><ele>427.1666666666667</ele><time>2026-04-25T07:49:10.197Z</time></trkpt><trkpt lat="43.4998918" lon="11.4945072"><ele>428.33333333333337</ele><time>2026-04-25T07:49:13.192Z</time></trkpt><trkpt lat="43.4999443" lon="11.4944393"><ele>429.5</ele><time>2026-04-25T07:49:16.199Z</time></trkpt><trkpt lat="43.5000125" lon="11.4943608"><ele>430.6666666666667</ele><time>2026-04-25T07:49:19.201Z</time></trkpt><trkpt lat="43.5000466" lon="11.4942482"><ele>431.83333333333337</ele><time>2026-04-25T07:49:22.196Z</time></trkpt><trkpt lat="43.5000443" lon="11.4941337"><ele>433.0</ele><time>2026-04-25T07:49:25.195Z</time></trkpt><trkpt lat="43.5000387" lon="11.4940284"><ele>433.00000000000006</ele><time>2026-04-25T07:49:28.202Z</time></trkpt><trkpt lat="43.5000188" lon="11.4939203"><ele>433.0</ele><time>2026-04-25T07:49:32.201Z</time></trkpt><trkpt lat="43.5000059" lon="11.4938341"><ele>433.0</ele><time>2026-04-25T07:49:35.208Z</time></trkpt><trkpt lat="43.4999796" lon="11.4937139"><ele>433.0</ele><time>2026-04-25T07:49:38.2Z</time></trkpt><trkpt lat="43.4999744" lon="11.4935999"><ele>433.00000000000006</ele><time>2026-04-25T07:49:41.196Z</time></trkpt><trkpt lat="43.4999717" lon="11.4935025"><ele>433.0</ele><time>2026-04-25T07:49:44.196Z</time></trkpt><trkpt lat="43.4999626" lon="11.493399"><ele>434.33333333333337</ele><time>2026-04-25T07:49:47.197Z</time></trkpt><trkpt lat="43.4999708" lon="11.4932908"><ele>435.6666666666667</ele><time>2026-04-25T07:49:50.2Z</time></trkpt><trkpt lat="43.4999929" lon="11.4931781"><ele>437.0</ele><time>2026-04-25T07:49:53.217Z</time></trkpt><trkpt lat="43.5000106" lon="11.4930813"><ele>438.33333333333337</ele><time>2026-04-25T07:49:56.204Z</time></trkpt><trkpt lat="43.5000234" lon="11.4929858"><ele>439.6666666666667</ele><time>2026-04-25T07:50:00.2Z</time></trkpt><trkpt lat="43.5000328" lon="11.4928885"><ele>441.0</ele><time>2026-04-25T07:50:04.2Z</time></trkpt><trkpt lat="43.5000369" lon="11.4927741"><ele>442.3333333333333</ele><time>2026-04-25T07:50:08.203Z</time></trkpt><trkpt lat="43.5000471" lon="11.4926648"><ele>443.66666666666663</ele><time>2026-04-25T07:50:11.211Z</time></trkpt><trkpt lat="43.5000497" lon="11.4925622"><ele>445.0</ele><time>2026-04-25T07:50:14.205Z</time></trkpt><trkpt lat="43.5000471" lon="11.4924749"><ele>446.3333333333333</ele><time>2026-04-25T07:50:17.207Z</time></trkpt><trkpt lat="43.5000294" lon="11.4923539"><ele>447.66666666666663</ele><time>2026-04-25T07:50:21.204Z</time></trkpt><trkpt lat="43.5000109" lon="11.4922441"><ele>449.0</ele><time>2026-04-25T07:50:24.202Z</time></trkpt><trkpt lat="43.4999799" lon="11.4921443"><ele>450.2857142857143</ele><time>2026-04-25T07:50:27.195Z</time></trkpt><trkpt lat="43.4999565" lon="11.4920594"><ele>451.57142857142856</ele><time>2026-04-25T07:50:30.203Z</time></trkpt><trkpt lat="43.4999389" lon="11.4919724"><ele>452.85714285714283</ele><time>2026-04-25T07:50:33.199Z</time></trkpt><trkpt lat="43.4999281" lon="11.4918845"><ele>454.1428571428571</ele><time>2026-04-25T07:50:36.196Z</time></trkpt><trkpt lat="43.4999072" lon="11.4917898"><ele>455.42857142857144</ele><time>2026-04-25T07:50:39.2Z</time></trkpt><trkpt lat="43.4999039" lon="11.49169"><ele>456.71428571428567</ele><time>2026-04-25T07:50:42.206Z</time></trkpt><trkpt lat="43.4999041" lon="11.4915942"><ele>458.0</ele><time>2026-04-25T07:50:45.203Z</time></trkpt><trkpt lat="43.4999008" lon="11.4914863"><ele>457.99999999999994</ele><time>2026-04-25T07:50:49.207Z</time></trkpt><trkpt lat="43.4998903" lon="11.4913902"><ele>458.0</ele><time>2026-04-25T07:50:52.204Z</time></trkpt><trkpt lat="43.4998745" lon="11.4912936"><ele>458.0</ele><time>2026-04-25T07:50:55.206Z</time></trkpt><trkpt lat="43.4998348" lon="11.4911867"><ele>458.0</ele><time>2026-04-25T07:50:59.2Z</time></trkpt><trkpt lat="43.4998038" lon="11.4910867"><ele>457.99999999999994</ele><time>2026-04-25T07:51:02.198Z</time></trkpt><trkpt lat="43.4997719" lon="11.4909962"><ele>458.0</ele><time>2026-04-25T07:51:05.199Z</time></trkpt><trkpt lat="43.4997362" lon="11.4909061"><ele>459.66666666666663</ele><time>2026-04-25T07:51:08.201Z</time></trkpt><trkpt lat="43.4996871" lon="11.4908186"><ele>461.3333333333333</ele><time>2026-04-25T07:51:12.202Z</time></trkpt><trkpt lat="43.4996526" lon="11.4907283"><ele>463.0</ele><time>2026-04-25T07:51:16.202Z</time></trkpt><trkpt lat="43.4996177" lon="11.4906316"><ele>464.66666666666663</ele><time>2026-04-25T07:51:20.198Z</time></trkpt><trkpt lat="43.4995858" lon="11.4905535"><ele>466.3333333333333</ele><time>2026-04-25T07:51:23.194Z</time></trkpt><trkpt lat="43.4995616" lon="11.4904501"><ele>468.0</ele><time>2026-04-25T07:51:26.208Z</time></trkpt><trkpt lat="43.4995164" lon="11.4903472"><ele>469.5714285714286</ele><time>2026-04-25T07:51:29.206Z</time></trkpt><trkpt lat="43.4994853" lon="11.4902598"><ele>471.1428571428572</ele><time>2026-04-25T07:51:32.205Z</time></trkpt><trkpt lat="43.4994357" lon="11.4901818"><ele>472.7142857142857</ele><time>2026-04-25T07:51:35.206Z</time></trkpt><trkpt lat="43.4993787" lon="11.4901402"><ele>474.28571428571433</ele><time>2026-04-25T07:51:38.206Z</time></trkpt><trkpt lat="43.4993139" lon="11.4900987"><ele>475.8571428571429</ele><time>2026-04-25T07:51:41.202Z</time></trkpt><trkpt lat="43.4992411" lon="11.4900645"><ele>477.42857142857144</ele><time>2026-04-25T07:51:44.204Z</time></trkpt><trkpt lat="43.4991582" lon="11.4900479"><ele>479.0</ele><time>2026-04-25T07:51:47.197Z</time></trkpt><trkpt lat="43.4990787" lon="11.4900393"><ele>479.0</ele><time>2026-04-25T07:51:50.203Z</time></trkpt><trkpt lat="43.4990085" lon="11.4900468"><ele>479.0</ele><time>2026-04-25T07:51:53.2Z</time></trkpt><trkpt lat="43.4989415" lon="11.4900443"><ele>479.0</ele><time>2026-04-25T07:51:56.2Z</time></trkpt><trkpt lat="43.4988777" lon="11.4900129"><ele>479.0</ele><time>2026-04-25T07:52:01.204Z</time></trkpt><trkpt lat="43.4988295" lon="11.489936"><ele>479.0</ele><time>2026-04-25T07:52:05.199Z</time></trkpt><trkpt lat="43.4987765" lon="11.4898738"><ele>479.0</ele><time>2026-04-25T07:52:08.201Z</time></trkpt><trkpt lat="43.4987316" lon="11.4897901"><ele>479.0</ele><time>2026-04-25T07:52:12.207Z</time></trkpt><trkpt lat="43.4986722" lon="11.4897116"><ele>480.66666666666663</ele><time>2026-04-25T07:52:16.199Z</time></trkpt><trkpt lat="43.4986164" lon="11.4896227"><ele>482.3333333333333</ele><time>2026-04-25T07:52:20.234Z</time></trkpt><trkpt lat="43.4985462" lon="11.4895626"><ele>484.0</ele><time>2026-04-25T07:52:23.213Z</time></trkpt><trkpt lat="43.4984869" lon="11.4895118"><ele>485.66666666666663</ele><time>2026-04-25T07:52:26.233Z</time></trkpt><trkpt lat="43.498423" lon="11.4894508"><ele>487.3333333333333</ele><time>2026-04-25T07:52:29.226Z</time></trkpt><trkpt lat="43.4983535" lon="11.4894061"><ele>489.0</ele><time>2026-04-25T07:52:32.23Z</time></trkpt><trkpt lat="43.4982829" lon="11.4893696"><ele>489.0</ele><time>2026-04-25T07:52:35.217Z</time></trkpt><trkpt lat="43.4982214" lon="11.4893096"><ele>489.0</ele><time>2026-04-25T07:52:38.229Z</time></trkpt><trkpt lat="43.4981703" lon="11.4892336"><ele>489.0</ele><time>2026-04-25T07:52:42.233Z</time></trkpt><trkpt lat="43.4980954" lon="11.4891909"><ele>489.0</ele><time>2026-04-25T07:52:46.232Z</time></trkpt><trkpt lat="43.498023" lon="11.4891544"><ele>489.0</ele><time>2026-04-25T07:52:50.235Z</time></trkpt><trkpt lat="43.4979607" lon="11.4891296"><ele>489.0</ele><time>2026-04-25T07:52:53.233Z</time></trkpt><trkpt lat="43.497881" lon="11.4890969"><ele>490.5714285714286</ele><time>2026-04-25T07:52:57.239Z</time></trkpt><trkpt lat="43.4978027" lon="11.4890776"><ele>492.1428571428572</ele><time>2026-04-25T07:53:00.235Z</time></trkpt><trkpt lat="43.4977413" lon="11.4890502"><ele>493.7142857142857</ele><time>2026-04-25T07:53:03.239Z</time></trkpt><trkpt lat="43.4976662" lon="11.4890157"><ele>495.28571428571433</ele><time>2026-04-25T07:53:07.234Z</time></trkpt><trkpt lat="43.4976031" lon="11.4890125"><ele>496.8571428571429</ele><time>2026-04-25T07:53:12.236Z</time></trkpt><trkpt lat="43.4975312" lon="11.4890181"><ele>498.42857142857144</ele><time>2026-04-25T07:53:17.227Z</time></trkpt><trkpt lat="43.4974404" lon="11.4890254"><ele>500.0</ele><time>2026-04-25T07:53:21.245Z</time></trkpt><trkpt lat="43.4973737" lon="11.4890426"><ele>499.99999999999994</ele><time>2026-04-25T07:53:23.25Z</time></trkpt><trkpt lat="43.4972865" lon="11.4890448"><ele>500.0</ele><time>2026-04-25T07:53:26.253Z</time></trkpt><trkpt lat="43.4972123" lon="11.4890368"><ele>500.0</ele><time>2026-04-25T07:53:29.222Z</time></trkpt><trkpt lat="43.4971336" lon="11.4890252"><ele>500.0</ele><time>2026-04-25T07:53:33.246Z</time></trkpt><trkpt lat="43.4970741" lon="11.4889911"><ele>499.99999999999994</ele><time>2026-04-25T07:53:37.226Z</time></trkpt><trkpt lat="43.4970044" lon="11.4889207"><ele>500.0</ele><time>2026-04-25T07:53:41.222Z</time></trkpt><trkpt lat="43.4969561" lon="11.4888467"><ele>501.1428571428571</ele><time>2026-04-25T07:53:44.229Z</time></trkpt><trkpt lat="43.4969024" lon="11.4887932"><ele>502.28571428571433</ele><time>2026-04-25T07:53:47.227Z</time></trkpt><trkpt lat="43.4968494" lon="11.4887271"><ele>503.42857142857144</ele><time>2026-04-25T07:53:50.246Z</time></trkpt><trkpt lat="43.496801" lon="11.4886644"><ele>504.57142857142856</ele><time>2026-04-25T07:53:53.258Z</time></trkpt><trkpt lat="43.4967431" lon="11.488597"><ele>505.71428571428567</ele><time>2026-04-25T07:53:57.251Z</time></trkpt><trkpt lat="43.4966878" lon="11.4885493"><ele>506.8571428571429</ele><time>2026-04-25T07:54:00.247Z</time></trkpt><trkpt lat="43.4966259" lon="11.4884748"><ele>508.0</ele><time>2026-04-25T07:54:04.245Z</time></trkpt><trkpt lat="43.4965648" lon="11.4884039"><ele>509.00000000000006</ele><time>2026-04-25T07:54:08.251Z</time></trkpt><trkpt lat="43.496513" lon="11.4883183"><ele>510.0</ele><time>2026-04-25T07:54:12.257Z</time></trkpt><trkpt lat="43.4964647" lon="11.4882319"><ele>511.0</ele><time>2026-04-25T07:54:16.25Z</time></trkpt><trkpt lat="43.4964108" lon="11.4881548"><ele>512.0</ele><time>2026-04-25T07:54:20.254Z</time></trkpt><trkpt lat="43.4963637" lon="11.4880702"><ele>513.0</ele><time>2026-04-25T07:54:24.252Z</time></trkpt><trkpt lat="43.4963204" lon="11.4879832"><ele>514.0</ele><time>2026-04-25T07:54:28.252Z</time></trkpt><trkpt lat="43.4962672" lon="11.4879012"><ele>517.1428571428571</ele><time>2026-04-25T07:54:32.251Z</time></trkpt><trkpt lat="43.4962269" lon="11.4878332"><ele>520.2857142857143</ele><time>2026-04-25T07:54:35.241Z</time></trkpt><trkpt lat="43.4961772" lon="11.4877662"><ele>523.4285714285714</ele><time>2026-04-25T07:54:38.225Z</time></trkpt><trkpt lat="43.4961363" lon="11.4876904"><ele>526.5714285714286</ele><time>2026-04-25T07:54:41.215Z</time></trkpt><trkpt lat="43.4960999" lon="11.4876194"><ele>529.7142857142857</ele><time>2026-04-25T07:54:44.228Z</time></trkpt><trkpt lat="43.4960686" lon="11.4875416"><ele>532.8571428571429</ele><time>2026-04-25T07:54:47.229Z</time></trkpt><trkpt lat="43.4960285" lon="11.4874722"><ele>536.0</ele><time>2026-04-25T07:54:50.234Z</time></trkpt><trkpt lat="43.4959872" lon="11.4873963"><ele>536.0</ele><time>2026-04-25T07:54:53.242Z</time></trkpt><trkpt lat="43.495951" lon="11.4873151"><ele>536.0</ele><time>2026-04-25T07:54:56.24Z</time></trkpt><trkpt lat="43.495908" lon="11.4872292"><ele>536.0</ele><time>2026-04-25T07:55:00.22Z</time></trkpt><trkpt lat="43.495866" lon="11.4871366"><ele>536.0</ele><time>2026-04-25T07:55:04.241Z</time></trkpt><trkpt lat="43.4958196" lon="11.4870452"><ele>536.0</ele><time>2026-04-25T07:55:08.247Z</time></trkpt><trkpt lat="43.4957727" lon="11.4869826"><ele>536.0</ele><time>2026-04-25T07:55:11.259Z</time></trkpt><trkpt lat="43.4957214" lon="11.4869285"><ele>536.0</ele><time>2026-04-25T07:55:14.263Z</time></trkpt><trkpt lat="43.4956664" lon="11.4868749"><ele>536.0</ele><time>2026-04-25T07:55:17.265Z</time></trkpt><trkpt lat="43.4955947" lon="11.486814"><ele>536.0</ele><time>2026-04-25T07:55:21.259Z</time></trkpt><trkpt lat="43.4955319" lon="11.4867607"><ele>536.0</ele><time>2026-04-25T07:55:25.265Z</time></trkpt><trkpt lat="43.4954689" lon="11.486707"><ele>536.0</ele><time>2026-04-25T07:55:28.265Z</time></trkpt><trkpt lat="43.4954017" lon="11.4866559"><ele>536.0</ele><time>2026-04-25T07:55:31.253Z</time></trkpt><trkpt lat="43.495328" lon="11.4866068"><ele>536.0</ele><time>2026-04-25T07:55:34.264Z</time></trkpt><trkpt lat="43.4952573" lon="11.4865444"><ele>538.0</ele><time>2026-04-25T07:55:37.259Z</time></trkpt><trkpt lat="43.4951903" lon="11.4864937"><ele>540.0</ele><time>2026-04-25T07:55:40.256Z</time></trkpt><trkpt lat="43.4951237" lon="11.4864456"><ele>542.0</ele><time>2026-04-25T07:55:43.26Z</time></trkpt><trkpt lat="43.4950648" lon="11.4864003"><ele>544.0</ele><time>2026-04-25T07:55:46.26Z</time></trkpt><trkpt lat="43.4949997" lon="11.486339"><ele>546.0</ele><time>2026-04-25T07:55:50.248Z</time></trkpt><trkpt lat="43.4949789" lon="11.4862404"><ele>548.0</ele><time>2026-04-25T07:55:54.252Z</time></trkpt><trkpt lat="43.494957" lon="11.4861588"><ele>550.0</ele><time>2026-04-25T07:55:57.268Z</time></trkpt><trkpt lat="43.4949326" lon="11.4860646"><ele>550.0</ele><time>2026-04-25T07:56:00.261Z</time></trkpt><trkpt lat="43.4949056" lon="11.4859786"><ele>550.0</ele><time>2026-04-25T07:56:03.268Z</time></trkpt><trkpt lat="43.4948591" lon="11.4859057"><ele>550.0</ele><time>2026-04-25T07:56:06.267Z</time></trkpt><trkpt lat="43.4947903" lon="11.4858419"><ele>550.0</ele><time>2026-04-25T07:56:09.267Z</time></trkpt><trkpt lat="43.4947231" lon="11.4858104"><ele>550.0</ele><time>2026-04-25T07:56:12.264Z</time></trkpt><trkpt lat="43.4946609" lon="11.4857943"><ele>550.0</ele><time>2026-04-25T07:56:15.268Z</time></trkpt><trkpt lat="43.4945889" lon="11.4857613"><ele>550.0</ele><time>2026-04-25T07:56:18.274Z</time></trkpt><trkpt lat="43.4945372" lon="11.4856736"><ele>552.2857142857143</ele><time>2026-04-25T07:56:22.248Z</time></trkpt><trkpt lat="43.4945065" lon="11.485582"><ele>554.5714285714286</ele><time>2026-04-25T07:56:25.235Z</time></trkpt><trkpt lat="43.4945007" lon="11.4854781"><ele>556.8571428571429</ele><time>2026-04-25T07:56:28.241Z</time></trkpt><trkpt lat="43.4944944" lon="11.4853886"><ele>559.1428571428571</ele><time>2026-04-25T07:56:30.255Z</time></trkpt><trkpt lat="43.4944859" lon="11.4852957"><ele>561.4285714285714</ele><time>2026-04-25T07:56:32.257Z</time></trkpt><trkpt lat="43.4944735" lon="11.4852084"><ele>563.7142857142858</ele><time>2026-04-25T07:56:34.262Z</time></trkpt><trkpt lat="43.4944474" lon="11.4851227"><ele>566.0</ele><time>2026-04-25T07:56:36.265Z</time></trkpt><trkpt lat="43.4944158" lon="11.4850423"><ele>566.0</ele><time>2026-04-25T07:56:38.26Z</time></trkpt><trkpt lat="43.4943625" lon="11.4849366"><ele>566.0</ele><time>2026-04-25T07:56:41.264Z</time></trkpt><trkpt lat="43.4943076" lon="11.4848405"><ele>566.0</ele><time>2026-04-25T07:56:44.264Z</time></trkpt><trkpt lat="43.4942628" lon="11.4847535"><ele>566.0</ele><time>2026-04-25T07:56:47.266Z</time></trkpt><trkpt lat="43.4942288" lon="11.4846684"><ele>566.0</ele><time>2026-04-25T07:56:50.263Z</time></trkpt><trkpt lat="43.4941856" lon="11.4845678"><ele>566.0</ele><time>2026-04-25T07:56:53.267Z</time></trkpt><trkpt lat="43.4941567" lon="11.4844891"><ele>564.8333333333333</ele><time>2026-04-25T07:56:55.265Z</time></trkpt><trkpt lat="43.4941081" lon="11.48438"><ele>563.6666666666666</ele><time>2026-04-25T07:56:58.246Z</time></trkpt><trkpt lat="43.4940594" lon="11.4842881"><ele>562.5</ele><time>2026-04-25T07:57:01.264Z</time></trkpt><trkpt lat="43.4940151" lon="11.4842052"><ele>561.3333333333334</ele><time>2026-04-25T07:57:04.245Z</time></trkpt><trkpt lat="43.4939696" lon="11.4841356"><ele>560.1666666666667</ele><time>2026-04-25T07:57:07.244Z</time></trkpt><trkpt lat="43.4939122" lon="11.4840614"><ele>559.0</ele><time>2026-04-25T07:57:10.271Z</time></trkpt><trkpt lat="43.4938685" lon="11.4839742"><ele>559.0</ele><time>2026-04-25T07:57:13.268Z</time></trkpt><trkpt lat="43.4938155" lon="11.4838851"><ele>559.0</ele><time>2026-04-25T07:57:16.27Z</time></trkpt><trkpt lat="43.4937713" lon="11.4838214"><ele>559.0</ele><time>2026-04-25T07:57:18.269Z</time></trkpt><trkpt lat="43.49373" lon="11.4837468"><ele>559.0</ele><time>2026-04-25T07:57:20.268Z</time></trkpt><trkpt lat="43.4936872" lon="11.483676"><ele>559.0</ele><time>2026-04-25T07:57:22.27Z</time></trkpt><trkpt lat="43.4936409" lon="11.4836133"><ele>559.0</ele><time>2026-04-25T07:57:24.272Z</time></trkpt><trkpt lat="43.4935801" lon="11.4835187"><ele>559.0</ele><time>2026-04-25T07:57:27.266Z</time></trkpt><trkpt lat="43.4935283" lon="11.4834226"><ele>560.3333333333334</ele><time>2026-04-25T07:57:30.262Z</time></trkpt><trkpt lat="43.4934669" lon="11.483328"><ele>561.6666666666667</ele><time>2026-04-25T07:57:33.264Z</time></trkpt><trkpt lat="43.4934129" lon="11.4832261"><ele>563.0</ele><time>2026-04-25T07:57:36.26Z</time></trkpt><trkpt lat="43.4933588" lon="11.4831326"><ele>564.3333333333334</ele><time>2026-04-25T07:57:39.276Z</time></trkpt><trkpt lat="43.493308" lon="11.4830353"><ele>565.6666666666666</ele><time>2026-04-25T07:57:42.241Z</time></trkpt><trkpt lat="43.4932692" lon="11.4829399"><ele>567.0</ele><time>2026-04-25T07:57:45.243Z</time></trkpt><trkpt lat="43.4932253" lon="11.4828446"><ele>567.1666666666666</ele><time>2026-04-25T07:57:48.239Z</time></trkpt><trkpt lat="43.4931728" lon="11.482741"><ele>567.3333333333334</ele><time>2026-04-25T07:57:51.236Z</time></trkpt><trkpt lat="43.4931237" lon="11.4826437"><ele>567.5</ele><time>2026-04-25T07:57:54.242Z</time></trkpt><trkpt lat="43.4930822" lon="11.4825481"><ele>567.6666666666667</ele><time>2026-04-25T07:57:57.236Z</time></trkpt><trkpt lat="43.4930458" lon="11.4824463"><ele>567.8333333333334</ele><time>2026-04-25T07:58:00.25Z</time></trkpt><trkpt lat="43.4930217" lon="11.4823573"><ele>568.0</ele><time>2026-04-25T07:58:03.23Z</time></trkpt><trkpt lat="43.4929962" lon="11.4822674"><ele>568.0</ele><time>2026-04-25T07:58:06.226Z</time></trkpt><trkpt lat="43.4929747" lon="11.4821825"><ele>568.0</ele><time>2026-04-25T07:58:09.233Z</time></trkpt><trkpt lat="43.4929441" lon="11.4820907"><ele>568.0</ele><time>2026-04-25T07:58:12.252Z</time></trkpt><trkpt lat="43.4929159" lon="11.4820071"><ele>568.0</ele><time>2026-04-25T07:58:15.231Z</time></trkpt><trkpt lat="43.4928803" lon="11.4818991"><ele>568.0</ele><time>2026-04-25T07:58:19.225Z</time></trkpt><trkpt lat="43.4928701" lon="11.481803"><ele>568.0</ele><time>2026-04-25T07:58:22.221Z</time></trkpt><trkpt lat="43.4928585" lon="11.481687"><ele>568.0</ele><time>2026-04-25T07:58:25.243Z</time></trkpt><trkpt lat="43.4928389" lon="11.4815837"><ele>571.7142857142857</ele><time>2026-04-25T07:58:28.23Z</time></trkpt><trkpt lat="43.4927851" lon="11.4815055"><ele>575.4285714285713</ele><time>2026-04-25T07:58:31.219Z</time></trkpt><trkpt lat="43.492717" lon="11.4814535"><ele>579.1428571428571</ele><time>2026-04-25T07:58:34.22Z</time></trkpt><trkpt lat="43.4926512" lon="11.4814153"><ele>582.8571428571429</ele><time>2026-04-25T07:58:37.214Z</time></trkpt><trkpt lat="43.4925928" lon="11.4813763"><ele>586.5714285714287</ele><time>2026-04-25T07:58:40.254Z</time></trkpt><trkpt lat="43.4925317" lon="11.4813075"><ele>590.2857142857143</ele><time>2026-04-25T07:58:43.248Z</time></trkpt><trkpt lat="43.4924856" lon="11.4812212"><ele>594.0</ele><time>2026-04-25T07:58:46.251Z</time></trkpt><trkpt lat="43.4924461" lon="11.4811398"><ele>594.5</ele><time>2026-04-25T07:58:49.226Z</time></trkpt><trkpt lat="43.4924024" lon="11.4810592"><ele>595.0</ele><time>2026-04-25T07:58:52.225Z</time></trkpt><trkpt lat="43.4923546" lon="11.4809793"><ele>595.5</ele><time>2026-04-25T07:58:55.222Z</time></trkpt><trkpt lat="43.4922996" lon="11.4808957"><ele>596.0</ele><time>2026-04-25T07:58:58.22Z</time></trkpt><trkpt lat="43.4922537" lon="11.4808107"><ele>596.5</ele><time>2026-04-25T07:59:01.246Z</time></trkpt><trkpt lat="43.4922103" lon="11.4807383"><ele>597.0</ele><time>2026-04-25T07:59:04.264Z</time></trkpt><trkpt lat="43.4921413" lon="11.480682"><ele>596.8333333333334</ele><time>2026-04-25T07:59:08.255Z</time></trkpt><trkpt lat="43.4920737" lon="11.4806257"><ele>596.6666666666666</ele><time>2026-04-25T07:59:12.266Z</time></trkpt><trkpt lat="43.4919918" lon="11.4805812"><ele>596.5</ele><time>2026-04-25T07:59:15.269Z</time></trkpt><trkpt lat="43.4919197" lon="11.4805507"><ele>596.3333333333333</ele><time>2026-04-25T07:59:17.262Z</time></trkpt><trkpt lat="43.491841" lon="11.4805165"><ele>596.1666666666666</ele><time>2026-04-25T07:59:19.261Z</time></trkpt><trkpt lat="43.4917605" lon="11.4804763"><ele>596.0</ele><time>2026-04-25T07:59:21.258Z</time></trkpt><trkpt lat="43.4916894" lon="11.4804352"><ele>595.6666666666666</ele><time>2026-04-25T07:59:23.262Z</time></trkpt><trkpt lat="43.4916249" lon="11.4803808"><ele>595.3333333333333</ele><time>2026-04-25T07:59:25.251Z</time></trkpt><trkpt lat="43.4915738" lon="11.4803276"><ele>595.0</ele><time>2026-04-25T07:59:27.278Z</time></trkpt><trkpt lat="43.4914958" lon="11.4802587"><ele>594.6666666666666</ele><time>2026-04-25T07:59:30.245Z</time></trkpt><trkpt lat="43.4914154" lon="11.4801986"><ele>594.3333333333334</ele><time>2026-04-25T07:59:33.235Z</time></trkpt><trkpt lat="43.4913407" lon="11.480137"><ele>594.0</ele><time>2026-04-25T07:59:36.258Z</time></trkpt><trkpt lat="43.4912895" lon="11.4800818"><ele>593.8571428571429</ele><time>2026-04-25T07:59:39.264Z</time></trkpt><trkpt lat="43.491231" lon="11.4800269"><ele>593.7142857142858</ele><time>2026-04-25T07:59:42.257Z</time></trkpt><trkpt lat="43.4911551" lon="11.4799714"><ele>593.5714285714286</ele><time>2026-04-25T07:59:45.26Z</time></trkpt><trkpt lat="43.4910986" lon="11.4799286"><ele>593.4285714285714</ele><time>2026-04-25T07:59:47.23Z</time></trkpt><trkpt lat="43.4910359" lon="11.4798891"><ele>593.2857142857142</ele><time>2026-04-25T07:59:49.23Z</time></trkpt><trkpt lat="43.4909772" lon="11.4798441"><ele>593.1428571428571</ele><time>2026-04-25T07:59:51.221Z</time></trkpt><trkpt lat="43.4909089" lon="11.4797795"><ele>593.0</ele><time>2026-04-25T07:59:54.229Z</time></trkpt><trkpt lat="43.4908395" lon="11.4797022"><ele>592.9999999999999</ele><time>2026-04-25T07:59:57.226Z</time></trkpt><trkpt lat="43.4907717" lon="11.4796222"><ele>593.0</ele><time>2026-04-25T08:00:00.218Z</time></trkpt><trkpt lat="43.4907322" lon="11.4795542"><ele>593.0</ele><time>2026-04-25T08:00:02.223Z</time></trkpt><trkpt lat="43.4906737" lon="11.4794634"><ele>593.0</ele><time>2026-04-25T08:00:05.22Z</time></trkpt><trkpt lat="43.490618" lon="11.4793915"><ele>593.0</ele><time>2026-04-25T08:00:08.218Z</time></trkpt><trkpt lat="43.4905684" lon="11.4793337"><ele>592.9999999999999</ele><time>2026-04-25T08:00:11.238Z</time></trkpt><trkpt lat="43.4905169" lon="11.4792742"><ele>593.0</ele><time>2026-04-25T08:00:15.228Z</time></trkpt><trkpt lat="43.4904514" lon="11.4792336"><ele>594.6666666666666</ele><time>2026-04-25T08:00:18.214Z</time></trkpt><trkpt lat="43.4903735" lon="11.4791992"><ele>596.3333333333333</ele><time>2026-04-25T08:00:22.225Z</time></trkpt><trkpt lat="43.4903096" lon="11.4791554"><ele>598.0</ele><time>2026-04-25T08:00:25.228Z</time></trkpt><trkpt lat="43.4902428" lon="11.4791274"><ele>599.6666666666666</ele><time>2026-04-25T08:00:28.228Z</time></trkpt><trkpt lat="43.4901729" lon="11.4790883"><ele>601.3333333333334</ele><time>2026-04-25T08:00:31.217Z</time></trkpt><trkpt lat="43.4901056" lon="11.4790431"><ele>603.0</ele><time>2026-04-25T08:00:34.22Z</time></trkpt><trkpt lat="43.4900296" lon="11.4790017"><ele>603.0</ele><time>2026-04-25T08:00:37.224Z</time></trkpt><trkpt lat="43.4899754" lon="11.4789343"><ele>603.0</ele><time>2026-04-25T08:00:40.222Z</time></trkpt><trkpt lat="43.4899284" lon="11.4788649"><ele>603.0</ele><time>2026-04-25T08:00:43.221Z</time></trkpt><trkpt lat="43.4898766" lon="11.4787798"><ele>603.0</ele><time>2026-04-25T08:00:46.216Z</time></trkpt><trkpt lat="43.4898267" lon="11.4787199"><ele>603.0</ele><time>2026-04-25T08:00:49.223Z</time></trkpt><trkpt lat="43.4897784" lon="11.4786538"><ele>603.0</ele><time>2026-04-25T08:00:53.223Z</time></trkpt><trkpt lat="43.4897227" lon="11.4786031"><ele>603.0</ele><time>2026-04-25T08:00:56.213Z</time></trkpt><trkpt lat="43.4896567" lon="11.4785448"><ele>604.6666666666666</ele><time>2026-04-25T08:00:59.229Z</time></trkpt><trkpt lat="43.4895828" lon="11.4784732"><ele>606.3333333333334</ele><time>2026-04-25T08:01:02.215Z</time></trkpt><trkpt lat="43.4895251" lon="11.4784319"><ele>608.0</ele><time>2026-04-25T08:01:04.218Z</time></trkpt><trkpt lat="43.4894615" lon="11.4783742"><ele>609.6666666666667</ele><time>2026-04-25T08:01:07.216Z</time></trkpt><trkpt lat="43.4893916" lon="11.4783075"><ele>611.3333333333334</ele><time>2026-04-25T08:01:11.229Z</time></trkpt><trkpt lat="43.4893102" lon="11.4782401"><ele>613.0</ele><time>2026-04-25T08:01:14.225Z</time></trkpt><trkpt lat="43.4892219" lon="11.4781672"><ele>613.0</ele><time>2026-04-25T08:01:16.217Z</time></trkpt><trkpt lat="43.4891283" lon="11.4780936"><ele>613.0</ele><time>2026-04-25T08:01:18.216Z</time></trkpt><trkpt lat="43.4890636" lon="11.478043"><ele>613.0</ele><time>2026-04-25T08:01:19.217Z</time></trkpt><trkpt lat="43.4889963" lon="11.4779868"><ele>613.0</ele><time>2026-04-25T08:01:20.214Z</time></trkpt><trkpt lat="43.4889254" lon="11.4779303"><ele>613.0</ele><time>2026-04-25T08:01:21.209Z</time></trkpt><trkpt lat="43.4888497" lon="11.4778772"><ele>613.0</ele><time>2026-04-25T08:01:22.218Z</time></trkpt><trkpt lat="43.4887657" lon="11.4778252"><ele>611.0</ele><time>2026-04-25T08:01:23.209Z</time></trkpt><trkpt lat="43.4886782" lon="11.4777765"><ele>609.0</ele><time>2026-04-25T08:01:24.219Z</time></trkpt><trkpt lat="43.4885772" lon="11.4777412"><ele>607.0</ele><time>2026-04-25T08:01:25.21Z</time></trkpt><trkpt lat="43.4884633" lon="11.4777261"><ele>605.0</ele><time>2026-04-25T08:01:26.233Z</time></trkpt><trkpt lat="43.4883442" lon="11.4777211"><ele>603.0</ele><time>2026-04-25T08:01:27.248Z</time></trkpt><trkpt lat="43.4882324" lon="11.4777249"><ele>603.0</ele><time>2026-04-25T08:01:28.252Z</time></trkpt><trkpt lat="43.4881196" lon="11.4777278"><ele>603.0</ele><time>2026-04-25T08:01:29.244Z</time></trkpt><trkpt lat="43.4880124" lon="11.4777267"><ele>603.0</ele><time>2026-04-25T08:01:30.252Z</time></trkpt><trkpt lat="43.4879093" lon="11.477726"><ele>603.0</ele><time>2026-04-25T08:01:31.248Z</time></trkpt><trkpt lat="43.4878084" lon="11.4777262"><ele>603.0</ele><time>2026-04-25T08:01:32.255Z</time></trkpt><trkpt lat="43.4877077" lon="11.477726"><ele>601.6</ele><time>2026-04-25T08:01:33.244Z</time></trkpt><trkpt lat="43.4876113" lon="11.4777231"><ele>600.1999999999999</ele><time>2026-04-25T08:01:34.24Z</time></trkpt><trkpt lat="43.4875158" lon="11.4777214"><ele>598.8</ele><time>2026-04-25T08:01:35.248Z</time></trkpt><trkpt lat="43.4874244" lon="11.477721"><ele>597.4</ele><time>2026-04-25T08:01:36.244Z</time></trkpt><trkpt lat="43.4873365" lon="11.4777206"><ele>596.0</ele><time>2026-04-25T08:01:37.252Z</time></trkpt><trkpt lat="43.4872546" lon="11.4777226"><ele>596.0</ele><time>2026-04-25T08:01:38.246Z</time></trkpt><trkpt lat="43.487177" lon="11.4777241"><ele>596.0</ele><time>2026-04-25T08:01:39.249Z</time></trkpt><trkpt lat="43.4871013" lon="11.4777215"><ele>596.0</ele><time>2026-04-25T08:01:40.249Z</time></trkpt><trkpt lat="43.487031" lon="11.4777168"><ele>596.0</ele><time>2026-04-25T08:01:41.246Z</time></trkpt><trkpt lat="43.4869156" lon="11.4777072"><ele>596.0</ele><time>2026-04-25T08:01:43.251Z</time></trkpt><trkpt lat="43.4868346" lon="11.4777001"><ele>596.0</ele><time>2026-04-25T08:01:45.248Z</time></trkpt><trkpt lat="43.4867476" lon="11.4776959"><ele>596.8571428571429</ele><time>2026-04-25T08:01:48.253Z</time></trkpt><trkpt lat="43.4866787" lon="11.4776918"><ele>597.7142857142857</ele><time>2026-04-25T08:01:51.251Z</time></trkpt><trkpt lat="43.4865854" lon="11.4776749"><ele>598.5714285714286</ele><time>2026-04-25T08:01:54.254Z</time></trkpt><trkpt lat="43.4865246" lon="11.4776499"><ele>599.4285714285714</ele><time>2026-04-25T08:01:56.248Z</time></trkpt><trkpt lat="43.4864628" lon="11.4776225"><ele>600.2857142857142</ele><time>2026-04-25T08:01:58.244Z</time></trkpt><trkpt lat="43.4864021" lon="11.4775953"><ele>601.1428571428571</ele><time>2026-04-25T08:02:00.25Z</time></trkpt><trkpt lat="43.4863376" lon="11.4775762"><ele>602.0</ele><time>2026-04-25T08:02:02.25Z</time></trkpt><trkpt lat="43.4862781" lon="11.4775478"><ele>603.0</ele><time>2026-04-25T08:02:04.242Z</time></trkpt><trkpt lat="43.48621" lon="11.4775302"><ele>604.0</ele><time>2026-04-25T08:02:06.246Z</time></trkpt><trkpt lat="43.4861445" lon="11.4775142"><ele>605.0</ele><time>2026-04-25T08:02:08.24Z</time></trkpt><trkpt lat="43.4860549" lon="11.4774813"><ele>606.0</ele><time>2026-04-25T08:02:11.245Z</time></trkpt><trkpt lat="43.4859853" lon="11.4774627"><ele>607.0</ele><time>2026-04-25T08:02:13.246Z</time></trkpt><trkpt lat="43.4859196" lon="11.4774419"><ele>608.0</ele><time>2026-04-25T08:02:15.244Z</time></trkpt><trkpt lat="43.4858558" lon="11.4774213"><ele>609.0</ele><time>2026-04-25T08:02:17.247Z</time></trkpt><trkpt lat="43.4857631" lon="11.4774031"><ele>609.0</ele><time>2026-04-25T08:02:20.257Z</time></trkpt><trkpt lat="43.4857001" lon="11.4774063"><ele>609.0</ele><time>2026-04-25T08:02:22.252Z</time></trkpt><trkpt lat="43.485632" lon="11.4774351"><ele>609.0</ele><time>2026-04-25T08:02:24.26Z</time></trkpt><trkpt lat="43.4855595" lon="11.4774682"><ele>609.0</ele><time>2026-04-25T08:02:26.234Z</time></trkpt><trkpt lat="43.4854834" lon="11.4774938"><ele>609.0</ele><time>2026-04-25T08:02:28.247Z</time></trkpt><trkpt lat="43.4854127" lon="11.4775078"><ele>609.0</ele><time>2026-04-25T08:02:30.245Z</time></trkpt><trkpt lat="43.4853436" lon="11.4775098"><ele>609.0</ele><time>2026-04-25T08:02:32.259Z</time></trkpt><trkpt lat="43.4852649" lon="11.4775107"><ele>609.0</ele><time>2026-04-25T08:02:34.244Z</time></trkpt><trkpt lat="43.4851796" lon="11.4775073"><ele>609.0</ele><time>2026-04-25T08:02:36.24Z</time></trkpt><trkpt lat="43.485106" lon="11.4775074"><ele>609.0</ele><time>2026-04-25T08:02:38.245Z</time></trkpt><trkpt lat="43.4850342" lon="11.4775026"><ele>609.0</ele><time>2026-04-25T08:02:40.26Z</time></trkpt><trkpt lat="43.4849631" lon="11.4774965"><ele>609.0</ele><time>2026-04-25T08:02:42.252Z</time></trkpt><trkpt lat="43.4848852" lon="11.4774898"><ele>609.0</ele><time>2026-04-25T08:02:44.267Z</time></trkpt><trkpt lat="43.4847961" lon="11.477482"><ele>609.0</ele><time>2026-04-25T08:02:46.259Z</time></trkpt><trkpt lat="43.4847025" lon="11.4774804"><ele>609.0</ele><time>2026-04-25T08:02:48.259Z</time></trkpt><trkpt lat="43.4846075" lon="11.4774689"><ele>609.0</ele><time>2026-04-25T08:02:50.261Z</time></trkpt><trkpt lat="43.4845152" lon="11.4774614"><ele>609.0</ele><time>2026-04-25T08:02:52.256Z</time></trkpt><trkpt lat="43.4844258" lon="11.4774479"><ele>609.0</ele><time>2026-04-25T08:02:54.252Z</time></trkpt><trkpt lat="43.4843331" lon="11.4774128"><ele>608.5</ele><time>2026-04-25T08:02:56.251Z</time></trkpt><trkpt lat="43.4842519" lon="11.477367"><ele>608.0</ele><time>2026-04-25T08:02:58.269Z</time></trkpt><trkpt lat="43.4841753" lon="11.4773259"><ele>607.5</ele><time>2026-04-25T08:03:00.257Z</time></trkpt><trkpt lat="43.4841001" lon="11.4772796"><ele>607.0</ele><time>2026-04-25T08:03:02.265Z</time></trkpt><trkpt lat="43.4840153" lon="11.4772381"><ele>606.5</ele><time>2026-04-25T08:03:04.268Z</time></trkpt><trkpt lat="43.4839382" lon="11.4772017"><ele>606.0</ele><time>2026-04-25T08:03:06.257Z</time></trkpt><trkpt lat="43.4838676" lon="11.4771679"><ele>606.0</ele><time>2026-04-25T08:03:08.259Z</time></trkpt><trkpt lat="43.4837946" lon="11.4771399"><ele>606.0</ele><time>2026-04-25T08:03:10.261Z</time></trkpt><trkpt lat="43.4837111" lon="11.4771119"><ele>606.0</ele><time>2026-04-25T08:03:12.275Z</time></trkpt><trkpt lat="43.4836149" lon="11.4770919"><ele>606.0</ele><time>2026-04-25T08:03:14.265Z</time></trkpt><trkpt lat="43.4835316" lon="11.4770687"><ele>606.0</ele><time>2026-04-25T08:03:16.267Z</time></trkpt><trkpt lat="43.4834475" lon="11.4770355"><ele>606.0</ele><time>2026-04-25T08:03:18.264Z</time></trkpt><trkpt lat="43.4833748" lon="11.4770004"><ele>605.8333333333334</ele><time>2026-04-25T08:03:20.273Z</time></trkpt><trkpt lat="43.4833001" lon="11.4769712"><ele>605.6666666666666</ele><time>2026-04-25T08:03:22.263Z</time></trkpt><trkpt lat="43.4832341" lon="11.4769415"><ele>605.5</ele><time>2026-04-25T08:03:24.264Z</time></trkpt><trkpt lat="43.483147" lon="11.4768916"><ele>605.3333333333333</ele><time>2026-04-25T08:03:27.266Z</time></trkpt><trkpt lat="43.4830592" lon="11.4768318"><ele>605.1666666666666</ele><time>2026-04-25T08:03:30.261Z</time></trkpt><trkpt lat="43.482995" lon="11.4767972"><ele>605.0</ele><time>2026-04-25T08:03:32.265Z</time></trkpt><trkpt lat="43.4829301" lon="11.4767578"><ele>605.7142857142857</ele><time>2026-04-25T08:03:34.277Z</time></trkpt><trkpt lat="43.4828671" lon="11.476717"><ele>606.4285714285714</ele><time>2026-04-25T08:03:36.241Z</time></trkpt><trkpt lat="43.4828107" lon="11.4766732"><ele>607.1428571428571</ele><time>2026-04-25T08:03:38.24Z</time></trkpt><trkpt lat="43.4827398" lon="11.4766373"><ele>607.8571428571429</ele><time>2026-04-25T08:03:40.237Z</time></trkpt><trkpt lat="43.4826788" lon="11.476609"><ele>608.5714285714286</ele><time>2026-04-25T08:03:42.239Z</time></trkpt><trkpt lat="43.482601" lon="11.4765611"><ele>609.2857142857143</ele><time>2026-04-25T08:03:45.23Z</time></trkpt><trkpt lat="43.4825415" lon="11.4765221"><ele>610.0</ele><time>2026-04-25T08:03:47.222Z</time></trkpt><trkpt lat="43.482479" lon="11.4764812"><ele>610.0</ele><time>2026-04-25T08:03:49.216Z</time></trkpt><trkpt lat="43.4824011" lon="11.476446"><ele>610.0</ele><time>2026-04-25T08:03:51.22Z</time></trkpt><trkpt lat="43.4823335" lon="11.4764135"><ele>610.0</ele><time>2026-04-25T08:03:53.241Z</time></trkpt><trkpt lat="43.4822603" lon="11.4763783"><ele>610.0</ele><time>2026-04-25T08:03:55.23Z</time></trkpt><trkpt lat="43.4821858" lon="11.4763509"><ele>610.0</ele><time>2026-04-25T08:03:57.23Z</time></trkpt><trkpt lat="43.4821126" lon="11.4763153"><ele>610.0</ele><time>2026-04-25T08:04:00.228Z</time></trkpt><trkpt lat="43.4820512" lon="11.4762716"><ele>611.1666666666667</ele><time>2026-04-25T08:04:03.22Z</time></trkpt><trkpt lat="43.4819851" lon="11.4762041"><ele>612.3333333333334</ele><time>2026-04-25T08:04:06.224Z</time></trkpt><trkpt lat="43.4819342" lon="11.4761475"><ele>613.5</ele><time>2026-04-25T08:04:08.231Z</time></trkpt><trkpt lat="43.4818792" lon="11.4761047"><ele>614.6666666666666</ele><time>2026-04-25T08:04:10.222Z</time></trkpt><trkpt lat="43.4818195" lon="11.4760668"><ele>615.8333333333333</ele><time>2026-04-25T08:04:12.224Z</time></trkpt><trkpt lat="43.4817425" lon="11.4760281"><ele>617.0</ele><time>2026-04-25T08:04:15.232Z</time></trkpt><trkpt lat="43.4816515" lon="11.4760011"><ele>617.0</ele><time>2026-04-25T08:04:18.223Z</time></trkpt><trkpt lat="43.4815661" lon="11.4759672"><ele>617.0</ele><time>2026-04-25T08:04:21.229Z</time></trkpt><trkpt lat="43.4815075" lon="11.4759232"><ele>617.0</ele><time>2026-04-25T08:04:23.238Z</time></trkpt><trkpt lat="43.4814401" lon="11.4758701"><ele>617.0</ele><time>2026-04-25T08:04:25.228Z</time></trkpt><trkpt lat="43.4813762" lon="11.4758093"><ele>617.0</ele><time>2026-04-25T08:04:27.23Z</time></trkpt><trkpt lat="43.4813118" lon="11.4757381"><ele>617.0</ele><time>2026-04-25T08:04:29.231Z</time></trkpt><trkpt lat="43.4812503" lon="11.475661"><ele>618.2</ele><time>2026-04-25T08:04:31.226Z</time></trkpt><trkpt lat="43.4811784" lon="11.4755767"><ele>619.4000000000001</ele><time>2026-04-25T08:04:33.216Z</time></trkpt><trkpt lat="43.4810836" lon="11.4754625"><ele>620.5999999999999</ele><time>2026-04-25T08:04:35.241Z</time></trkpt><trkpt lat="43.4810252" lon="11.475398"><ele>621.8</ele><time>2026-04-25T08:04:36.226Z</time></trkpt><trkpt lat="43.480965" lon="11.4753278"><ele>623.0</ele><time>2026-04-25T08:04:37.229Z</time></trkpt><trkpt lat="43.4809004" lon="11.4752593"><ele>623.0</ele><time>2026-04-25T08:04:38.232Z</time></trkpt><trkpt lat="43.4808342" lon="11.4751941"><ele>623.0</ele><time>2026-04-25T08:04:39.229Z</time></trkpt><trkpt lat="43.4807693" lon="11.475136"><ele>623.0</ele><time>2026-04-25T08:04:40.232Z</time></trkpt><trkpt lat="43.4807035" lon="11.475088"><ele>623.0</ele><time>2026-04-25T08:04:41.214Z</time></trkpt><trkpt lat="43.4806376" lon="11.4750477"><ele>623.0</ele><time>2026-04-25T08:04:42.212Z</time></trkpt><trkpt lat="43.4805744" lon="11.4750078"><ele>623.0</ele><time>2026-04-25T08:04:43.212Z</time></trkpt><trkpt lat="43.4804702" lon="11.4749446"><ele>623.5</ele><time>2026-04-25T08:04:45.213Z</time></trkpt><trkpt lat="43.4804008" lon="11.4748873"><ele>624.0</ele><time>2026-04-25T08:04:47.213Z</time></trkpt><trkpt lat="43.4803449" lon="11.4748412"><ele>624.5</ele><time>2026-04-25T08:04:49.221Z</time></trkpt><trkpt lat="43.480261" lon="11.4748445"><ele>625.0</ele><time>2026-04-25T08:04:52.218Z</time></trkpt><trkpt lat="43.4802051" lon="11.4749423"><ele>625.5</ele><time>2026-04-25T08:04:55.221Z</time></trkpt><trkpt lat="43.4801924" lon="11.4750316"><ele>626.0</ele><time>2026-04-25T08:04:57.227Z</time></trkpt><trkpt lat="43.480186" lon="11.4751622"><ele>626.0</ele><time>2026-04-25T08:05:00.227Z</time></trkpt><trkpt lat="43.4801835" lon="11.4752511"><ele>626.0</ele><time>2026-04-25T08:05:02.222Z</time></trkpt><trkpt lat="43.4801832" lon="11.4753454"><ele>626.0</ele><time>2026-04-25T08:05:04.216Z</time></trkpt><trkpt lat="43.4801552" lon="11.4754569"><ele>626.0</ele><time>2026-04-25T08:05:07.215Z</time></trkpt><trkpt lat="43.4800974" lon="11.475509"><ele>626.0</ele><time>2026-04-25T08:05:10.207Z</time></trkpt><trkpt lat="43.480039" lon="11.4755488"><ele>626.0</ele><time>2026-04-25T08:05:12.202Z</time></trkpt><trkpt lat="43.4799534" lon="11.475567"><ele>626.0</ele><time>2026-04-25T08:05:15.191Z</time></trkpt><trkpt lat="43.4798823" lon="11.4755639"><ele>626.0</ele><time>2026-04-25T08:05:17.199Z</time></trkpt><trkpt lat="43.4798196" lon="11.4755517"><ele>626.0</ele><time>2026-04-25T08:05:19.21Z</time></trkpt><trkpt lat="43.4797416" lon="11.4755164"><ele>626.0</ele><time>2026-04-25T08:05:22.218Z</time></trkpt><trkpt lat="43.4796718" lon="11.4754572"><ele>626.0</ele><time>2026-04-25T08:05:25.213Z</time></trkpt><trkpt lat="43.4796066" lon="11.4753978"><ele>626.0</ele><time>2026-04-25T08:05:28.21Z</time></trkpt><trkpt lat="43.4795308" lon="11.4753439"><ele>626.0</ele><time>2026-04-25T08:05:31.209Z</time></trkpt><trkpt lat="43.4794682" lon="11.4752979"><ele>625.0</ele><time>2026-04-25T08:05:34.203Z</time></trkpt><trkpt lat="43.4794156" lon="11.4752457"><ele>624.0</ele><time>2026-04-25T08:05:37.217Z</time></trkpt><trkpt lat="43.4793575" lon="11.4751761"><ele>623.0</ele><time>2026-04-25T08:05:40.204Z</time></trkpt><trkpt lat="43.4792739" lon="11.4751263"><ele>622.0</ele><time>2026-04-25T08:05:43.206Z</time></trkpt><trkpt lat="43.4791906" lon="11.4752237"><ele>621.0</ele><time>2026-04-25T08:05:46.214Z</time></trkpt><trkpt lat="43.4791226" lon="11.4753181"><ele>620.0</ele><time>2026-04-25T08:05:48.208Z</time></trkpt><trkpt lat="43.4790781" lon="11.475449"><ele>620.0</ele><time>2026-04-25T08:05:50.213Z</time></trkpt><trkpt lat="43.4790826" lon="11.4755788"><ele>620.0</ele><time>2026-04-25T08:05:52.212Z</time></trkpt><trkpt lat="43.4790997" lon="11.4756941"><ele>620.0</ele><time>2026-04-25T08:05:54.217Z</time></trkpt><trkpt lat="43.4791207" lon="11.4757968"><ele>620.0</ele><time>2026-04-25T08:05:56.215Z</time></trkpt><trkpt lat="43.4790951" lon="11.4758996"><ele>620.0</ele><time>2026-04-25T08:05:59.215Z</time></trkpt><trkpt lat="43.4790629" lon="11.4759821"><ele>620.0</ele><time>2026-04-25T08:06:03.224Z</time></trkpt><trkpt lat="43.4789977" lon="11.4760332"><ele>620.0</ele><time>2026-04-25T08:06:07.222Z</time></trkpt><trkpt lat="43.4789324" lon="11.4760596"><ele>620.0</ele><time>2026-04-25T08:06:10.228Z</time></trkpt><trkpt lat="43.4788483" lon="11.4760441"><ele>620.0</ele><time>2026-04-25T08:06:14.22Z</time></trkpt><trkpt lat="43.4787783" lon="11.4760182"><ele>620.0</ele><time>2026-04-25T08:06:18.223Z</time></trkpt><trkpt lat="43.4786943" lon="11.4759903"><ele>620.0</ele><time>2026-04-25T08:06:21.214Z</time></trkpt><trkpt lat="43.4786294" lon="11.4759484"><ele>620.0</ele><time>2026-04-25T08:06:24.216Z</time></trkpt><trkpt lat="43.4785533" lon="11.4759036"><ele>621.0</ele><time>2026-04-25T08:06:27.216Z</time></trkpt><trkpt lat="43.4785079" lon="11.4758373"><ele>622.0</ele><time>2026-04-25T08:06:31.209Z</time></trkpt><trkpt lat="43.4784576" lon="11.4757761"><ele>623.0</ele><time>2026-04-25T08:06:35.217Z</time></trkpt><trkpt lat="43.4784027" lon="11.4757258"><ele>624.0</ele><time>2026-04-25T08:06:38.219Z</time></trkpt><trkpt lat="43.4783301" lon="11.4756732"><ele>625.0</ele><time>2026-04-25T08:06:41.213Z</time></trkpt><trkpt lat="43.4782733" lon="11.4756071"><ele>626.0</ele><time>2026-04-25T08:06:44.213Z</time></trkpt><trkpt lat="43.4782256" lon="11.4755415"><ele>627.0</ele><time>2026-04-25T08:06:47.22Z</time></trkpt><trkpt lat="43.4781596" lon="11.4754807"><ele>628.8333333333334</ele><time>2026-04-25T08:06:51.219Z</time></trkpt><trkpt lat="43.4780974" lon="11.4754025"><ele>630.6666666666666</ele><time>2026-04-25T08:06:54.221Z</time></trkpt><trkpt lat="43.4780597" lon="11.4753165"><ele>632.5</ele><time>2026-04-25T08:06:56.215Z</time></trkpt><trkpt lat="43.4780275" lon="11.4752171"><ele>634.3333333333333</ele><time>2026-04-25T08:06:58.215Z</time></trkpt><trkpt lat="43.4780027" lon="11.4750947"><ele>636.1666666666666</ele><time>2026-04-25T08:07:00.211Z</time></trkpt><trkpt lat="43.4779833" lon="11.4749889"><ele>638.0</ele><time>2026-04-25T08:07:02.209Z</time></trkpt><trkpt lat="43.4779603" lon="11.4749021"><ele>635.8333333333333</ele><time>2026-04-25T08:07:04.211Z</time></trkpt><trkpt lat="43.4779311" lon="11.4748234"><ele>633.6666666666666</ele><time>2026-04-25T08:07:06.208Z</time></trkpt><trkpt lat="43.4778912" lon="11.4747441"><ele>631.5</ele><time>2026-04-25T08:07:08.207Z</time></trkpt><trkpt lat="43.4778403" lon="11.4746756"><ele>629.3333333333334</ele><time>2026-04-25T08:07:10.221Z</time></trkpt><trkpt lat="43.4777746" lon="11.4746068"><ele>627.1666666666667</ele><time>2026-04-25T08:07:12.207Z</time></trkpt><trkpt lat="43.47771" lon="11.4745098"><ele>625.0</ele><time>2026-04-25T08:07:14.216Z</time></trkpt><trkpt lat="43.477664" lon="11.4743926"><ele>625.0</ele><time>2026-04-25T08:07:16.206Z</time></trkpt><trkpt lat="43.4776319" lon="11.474256"><ele>625.0</ele><time>2026-04-25T08:07:18.213Z</time></trkpt><trkpt lat="43.4776159" lon="11.4741106"><ele>625.0</ele><time>2026-04-25T08:07:20.203Z</time></trkpt><trkpt lat="43.4776263" lon="11.4739585"><ele>625.0</ele><time>2026-04-25T08:07:22.203Z</time></trkpt><trkpt lat="43.477625" lon="11.4738108"><ele>625.0</ele><time>2026-04-25T08:07:24.204Z</time></trkpt><trkpt lat="43.47757" lon="11.4736892"><ele>629.6</ele><time>2026-04-25T08:07:26.2Z</time></trkpt><trkpt lat="43.4774846" lon="11.4736429"><ele>634.2</ele><time>2026-04-25T08:07:28.193Z</time></trkpt><trkpt lat="43.4773803" lon="11.4736575"><ele>638.8</ele><time>2026-04-25T08:07:30.198Z</time></trkpt><trkpt lat="43.4772519" lon="11.4736654"><ele>643.4</ele><time>2026-04-25T08:07:32.201Z</time></trkpt><trkpt lat="43.4771875" lon="11.4736533"><ele>648.0</ele><time>2026-04-25T08:07:33.188Z</time></trkpt><trkpt lat="43.4770754" lon="11.4736187"><ele>648.1666666666666</ele><time>2026-04-25T08:07:35.2Z</time></trkpt><trkpt lat="43.4769857" lon="11.4736057"><ele>648.3333333333334</ele><time>2026-04-25T08:07:37.193Z</time></trkpt><trkpt lat="43.4769356" lon="11.4736694"><ele>648.5</ele><time>2026-04-25T08:07:39.211Z</time></trkpt><trkpt lat="43.476897" lon="11.4737605"><ele>648.6666666666667</ele><time>2026-04-25T08:07:42.209Z</time></trkpt><trkpt lat="43.4768701" lon="11.4738589"><ele>648.8333333333334</ele><time>2026-04-25T08:07:47.212Z</time></trkpt><trkpt lat="43.4768288" lon="11.4739346"><ele>649.0</ele><time>2026-04-25T08:07:51.21Z</time></trkpt><trkpt lat="43.4767592" lon="11.4739525"><ele>644.8333333333334</ele><time>2026-04-25T08:07:54.212Z</time></trkpt><trkpt lat="43.4766664" lon="11.4739586"><ele>640.6666666666667</ele><time>2026-04-25T08:07:57.21Z</time></trkpt><trkpt lat="43.4766039" lon="11.4739799"><ele>636.5</ele><time>2026-04-25T08:07:59.215Z</time></trkpt><trkpt lat="43.4765458" lon="11.4740216"><ele>632.3333333333334</ele><time>2026-04-25T08:08:01.214Z</time></trkpt><trkpt lat="43.476472" lon="11.4740844"><ele>628.1666666666666</ele><time>2026-04-25T08:08:04.211Z</time></trkpt><trkpt lat="43.4764226" lon="11.4741563"><ele>624.0</ele><time>2026-04-25T08:08:06.213Z</time></trkpt><trkpt lat="43.4763802" lon="11.4742461"><ele>624.0</ele><time>2026-04-25T08:08:08.211Z</time></trkpt><trkpt lat="43.4763353" lon="11.4743394"><ele>624.0</ele><time>2026-04-25T08:08:10.211Z</time></trkpt><trkpt lat="43.4763019" lon="11.4744439"><ele>624.0</ele><time>2026-04-25T08:08:12.226Z</time></trkpt><trkpt lat="43.4762627" lon="11.4745395"><ele>624.0</ele><time>2026-04-25T08:08:14.211Z</time></trkpt><trkpt lat="43.4762228" lon="11.4746278"><ele>624.0</ele><time>2026-04-25T08:08:16.216Z</time></trkpt><trkpt lat="43.4761776" lon="11.4747118"><ele>624.0</ele><time>2026-04-25T08:08:19.215Z</time></trkpt><trkpt lat="43.4761057" lon="11.4747686"><ele>623.6666666666666</ele><time>2026-04-25T08:08:23.216Z</time></trkpt><trkpt lat="43.4760368" lon="11.4748015"><ele>623.3333333333334</ele><time>2026-04-25T08:08:26.209Z</time></trkpt><trkpt lat="43.4759455" lon="11.474821"><ele>623.0</ele><time>2026-04-25T08:08:29.218Z</time></trkpt><trkpt lat="43.4758806" lon="11.4748507"><ele>622.6666666666667</ele><time>2026-04-25T08:08:31.218Z</time></trkpt><trkpt lat="43.4758037" lon="11.4748979"><ele>622.3333333333334</ele><time>2026-04-25T08:08:34.217Z</time></trkpt><trkpt lat="43.4757245" lon="11.474958"><ele>622.0</ele><time>2026-04-25T08:08:37.218Z</time></trkpt><trkpt lat="43.4756464" lon="11.475016"><ele>622.0</ele><time>2026-04-25T08:08:40.219Z</time></trkpt><trkpt lat="43.4755877" lon="11.4750526"><ele>622.0</ele><time>2026-04-25T08:08:42.225Z</time></trkpt><trkpt lat="43.4755043" lon="11.4750959"><ele>622.0</ele><time>2026-04-25T08:08:45.227Z</time></trkpt><trkpt lat="43.47543" lon="11.475119"><ele>622.0</ele><time>2026-04-25T08:08:48.239Z</time></trkpt><trkpt lat="43.4753631" lon="11.475058"><ele>622.0</ele><time>2026-04-25T08:08:52.227Z</time></trkpt><trkpt lat="43.4753156" lon="11.4749737"><ele>622.0</ele><time>2026-04-25T08:08:54.225Z</time></trkpt><trkpt lat="43.4752826" lon="11.47487"><ele>620.4</ele><time>2026-04-25T08:08:56.231Z</time></trkpt><trkpt lat="43.4752494" lon="11.4747608"><ele>618.8000000000001</ele><time>2026-04-25T08:08:58.223Z</time></trkpt><trkpt lat="43.4752093" lon="11.4746664"><ele>617.2</ele><time>2026-04-25T08:09:00.222Z</time></trkpt><trkpt lat="43.4751555" lon="11.4745567"><ele>615.6</ele><time>2026-04-25T08:09:02.224Z</time></trkpt><trkpt lat="43.4751117" lon="11.4744408"><ele>614.0</ele><time>2026-04-25T08:09:04.208Z</time></trkpt><trkpt lat="43.4750782" lon="11.4743056"><ele>614.0</ele><time>2026-04-25T08:09:06.206Z</time></trkpt><trkpt lat="43.4750591" lon="11.4741779"><ele>614.0</ele><time>2026-04-25T08:09:08.204Z</time></trkpt><trkpt lat="43.4750304" lon="11.4740579"><ele>614.0</ele><time>2026-04-25T08:09:10.199Z</time></trkpt><trkpt lat="43.4749806" lon="11.473946"><ele>614.0</ele><time>2026-04-25T08:09:12.199Z</time></trkpt><trkpt lat="43.4749088" lon="11.4738463"><ele>614.0</ele><time>2026-04-25T08:09:14.214Z</time></trkpt><trkpt lat="43.4748337" lon="11.4737466"><ele>612.8</ele><time>2026-04-25T08:09:16.201Z</time></trkpt><trkpt lat="43.4747487" lon="11.4736745"><ele>611.5999999999999</ele><time>2026-04-25T08:09:18.201Z</time></trkpt><trkpt lat="43.4746443" lon="11.4736242"><ele>610.4</ele><time>2026-04-25T08:09:20.206Z</time></trkpt><trkpt lat="43.4745327" lon="11.4735933"><ele>609.1999999999999</ele><time>2026-04-25T08:09:22.201Z</time></trkpt><trkpt lat="43.4744151" lon="11.4735869"><ele>608.0</ele><time>2026-04-25T08:09:24.209Z</time></trkpt><trkpt lat="43.4742902" lon="11.473587"><ele>608.0</ele><time>2026-04-25T08:09:26.213Z</time></trkpt><trkpt lat="43.4741705" lon="11.4735689"><ele>608.0</ele><time>2026-04-25T08:09:28.207Z</time></trkpt><trkpt lat="43.4740492" lon="11.4735555"><ele>608.0</ele><time>2026-04-25T08:09:30.211Z</time></trkpt><trkpt lat="43.473936" lon="11.4735389"><ele>608.0</ele><time>2026-04-25T08:09:32.208Z</time></trkpt><trkpt lat="43.4738271" lon="11.4734832"><ele>603.6</ele><time>2026-04-25T08:09:34.211Z</time></trkpt><trkpt lat="43.4737329" lon="11.4733973"><ele>599.1999999999999</ele><time>2026-04-25T08:09:36.217Z</time></trkpt><trkpt lat="43.4736396" lon="11.4733107"><ele>594.8</ele><time>2026-04-25T08:09:38.212Z</time></trkpt><trkpt lat="43.4735632" lon="11.473203"><ele>590.4</ele><time>2026-04-25T08:09:40.215Z</time></trkpt><trkpt lat="43.4734994" lon="11.4730811"><ele>586.0</ele><time>2026-04-25T08:09:42.21Z</time></trkpt><trkpt lat="43.4734683" lon="11.4729396"><ele>584.6</ele><time>2026-04-25T08:09:44.22Z</time></trkpt><trkpt lat="43.4734867" lon="11.4727913"><ele>583.2</ele><time>2026-04-25T08:09:46.214Z</time></trkpt><trkpt lat="43.473525" lon="11.4726241"><ele>581.8</ele><time>2026-04-25T08:09:48.207Z</time></trkpt><trkpt lat="43.4735441" lon="11.4725403"><ele>580.4</ele><time>2026-04-25T08:09:49.216Z</time></trkpt><trkpt lat="43.4735812" lon="11.472385"><ele>579.0</ele><time>2026-04-25T08:09:51.205Z</time></trkpt><trkpt lat="43.4736226" lon="11.4722326"><ele>579.0</ele><time>2026-04-25T08:09:53.202Z</time></trkpt><trkpt lat="43.4736418" lon="11.4721493"><ele>579.0</ele><time>2026-04-25T08:09:54.205Z</time></trkpt><trkpt lat="43.4736598" lon="11.472064"><ele>579.0</ele><time>2026-04-25T08:09:55.198Z</time></trkpt><trkpt lat="43.4736624" lon="11.4719252"><ele>579.0</ele><time>2026-04-25T08:09:57.193Z</time></trkpt><trkpt lat="43.4736205" lon="11.4718217"><ele>579.0</ele><time>2026-04-25T08:09:59.205Z</time></trkpt><trkpt lat="43.4735665" lon="11.4717643"><ele>579.0</ele><time>2026-04-25T08:10:01.202Z</time></trkpt><trkpt lat="43.473481" lon="11.4717237"><ele>579.5714285714286</ele><time>2026-04-25T08:10:04.209Z</time></trkpt><trkpt lat="43.4734257" lon="11.4716793"><ele>580.1428571428571</ele><time>2026-04-25T08:10:06.213Z</time></trkpt><trkpt lat="43.4733702" lon="11.4715893"><ele>580.7142857142858</ele><time>2026-04-25T08:10:09.206Z</time></trkpt><trkpt lat="43.4733427" lon="11.471483"><ele>581.2857142857142</ele><time>2026-04-25T08:10:13.211Z</time></trkpt><trkpt lat="43.4733404" lon="11.4713957"><ele>581.8571428571429</ele><time>2026-04-25T08:10:15.211Z</time></trkpt><trkpt lat="43.4733383" lon="11.4712983"><ele>582.4285714285714</ele><time>2026-04-25T08:10:17.214Z</time></trkpt><trkpt lat="43.4733147" lon="11.4711964"><ele>583.0</ele><time>2026-04-25T08:10:19.212Z</time></trkpt><trkpt lat="43.4732874" lon="11.4711098"><ele>585.3333333333334</ele><time>2026-04-25T08:10:21.211Z</time></trkpt><trkpt lat="43.4732224" lon="11.4710108"><ele>587.6666666666667</ele><time>2026-04-25T08:10:24.211Z</time></trkpt><trkpt lat="43.4731596" lon="11.4709519"><ele>590.0</ele><time>2026-04-25T08:10:26.209Z</time></trkpt><trkpt lat="43.4730911" lon="11.4708931"><ele>592.3333333333334</ele><time>2026-04-25T08:10:28.209Z</time></trkpt><trkpt lat="43.4730357" lon="11.4708215"><ele>594.6666666666666</ele><time>2026-04-25T08:10:30.217Z</time></trkpt><trkpt lat="43.4729859" lon="11.4707558"><ele>597.0</ele><time>2026-04-25T08:10:32.21Z</time></trkpt><trkpt lat="43.4729428" lon="11.4706599"><ele>594.6666666666666</ele><time>2026-04-25T08:10:35.213Z</time></trkpt><trkpt lat="43.4729292" lon="11.4705507"><ele>592.3333333333334</ele><time>2026-04-25T08:10:38.216Z</time></trkpt><trkpt lat="43.4729209" lon="11.4704349"><ele>590.0</ele><time>2026-04-25T08:10:41.214Z</time></trkpt><trkpt lat="43.4729363" lon="11.4703173"><ele>587.6666666666667</ele><time>2026-04-25T08:10:44.204Z</time></trkpt><trkpt lat="43.4729468" lon="11.470215"><ele>585.3333333333334</ele><time>2026-04-25T08:10:47.221Z</time></trkpt><trkpt lat="43.4729516" lon="11.4701272"><ele>583.0</ele><time>2026-04-25T08:10:49.205Z</time></trkpt><trkpt lat="43.4729365" lon="11.4700373"><ele>583.0</ele><time>2026-04-25T08:10:51.205Z</time></trkpt><trkpt lat="43.4729283" lon="11.4699452"><ele>583.0</ele><time>2026-04-25T08:10:53.212Z</time></trkpt><trkpt lat="43.4728779" lon="11.4698432"><ele>583.0</ele><time>2026-04-25T08:10:56.209Z</time></trkpt><trkpt lat="43.4728171" lon="11.4698064"><ele>583.0</ele><time>2026-04-25T08:10:59.208Z</time></trkpt><trkpt lat="43.4727453" lon="11.469738"><ele>583.0</ele><time>2026-04-25T08:11:03.211Z</time></trkpt><trkpt lat="43.4726995" lon="11.4696564"><ele>583.0</ele><time>2026-04-25T08:11:07.212Z</time></trkpt><trkpt lat="43.4726444" lon="11.4695808"><ele>586.0</ele><time>2026-04-25T08:11:11.208Z</time></trkpt><trkpt lat="43.4725978" lon="11.4694952"><ele>589.0</ele><time>2026-04-25T08:11:14.216Z</time></trkpt><trkpt lat="43.4725536" lon="11.4694066"><ele>592.0</ele><time>2026-04-25T08:11:17.216Z</time></trkpt><trkpt lat="43.4725098" lon="11.469333"><ele>595.0</ele><time>2026-04-25T08:11:20.225Z</time></trkpt><trkpt lat="43.47244" lon="11.4692638"><ele>598.0</ele><time>2026-04-25T08:11:24.214Z</time></trkpt><trkpt lat="43.4723659" lon="11.4692248"><ele>601.0</ele><time>2026-04-25T08:11:27.218Z</time></trkpt><trkpt lat="43.4723051" lon="11.4691602"><ele>601.0</ele><time>2026-04-25T08:11:31.217Z</time></trkpt><trkpt lat="43.4722583" lon="11.4690908"><ele>601.0</ele><time>2026-04-25T08:11:35.219Z</time></trkpt><trkpt lat="43.4722175" lon="11.4690186"><ele>601.0</ele><time>2026-04-25T08:11:39.224Z</time></trkpt><trkpt lat="43.472185" lon="11.4689309"><ele>601.0</ele><time>2026-04-25T08:11:42.218Z</time></trkpt><trkpt lat="43.4721657" lon="11.468823"><ele>601.0</ele><time>2026-04-25T08:11:45.22Z</time></trkpt><trkpt lat="43.4721815" lon="11.4687226"><ele>601.0</ele><time>2026-04-25T08:11:47.214Z</time></trkpt><trkpt lat="43.4722061" lon="11.4686191"><ele>601.0</ele><time>2026-04-25T08:11:49.229Z</time></trkpt><trkpt lat="43.4722293" lon="11.4685281"><ele>601.0</ele><time>2026-04-25T08:11:51.219Z</time></trkpt><trkpt lat="43.47227" lon="11.4684567"><ele>601.0</ele><time>2026-04-25T08:11:53.219Z</time></trkpt><trkpt lat="43.4723015" lon="11.4683758"><ele>601.0</ele><time>2026-04-25T08:11:55.215Z</time></trkpt><trkpt lat="43.4723342" lon="11.4682767"><ele>601.0</ele><time>2026-04-25T08:11:57.221Z</time></trkpt><trkpt lat="43.4723434" lon="11.4681607"><ele>601.0</ele><time>2026-04-25T08:11:59.218Z</time></trkpt><trkpt lat="43.4723418" lon="11.4680384"><ele>601.0</ele><time>2026-04-25T08:12:01.213Z</time></trkpt><trkpt lat="43.4723328" lon="11.4679299"><ele>601.1666666666667</ele><time>2026-04-25T08:12:03.211Z</time></trkpt><trkpt lat="43.4723138" lon="11.4678396"><ele>601.3333333333334</ele><time>2026-04-25T08:12:05.209Z</time></trkpt><trkpt lat="43.4722858" lon="11.4677223"><ele>601.5</ele><time>2026-04-25T08:12:08.213Z</time></trkpt><trkpt lat="43.4722611" lon="11.4676206"><ele>601.6666666666666</ele><time>2026-04-25T08:12:10.211Z</time></trkpt><trkpt lat="43.4722416" lon="11.4675272"><ele>601.8333333333333</ele><time>2026-04-25T08:12:12.216Z</time></trkpt><trkpt lat="43.4721961" lon="11.4674456"><ele>602.0</ele><time>2026-04-25T08:12:14.213Z</time></trkpt><trkpt lat="43.4721442" lon="11.4673683"><ele>598.7142857142857</ele><time>2026-04-25T08:12:16.209Z</time></trkpt><trkpt lat="43.4720892" lon="11.4673064"><ele>595.4285714285714</ele><time>2026-04-25T08:12:18.216Z</time></trkpt><trkpt lat="43.4720378" lon="11.467235"><ele>592.1428571428571</ele><time>2026-04-25T08:12:20.235Z</time></trkpt><trkpt lat="43.4719918" lon="11.4671575"><ele>588.8571428571429</ele><time>2026-04-25T08:12:22.222Z</time></trkpt><trkpt lat="43.4719593" lon="11.467078"><ele>585.5714285714286</ele><time>2026-04-25T08:12:24.219Z</time></trkpt><trkpt lat="43.4719402" lon="11.4669653"><ele>582.2857142857142</ele><time>2026-04-25T08:12:27.226Z</time></trkpt><trkpt lat="43.4719251" lon="11.4668774"><ele>579.0</ele><time>2026-04-25T08:12:29.22Z</time></trkpt><trkpt lat="43.4719149" lon="11.4667659"><ele>579.0</ele><time>2026-04-25T08:12:31.237Z</time></trkpt><trkpt lat="43.4719001" lon="11.4666489"><ele>579.0</ele><time>2026-04-25T08:12:33.225Z</time></trkpt><trkpt lat="43.4718829" lon="11.4665298"><ele>579.0</ele><time>2026-04-25T08:12:35.223Z</time></trkpt><trkpt lat="43.4718578" lon="11.4664206"><ele>579.0</ele><time>2026-04-25T08:12:37.224Z</time></trkpt><trkpt lat="43.4718098" lon="11.4663196"><ele>579.0</ele><time>2026-04-25T08:12:39.223Z</time></trkpt><trkpt lat="43.4717627" lon="11.4662429"><ele>579.0</ele><time>2026-04-25T08:12:41.237Z</time></trkpt><trkpt lat="43.4717152" lon="11.4661641"><ele>577.8333333333334</ele><time>2026-04-25T08:12:43.228Z</time></trkpt><trkpt lat="43.4716679" lon="11.4660874"><ele>576.6666666666666</ele><time>2026-04-25T08:12:45.226Z</time></trkpt><trkpt lat="43.4716217" lon="11.4660064"><ele>575.5</ele><time>2026-04-25T08:12:47.222Z</time></trkpt><trkpt lat="43.4715688" lon="11.465926"><ele>574.3333333333333</ele><time>2026-04-25T08:12:49.227Z</time></trkpt><trkpt lat="43.4715132" lon="11.4658348"><ele>573.1666666666666</ele><time>2026-04-25T08:12:51.242Z</time></trkpt><trkpt lat="43.4714597" lon="11.465726"><ele>572.0</ele><time>2026-04-25T08:12:53.231Z</time></trkpt><trkpt lat="43.4714125" lon="11.4655998"><ele>572.0</ele><time>2026-04-25T08:12:55.213Z</time></trkpt><trkpt lat="43.4713611" lon="11.4654647"><ele>572.0</ele><time>2026-04-25T08:12:57.213Z</time></trkpt><trkpt lat="43.4713154" lon="11.4653346"><ele>572.0</ele><time>2026-04-25T08:12:59.223Z</time></trkpt><trkpt lat="43.4712805" lon="11.4652139"><ele>572.0</ele><time>2026-04-25T08:13:01.21Z</time></trkpt><trkpt lat="43.4712417" lon="11.4650922"><ele>572.0</ele><time>2026-04-25T08:13:03.213Z</time></trkpt><trkpt lat="43.4712159" lon="11.464975"><ele>567.8000000000001</ele><time>2026-04-25T08:13:05.221Z</time></trkpt><trkpt lat="43.4712002" lon="11.4648526"><ele>563.6</ele><time>2026-04-25T08:13:07.209Z</time></trkpt><trkpt lat="43.4711803" lon="11.4647256"><ele>559.4000000000001</ele><time>2026-04-25T08:13:09.212Z</time></trkpt><trkpt lat="43.4711574" lon="11.4645898"><ele>555.2</ele><time>2026-04-25T08:13:11.22Z</time></trkpt><trkpt lat="43.4711223" lon="11.4644545"><ele>551.0</ele><time>2026-04-25T08:13:13.216Z</time></trkpt><trkpt lat="43.4710851" lon="11.4643041"><ele>551.0</ele><time>2026-04-25T08:13:15.213Z</time></trkpt><trkpt lat="43.471048" lon="11.4641621"><ele>551.0</ele><time>2026-04-25T08:13:17.213Z</time></trkpt><trkpt lat="43.4710056" lon="11.4640315"><ele>551.0</ele><time>2026-04-25T08:13:19.214Z</time></trkpt><trkpt lat="43.4709647" lon="11.4639209"><ele>551.0</ele><time>2026-04-25T08:13:21.215Z</time></trkpt><trkpt lat="43.4709178" lon="11.4638243"><ele>551.0</ele><time>2026-04-25T08:13:23.225Z</time></trkpt><trkpt lat="43.4708721" lon="11.4637245"><ele>551.0</ele><time>2026-04-25T08:13:25.222Z</time></trkpt><trkpt lat="43.4708294" lon="11.4636225"><ele>551.0</ele><time>2026-04-25T08:13:27.223Z</time></trkpt><trkpt lat="43.4707738" lon="11.4635486"><ele>551.0</ele><time>2026-04-25T08:13:29.228Z</time></trkpt><trkpt lat="43.4706948" lon="11.4635539"><ele>551.0</ele><time>2026-04-25T08:13:31.215Z</time></trkpt><trkpt lat="43.4706153" lon="11.4636242"><ele>551.0</ele><time>2026-04-25T08:13:33.222Z</time></trkpt><trkpt lat="43.4705891" lon="11.4637481"><ele>551.0</ele><time>2026-04-25T08:13:35.226Z</time></trkpt><trkpt lat="43.4706146" lon="11.4638775"><ele>551.0</ele><time>2026-04-25T08:13:37.233Z</time></trkpt><trkpt lat="43.4706602" lon="11.463984"><ele>551.0</ele><time>2026-04-25T08:13:39.233Z</time></trkpt><trkpt lat="43.4707234" lon="11.4640758"><ele>551.0</ele><time>2026-04-25T08:13:41.231Z</time></trkpt><trkpt lat="43.4707822" lon="11.4641616"><ele>551.0</ele><time>2026-04-25T08:13:43.233Z</time></trkpt><trkpt lat="43.4708275" lon="11.4642579"><ele>551.0</ele><time>2026-04-25T08:13:45.224Z</time></trkpt><trkpt lat="43.470848" lon="11.464387"><ele>551.0</ele><time>2026-04-25T08:13:47.222Z</time></trkpt><trkpt lat="43.4708356" lon="11.4645374"><ele>550.4</ele><time>2026-04-25T08:13:49.215Z</time></trkpt><trkpt lat="43.4708013" lon="11.4646802"><ele>549.8</ele><time>2026-04-25T08:13:51.212Z</time></trkpt><trkpt lat="43.4707711" lon="11.4648223"><ele>549.1999999999999</ele><time>2026-04-25T08:13:53.208Z</time></trkpt><trkpt lat="43.470749" lon="11.4649508"><ele>548.6</ele><time>2026-04-25T08:13:55.213Z</time></trkpt><trkpt lat="43.4707369" lon="11.4650846"><ele>548.0</ele><time>2026-04-25T08:13:57.211Z</time></trkpt><trkpt lat="43.4707497" lon="11.4652179"><ele>548.0</ele><time>2026-04-25T08:13:59.215Z</time></trkpt><trkpt lat="43.4707856" lon="11.4653395"><ele>548.0</ele><time>2026-04-25T08:14:01.215Z</time></trkpt><trkpt lat="43.4708295" lon="11.4654572"><ele>548.0</ele><time>2026-04-25T08:14:03.214Z</time></trkpt><trkpt lat="43.4708709" lon="11.4655601"><ele>548.0</ele><time>2026-04-25T08:14:05.215Z</time></trkpt><trkpt lat="43.4709289" lon="11.465645"><ele>548.0</ele><time>2026-04-25T08:14:07.209Z</time></trkpt><trkpt lat="43.4709812" lon="11.4657115"><ele>548.0</ele><time>2026-04-25T08:14:09.209Z</time></trkpt><trkpt lat="43.4710378" lon="11.4657768"><ele>548.0</ele><time>2026-04-25T08:14:11.209Z</time></trkpt><trkpt lat="43.4710427" lon="11.4658765"><ele>548.0</ele><time>2026-04-25T08:14:14.2Z</time></trkpt><trkpt lat="43.4709551" lon="11.4658432"><ele>548.0</ele><time>2026-04-25T08:14:17.206Z</time></trkpt><trkpt lat="43.4708809" lon="11.465752"><ele>548.0</ele><time>2026-04-25T08:14:19.206Z</time></trkpt><trkpt lat="43.4708326" lon="11.4656917"><ele>548.0</ele><time>2026-04-25T08:14:20.21Z</time></trkpt><trkpt lat="43.4707796" lon="11.4656267"><ele>548.0</ele><time>2026-04-25T08:14:21.197Z</time></trkpt><trkpt lat="43.4707318" lon="11.4655623"><ele>548.0</ele><time>2026-04-25T08:14:22.202Z</time></trkpt><trkpt lat="43.4706587" lon="11.4654416"><ele>548.0</ele><time>2026-04-25T08:14:24.206Z</time></trkpt><trkpt lat="43.4705944" lon="11.4653186"><ele>548.0</ele><time>2026-04-25T08:14:26.208Z</time></trkpt><trkpt lat="43.4705449" lon="11.4651761"><ele>548.0</ele><time>2026-04-25T08:14:28.21Z</time></trkpt><trkpt lat="43.470515" lon="11.4650389"><ele>548.0</ele><time>2026-04-25T08:14:30.213Z</time></trkpt><trkpt lat="43.4705032" lon="11.4649094"><ele>548.0</ele><time>2026-04-25T08:14:32.214Z</time></trkpt><trkpt lat="43.4705005" lon="11.4647836"><ele>548.0</ele><time>2026-04-25T08:14:34.207Z</time></trkpt><trkpt lat="43.4705021" lon="11.4646513"><ele>548.0</ele><time>2026-04-25T08:14:36.204Z</time></trkpt><trkpt lat="43.4704943" lon="11.464516"><ele>548.0</ele><time>2026-04-25T08:14:38.203Z</time></trkpt><trkpt lat="43.4704318" lon="11.4644101"><ele>548.0</ele><time>2026-04-25T08:14:40.212Z</time></trkpt><trkpt lat="43.4703335" lon="11.4643479"><ele>546.0</ele><time>2026-04-25T08:14:42.204Z</time></trkpt><trkpt lat="43.4702557" lon="11.4642887"><ele>544.0</ele><time>2026-04-25T08:14:44.218Z</time></trkpt><trkpt lat="43.4701995" lon="11.4643687"><ele>542.0</ele><time>2026-04-25T08:14:47.207Z</time></trkpt><trkpt lat="43.4702395" lon="11.4644756"><ele>540.0</ele><time>2026-04-25T08:14:49.203Z</time></trkpt><trkpt lat="43.4702963" lon="11.4645669"><ele>538.0</ele><time>2026-04-25T08:14:51.209Z</time></trkpt><trkpt lat="43.4703062" lon="11.4646847"><ele>536.0</ele><time>2026-04-25T08:14:53.206Z</time></trkpt><trkpt lat="43.4702761" lon="11.4648463"><ele>532.8333333333333</ele><time>2026-04-25T08:14:55.207Z</time></trkpt><trkpt lat="43.4702488" lon="11.4649823"><ele>529.6666666666666</ele><time>2026-04-25T08:14:57.195Z</time></trkpt><trkpt lat="43.4702296" lon="11.4650766"><ele>526.5</ele><time>2026-04-25T08:14:59.2Z</time></trkpt><trkpt lat="43.4702278" lon="11.4649842"><ele>523.3333333333334</ele><time>2026-04-25T08:15:09.206Z</time></trkpt><trkpt lat="43.4702319" lon="11.4648706"><ele>520.1666666666667</ele><time>2026-04-25T08:15:12.211Z</time></trkpt><trkpt lat="43.4702192" lon="11.4647539"><ele>517.0</ele><time>2026-04-25T08:15:15.224Z</time></trkpt><trkpt lat="43.4701858" lon="11.4646652"><ele>520.1666666666667</ele><time>2026-04-25T08:15:18.209Z</time></trkpt><trkpt lat="43.4701036" lon="11.4645986"><ele>523.3333333333334</ele><time>2026-04-25T08:15:21.212Z</time></trkpt><trkpt lat="43.4700149" lon="11.4645723"><ele>526.5</ele><time>2026-04-25T08:15:23.212Z</time></trkpt><trkpt lat="43.4699276" lon="11.4645716"><ele>529.6666666666666</ele><time>2026-04-25T08:15:25.22Z</time></trkpt><trkpt lat="43.4698569" lon="11.4646013"><ele>532.8333333333333</ele><time>2026-04-25T08:15:27.208Z</time></trkpt><trkpt lat="43.4697808" lon="11.4646126"><ele>536.0</ele><time>2026-04-25T08:15:29.211Z</time></trkpt><trkpt lat="43.4696883" lon="11.4646092"><ele>531.5</ele><time>2026-04-25T08:15:31.213Z</time></trkpt><trkpt lat="43.4695889" lon="11.4646152"><ele>527.0</ele><time>2026-04-25T08:15:33.218Z</time></trkpt><trkpt lat="43.4695067" lon="11.4646556"><ele>522.5</ele><time>2026-04-25T08:15:35.212Z</time></trkpt><trkpt lat="43.4694409" lon="11.4647162"><ele>518.0</ele><time>2026-04-25T08:15:37.21Z</time></trkpt><trkpt lat="43.4693793" lon="11.4647774"><ele>513.5</ele><time>2026-04-25T08:15:39.213Z</time></trkpt><trkpt lat="43.4693152" lon="11.4648245"><ele>509.0</ele><time>2026-04-25T08:15:41.216Z</time></trkpt><trkpt lat="43.4692464" lon="11.4648448"><ele>508.99999999999994</ele><time>2026-04-25T08:15:43.216Z</time></trkpt><trkpt lat="43.4691741" lon="11.4648564"><ele>509.0</ele><time>2026-04-25T08:15:45.214Z</time></trkpt><trkpt lat="43.4691019" lon="11.4648557"><ele>508.99999999999994</ele><time>2026-04-25T08:15:47.212Z</time></trkpt><trkpt lat="43.469027" lon="11.4648453"><ele>508.99999999999994</ele><time>2026-04-25T08:15:49.213Z</time></trkpt><trkpt lat="43.4689533" lon="11.4648106"><ele>509.0</ele><time>2026-04-25T08:15:51.218Z</time></trkpt><trkpt lat="43.4688835" lon="11.46476"><ele>508.99999999999994</ele><time>2026-04-25T08:15:53.217Z</time></trkpt><trkpt lat="43.4688232" lon="11.464707"><ele>508.99999999999994</ele><time>2026-04-25T08:15:55.22Z</time></trkpt><trkpt lat="43.4687693" lon="11.4646489"><ele>507.16666666666663</ele><time>2026-04-25T08:15:57.22Z</time></trkpt><trkpt lat="43.4687165" lon="11.4645945"><ele>505.3333333333333</ele><time>2026-04-25T08:15:59.22Z</time></trkpt><trkpt lat="43.4686403" lon="11.4645657"><ele>503.5</ele><time>2026-04-25T08:16:01.211Z</time></trkpt><trkpt lat="43.4685654" lon="11.4645699"><ele>501.66666666666663</ele><time>2026-04-25T08:16:03.211Z</time></trkpt><trkpt lat="43.4684927" lon="11.4645954"><ele>499.8333333333333</ele><time>2026-04-25T08:16:05.217Z</time></trkpt><trkpt lat="43.4684151" lon="11.4646394"><ele>498.0</ele><time>2026-04-25T08:16:07.215Z</time></trkpt><trkpt lat="43.4683299" lon="11.4646646"><ele>498.0</ele><time>2026-04-25T08:16:09.219Z</time></trkpt><trkpt lat="43.4682439" lon="11.4646549"><ele>497.99999999999994</ele><time>2026-04-25T08:16:11.217Z</time></trkpt><trkpt lat="43.4681589" lon="11.4646325"><ele>497.99999999999994</ele><time>2026-04-25T08:16:13.218Z</time></trkpt><trkpt lat="43.468069" lon="11.4645816"><ele>498.0</ele><time>2026-04-25T08:16:15.209Z</time></trkpt><trkpt lat="43.4679904" lon="11.4645071"><ele>498.0</ele><time>2026-04-25T08:16:17.208Z</time></trkpt><trkpt lat="43.4679328" lon="11.4644196"><ele>497.2</ele><time>2026-04-25T08:16:19.222Z</time></trkpt><trkpt lat="43.4678961" lon="11.4643098"><ele>496.4</ele><time>2026-04-25T08:16:21.213Z</time></trkpt><trkpt lat="43.4678633" lon="11.464179"><ele>495.59999999999997</ele><time>2026-04-25T08:16:23.213Z</time></trkpt><trkpt lat="43.4678271" lon="11.4640536"><ele>494.79999999999995</ele><time>2026-04-25T08:16:25.212Z</time></trkpt><trkpt lat="43.4677862" lon="11.4639285"><ele>494.0</ele><time>2026-04-25T08:16:27.227Z</time></trkpt><trkpt lat="43.4677421" lon="11.4638054"><ele>494.3333333333333</ele><time>2026-04-25T08:16:29.204Z</time></trkpt><trkpt lat="43.4677158" lon="11.4636991"><ele>494.66666666666663</ele><time>2026-04-25T08:16:31.208Z</time></trkpt><trkpt lat="43.4677027" lon="11.4636003"><ele>495.0</ele><time>2026-04-25T08:16:33.214Z</time></trkpt><trkpt lat="43.4676964" lon="11.4634868"><ele>495.33333333333337</ele><time>2026-04-25T08:16:35.211Z</time></trkpt><trkpt lat="43.4676932" lon="11.4633602"><ele>495.6666666666667</ele><time>2026-04-25T08:16:37.212Z</time></trkpt><trkpt lat="43.4676887" lon="11.4632404"><ele>496.0</ele><time>2026-04-25T08:16:39.212Z</time></trkpt><trkpt lat="43.4676859" lon="11.4631095"><ele>496.0</ele><time>2026-04-25T08:16:41.207Z</time></trkpt><trkpt lat="43.46768" lon="11.4629663"><ele>496.0</ele><time>2026-04-25T08:16:43.2Z</time></trkpt><trkpt lat="43.4676749" lon="11.4628191"><ele>496.0</ele><time>2026-04-25T08:16:45.203Z</time></trkpt><trkpt lat="43.4676551" lon="11.4626601"><ele>496.0</ele><time>2026-04-25T08:16:47.209Z</time></trkpt><trkpt lat="43.4676443" lon="11.4625075"><ele>496.0</ele><time>2026-04-25T08:16:49.202Z</time></trkpt><trkpt lat="43.4676399" lon="11.4623522"><ele>496.20000000000005</ele><time>2026-04-25T08:16:51.202Z</time></trkpt><trkpt lat="43.4676501" lon="11.462189"><ele>496.40000000000003</ele><time>2026-04-25T08:16:53.201Z</time></trkpt><trkpt lat="43.4676909" lon="11.4620319"><ele>496.6</ele><time>2026-04-25T08:16:55.205Z</time></trkpt><trkpt lat="43.4677276" lon="11.4619543"><ele>496.8</ele><time>2026-04-25T08:16:56.195Z</time></trkpt><trkpt lat="43.4677979" lon="11.4618166"><ele>497.0</ele><time>2026-04-25T08:16:58.206Z</time></trkpt><trkpt lat="43.4678091" lon="11.4616661"><ele>497.0</ele><time>2026-04-25T08:17:00.191Z</time></trkpt><trkpt lat="43.4677754" lon="11.4615152"><ele>497.00000000000006</ele><time>2026-04-25T08:17:02.195Z</time></trkpt><trkpt lat="43.467721" lon="11.4613667"><ele>497.00000000000006</ele><time>2026-04-25T08:17:04.196Z</time></trkpt><trkpt lat="43.4676533" lon="11.4612305"><ele>497.0</ele><time>2026-04-25T08:17:06.198Z</time></trkpt><trkpt lat="43.4676022" lon="11.4611751"><ele>497.0</ele><time>2026-04-25T08:17:07.197Z</time></trkpt><trkpt lat="43.4674967" lon="11.4610868"><ele>498.99999999999994</ele><time>2026-04-25T08:17:09.196Z</time></trkpt><trkpt lat="43.4674003" lon="11.46101"><ele>501.0</ele><time>2026-04-25T08:17:11.205Z</time></trkpt><trkpt lat="43.4673219" lon="11.4608818"><ele>503.0</ele><time>2026-04-25T08:17:13.203Z</time></trkpt><trkpt lat="43.4672901" lon="11.4608047"><ele>505.0</ele><time>2026-04-25T08:17:14.201Z</time></trkpt><trkpt lat="43.4672611" lon="11.4607155"><ele>506.99999999999994</ele><time>2026-04-25T08:17:15.202Z</time></trkpt><trkpt lat="43.4672237" lon="11.4606249"><ele>509.0</ele><time>2026-04-25T08:17:16.205Z</time></trkpt><trkpt lat="43.4671781" lon="11.4605404"><ele>508.99999999999994</ele><time>2026-04-25T08:17:17.211Z</time></trkpt><trkpt lat="43.4671292" lon="11.4604599"><ele>509.0</ele><time>2026-04-25T08:17:18.205Z</time></trkpt><trkpt lat="43.4670765" lon="11.46038"><ele>508.99999999999994</ele><time>2026-04-25T08:17:19.199Z</time></trkpt><trkpt lat="43.4670213" lon="11.4603044"><ele>508.99999999999994</ele><time>2026-04-25T08:17:20.209Z</time></trkpt><trkpt lat="43.4669726" lon="11.4602309"><ele>509.0</ele><time>2026-04-25T08:17:21.208Z</time></trkpt><trkpt lat="43.4669389" lon="11.4601483"><ele>508.99999999999994</ele><time>2026-04-25T08:17:22.204Z</time></trkpt><trkpt lat="43.4669043" lon="11.4600642"><ele>508.99999999999994</ele><time>2026-04-25T08:17:23.207Z</time></trkpt><trkpt lat="43.4668762" lon="11.4599784"><ele>505.42857142857133</ele><time>2026-04-25T08:17:24.202Z</time></trkpt><trkpt lat="43.466857" lon="11.4598895"><ele>501.85714285714283</ele><time>2026-04-25T08:17:25.203Z</time></trkpt><trkpt lat="43.4668366" lon="11.4597935"><ele>498.2857142857142</ele><time>2026-04-25T08:17:26.21Z</time></trkpt><trkpt lat="43.4668194" lon="11.4596994"><ele>494.71428571428567</ele><time>2026-04-25T08:17:27.209Z</time></trkpt><trkpt lat="43.4668111" lon="11.4596093"><ele>491.1428571428571</ele><time>2026-04-25T08:17:28.215Z</time></trkpt><trkpt lat="43.4668092" lon="11.4595172"><ele>487.57142857142856</ele><time>2026-04-25T08:17:29.228Z</time></trkpt><trkpt lat="43.4668129" lon="11.4594239"><ele>484.0</ele><time>2026-04-25T08:17:30.211Z</time></trkpt><trkpt lat="43.4668198" lon="11.4593276"><ele>483.85714285714283</ele><time>2026-04-25T08:17:31.206Z</time></trkpt><trkpt lat="43.4668304" lon="11.459228"><ele>483.71428571428567</ele><time>2026-04-25T08:17:32.204Z</time></trkpt><trkpt lat="43.466844" lon="11.4591282"><ele>483.57142857142856</ele><time>2026-04-25T08:17:33.202Z</time></trkpt><trkpt lat="43.4668509" lon="11.4590285"><ele>483.42857142857144</ele><time>2026-04-25T08:17:34.204Z</time></trkpt><trkpt lat="43.4668548" lon="11.4589295"><ele>483.2857142857143</ele><time>2026-04-25T08:17:35.203Z</time></trkpt><trkpt lat="43.4668446" lon="11.4588258"><ele>483.1428571428571</ele><time>2026-04-25T08:17:36.21Z</time></trkpt><trkpt lat="43.4668219" lon="11.4587236"><ele>483.0</ele><time>2026-04-25T08:17:37.203Z</time></trkpt><trkpt lat="43.4667903" lon="11.4586268"><ele>483.0</ele><time>2026-04-25T08:17:38.215Z</time></trkpt><trkpt lat="43.4667546" lon="11.4585351"><ele>483.0</ele><time>2026-04-25T08:17:39.212Z</time></trkpt><trkpt lat="43.4667118" lon="11.4584475"><ele>483.0</ele><time>2026-04-25T08:17:40.209Z</time></trkpt><trkpt lat="43.4666667" lon="11.458363"><ele>483.0</ele><time>2026-04-25T08:17:41.209Z</time></trkpt><trkpt lat="43.4666156" lon="11.4582887"><ele>483.0</ele><time>2026-04-25T08:17:42.212Z</time></trkpt><trkpt lat="43.4665584" lon="11.4582247"><ele>483.0</ele><time>2026-04-25T08:17:43.209Z</time></trkpt><trkpt lat="43.4665077" lon="11.458157"><ele>483.0</ele><time>2026-04-25T08:17:44.216Z</time></trkpt><trkpt lat="43.4664553" lon="11.4580862"><ele>483.0</ele><time>2026-04-25T08:17:45.214Z</time></trkpt><trkpt lat="43.4664044" lon="11.4580119"><ele>483.0</ele><time>2026-04-25T08:17:46.212Z</time></trkpt><trkpt lat="43.4663572" lon="11.4579387"><ele>483.0</ele><time>2026-04-25T08:17:47.212Z</time></trkpt><trkpt lat="43.4663118" lon="11.4578678"><ele>483.0</ele><time>2026-04-25T08:17:48.219Z</time></trkpt><trkpt lat="43.4662691" lon="11.4577972"><ele>483.0</ele><time>2026-04-25T08:17:49.209Z</time></trkpt><trkpt lat="43.4662265" lon="11.4577227"><ele>483.0</ele><time>2026-04-25T08:17:50.213Z</time></trkpt><trkpt lat="43.4661802" lon="11.457656"><ele>483.0</ele><time>2026-04-25T08:17:51.208Z</time></trkpt><trkpt lat="43.4661232" lon="11.4575952"><ele>480.2857142857143</ele><time>2026-04-25T08:17:52.201Z</time></trkpt><trkpt lat="43.4660654" lon="11.4575372"><ele>477.57142857142856</ele><time>2026-04-25T08:17:53.209Z</time></trkpt><trkpt lat="43.4660001" lon="11.4574925"><ele>474.8571428571429</ele><time>2026-04-25T08:17:54.205Z</time></trkpt><trkpt lat="43.465935" lon="11.4574609"><ele>472.14285714285717</ele><time>2026-04-25T08:17:55.203Z</time></trkpt><trkpt lat="43.4658703" lon="11.4574322"><ele>469.42857142857144</ele><time>2026-04-25T08:17:56.205Z</time></trkpt><trkpt lat="43.465811" lon="11.4573982"><ele>466.7142857142858</ele><time>2026-04-25T08:17:57.207Z</time></trkpt><trkpt lat="43.4657531" lon="11.4573563"><ele>464.00000000000006</ele><time>2026-04-25T08:17:58.205Z</time></trkpt><trkpt lat="43.4656524" lon="11.4572594"><ele>464.0</ele><time>2026-04-25T08:18:00.234Z</time></trkpt><trkpt lat="43.4655892" lon="11.4571204"><ele>464.0</ele><time>2026-04-25T08:18:02.22Z</time></trkpt><trkpt lat="43.4655957" lon="11.4569661"><ele>464.0</ele><time>2026-04-25T08:18:04.213Z</time></trkpt><trkpt lat="43.4656563" lon="11.4568196"><ele>464.0</ele><time>2026-04-25T08:18:06.204Z</time></trkpt><trkpt lat="43.4656965" lon="11.4567467"><ele>464.0</ele><time>2026-04-25T08:18:07.212Z</time></trkpt><trkpt lat="43.4657436" lon="11.4566728"><ele>462.99999999999994</ele><time>2026-04-25T08:18:08.212Z</time></trkpt><trkpt lat="43.4657939" lon="11.4566011"><ele>462.0</ele><time>2026-04-25T08:18:09.206Z</time></trkpt><trkpt lat="43.4658397" lon="11.4565342"><ele>461.0</ele><time>2026-04-25T08:18:10.203Z</time></trkpt><trkpt lat="43.465888" lon="11.4564698"><ele>460.0</ele><time>2026-04-25T08:18:11.213Z</time></trkpt><trkpt lat="43.4659733" lon="11.4563503"><ele>458.99999999999994</ele><time>2026-04-25T08:18:13.208Z</time></trkpt><trkpt lat="43.466056" lon="11.4562644"><ele>458.0</ele><time>2026-04-25T08:18:15.204Z</time></trkpt><trkpt lat="43.4661712" lon="11.4562299"><ele>454.4</ele><time>2026-04-25T08:18:17.203Z</time></trkpt><trkpt lat="43.4662926" lon="11.4562118"><ele>450.79999999999995</ele><time>2026-04-25T08:18:19.205Z</time></trkpt><trkpt lat="43.4664198" lon="11.4561663"><ele>447.2</ele><time>2026-04-25T08:18:21.208Z</time></trkpt><trkpt lat="43.466478" lon="11.4561317"><ele>443.6</ele><time>2026-04-25T08:18:22.203Z</time></trkpt><trkpt lat="43.466537" lon="11.4560934"><ele>440.0</ele><time>2026-04-25T08:18:23.198Z</time></trkpt><trkpt lat="43.4666533" lon="11.4560369"><ele>439.99999999999994</ele><time>2026-04-25T08:18:25.193Z</time></trkpt><trkpt lat="43.4667612" lon="11.4560416"><ele>440.0</ele><time>2026-04-25T08:18:27.203Z</time></trkpt><trkpt lat="43.4668437" lon="11.4560555"><ele>440.0</ele><time>2026-04-25T08:18:29.211Z</time></trkpt><trkpt lat="43.4668322" lon="11.4559658"><ele>440.0</ele><time>2026-04-25T08:18:33.227Z</time></trkpt><trkpt lat="43.4667676" lon="11.4559271"><ele>439.99999999999994</ele><time>2026-04-25T08:18:35.223Z</time></trkpt><trkpt lat="43.4666862" lon="11.4559084"><ele>440.0</ele><time>2026-04-25T08:18:37.222Z</time></trkpt><trkpt lat="43.4665797" lon="11.4558987"><ele>439.99999999999994</ele><time>2026-04-25T08:18:39.229Z</time></trkpt><trkpt lat="43.4665158" lon="11.4558993"><ele>440.0</ele><time>2026-04-25T08:18:40.214Z</time></trkpt><trkpt lat="43.4664449" lon="11.4559046"><ele>440.0</ele><time>2026-04-25T08:18:41.212Z</time></trkpt><trkpt lat="43.466372" lon="11.455904"><ele>440.0</ele><time>2026-04-25T08:18:42.205Z</time></trkpt><trkpt lat="43.4662948" lon="11.4559049"><ele>440.0</ele><time>2026-04-25T08:18:43.206Z</time></trkpt><trkpt lat="43.4662196" lon="11.4558954"><ele>439.99999999999994</ele><time>2026-04-25T08:18:44.226Z</time></trkpt><trkpt lat="43.4661462" lon="11.4558723"><ele>440.0</ele><time>2026-04-25T08:18:45.22Z</time></trkpt><trkpt lat="43.4660711" lon="11.4558314"><ele>439.49999999999994</ele><time>2026-04-25T08:18:46.216Z</time></trkpt><trkpt lat="43.4659874" lon="11.4557898"><ele>439.0</ele><time>2026-04-25T08:18:47.212Z</time></trkpt><trkpt lat="43.4659101" lon="11.4557544"><ele>438.5</ele><time>2026-04-25T08:18:48.22Z</time></trkpt><trkpt lat="43.4658371" lon="11.4557266"><ele>438.0</ele><time>2026-04-25T08:18:49.227Z</time></trkpt><trkpt lat="43.4657686" lon="11.4557009"><ele>437.49999999999994</ele><time>2026-04-25T08:18:50.218Z</time></trkpt><trkpt lat="43.4657062" lon="11.455672"><ele>437.0</ele><time>2026-04-25T08:18:51.222Z</time></trkpt><trkpt lat="43.4656125" lon="11.4556055"><ele>437.0</ele><time>2026-04-25T08:18:53.226Z</time></trkpt><trkpt lat="43.4655667" lon="11.4555169"><ele>437.00000000000006</ele><time>2026-04-25T08:18:55.235Z</time></trkpt><trkpt lat="43.4655844" lon="11.4554176"><ele>437.00000000000006</ele><time>2026-04-25T08:18:57.228Z</time></trkpt><trkpt lat="43.4656635" lon="11.4554023"><ele>437.0</ele><time>2026-04-25T08:18:59.232Z</time></trkpt><trkpt lat="43.4657654" lon="11.4554717"><ele>437.0</ele><time>2026-04-25T08:19:01.23Z</time></trkpt><trkpt lat="43.4658755" lon="11.4555164"><ele>436.99999999999994</ele><time>2026-04-25T08:19:03.217Z</time></trkpt><trkpt lat="43.4659962" lon="11.455539"><ele>437.0</ele><time>2026-04-25T08:19:05.21Z</time></trkpt><trkpt lat="43.4660628" lon="11.4555368"><ele>437.0</ele><time>2026-04-25T08:19:06.216Z</time></trkpt><trkpt lat="43.4661329" lon="11.4555371"><ele>437.0</ele><time>2026-04-25T08:19:07.214Z</time></trkpt><trkpt lat="43.4662087" lon="11.4555459"><ele>436.99999999999994</ele><time>2026-04-25T08:19:08.207Z</time></trkpt><trkpt lat="43.4662806" lon="11.4555435"><ele>437.0</ele><time>2026-04-25T08:19:09.209Z</time></trkpt><trkpt lat="43.4663516" lon="11.4555399"><ele>437.4285714285714</ele><time>2026-04-25T08:19:10.211Z</time></trkpt><trkpt lat="43.4664211" lon="11.4555114"><ele>437.8571428571429</ele><time>2026-04-25T08:19:11.215Z</time></trkpt><trkpt lat="43.466493" lon="11.455474"><ele>438.2857142857143</ele><time>2026-04-25T08:19:12.209Z</time></trkpt><trkpt lat="43.4665635" lon="11.4554329"><ele>438.71428571428567</ele><time>2026-04-25T08:19:13.205Z</time></trkpt><trkpt lat="43.4666238" lon="11.4553893"><ele>439.1428571428571</ele><time>2026-04-25T08:19:14.206Z</time></trkpt><trkpt lat="43.4666917" lon="11.4553514"><ele>439.57142857142856</ele><time>2026-04-25T08:19:15.206Z</time></trkpt><trkpt lat="43.4667553" lon="11.4553245"><ele>440.0</ele><time>2026-04-25T08:19:16.2Z</time></trkpt><trkpt lat="43.4668277" lon="11.455312"><ele>436.8333333333333</ele><time>2026-04-25T08:19:17.202Z</time></trkpt><trkpt lat="43.4669022" lon="11.4553018"><ele>433.66666666666663</ele><time>2026-04-25T08:19:18.196Z</time></trkpt><trkpt lat="43.4669772" lon="11.4552987"><ele>430.5</ele><time>2026-04-25T08:19:19.2Z</time></trkpt><trkpt lat="43.4670517" lon="11.4553001"><ele>427.33333333333337</ele><time>2026-04-25T08:19:20.204Z</time></trkpt><trkpt lat="43.467127" lon="11.4553075"><ele>424.1666666666667</ele><time>2026-04-25T08:19:21.206Z</time></trkpt><trkpt lat="43.4672034" lon="11.4553252"><ele>421.0</ele><time>2026-04-25T08:19:22.205Z</time></trkpt><trkpt lat="43.4672786" lon="11.4553489"><ele>421.00000000000006</ele><time>2026-04-25T08:19:23.209Z</time></trkpt><trkpt lat="43.4673467" lon="11.4553701"><ele>421.0</ele><time>2026-04-25T08:19:24.204Z</time></trkpt><trkpt lat="43.4674084" lon="11.4553944"><ele>421.0</ele><time>2026-04-25T08:19:25.202Z</time></trkpt><trkpt lat="43.4674705" lon="11.4554232"><ele>421.0</ele><time>2026-04-25T08:19:26.215Z</time></trkpt><trkpt lat="43.4675318" lon="11.4554516"><ele>421.00000000000006</ele><time>2026-04-25T08:19:27.211Z</time></trkpt><trkpt lat="43.467641" lon="11.4555158"><ele>421.0</ele><time>2026-04-25T08:19:29.213Z</time></trkpt><trkpt lat="43.4677276" lon="11.4556026"><ele>421.8</ele><time>2026-04-25T08:19:31.204Z</time></trkpt><trkpt lat="43.4677936" lon="11.455712"><ele>422.6</ele><time>2026-04-25T08:19:33.206Z</time></trkpt><trkpt lat="43.467869" lon="11.4558112"><ele>423.4</ele><time>2026-04-25T08:19:35.206Z</time></trkpt><trkpt lat="43.4679577" lon="11.4558297"><ele>424.2</ele><time>2026-04-25T08:19:37.201Z</time></trkpt><trkpt lat="43.468037" lon="11.4557499"><ele>425.0</ele><time>2026-04-25T08:19:39.196Z</time></trkpt><trkpt lat="43.4680891" lon="11.4556223"><ele>425.0</ele><time>2026-04-25T08:19:41.195Z</time></trkpt><trkpt lat="43.4681435" lon="11.4555041"><ele>425.0</ele><time>2026-04-25T08:19:43.204Z</time></trkpt><trkpt lat="43.4681463" lon="11.4553894"><ele>425.0</ele><time>2026-04-25T08:19:45.214Z</time></trkpt><trkpt lat="43.468076" lon="11.4552991"><ele>425.0</ele><time>2026-04-25T08:19:47.207Z</time></trkpt><trkpt lat="43.4679923" lon="11.4552369"><ele>425.0</ele><time>2026-04-25T08:19:49.211Z</time></trkpt><trkpt lat="43.4679076" lon="11.4551934"><ele>424.42857142857144</ele><time>2026-04-25T08:19:51.212Z</time></trkpt><trkpt lat="43.4678246" lon="11.4551555"><ele>423.85714285714283</ele><time>2026-04-25T08:19:53.213Z</time></trkpt><trkpt lat="43.467747" lon="11.4551268"><ele>423.28571428571433</ele><time>2026-04-25T08:19:55.208Z</time></trkpt><trkpt lat="43.4676814" lon="11.4550992"><ele>422.7142857142857</ele><time>2026-04-25T08:19:57.216Z</time></trkpt><trkpt lat="43.4676168" lon="11.4550626"><ele>422.14285714285717</ele><time>2026-04-25T08:19:59.214Z</time></trkpt><trkpt lat="43.4675595" lon="11.4550223"><ele>421.5714285714286</ele><time>2026-04-25T08:20:01.211Z</time></trkpt><trkpt lat="43.4674934" lon="11.4549855"><ele>421.0</ele><time>2026-04-25T08:20:03.222Z</time></trkpt><trkpt lat="43.4674146" lon="11.4549417"><ele>421.00000000000006</ele><time>2026-04-25T08:20:05.213Z</time></trkpt><trkpt lat="43.4673315" lon="11.4548955"><ele>421.0</ele><time>2026-04-25T08:20:07.205Z</time></trkpt><trkpt lat="43.4672589" lon="11.4548384"><ele>421.0</ele><time>2026-04-25T08:20:09.207Z</time></trkpt><trkpt lat="43.4671836" lon="11.4547821"><ele>421.0</ele><time>2026-04-25T08:20:11.209Z</time></trkpt><trkpt lat="43.4671014" lon="11.4547375"><ele>421.00000000000006</ele><time>2026-04-25T08:20:13.213Z</time></trkpt><trkpt lat="43.4670212" lon="11.4546913"><ele>421.0</ele><time>2026-04-25T08:20:15.207Z</time></trkpt><trkpt lat="43.4669422" lon="11.4546629"><ele>421.6666666666667</ele><time>2026-04-25T08:20:17.205Z</time></trkpt><trkpt lat="43.4668545" lon="11.4546527"><ele>422.33333333333337</ele><time>2026-04-25T08:20:19.207Z</time></trkpt><trkpt lat="43.4667706" lon="11.4546463"><ele>423.0</ele><time>2026-04-25T08:20:21.207Z</time></trkpt><trkpt lat="43.4666871" lon="11.4546414"><ele>423.66666666666663</ele><time>2026-04-25T08:20:23.206Z</time></trkpt><trkpt lat="43.4666158" lon="11.4546317"><ele>424.3333333333333</ele><time>2026-04-25T08:20:25.205Z</time></trkpt><trkpt lat="43.4665438" lon="11.4546115"><ele>425.0</ele><time>2026-04-25T08:20:27.211Z</time></trkpt><trkpt lat="43.4664699" lon="11.4545672"><ele>425.0</ele><time>2026-04-25T08:20:29.212Z</time></trkpt><trkpt lat="43.4663812" lon="11.454502"><ele>425.0</ele><time>2026-04-25T08:20:31.208Z</time></trkpt><trkpt lat="43.4662937" lon="11.4544289"><ele>425.0</ele><time>2026-04-25T08:20:33.205Z</time></trkpt><trkpt lat="43.4662143" lon="11.4543627"><ele>425.0</ele><time>2026-04-25T08:20:35.204Z</time></trkpt><trkpt lat="43.4661446" lon="11.4542986"><ele>425.0</ele><time>2026-04-25T08:20:37.205Z</time></trkpt><trkpt lat="43.4660785" lon="11.454242"><ele>421.0</ele><time>2026-04-25T08:20:39.212Z</time></trkpt><trkpt lat="43.4660051" lon="11.4541852"><ele>417.0</ele><time>2026-04-25T08:20:41.212Z</time></trkpt><trkpt lat="43.4659355" lon="11.4541167"><ele>413.0</ele><time>2026-04-25T08:20:43.21Z</time></trkpt><trkpt lat="43.4658712" lon="11.4540277"><ele>409.0</ele><time>2026-04-25T08:20:45.213Z</time></trkpt><trkpt lat="43.4658105" lon="11.453933"><ele>405.0</ele><time>2026-04-25T08:20:47.215Z</time></trkpt><trkpt lat="43.4657465" lon="11.4538184"><ele>406.1666666666667</ele><time>2026-04-25T08:20:49.204Z</time></trkpt><trkpt lat="43.4656732" lon="11.4536927"><ele>407.33333333333337</ele><time>2026-04-25T08:20:51.204Z</time></trkpt><trkpt lat="43.4655871" lon="11.4535655"><ele>408.5</ele><time>2026-04-25T08:20:53.203Z</time></trkpt><trkpt lat="43.4655345" lon="11.4535093"><ele>409.6666666666667</ele><time>2026-04-25T08:20:54.205Z</time></trkpt><trkpt lat="43.4654816" lon="11.4534555"><ele>410.83333333333337</ele><time>2026-04-25T08:20:55.201Z</time></trkpt><trkpt lat="43.4654273" lon="11.453408"><ele>412.0</ele><time>2026-04-25T08:20:56.204Z</time></trkpt><trkpt lat="43.4653298" lon="11.4533178"><ele>408.20000000000005</ele><time>2026-04-25T08:20:58.2Z</time></trkpt><trkpt lat="43.4652298" lon="11.4532299"><ele>404.4</ele><time>2026-04-25T08:21:00.203Z</time></trkpt><trkpt lat="43.4651746" lon="11.4531791"><ele>400.6</ele><time>2026-04-25T08:21:01.205Z</time></trkpt><trkpt lat="43.4650741" lon="11.4530798"><ele>396.79999999999995</ele><time>2026-04-25T08:21:03.204Z</time></trkpt><trkpt lat="43.4649731" lon="11.452985"><ele>393.0</ele><time>2026-04-25T08:21:05.221Z</time></trkpt><trkpt lat="43.464875" lon="11.452885"><ele>393.0</ele><time>2026-04-25T08:21:07.211Z</time></trkpt><trkpt lat="43.4647792" lon="11.4528026"><ele>393.0</ele><time>2026-04-25T08:21:09.21Z</time></trkpt><trkpt lat="43.4646808" lon="11.4527141"><ele>393.0</ele><time>2026-04-25T08:21:11.21Z</time></trkpt><trkpt lat="43.4646303" lon="11.4526605"><ele>393.0</ele><time>2026-04-25T08:21:12.208Z</time></trkpt><trkpt lat="43.464524" lon="11.4525469"><ele>393.0</ele><time>2026-04-25T08:21:14.214Z</time></trkpt><trkpt lat="43.4644801" lon="11.4524746"><ele>390.8571428571429</ele><time>2026-04-25T08:21:15.205Z</time></trkpt><trkpt lat="43.4644393" lon="11.4523894"><ele>388.7142857142857</ele><time>2026-04-25T08:21:16.206Z</time></trkpt><trkpt lat="43.4644217" lon="11.4523018"><ele>386.57142857142856</ele><time>2026-04-25T08:21:17.205Z</time></trkpt><trkpt lat="43.4644004" lon="11.4522057"><ele>384.42857142857144</ele><time>2026-04-25T08:21:18.208Z</time></trkpt><trkpt lat="43.464394" lon="11.452101"><ele>382.2857142857143</ele><time>2026-04-25T08:21:19.208Z</time></trkpt><trkpt lat="43.4643794" lon="11.451997"><ele>380.14285714285717</ele><time>2026-04-25T08:21:20.217Z</time></trkpt><trkpt lat="43.4643613" lon="11.4518944"><ele>378.0</ele><time>2026-04-25T08:21:21.208Z</time></trkpt><trkpt lat="43.4643395" lon="11.4517946"><ele>378.0</ele><time>2026-04-25T08:21:22.212Z</time></trkpt><trkpt lat="43.4643183" lon="11.4517039"><ele>378.0</ele><time>2026-04-25T08:21:23.211Z</time></trkpt><trkpt lat="43.4642984" lon="11.4516203"><ele>378.0</ele><time>2026-04-25T08:21:24.206Z</time></trkpt><trkpt lat="43.4642713" lon="11.4515408"><ele>378.0</ele><time>2026-04-25T08:21:25.209Z</time></trkpt><trkpt lat="43.4642251" lon="11.4513995"><ele>378.0</ele><time>2026-04-25T08:21:27.215Z</time></trkpt><trkpt lat="43.4641922" lon="11.4513137"><ele>378.0</ele><time>2026-04-25T08:21:29.236Z</time></trkpt><trkpt lat="43.4641739" lon="11.4512175"><ele>378.3333333333333</ele><time>2026-04-25T08:21:32.216Z</time></trkpt><trkpt lat="43.4641355" lon="11.4511442"><ele>378.6666666666667</ele><time>2026-04-25T08:21:37.224Z</time></trkpt><trkpt lat="43.4640917" lon="11.4510632"><ele>379.0</ele><time>2026-04-25T08:22:45.219Z</time></trkpt><trkpt lat="43.4640632" lon="11.4509685"><ele>379.33333333333337</ele><time>2026-04-25T08:22:48.219Z</time></trkpt><trkpt lat="43.464025" lon="11.4508884"><ele>379.6666666666667</ele><time>2026-04-25T08:22:50.215Z</time></trkpt><trkpt lat="43.4639759" lon="11.4508028"><ele>380.0</ele><time>2026-04-25T08:22:52.214Z</time></trkpt><trkpt lat="43.4639202" lon="11.4507094"><ele>380.0</ele><time>2026-04-25T08:22:54.216Z</time></trkpt><trkpt lat="43.4638575" lon="11.450622"><ele>380.0</ele><time>2026-04-25T08:22:56.212Z</time></trkpt><trkpt lat="43.4638115" lon="11.4505545"><ele>380.0</ele><time>2026-04-25T08:22:58.209Z</time></trkpt><trkpt lat="43.4637894" lon="11.4504624"><ele>380.0</ele><time>2026-04-25T08:23:22.218Z</time></trkpt><trkpt lat="43.4637532" lon="11.4503857"><ele>380.0</ele><time>2026-04-25T08:23:25.214Z</time></trkpt><trkpt lat="43.4637099" lon="11.45032"><ele>380.0</ele><time>2026-04-25T08:23:27.216Z</time></trkpt><trkpt lat="43.4636649" lon="11.450244"><ele>380.0</ele><time>2026-04-25T08:23:29.22Z</time></trkpt><trkpt lat="43.46362" lon="11.450166"><ele>379.14285714285717</ele><time>2026-04-25T08:23:31.217Z</time></trkpt><trkpt lat="43.4635792" lon="11.4500949"><ele>378.28571428571433</ele><time>2026-04-25T08:23:33.22Z</time></trkpt><trkpt lat="43.4635294" lon="11.4500249"><ele>377.42857142857144</ele><time>2026-04-25T08:23:35.212Z</time></trkpt><trkpt lat="43.4634796" lon="11.4499563"><ele>376.57142857142856</ele><time>2026-04-25T08:23:37.213Z</time></trkpt><trkpt lat="43.463434" lon="11.4498839"><ele>375.7142857142857</ele><time>2026-04-25T08:23:39.215Z</time></trkpt><trkpt lat="43.4633895" lon="11.4498045"><ele>374.85714285714283</ele><time>2026-04-25T08:23:41.217Z</time></trkpt><trkpt lat="43.4633363" lon="11.4497294"><ele>374.0</ele><time>2026-04-25T08:23:43.214Z</time></trkpt><trkpt lat="43.4632852" lon="11.4496472"><ele>373.4</ele><time>2026-04-25T08:23:45.218Z</time></trkpt><trkpt lat="43.4632339" lon="11.4495528"><ele>372.79999999999995</ele><time>2026-04-25T08:23:47.22Z</time></trkpt><trkpt lat="43.4631781" lon="11.4494585"><ele>372.20000000000005</ele><time>2026-04-25T08:23:49.221Z</time></trkpt><trkpt lat="43.4631196" lon="11.4493572"><ele>371.6</ele><time>2026-04-25T08:23:51.211Z</time></trkpt><trkpt lat="43.4630769" lon="11.4492372"><ele>371.0</ele><time>2026-04-25T08:23:53.215Z</time></trkpt><trkpt lat="43.4630471" lon="11.449118"><ele>371.0</ele><time>2026-04-25T08:23:55.206Z</time></trkpt><trkpt lat="43.4630235" lon="11.4489998"><ele>371.0</ele><time>2026-04-25T08:23:57.217Z</time></trkpt><trkpt lat="43.4630038" lon="11.4488804"><ele>371.0</ele><time>2026-04-25T08:23:59.222Z</time></trkpt><trkpt lat="43.462979" lon="11.4487611"><ele>371.0</ele><time>2026-04-25T08:24:01.216Z</time></trkpt><trkpt lat="43.462952" lon="11.4486434"><ele>371.0</ele><time>2026-04-25T08:24:03.21Z</time></trkpt><trkpt lat="43.4629479" lon="11.4485129"><ele>369.8</ele><time>2026-04-25T08:24:05.208Z</time></trkpt><trkpt lat="43.4629586" lon="11.4483792"><ele>368.6</ele><time>2026-04-25T08:24:07.208Z</time></trkpt><trkpt lat="43.4629719" lon="11.4482554"><ele>367.4</ele><time>2026-04-25T08:24:09.21Z</time></trkpt><trkpt lat="43.4629976" lon="11.4481312"><ele>366.2</ele><time>2026-04-25T08:24:11.223Z</time></trkpt><trkpt lat="43.463022" lon="11.4480017"><ele>365.0</ele><time>2026-04-25T08:24:13.213Z</time></trkpt><trkpt lat="43.4630439" lon="11.4478688"><ele>365.0</ele><time>2026-04-25T08:24:15.213Z</time></trkpt><trkpt lat="43.4630647" lon="11.4477419"><ele>365.0</ele><time>2026-04-25T08:24:17.217Z</time></trkpt><trkpt lat="43.4630851" lon="11.4476156"><ele>365.0</ele><time>2026-04-25T08:24:19.214Z</time></trkpt><trkpt lat="43.4631102" lon="11.4474911"><ele>365.0</ele><time>2026-04-25T08:24:21.217Z</time></trkpt><trkpt lat="43.4631365" lon="11.4473726"><ele>365.0</ele><time>2026-04-25T08:24:23.213Z</time></trkpt><trkpt lat="43.4631637" lon="11.4472534"><ele>365.0</ele><time>2026-04-25T08:24:25.211Z</time></trkpt><trkpt lat="43.463188" lon="11.4471297"><ele>365.0</ele><time>2026-04-25T08:24:27.213Z</time></trkpt><trkpt lat="43.4632112" lon="11.4470077"><ele>365.0</ele><time>2026-04-25T08:24:29.215Z</time></trkpt><trkpt lat="43.4632349" lon="11.4468861"><ele>365.0</ele><time>2026-04-25T08:24:31.21Z</time></trkpt><trkpt lat="43.4632519" lon="11.4467692"><ele>365.0</ele><time>2026-04-25T08:24:33.214Z</time></trkpt><trkpt lat="43.463275" lon="11.4466451"><ele>365.2</ele><time>2026-04-25T08:24:35.211Z</time></trkpt><trkpt lat="43.4632923" lon="11.4465226"><ele>365.4</ele><time>2026-04-25T08:24:37.209Z</time></trkpt><trkpt lat="43.4633113" lon="11.4464044"><ele>365.6</ele><time>2026-04-25T08:24:39.212Z</time></trkpt><trkpt lat="43.4633294" lon="11.4462828"><ele>365.8</ele><time>2026-04-25T08:24:41.209Z</time></trkpt><trkpt lat="43.4633542" lon="11.4461534"><ele>366.0</ele><time>2026-04-25T08:24:43.214Z</time></trkpt><trkpt lat="43.4633776" lon="11.4460213"><ele>366.4</ele><time>2026-04-25T08:24:45.211Z</time></trkpt><trkpt lat="43.4633965" lon="11.4458972"><ele>366.8</ele><time>2026-04-25T08:24:47.208Z</time></trkpt><trkpt lat="43.4634043" lon="11.4457609"><ele>367.2</ele><time>2026-04-25T08:24:49.211Z</time></trkpt><trkpt lat="43.4634092" lon="11.4456195"><ele>367.59999999999997</ele><time>2026-04-25T08:24:51.213Z</time></trkpt><trkpt lat="43.4634187" lon="11.4454808"><ele>368.0</ele><time>2026-04-25T08:24:53.211Z</time></trkpt><trkpt lat="43.4634278" lon="11.4453404"><ele>367.0</ele><time>2026-04-25T08:24:55.215Z</time></trkpt><trkpt lat="43.4634343" lon="11.4452031"><ele>366.0</ele><time>2026-04-25T08:24:57.215Z</time></trkpt><trkpt lat="43.4634427" lon="11.4450705"><ele>365.0</ele><time>2026-04-25T08:24:59.216Z</time></trkpt><trkpt lat="43.4634572" lon="11.4449381"><ele>364.0</ele><time>2026-04-25T08:25:01.212Z</time></trkpt><trkpt lat="43.4634566" lon="11.444806"><ele>363.0</ele><time>2026-04-25T08:25:03.216Z</time></trkpt><trkpt lat="43.4634519" lon="11.4446808"><ele>363.0</ele><time>2026-04-25T08:25:05.213Z</time></trkpt><trkpt lat="43.4634496" lon="11.4445464"><ele>363.0</ele><time>2026-04-25T08:25:07.212Z</time></trkpt><trkpt lat="43.4634448" lon="11.4444173"><ele>363.0</ele><time>2026-04-25T08:25:09.214Z</time></trkpt><trkpt lat="43.4634348" lon="11.4442849"><ele>363.0</ele><time>2026-04-25T08:25:11.211Z</time></trkpt><trkpt lat="43.4634211" lon="11.4441483"><ele>363.0</ele><time>2026-04-25T08:25:13.22Z</time></trkpt><trkpt lat="43.4634096" lon="11.4440125"><ele>363.0</ele><time>2026-04-25T08:25:15.214Z</time></trkpt><trkpt lat="43.463395" lon="11.443878"><ele>363.0</ele><time>2026-04-25T08:25:17.216Z</time></trkpt><trkpt lat="43.4633859" lon="11.4437409"><ele>363.0</ele><time>2026-04-25T08:25:19.225Z</time></trkpt><trkpt lat="43.4633784" lon="11.4436042"><ele>363.0</ele><time>2026-04-25T08:25:21.22Z</time></trkpt><trkpt lat="43.4633697" lon="11.4434632"><ele>363.0</ele><time>2026-04-25T08:25:23.217Z</time></trkpt><trkpt lat="43.4633585" lon="11.4433286"><ele>362.4</ele><time>2026-04-25T08:25:25.217Z</time></trkpt><trkpt lat="43.4633556" lon="11.4431973"><ele>361.79999999999995</ele><time>2026-04-25T08:25:27.214Z</time></trkpt><trkpt lat="43.4633609" lon="11.4430716"><ele>361.2</ele><time>2026-04-25T08:25:29.227Z</time></trkpt><trkpt lat="43.4633642" lon="11.4429477"><ele>360.6</ele><time>2026-04-25T08:25:31.213Z</time></trkpt><trkpt lat="43.4633789" lon="11.4428352"><ele>360.0</ele><time>2026-04-25T08:25:33.224Z</time></trkpt><trkpt lat="43.4633989" lon="11.4427092"><ele>359.8</ele><time>2026-04-25T08:25:35.223Z</time></trkpt><trkpt lat="43.4634255" lon="11.4425773"><ele>359.6</ele><time>2026-04-25T08:25:37.214Z</time></trkpt><trkpt lat="43.4634617" lon="11.4424459"><ele>359.4</ele><time>2026-04-25T08:25:39.223Z</time></trkpt><trkpt lat="43.4635035" lon="11.4423173"><ele>359.2</ele><time>2026-04-25T08:25:41.213Z</time></trkpt><trkpt lat="43.4635338" lon="11.4421969"><ele>359.0</ele><time>2026-04-25T08:25:43.214Z</time></trkpt><trkpt lat="43.4635667" lon="11.4420808"><ele>358.2</ele><time>2026-04-25T08:25:45.213Z</time></trkpt><trkpt lat="43.4636034" lon="11.4419595"><ele>357.4</ele><time>2026-04-25T08:25:47.209Z</time></trkpt><trkpt lat="43.4636435" lon="11.4418218"><ele>356.6</ele><time>2026-04-25T08:25:49.208Z</time></trkpt><trkpt lat="43.4636933" lon="11.441675"><ele>355.8</ele><time>2026-04-25T08:25:51.209Z</time></trkpt><trkpt lat="43.4637179" lon="11.441594"><ele>355.0</ele><time>2026-04-25T08:25:52.218Z</time></trkpt><trkpt lat="43.4637422" lon="11.4415063"><ele>355.0</ele><time>2026-04-25T08:25:53.212Z</time></trkpt><trkpt lat="43.463769" lon="11.4414198"><ele>355.0</ele><time>2026-04-25T08:25:54.219Z</time></trkpt><trkpt lat="43.4637957" lon="11.4413345"><ele>355.0</ele><time>2026-04-25T08:25:55.216Z</time></trkpt><trkpt lat="43.4638222" lon="11.4412482"><ele>355.0</ele><time>2026-04-25T08:25:56.21Z</time></trkpt><trkpt lat="43.4638535" lon="11.4411606"><ele>355.0</ele><time>2026-04-25T08:25:57.218Z</time></trkpt><trkpt lat="43.4638905" lon="11.4410745"><ele>355.0</ele><time>2026-04-25T08:25:58.208Z</time></trkpt><trkpt lat="43.4639234" lon="11.4409892"><ele>355.0</ele><time>2026-04-25T08:25:59.216Z</time></trkpt><trkpt lat="43.4639537" lon="11.4408991"><ele>355.42857142857144</ele><time>2026-04-25T08:26:00.215Z</time></trkpt><trkpt lat="43.4639827" lon="11.4408094"><ele>355.8571428571429</ele><time>2026-04-25T08:26:01.21Z</time></trkpt><trkpt lat="43.464015" lon="11.4407237"><ele>356.28571428571433</ele><time>2026-04-25T08:26:02.201Z</time></trkpt><trkpt lat="43.4640515" lon="11.4406343"><ele>356.7142857142857</ele><time>2026-04-25T08:26:03.207Z</time></trkpt><trkpt lat="43.464084" lon="11.4405408"><ele>357.14285714285717</ele><time>2026-04-25T08:26:04.202Z</time></trkpt><trkpt lat="43.464117" lon="11.4404437"><ele>357.5714285714286</ele><time>2026-04-25T08:26:05.212Z</time></trkpt><trkpt lat="43.4641525" lon="11.4403529"><ele>358.0</ele><time>2026-04-25T08:26:06.209Z</time></trkpt><trkpt lat="43.4641927" lon="11.4402629"><ele>357.0</ele><time>2026-04-25T08:26:07.206Z</time></trkpt><trkpt lat="43.4642327" lon="11.4401794"><ele>356.0</ele><time>2026-04-25T08:26:08.213Z</time></trkpt><trkpt lat="43.4642693" lon="11.4400981"><ele>355.0</ele><time>2026-04-25T08:26:09.209Z</time></trkpt><trkpt lat="43.4643079" lon="11.4400232"><ele>354.0</ele><time>2026-04-25T08:26:10.209Z</time></trkpt><trkpt lat="43.4643436" lon="11.4399464"><ele>353.0</ele><time>2026-04-25T08:26:11.21Z</time></trkpt><trkpt lat="43.4644163" lon="11.4398028"><ele>352.0</ele><time>2026-04-25T08:26:13.218Z</time></trkpt><trkpt lat="43.4644883" lon="11.4396644"><ele>351.75</ele><time>2026-04-25T08:26:15.226Z</time></trkpt><trkpt lat="43.4645609" lon="11.4395299"><ele>351.5</ele><time>2026-04-25T08:26:17.221Z</time></trkpt><trkpt lat="43.4646288" lon="11.4393988"><ele>351.25</ele><time>2026-04-25T08:26:19.211Z</time></trkpt><trkpt lat="43.4646931" lon="11.439269"><ele>351.0</ele><time>2026-04-25T08:26:21.212Z</time></trkpt><trkpt lat="43.4647561" lon="11.4391396"><ele>351.0</ele><time>2026-04-25T08:26:23.216Z</time></trkpt><trkpt lat="43.464823" lon="11.4390225"><ele>351.0</ele><time>2026-04-25T08:26:25.22Z</time></trkpt><trkpt lat="43.4648768" lon="11.438916"><ele>351.0</ele><time>2026-04-25T08:26:27.21Z</time></trkpt><trkpt lat="43.4649382" lon="11.4388064"><ele>351.0</ele><time>2026-04-25T08:26:29.215Z</time></trkpt><trkpt lat="43.4650093" lon="11.4386958"><ele>351.0</ele><time>2026-04-25T08:26:31.216Z</time></trkpt><trkpt lat="43.4650711" lon="11.4385865"><ele>351.0</ele><time>2026-04-25T08:26:33.219Z</time></trkpt><trkpt lat="43.4651228" lon="11.4384873"><ele>351.0</ele><time>2026-04-25T08:26:35.215Z</time></trkpt><trkpt lat="43.4651606" lon="11.4384091"><ele>351.0</ele><time>2026-04-25T08:26:37.218Z</time></trkpt><trkpt lat="43.4651903" lon="11.4383265"><ele>351.0</ele><time>2026-04-25T08:26:39.218Z</time></trkpt><trkpt lat="43.4652327" lon="11.4382357"><ele>351.0</ele><time>2026-04-25T08:26:41.22Z</time></trkpt><trkpt lat="43.4652814" lon="11.4381396"><ele>351.0</ele><time>2026-04-25T08:26:43.216Z</time></trkpt><trkpt lat="43.4653284" lon="11.4380444"><ele>350.8333333333333</ele><time>2026-04-25T08:26:45.212Z</time></trkpt><trkpt lat="43.4653775" lon="11.4379442"><ele>350.6666666666667</ele><time>2026-04-25T08:26:47.226Z</time></trkpt><trkpt lat="43.4654215" lon="11.4378429"><ele>350.5</ele><time>2026-04-25T08:26:49.228Z</time></trkpt><trkpt lat="43.4654682" lon="11.4377374"><ele>350.33333333333337</ele><time>2026-04-25T08:26:51.228Z</time></trkpt><trkpt lat="43.4655146" lon="11.4376391"><ele>350.1666666666667</ele><time>2026-04-25T08:26:53.221Z</time></trkpt><trkpt lat="43.4655617" lon="11.4375394"><ele>350.0</ele><time>2026-04-25T08:26:55.216Z</time></trkpt><trkpt lat="43.465606" lon="11.4374309"><ele>350.6666666666667</ele><time>2026-04-25T08:26:57.225Z</time></trkpt><trkpt lat="43.4656506" lon="11.4373235"><ele>351.33333333333337</ele><time>2026-04-25T08:26:59.228Z</time></trkpt><trkpt lat="43.4656927" lon="11.437221"><ele>352.0</ele><time>2026-04-25T08:27:01.225Z</time></trkpt><trkpt lat="43.4657404" lon="11.437121"><ele>352.6666666666667</ele><time>2026-04-25T08:27:03.224Z</time></trkpt><trkpt lat="43.465784" lon="11.4370187"><ele>353.3333333333333</ele><time>2026-04-25T08:27:05.219Z</time></trkpt><trkpt lat="43.4658225" lon="11.436914"><ele>354.0</ele><time>2026-04-25T08:27:07.219Z</time></trkpt><trkpt lat="43.465865" lon="11.4368145"><ele>354.0</ele><time>2026-04-25T08:27:09.218Z</time></trkpt><trkpt lat="43.4659006" lon="11.43672"><ele>354.0</ele><time>2026-04-25T08:27:11.223Z</time></trkpt><trkpt lat="43.4659306" lon="11.4366243"><ele>354.0</ele><time>2026-04-25T08:27:13.218Z</time></trkpt><trkpt lat="43.4659562" lon="11.4365438"><ele>354.0</ele><time>2026-04-25T08:27:15.22Z</time></trkpt><trkpt lat="43.4659447" lon="11.4364381"><ele>354.0</ele><time>2026-04-25T08:27:18.215Z</time></trkpt><trkpt lat="43.4658762" lon="11.4363792"><ele>354.0</ele><time>2026-04-25T08:27:20.22Z</time></trkpt><trkpt lat="43.4657942" lon="11.4363123"><ele>353.25</ele><time>2026-04-25T08:27:22.224Z</time></trkpt><trkpt lat="43.4657056" lon="11.436227"><ele>352.5</ele><time>2026-04-25T08:27:24.22Z</time></trkpt><trkpt lat="43.4656071" lon="11.43614"><ele>351.75</ele><time>2026-04-25T08:27:26.225Z</time></trkpt><trkpt lat="43.4655012" lon="11.4360502"><ele>351.0</ele><time>2026-04-25T08:27:28.217Z</time></trkpt><trkpt lat="43.4653945" lon="11.4359667"><ele>350.0</ele><time>2026-04-25T08:27:30.217Z</time></trkpt><trkpt lat="43.4652933" lon="11.4358841"><ele>349.0</ele><time>2026-04-25T08:27:32.216Z</time></trkpt><trkpt lat="43.4651973" lon="11.435798"><ele>348.0</ele><time>2026-04-25T08:27:34.224Z</time></trkpt><trkpt lat="43.465105" lon="11.4357159"><ele>347.0</ele><time>2026-04-25T08:27:36.22Z</time></trkpt><trkpt lat="43.465006" lon="11.4356417"><ele>347.0</ele><time>2026-04-25T08:27:38.222Z</time></trkpt><trkpt lat="43.4649096" lon="11.4355626"><ele>347.0</ele><time>2026-04-25T08:27:40.214Z</time></trkpt><trkpt lat="43.464818" lon="11.4354772"><ele>347.0</ele><time>2026-04-25T08:27:42.217Z</time></trkpt><trkpt lat="43.4647259" lon="11.4353781"><ele>347.0</ele><time>2026-04-25T08:27:44.214Z</time></trkpt><trkpt lat="43.464639" lon="11.4352637"><ele>346.8</ele><time>2026-04-25T08:27:46.217Z</time></trkpt><trkpt lat="43.4646052" lon="11.435189"><ele>346.6</ele><time>2026-04-25T08:27:47.227Z</time></trkpt><trkpt lat="43.464581" lon="11.4351043"><ele>346.40000000000003</ele><time>2026-04-25T08:27:48.211Z</time></trkpt><trkpt lat="43.4645425" lon="11.4349456"><ele>346.20000000000005</ele><time>2026-04-25T08:27:50.215Z</time></trkpt><trkpt lat="43.4645216" lon="11.434787"><ele>346.0</ele><time>2026-04-25T08:27:52.211Z</time></trkpt><trkpt lat="43.464514" lon="11.4346226"><ele>345.8</ele><time>2026-04-25T08:27:54.223Z</time></trkpt><trkpt lat="43.4645013" lon="11.4344683"><ele>345.6</ele><time>2026-04-25T08:27:56.223Z</time></trkpt><trkpt lat="43.46449" lon="11.4343242"><ele>345.4</ele><time>2026-04-25T08:27:58.221Z</time></trkpt><trkpt lat="43.464473" lon="11.4341976"><ele>345.2</ele><time>2026-04-25T08:28:00.216Z</time></trkpt><trkpt lat="43.4644613" lon="11.4340872"><ele>345.0</ele><time>2026-04-25T08:28:02.228Z</time></trkpt><trkpt lat="43.4644538" lon="11.433985"><ele>345.0</ele><time>2026-04-25T08:28:04.223Z</time></trkpt><trkpt lat="43.4644453" lon="11.4338916"><ele>345.0</ele><time>2026-04-25T08:28:06.231Z</time></trkpt><trkpt lat="43.4644329" lon="11.4337872"><ele>345.0</ele><time>2026-04-25T08:28:08.226Z</time></trkpt><trkpt lat="43.4644223" lon="11.4336846"><ele>345.0</ele><time>2026-04-25T08:28:10.233Z</time></trkpt><trkpt lat="43.4644126" lon="11.4335771"><ele>345.0</ele><time>2026-04-25T08:28:12.23Z</time></trkpt><trkpt lat="43.4644001" lon="11.4334789"><ele>345.0</ele><time>2026-04-25T08:28:14.228Z</time></trkpt><trkpt lat="43.4643916" lon="11.4333868"><ele>345.0</ele><time>2026-04-25T08:28:16.23Z</time></trkpt><trkpt lat="43.4643844" lon="11.433264"><ele>345.0</ele><time>2026-04-25T08:28:19.223Z</time></trkpt><trkpt lat="43.4643973" lon="11.4331557"><ele>345.0</ele><time>2026-04-25T08:28:22.226Z</time></trkpt><trkpt lat="43.4644449" lon="11.4330762"><ele>345.0</ele><time>2026-04-25T08:28:26.223Z</time></trkpt><trkpt lat="43.4645153" lon="11.4330626"><ele>345.0</ele><time>2026-04-25T08:28:33.221Z</time></trkpt><trkpt lat="43.4645778" lon="11.4330919"><ele>345.0</ele><time>2026-04-25T08:29:08.227Z</time></trkpt><trkpt lat="43.4646576" lon="11.4331294"><ele>345.0</ele><time>2026-04-25T08:29:11.224Z</time></trkpt><trkpt lat="43.4647162" lon="11.4331742"><ele>345.0</ele><time>2026-04-25T08:29:14.232Z</time></trkpt><trkpt lat="43.4647843" lon="11.4332149"><ele>345.42857142857144</ele><time>2026-04-25T08:29:17.233Z</time></trkpt><trkpt lat="43.4648546" lon="11.433262"><ele>345.85714285714283</ele><time>2026-04-25T08:29:20.24Z</time></trkpt><trkpt lat="43.4649255" lon="11.4333103"><ele>346.2857142857143</ele><time>2026-04-25T08:29:23.232Z</time></trkpt><trkpt lat="43.4650008" lon="11.4333806"><ele>346.7142857142857</ele><time>2026-04-25T08:29:26.228Z</time></trkpt><trkpt lat="43.4650607" lon="11.4334276"><ele>347.14285714285717</ele><time>2026-04-25T08:29:28.223Z</time></trkpt><trkpt lat="43.4651087" lon="11.4334881"><ele>347.57142857142856</ele><time>2026-04-25T08:29:30.228Z</time></trkpt><trkpt lat="43.4651541" lon="11.4335498"><ele>348.0</ele><time>2026-04-25T08:29:32.227Z</time></trkpt><trkpt lat="43.4651983" lon="11.4336208"><ele>348.0</ele><time>2026-04-25T08:29:34.233Z</time></trkpt><trkpt lat="43.4652518" lon="11.4336866"><ele>348.0</ele><time>2026-04-25T08:29:36.228Z</time></trkpt><trkpt lat="43.4652908" lon="11.4337579"><ele>348.0</ele><time>2026-04-25T08:29:38.225Z</time></trkpt><trkpt lat="43.4653371" lon="11.433834"><ele>348.0</ele><time>2026-04-25T08:29:40.231Z</time></trkpt><trkpt lat="43.4653902" lon="11.4339083"><ele>348.0</ele><time>2026-04-25T08:29:42.23Z</time></trkpt><trkpt lat="43.4654424" lon="11.4339876"><ele>348.0</ele><time>2026-04-25T08:29:44.229Z</time></trkpt><trkpt lat="43.4655038" lon="11.4340554"><ele>348.0</ele><time>2026-04-25T08:29:46.227Z</time></trkpt><trkpt lat="43.4655696" lon="11.4341129"><ele>348.0</ele><time>2026-04-25T08:29:48.225Z</time></trkpt><trkpt lat="43.4656374" lon="11.4341586"><ele>348.0</ele><time>2026-04-25T08:29:50.234Z</time></trkpt><trkpt lat="43.4657105" lon="11.4341915"><ele>348.0</ele><time>2026-04-25T08:29:52.231Z</time></trkpt><trkpt lat="43.4657866" lon="11.4342251"><ele>348.0</ele><time>2026-04-25T08:29:54.236Z</time></trkpt><trkpt lat="43.4658623" lon="11.4342566"><ele>348.0</ele><time>2026-04-25T08:29:56.236Z</time></trkpt><trkpt lat="43.4659379" lon="11.4342841"><ele>348.0</ele><time>2026-04-25T08:29:58.226Z</time></trkpt><trkpt lat="43.4660133" lon="11.4343161"><ele>348.0</ele><time>2026-04-25T08:30:00.23Z</time></trkpt><trkpt lat="43.46609" lon="11.4343493"><ele>348.0</ele><time>2026-04-25T08:30:02.226Z</time></trkpt><trkpt lat="43.4661724" lon="11.4343737"><ele>348.0</ele><time>2026-04-25T08:30:04.232Z</time></trkpt><trkpt lat="43.4662535" lon="11.434393"><ele>348.0</ele><time>2026-04-25T08:30:06.23Z</time></trkpt><trkpt lat="43.4663373" lon="11.4344077"><ele>348.0</ele><time>2026-04-25T08:30:08.218Z</time></trkpt><trkpt lat="43.466418" lon="11.4344169"><ele>348.0</ele><time>2026-04-25T08:30:10.231Z</time></trkpt><trkpt lat="43.4665032" lon="11.4344295"><ele>348.5</ele><time>2026-04-25T08:30:12.232Z</time></trkpt><trkpt lat="43.4665901" lon="11.4344426"><ele>349.0</ele><time>2026-04-25T08:30:14.219Z</time></trkpt><trkpt lat="43.4666734" lon="11.4344412"><ele>349.5</ele><time>2026-04-25T08:30:16.219Z</time></trkpt><trkpt lat="43.4667528" lon="11.4344359"><ele>350.0</ele><time>2026-04-25T08:30:18.222Z</time></trkpt><trkpt lat="43.4668405" lon="11.4344132"><ele>350.5</ele><time>2026-04-25T08:30:20.224Z</time></trkpt><trkpt lat="43.4669246" lon="11.4343889"><ele>351.0</ele><time>2026-04-25T08:30:22.229Z</time></trkpt><trkpt lat="43.4670105" lon="11.4343659"><ele>351.0</ele><time>2026-04-25T08:30:24.219Z</time></trkpt><trkpt lat="43.4670846" lon="11.434352"><ele>351.0</ele><time>2026-04-25T08:30:26.227Z</time></trkpt><trkpt lat="43.4671616" lon="11.4343309"><ele>351.0</ele><time>2026-04-25T08:30:28.222Z</time></trkpt><trkpt lat="43.4672343" lon="11.4343076"><ele>351.0</ele><time>2026-04-25T08:30:30.219Z</time></trkpt><trkpt lat="43.4673146" lon="11.4342994"><ele>351.0</ele><time>2026-04-25T08:30:33.237Z</time></trkpt><trkpt lat="43.467379" lon="11.4342842"><ele>351.0</ele><time>2026-04-25T08:30:36.222Z</time></trkpt><trkpt lat="43.4674637" lon="11.4342547"><ele>351.42857142857144</ele><time>2026-04-25T08:30:40.222Z</time></trkpt><trkpt lat="43.4675262" lon="11.4341913"><ele>351.8571428571429</ele><time>2026-04-25T08:30:43.233Z</time></trkpt><trkpt lat="43.4675913" lon="11.43418"><ele>352.28571428571433</ele><time>2026-04-25T08:30:47.222Z</time></trkpt><trkpt lat="43.4676574" lon="11.434181"><ele>352.7142857142857</ele><time>2026-04-25T08:30:52.225Z</time></trkpt><trkpt lat="43.4677046" lon="11.4341078"><ele>353.1428571428571</ele><time>2026-04-25T08:39:18.221Z</time></trkpt><trkpt lat="43.467695" lon="11.4341987"><ele>353.5714285714286</ele><time>2026-04-25T08:44:07.234Z</time></trkpt><trkpt lat="43.4676408" lon="11.434265"><ele>354.0</ele><time>2026-04-25T08:44:13.225Z</time></trkpt><trkpt lat="43.4675766" lon="11.4342265"><ele>354.0</ele><time>2026-04-25T08:44:16.224Z</time></trkpt><trkpt lat="43.4675419" lon="11.4341434"><ele>354.0</ele><time>2026-04-25T08:44:18.233Z</time></trkpt><trkpt lat="43.4675452" lon="11.4340563"><ele>354.0</ele><time>2026-04-25T08:44:20.216Z</time></trkpt><trkpt lat="43.4675993" lon="11.4339889"><ele>354.0</ele><time>2026-04-25T08:44:23.308Z</time></trkpt><trkpt lat="43.4676338" lon="11.4338981"><ele>354.0</ele><time>2026-04-25T08:44:26.213Z</time></trkpt><trkpt lat="43.4676982" lon="11.4338631"><ele>354.0</ele><time>2026-04-25T08:44:29.176Z</time></trkpt><trkpt lat="43.4677629" lon="11.4338178"><ele>354.0</ele><time>2026-04-25T08:44:32.215Z</time></trkpt><trkpt lat="43.4678297" lon="11.4337583"><ele>354.1666666666667</ele><time>2026-04-25T08:44:35.215Z</time></trkpt><trkpt lat="43.4679008" lon="11.4336903"><ele>354.3333333333333</ele><time>2026-04-25T08:44:38.21Z</time></trkpt><trkpt lat="43.4679681" lon="11.4336267"><ele>354.5</ele><time>2026-04-25T08:44:40.858Z</time></trkpt><trkpt lat="43.4680175" lon="11.4335697"><ele>354.66666666666663</ele><time>2026-04-25T08:44:43.22Z</time></trkpt><trkpt lat="43.4680861" lon="11.4334936"><ele>354.8333333333333</ele><time>2026-04-25T08:44:46.217Z</time></trkpt><trkpt lat="43.4681624" lon="11.4334326"><ele>355.0</ele><time>2026-04-25T08:44:49.233Z</time></trkpt><trkpt lat="43.4682282" lon="11.4333824"><ele>355.42857142857144</ele><time>2026-04-25T08:44:52.229Z</time></trkpt><trkpt lat="43.4682881" lon="11.4333313"><ele>355.8571428571429</ele><time>2026-04-25T08:44:55.22Z</time></trkpt><trkpt lat="43.4683609" lon="11.4332797"><ele>356.28571428571433</ele><time>2026-04-25T08:44:58.209Z</time></trkpt><trkpt lat="43.4684254" lon="11.4332331"><ele>356.7142857142857</ele><time>2026-04-25T08:45:01.201Z</time></trkpt><trkpt lat="43.4684834" lon="11.433193"><ele>357.14285714285717</ele><time>2026-04-25T08:45:04.197Z</time></trkpt><trkpt lat="43.4685546" lon="11.4331586"><ele>357.5714285714286</ele><time>2026-04-25T08:45:07.2Z</time></trkpt><trkpt lat="43.4686092" lon="11.4330805"><ele>358.0</ele><time>2026-04-25T08:45:10.446Z</time></trkpt><trkpt lat="43.4685881" lon="11.432989"><ele>359.0</ele><time>2026-04-25T08:45:13.206Z</time></trkpt><trkpt lat="43.4685342" lon="11.4329101"><ele>360.0</ele><time>2026-04-25T08:45:17.207Z</time></trkpt><trkpt lat="43.4685017" lon="11.4328079"><ele>361.0</ele><time>2026-04-25T08:45:21.208Z</time></trkpt><trkpt lat="43.4684609" lon="11.4327031"><ele>362.0</ele><time>2026-04-25T08:45:25.204Z</time></trkpt><trkpt lat="43.4684351" lon="11.4326021"><ele>363.0</ele><time>2026-04-25T08:45:28.198Z</time></trkpt><trkpt lat="43.4684086" lon="11.432512"><ele>364.0</ele><time>2026-04-25T08:45:31.203Z</time></trkpt><trkpt lat="43.4683579" lon="11.4324129"><ele>364.0</ele><time>2026-04-25T08:45:35.2Z</time></trkpt><trkpt lat="43.4683141" lon="11.4323496"><ele>364.0</ele><time>2026-04-25T08:45:38.203Z</time></trkpt><trkpt lat="43.4682463" lon="11.4322863"><ele>364.0</ele><time>2026-04-25T08:45:42.205Z</time></trkpt><trkpt lat="43.46819" lon="11.4322047"><ele>364.0</ele><time>2026-04-25T08:45:46.201Z</time></trkpt><trkpt lat="43.468145" lon="11.432123"><ele>364.0</ele><time>2026-04-25T08:45:51.206Z</time></trkpt><trkpt lat="43.4680862" lon="11.4320534"><ele>364.0</ele><time>2026-04-25T08:45:54.207Z</time></trkpt><trkpt lat="43.4680178" lon="11.4319974"><ele>365.57142857142856</ele><time>2026-04-25T08:45:57.212Z</time></trkpt><trkpt lat="43.467954" lon="11.4319471"><ele>367.1428571428571</ele><time>2026-04-25T08:46:00.205Z</time></trkpt><trkpt lat="43.4679054" lon="11.4318908"><ele>368.7142857142857</ele><time>2026-04-25T08:46:03.204Z</time></trkpt><trkpt lat="43.467845" lon="11.4318233"><ele>370.2857142857143</ele><time>2026-04-25T08:46:06.204Z</time></trkpt><trkpt lat="43.4677843" lon="11.4317729"><ele>371.85714285714283</ele><time>2026-04-25T08:46:09.204Z</time></trkpt><trkpt lat="43.4677172" lon="11.4317341"><ele>373.42857142857144</ele><time>2026-04-25T08:46:12.198Z</time></trkpt><trkpt lat="43.4676547" lon="11.4317006"><ele>375.0</ele><time>2026-04-25T08:46:15.205Z</time></trkpt><trkpt lat="43.4675837" lon="11.4316468"><ele>375.14285714285717</ele><time>2026-04-25T08:46:19.204Z</time></trkpt><trkpt lat="43.4675271" lon="11.431586"><ele>375.2857142857143</ele><time>2026-04-25T08:46:23.205Z</time></trkpt><trkpt lat="43.4674645" lon="11.4315135"><ele>375.42857142857144</ele><time>2026-04-25T08:46:27.206Z</time></trkpt><trkpt lat="43.4673953" lon="11.4314745"><ele>375.57142857142856</ele><time>2026-04-25T08:46:31.203Z</time></trkpt><trkpt lat="43.4673406" lon="11.4314198"><ele>375.71428571428567</ele><time>2026-04-25T08:46:34.204Z</time></trkpt><trkpt lat="43.467276" lon="11.4313591"><ele>375.85714285714283</ele><time>2026-04-25T08:46:37.206Z</time></trkpt><trkpt lat="43.4672088" lon="11.4313169"><ele>376.0</ele><time>2026-04-25T08:46:40.203Z</time></trkpt><trkpt lat="43.4671369" lon="11.4312904"><ele>377.7142857142857</ele><time>2026-04-25T08:46:43.209Z</time></trkpt><trkpt lat="43.4670753" lon="11.4312705"><ele>379.42857142857144</ele><time>2026-04-25T08:46:46.207Z</time></trkpt><trkpt lat="43.4670125" lon="11.4312504"><ele>381.1428571428571</ele><time>2026-04-25T08:46:49.207Z</time></trkpt><trkpt lat="43.4669258" lon="11.4312324"><ele>382.8571428571429</ele><time>2026-04-25T08:46:53.212Z</time></trkpt><trkpt lat="43.4668549" lon="11.4312025"><ele>384.5714285714286</ele><time>2026-04-25T08:46:56.209Z</time></trkpt><trkpt lat="43.4667939" lon="11.4311605"><ele>386.2857142857143</ele><time>2026-04-25T08:46:59.222Z</time></trkpt><trkpt lat="43.4667353" lon="11.4310908"><ele>388.0</ele><time>2026-04-25T08:47:02.214Z</time></trkpt><trkpt lat="43.4666845" lon="11.4310171"><ele>388.0</ele><time>2026-04-25T08:47:05.212Z</time></trkpt><trkpt lat="43.4666453" lon="11.4309382"><ele>388.0</ele><time>2026-04-25T08:47:08.218Z</time></trkpt><trkpt lat="43.4666259" lon="11.4308437"><ele>388.0</ele><time>2026-04-25T08:47:12.221Z</time></trkpt><trkpt lat="43.4665645" lon="11.4307713"><ele>388.0</ele><time>2026-04-25T08:47:16.225Z</time></trkpt><trkpt lat="43.4665154" lon="11.4307144"><ele>388.0</ele><time>2026-04-25T08:47:20.219Z</time></trkpt><trkpt lat="43.4664726" lon="11.430631"><ele>388.0</ele><time>2026-04-25T08:47:25.216Z</time></trkpt><trkpt lat="43.466437" lon="11.4305527"><ele>388.0</ele><time>2026-04-25T08:47:28.218Z</time></trkpt><trkpt lat="43.4663974" lon="11.4304716"><ele>388.57142857142856</ele><time>2026-04-25T08:47:31.218Z</time></trkpt><trkpt lat="43.4663507" lon="11.4303805"><ele>389.14285714285717</ele><time>2026-04-25T08:47:35.219Z</time></trkpt><trkpt lat="43.4663154" lon="11.4303008"><ele>389.7142857142857</ele><time>2026-04-25T08:47:38.209Z</time></trkpt><trkpt lat="43.4662756" lon="11.4302253"><ele>390.2857142857143</ele><time>2026-04-25T08:47:41.219Z</time></trkpt><trkpt lat="43.4662415" lon="11.4301357"><ele>390.8571428571429</ele><time>2026-04-25T08:47:45.221Z</time></trkpt><trkpt lat="43.4661836" lon="11.4300669"><ele>391.42857142857144</ele><time>2026-04-25T08:47:49.211Z</time></trkpt><trkpt lat="43.4661108" lon="11.430022"><ele>392.0</ele><time>2026-04-25T08:47:53.229Z</time></trkpt><trkpt lat="43.4660558" lon="11.4299714"><ele>392.0</ele><time>2026-04-25T08:47:56.223Z</time></trkpt><trkpt lat="43.4659892" lon="11.4299125"><ele>392.0</ele><time>2026-04-25T08:48:00.211Z</time></trkpt><trkpt lat="43.4659355" lon="11.4298605"><ele>392.0</ele><time>2026-04-25T08:48:03.218Z</time></trkpt><trkpt lat="43.4658713" lon="11.429802"><ele>392.0</ele><time>2026-04-25T08:48:07.219Z</time></trkpt><trkpt lat="43.4658165" lon="11.4297521"><ele>392.0</ele><time>2026-04-25T08:48:11.219Z</time></trkpt><trkpt lat="43.4657598" lon="11.429702"><ele>392.0</ele><time>2026-04-25T08:48:15.22Z</time></trkpt><trkpt lat="43.4657054" lon="11.4296421"><ele>392.0</ele><time>2026-04-25T08:48:20.223Z</time></trkpt><trkpt lat="43.4656591" lon="11.4295702"><ele>393.0</ele><time>2026-04-25T08:48:24.238Z</time></trkpt><trkpt lat="43.4656178" lon="11.4295039"><ele>394.0</ele><time>2026-04-25T08:48:28.219Z</time></trkpt><trkpt lat="43.4655841" lon="11.429421"><ele>395.0</ele><time>2026-04-25T08:48:52.218Z</time></trkpt><trkpt lat="43.4656056" lon="11.4293283"><ele>396.0</ele><time>2026-04-25T08:48:58.217Z</time></trkpt><trkpt lat="43.4656134" lon="11.4292391"><ele>397.0</ele><time>2026-04-25T08:53:03.214Z</time></trkpt><trkpt lat="43.4656122" lon="11.4291373"><ele>398.0</ele><time>2026-04-25T08:53:07.216Z</time></trkpt><trkpt lat="43.4655691" lon="11.4290552"><ele>399.0</ele><time>2026-04-25T08:53:11.216Z</time></trkpt><trkpt lat="43.4655119" lon="11.4290013"><ele>399.0</ele><time>2026-04-25T08:53:16.219Z</time></trkpt><trkpt lat="43.4654515" lon="11.4289495"><ele>399.0</ele><time>2026-04-25T08:53:21.219Z</time></trkpt><trkpt lat="43.4653979" lon="11.4288885"><ele>399.0</ele><time>2026-04-25T08:53:26.225Z</time></trkpt><trkpt lat="43.4653288" lon="11.428865"><ele>399.0</ele><time>2026-04-25T08:53:32.222Z</time></trkpt><trkpt lat="43.4653345" lon="11.4289705"><ele>399.0</ele><time>2026-04-25T08:53:42.221Z</time></trkpt><trkpt lat="43.4653151" lon="11.4288876"><ele>399.0</ele><time>2026-04-25T08:54:11.214Z</time></trkpt><trkpt lat="43.4653429" lon="11.4288081"><ele>399.0</ele><time>2026-04-25T08:54:15.227Z</time></trkpt><trkpt lat="43.4653904" lon="11.4288742"><ele>399.0</ele><time>2026-04-25T08:54:58.24Z</time></trkpt><trkpt lat="43.465455" lon="11.4289043"><ele>399.0</ele><time>2026-04-25T08:55:03.234Z</time></trkpt><trkpt lat="43.4655128" lon="11.4289503"><ele>399.0</ele><time>2026-04-25T08:55:06.267Z</time></trkpt><trkpt lat="43.4655706" lon="11.429026"><ele>399.0</ele><time>2026-04-25T08:55:10.234Z</time></trkpt><trkpt lat="43.4656063" lon="11.4290983"><ele>399.0</ele><time>2026-04-25T08:55:13.235Z</time></trkpt><trkpt lat="43.4656379" lon="11.4291744"><ele>399.0</ele><time>2026-04-25T08:55:17.234Z</time></trkpt><trkpt lat="43.465656" lon="11.42926"><ele>399.0</ele><time>2026-04-25T08:55:21.239Z</time></trkpt><trkpt lat="43.4656299" lon="11.429349"><ele>399.0</ele><time>2026-04-25T08:55:24.24Z</time></trkpt><trkpt lat="43.4656123" lon="11.4294326"><ele>399.0</ele><time>2026-04-25T08:55:27.248Z</time></trkpt><trkpt lat="43.4656249" lon="11.4295202"><ele>399.0</ele><time>2026-04-25T08:55:32.237Z</time></trkpt><trkpt lat="43.4656768" lon="11.4295714"><ele>399.0</ele><time>2026-04-25T08:55:35.231Z</time></trkpt><trkpt lat="43.465728" lon="11.429635"><ele>399.0</ele><time>2026-04-25T08:55:38.238Z</time></trkpt><trkpt lat="43.4657648" lon="11.4297079"><ele>399.0</ele><time>2026-04-25T08:55:41.232Z</time></trkpt><trkpt lat="43.4658228" lon="11.4297667"><ele>399.0</ele><time>2026-04-25T08:55:44.232Z</time></trkpt><trkpt lat="43.4658811" lon="11.4298136"><ele>397.8333333333333</ele><time>2026-04-25T08:55:47.232Z</time></trkpt><trkpt lat="43.4659645" lon="11.4298666"><ele>396.66666666666663</ele><time>2026-04-25T08:55:50.234Z</time></trkpt><trkpt lat="43.4660354" lon="11.4299432"><ele>395.5</ele><time>2026-04-25T08:55:53.233Z</time></trkpt><trkpt lat="43.4660953" lon="11.4299976"><ele>394.3333333333333</ele><time>2026-04-25T08:55:55.231Z</time></trkpt><trkpt lat="43.4661556" lon="11.4300512"><ele>393.16666666666663</ele><time>2026-04-25T08:55:57.242Z</time></trkpt><trkpt lat="43.4662109" lon="11.4301026"><ele>392.0</ele><time>2026-04-25T08:55:59.237Z</time></trkpt><trkpt lat="43.4662564" lon="11.4301686"><ele>392.2857142857143</ele><time>2026-04-25T08:56:01.232Z</time></trkpt><trkpt lat="43.466301" lon="11.4302591"><ele>392.57142857142856</ele><time>2026-04-25T08:56:03.239Z</time></trkpt><trkpt lat="43.466347" lon="11.4303289"><ele>392.8571428571429</ele><time>2026-04-25T08:56:05.236Z</time></trkpt><trkpt lat="43.4663894" lon="11.4304028"><ele>393.1428571428571</ele><time>2026-04-25T08:56:07.245Z</time></trkpt><trkpt lat="43.4664225" lon="11.4304845"><ele>393.42857142857144</ele><time>2026-04-25T08:56:09.238Z</time></trkpt><trkpt lat="43.4664541" lon="11.4305634"><ele>393.7142857142857</ele><time>2026-04-25T08:56:11.234Z</time></trkpt><trkpt lat="43.466485" lon="11.430639"><ele>394.0</ele><time>2026-04-25T08:56:13.243Z</time></trkpt><trkpt lat="43.4665227" lon="11.4307112"><ele>393.00000000000006</ele><time>2026-04-25T08:56:15.229Z</time></trkpt><trkpt lat="43.4665873" lon="11.4307586"><ele>392.0</ele><time>2026-04-25T08:56:17.236Z</time></trkpt><trkpt lat="43.4666526" lon="11.4307628"><ele>391.0</ele><time>2026-04-25T08:56:19.234Z</time></trkpt><trkpt lat="43.4667357" lon="11.4307329"><ele>390.0</ele><time>2026-04-25T08:56:22.235Z</time></trkpt><trkpt lat="43.4668045" lon="11.4306692"><ele>389.00000000000006</ele><time>2026-04-25T08:56:25.23Z</time></trkpt><trkpt lat="43.4668724" lon="11.4306038"><ele>388.0</ele><time>2026-04-25T08:56:28.239Z</time></trkpt><trkpt lat="43.4669294" lon="11.4305472"><ele>388.0</ele><time>2026-04-25T08:56:31.244Z</time></trkpt><trkpt lat="43.4670023" lon="11.4304976"><ele>388.0</ele><time>2026-04-25T08:56:35.236Z</time></trkpt><trkpt lat="43.4670651" lon="11.4304673"><ele>388.0</ele><time>2026-04-25T08:56:38.245Z</time></trkpt><trkpt lat="43.4671243" lon="11.4304287"><ele>388.0</ele><time>2026-04-25T08:56:41.242Z</time></trkpt><trkpt lat="43.4671863" lon="11.4304018"><ele>388.0</ele><time>2026-04-25T08:56:44.243Z</time></trkpt><trkpt lat="43.4672553" lon="11.4303518"><ele>388.0</ele><time>2026-04-25T08:56:48.239Z</time></trkpt><trkpt lat="43.4673138" lon="11.4303022"><ele>388.0</ele><time>2026-04-25T08:56:51.249Z</time></trkpt><trkpt lat="43.4673862" lon="11.430258"><ele>389.6666666666667</ele><time>2026-04-25T08:56:54.238Z</time></trkpt><trkpt lat="43.4674468" lon="11.4302169"><ele>391.33333333333337</ele><time>2026-04-25T08:56:57.236Z</time></trkpt><trkpt lat="43.4675114" lon="11.4301611"><ele>393.0</ele><time>2026-04-25T08:57:01.24Z</time></trkpt><trkpt lat="43.467592" lon="11.4301155"><ele>394.66666666666663</ele><time>2026-04-25T08:57:05.241Z</time></trkpt><trkpt lat="43.467661" lon="11.4300645"><ele>396.3333333333333</ele><time>2026-04-25T08:57:08.245Z</time></trkpt><trkpt lat="43.4677275" lon="11.4300381"><ele>398.0</ele><time>2026-04-25T08:57:11.252Z</time></trkpt><trkpt lat="43.4678098" lon="11.43"><ele>397.99999999999994</ele><time>2026-04-25T08:57:14.24Z</time></trkpt><trkpt lat="43.4678852" lon="11.4299533"><ele>398.0</ele><time>2026-04-25T08:57:17.238Z</time></trkpt><trkpt lat="43.4679453" lon="11.4299079"><ele>398.0</ele><time>2026-04-25T08:57:20.244Z</time></trkpt><trkpt lat="43.4679998" lon="11.4298502"><ele>398.0</ele><time>2026-04-25T08:57:23.24Z</time></trkpt><trkpt lat="43.4680553" lon="11.429797"><ele>398.0</ele><time>2026-04-25T08:57:26.234Z</time></trkpt><trkpt lat="43.4681225" lon="11.4297485"><ele>397.99999999999994</ele><time>2026-04-25T08:57:29.243Z</time></trkpt><trkpt lat="43.4681859" lon="11.4297049"><ele>398.0</ele><time>2026-04-25T08:57:32.234Z</time></trkpt><trkpt lat="43.4682441" lon="11.4296552"><ele>399.4285714285714</ele><time>2026-04-25T08:57:35.239Z</time></trkpt><trkpt lat="43.4682971" lon="11.4296005"><ele>400.85714285714283</ele><time>2026-04-25T08:57:38.246Z</time></trkpt><trkpt lat="43.4683459" lon="11.4295325"><ele>402.2857142857143</ele><time>2026-04-25T08:57:41.239Z</time></trkpt><trkpt lat="43.4683974" lon="11.4294743"><ele>403.71428571428567</ele><time>2026-04-25T08:57:44.237Z</time></trkpt><trkpt lat="43.4684588" lon="11.4293956"><ele>405.14285714285717</ele><time>2026-04-25T08:57:48.229Z</time></trkpt><trkpt lat="43.4685136" lon="11.4293257"><ele>406.57142857142856</ele><time>2026-04-25T08:57:51.234Z</time></trkpt><trkpt lat="43.4685686" lon="11.4292421"><ele>408.0</ele><time>2026-04-25T08:57:55.24Z</time></trkpt><trkpt lat="43.4686117" lon="11.4291625"><ele>408.0</ele><time>2026-04-25T08:57:58.24Z</time></trkpt><trkpt lat="43.4686644" lon="11.4290927"><ele>408.0</ele><time>2026-04-25T08:58:01.241Z</time></trkpt><trkpt lat="43.4687118" lon="11.4290231"><ele>408.0</ele><time>2026-04-25T08:58:04.244Z</time></trkpt><trkpt lat="43.4687542" lon="11.4289496"><ele>408.0</ele><time>2026-04-25T08:58:07.239Z</time></trkpt><trkpt lat="43.4687994" lon="11.4288777"><ele>408.0</ele><time>2026-04-25T08:58:10.24Z</time></trkpt><trkpt lat="43.4688485" lon="11.4288144"><ele>408.0</ele><time>2026-04-25T08:58:13.242Z</time></trkpt><trkpt lat="43.4689042" lon="11.4287373"><ele>408.0</ele><time>2026-04-25T08:58:17.24Z</time></trkpt><trkpt lat="43.4689414" lon="11.4286633"><ele>409.8571428571429</ele><time>2026-04-25T08:58:20.241Z</time></trkpt><trkpt lat="43.4689788" lon="11.4285935"><ele>411.7142857142857</ele><time>2026-04-25T08:58:23.244Z</time></trkpt><trkpt lat="43.4690232" lon="11.4285252"><ele>413.57142857142856</ele><time>2026-04-25T08:58:26.242Z</time></trkpt><trkpt lat="43.4690695" lon="11.4284589"><ele>415.42857142857144</ele><time>2026-04-25T08:58:29.244Z</time></trkpt><trkpt lat="43.4691068" lon="11.4283781"><ele>417.2857142857143</ele><time>2026-04-25T08:58:32.236Z</time></trkpt><trkpt lat="43.4691543" lon="11.4282862"><ele>419.14285714285717</ele><time>2026-04-25T08:58:36.239Z</time></trkpt><trkpt lat="43.4692094" lon="11.4282201"><ele>421.0</ele><time>2026-04-25T08:58:39.239Z</time></trkpt><trkpt lat="43.4692589" lon="11.4281357"><ele>421.00000000000006</ele><time>2026-04-25T08:58:43.239Z</time></trkpt><trkpt lat="43.4692986" lon="11.4280654"><ele>421.0</ele><time>2026-04-25T08:58:46.244Z</time></trkpt><trkpt lat="43.4693444" lon="11.4280024"><ele>421.0</ele><time>2026-04-25T08:58:49.237Z</time></trkpt><trkpt lat="43.4693967" lon="11.4279174"><ele>421.0</ele><time>2026-04-25T08:58:53.247Z</time></trkpt><trkpt lat="43.4694399" lon="11.4278332"><ele>421.0</ele><time>2026-04-25T08:58:56.228Z</time></trkpt><trkpt lat="43.4694971" lon="11.4277566"><ele>421.00000000000006</ele><time>2026-04-25T08:58:59.246Z</time></trkpt><trkpt lat="43.4695408" lon="11.4276928"><ele>421.0</ele><time>2026-04-25T08:59:02.234Z</time></trkpt><trkpt lat="43.469576" lon="11.4276189"><ele>422.5714285714286</ele><time>2026-04-25T08:59:05.232Z</time></trkpt><trkpt lat="43.4696214" lon="11.427557"><ele>424.14285714285717</ele><time>2026-04-25T08:59:08.241Z</time></trkpt><trkpt lat="43.4696648" lon="11.4274644"><ele>425.7142857142857</ele><time>2026-04-25T08:59:12.227Z</time></trkpt><trkpt lat="43.4697058" lon="11.4273726"><ele>427.28571428571433</ele><time>2026-04-25T08:59:16.239Z</time></trkpt><trkpt lat="43.4697329" lon="11.4272936"><ele>428.85714285714283</ele><time>2026-04-25T08:59:19.236Z</time></trkpt><trkpt lat="43.4697486" lon="11.427206"><ele>430.42857142857144</ele><time>2026-04-25T08:59:22.243Z</time></trkpt><trkpt lat="43.4697705" lon="11.4271184"><ele>432.0</ele><time>2026-04-25T08:59:25.236Z</time></trkpt><trkpt lat="43.4697846" lon="11.4270133"><ele>433.1428571428571</ele><time>2026-04-25T08:59:29.238Z</time></trkpt><trkpt lat="43.4697961" lon="11.4269148"><ele>434.2857142857143</ele><time>2026-04-25T08:59:33.238Z</time></trkpt><trkpt lat="43.4698186" lon="11.4268197"><ele>435.42857142857144</ele><time>2026-04-25T08:59:36.246Z</time></trkpt><trkpt lat="43.4698342" lon="11.4267175"><ele>436.57142857142856</ele><time>2026-04-25T08:59:39.23Z</time></trkpt><trkpt lat="43.4698494" lon="11.4266293"><ele>437.7142857142857</ele><time>2026-04-25T08:59:42.236Z</time></trkpt><trkpt lat="43.4698683" lon="11.4265412"><ele>438.85714285714283</ele><time>2026-04-25T08:59:45.237Z</time></trkpt><trkpt lat="43.4698831" lon="11.426448"><ele>440.0</ele><time>2026-04-25T08:59:48.228Z</time></trkpt><trkpt lat="43.4698912" lon="11.4263559"><ele>441.1428571428571</ele><time>2026-04-25T08:59:51.249Z</time></trkpt><trkpt lat="43.4699023" lon="11.4262431"><ele>442.2857142857143</ele><time>2026-04-25T08:59:55.228Z</time></trkpt><trkpt lat="43.4698986" lon="11.4261534"><ele>443.42857142857144</ele><time>2026-04-25T08:59:58.232Z</time></trkpt><trkpt lat="43.4698979" lon="11.4260586"><ele>444.57142857142856</ele><time>2026-04-25T09:00:01.235Z</time></trkpt><trkpt lat="43.4698981" lon="11.4259575"><ele>445.7142857142857</ele><time>2026-04-25T09:00:04.231Z</time></trkpt><trkpt lat="43.4698808" lon="11.425855"><ele>446.85714285714283</ele><time>2026-04-25T09:00:07.238Z</time></trkpt><trkpt lat="43.4698833" lon="11.4257598"><ele>448.0</ele><time>2026-04-25T09:00:10.228Z</time></trkpt><trkpt lat="43.4698678" lon="11.4256718"><ele>448.0</ele><time>2026-04-25T09:00:13.232Z</time></trkpt><trkpt lat="43.4698551" lon="11.4255812"><ele>448.0</ele><time>2026-04-25T09:00:16.226Z</time></trkpt><trkpt lat="43.4698371" lon="11.425467"><ele>448.0</ele><time>2026-04-25T09:00:20.229Z</time></trkpt><trkpt lat="43.4698391" lon="11.425366"><ele>448.0</ele><time>2026-04-25T09:00:23.236Z</time></trkpt><trkpt lat="43.4698248" lon="11.4252661"><ele>448.0</ele><time>2026-04-25T09:00:26.227Z</time></trkpt><trkpt lat="43.4698146" lon="11.4251727"><ele>448.0</ele><time>2026-04-25T09:00:29.225Z</time></trkpt><trkpt lat="43.4698008" lon="11.4250823"><ele>448.0</ele><time>2026-04-25T09:00:32.224Z</time></trkpt><trkpt lat="43.4698144" lon="11.4249833"><ele>449.7142857142857</ele><time>2026-04-25T09:00:35.216Z</time></trkpt><trkpt lat="43.4698123" lon="11.4248812"><ele>451.42857142857144</ele><time>2026-04-25T09:00:38.223Z</time></trkpt><trkpt lat="43.4697883" lon="11.4247974"><ele>453.1428571428571</ele><time>2026-04-25T09:00:41.235Z</time></trkpt><trkpt lat="43.4697465" lon="11.4247243"><ele>454.85714285714283</ele><time>2026-04-25T09:00:44.222Z</time></trkpt><trkpt lat="43.4696897" lon="11.4246498"><ele>456.57142857142856</ele><time>2026-04-25T09:00:48.229Z</time></trkpt><trkpt lat="43.4696331" lon="11.4245876"><ele>458.2857142857142</ele><time>2026-04-25T09:00:52.232Z</time></trkpt><trkpt lat="43.4695572" lon="11.4245402"><ele>459.99999999999994</ele><time>2026-04-25T09:00:56.236Z</time></trkpt><trkpt lat="43.469485" lon="11.4244837"><ele>460.99999999999994</ele><time>2026-04-25T09:01:00.222Z</time></trkpt><trkpt lat="43.4694229" lon="11.4244601"><ele>462.0</ele><time>2026-04-25T09:01:03.226Z</time></trkpt><trkpt lat="43.4693564" lon="11.4244419"><ele>462.99999999999994</ele><time>2026-04-25T09:01:06.231Z</time></trkpt><trkpt lat="43.469282" lon="11.4244262"><ele>463.99999999999994</ele><time>2026-04-25T09:01:09.251Z</time></trkpt><trkpt lat="43.4692079" lon="11.4244158"><ele>465.0</ele><time>2026-04-25T09:01:12.224Z</time></trkpt><trkpt lat="43.4691376" lon="11.4244011"><ele>465.99999999999994</ele><time>2026-04-25T09:01:15.219Z</time></trkpt><trkpt lat="43.4690658" lon="11.4243971"><ele>466.99999999999994</ele><time>2026-04-25T09:01:18.25Z</time></trkpt><trkpt lat="43.4689938" lon="11.4243857"><ele>466.99999999999994</ele><time>2026-04-25T09:01:21.237Z</time></trkpt><trkpt lat="43.4689261" lon="11.4243682"><ele>467.0</ele><time>2026-04-25T09:01:24.244Z</time></trkpt><trkpt lat="43.4688557" lon="11.4243476"><ele>466.99999999999994</ele><time>2026-04-25T09:01:27.256Z</time></trkpt><trkpt lat="43.4687925" lon="11.4243441"><ele>466.99999999999994</ele><time>2026-04-25T09:01:30.239Z</time></trkpt><trkpt lat="43.4687249" lon="11.42433"><ele>467.0</ele><time>2026-04-25T09:01:33.241Z</time></trkpt><trkpt lat="43.468661" lon="11.424306"><ele>466.99999999999994</ele><time>2026-04-25T09:01:36.24Z</time></trkpt><trkpt lat="43.4685936" lon="11.4242951"><ele>466.99999999999994</ele><time>2026-04-25T09:01:39.238Z</time></trkpt><trkpt lat="43.468527" lon="11.4242862"><ele>467.2857142857142</ele><time>2026-04-25T09:01:42.232Z</time></trkpt><trkpt lat="43.4684584" lon="11.4242456"><ele>467.57142857142856</ele><time>2026-04-25T09:01:45.232Z</time></trkpt><trkpt lat="43.4684005" lon="11.4241879"><ele>467.85714285714283</ele><time>2026-04-25T09:01:48.245Z</time></trkpt><trkpt lat="43.468343" lon="11.4241277"><ele>468.1428571428571</ele><time>2026-04-25T09:01:51.245Z</time></trkpt><trkpt lat="43.4682876" lon="11.4240804"><ele>468.42857142857144</ele><time>2026-04-25T09:01:54.239Z</time></trkpt><trkpt lat="43.46823" lon="11.4240394"><ele>468.7142857142857</ele><time>2026-04-25T09:01:57.246Z</time></trkpt><trkpt lat="43.4681778" lon="11.4239799"><ele>469.0</ele><time>2026-04-25T09:02:00.233Z</time></trkpt><trkpt lat="43.4681247" lon="11.4239306"><ele>469.00000000000006</ele><time>2026-04-25T09:02:03.256Z</time></trkpt><trkpt lat="43.4680598" lon="11.4238634"><ele>469.0</ele><time>2026-04-25T09:02:07.24Z</time></trkpt><trkpt lat="43.4680023" lon="11.4238086"><ele>469.0</ele><time>2026-04-25T09:02:10.26Z</time></trkpt><trkpt lat="43.4679409" lon="11.4237512"><ele>469.0</ele><time>2026-04-25T09:02:13.239Z</time></trkpt><trkpt lat="43.4678796" lon="11.4236926"><ele>469.00000000000006</ele><time>2026-04-25T09:02:16.264Z</time></trkpt><trkpt lat="43.4678207" lon="11.4236405"><ele>469.0</ele><time>2026-04-25T09:02:19.267Z</time></trkpt><trkpt lat="43.4677514" lon="11.4235789"><ele>470.42857142857144</ele><time>2026-04-25T09:02:23.253Z</time></trkpt><trkpt lat="43.4676978" lon="11.4234928"><ele>471.8571428571429</ele><time>2026-04-25T09:02:27.241Z</time></trkpt><trkpt lat="43.4676644" lon="11.4234062"><ele>473.2857142857143</ele><time>2026-04-25T09:02:30.237Z</time></trkpt><trkpt lat="43.4676603" lon="11.4233127"><ele>474.7142857142857</ele><time>2026-04-25T09:02:33.234Z</time></trkpt><trkpt lat="43.4676834" lon="11.4232161"><ele>476.14285714285717</ele><time>2026-04-25T09:02:36.242Z</time></trkpt><trkpt lat="43.4677346" lon="11.4231443"><ele>477.57142857142856</ele><time>2026-04-25T09:02:39.257Z</time></trkpt><trkpt lat="43.4678118" lon="11.423119"><ele>479.0</ele><time>2026-04-25T09:02:43.252Z</time></trkpt><trkpt lat="43.4678957" lon="11.4231065"><ele>479.3333333333333</ele><time>2026-04-25T09:02:47.26Z</time></trkpt><trkpt lat="43.4679757" lon="11.4230931"><ele>479.66666666666663</ele><time>2026-04-25T09:02:50.266Z</time></trkpt><trkpt lat="43.4680573" lon="11.4230648"><ele>480.0</ele><time>2026-04-25T09:02:53.26Z</time></trkpt><trkpt lat="43.4681413" lon="11.4230096"><ele>480.33333333333337</ele><time>2026-04-25T09:02:56.247Z</time></trkpt><trkpt lat="43.4681996" lon="11.4229765"><ele>480.6666666666667</ele><time>2026-04-25T09:02:58.259Z</time></trkpt><trkpt lat="43.4682799" lon="11.4229225"><ele>481.0</ele><time>2026-04-25T09:03:01.234Z</time></trkpt><trkpt lat="43.4683509" lon="11.4228503"><ele>480.1666666666667</ele><time>2026-04-25T09:03:04.226Z</time></trkpt><trkpt lat="43.4684326" lon="11.422789"><ele>479.33333333333337</ele><time>2026-04-25T09:03:07.23Z</time></trkpt><trkpt lat="43.4685129" lon="11.4227355"><ele>478.5</ele><time>2026-04-25T09:03:10.235Z</time></trkpt><trkpt lat="43.4685695" lon="11.4226957"><ele>477.66666666666663</ele><time>2026-04-25T09:03:12.236Z</time></trkpt><trkpt lat="43.4686497" lon="11.4226358"><ele>476.8333333333333</ele><time>2026-04-25T09:03:15.233Z</time></trkpt><trkpt lat="43.4687176" lon="11.422579"><ele>476.0</ele><time>2026-04-25T09:03:18.233Z</time></trkpt><trkpt lat="43.4687909" lon="11.4225104"><ele>478.3333333333333</ele><time>2026-04-25T09:03:21.246Z</time></trkpt><trkpt lat="43.4688616" lon="11.4224485"><ele>480.66666666666663</ele><time>2026-04-25T09:03:24.227Z</time></trkpt><trkpt lat="43.4689426" lon="11.4223907"><ele>483.0</ele><time>2026-04-25T09:03:27.231Z</time></trkpt><trkpt lat="43.4690221" lon="11.4223423"><ele>485.33333333333337</ele><time>2026-04-25T09:03:30.225Z</time></trkpt><trkpt lat="43.4691019" lon="11.4222862"><ele>487.6666666666667</ele><time>2026-04-25T09:03:33.232Z</time></trkpt><trkpt lat="43.4691818" lon="11.4222295"><ele>490.0</ele><time>2026-04-25T09:03:36.232Z</time></trkpt><trkpt lat="43.4692601" lon="11.4221809"><ele>490.50000000000006</ele><time>2026-04-25T09:03:39.23Z</time></trkpt><trkpt lat="43.4693419" lon="11.4221215"><ele>491.0</ele><time>2026-04-25T09:03:42.227Z</time></trkpt><trkpt lat="43.4694175" lon="11.4220566"><ele>491.5</ele><time>2026-04-25T09:03:45.232Z</time></trkpt><trkpt lat="43.4694732" lon="11.4220079"><ele>492.0</ele><time>2026-04-25T09:03:47.222Z</time></trkpt><trkpt lat="43.4695326" lon="11.4219619"><ele>492.50000000000006</ele><time>2026-04-25T09:03:49.246Z</time></trkpt><trkpt lat="43.4696172" lon="11.4219066"><ele>493.0</ele><time>2026-04-25T09:03:52.246Z</time></trkpt><trkpt lat="43.4696977" lon="11.4218455"><ele>493.00000000000006</ele><time>2026-04-25T09:03:55.236Z</time></trkpt><trkpt lat="43.4697808" lon="11.4217933"><ele>493.0</ele><time>2026-04-25T09:03:58.233Z</time></trkpt><trkpt lat="43.4698712" lon="11.4217427"><ele>493.0</ele><time>2026-04-25T09:04:01.233Z</time></trkpt><trkpt lat="43.4699294" lon="11.4217063"><ele>493.0</ele><time>2026-04-25T09:04:03.233Z</time></trkpt><trkpt lat="43.4699868" lon="11.4216704"><ele>493.00000000000006</ele><time>2026-04-25T09:04:05.231Z</time></trkpt><trkpt lat="43.4700694" lon="11.4216122"><ele>493.0</ele><time>2026-04-25T09:04:08.223Z</time></trkpt><trkpt lat="43.4701283" lon="11.4215751"><ele>493.00000000000006</ele><time>2026-04-25T09:04:10.236Z</time></trkpt><trkpt lat="43.470184" lon="11.4215336"><ele>493.0</ele><time>2026-04-25T09:04:12.23Z</time></trkpt><trkpt lat="43.4702545" lon="11.4214561"><ele>493.0</ele><time>2026-04-25T09:04:15.239Z</time></trkpt><trkpt lat="43.4703124" lon="11.4213584"><ele>493.0</ele><time>2026-04-25T09:04:18.226Z</time></trkpt><trkpt lat="43.4703481" lon="11.4212527"><ele>493.00000000000006</ele><time>2026-04-25T09:04:21.232Z</time></trkpt><trkpt lat="43.4703578" lon="11.4211331"><ele>493.0</ele><time>2026-04-25T09:04:24.239Z</time></trkpt><trkpt lat="43.4703337" lon="11.4210083"><ele>492.50000000000006</ele><time>2026-04-25T09:04:27.242Z</time></trkpt><trkpt lat="43.4703042" lon="11.420923"><ele>492.0</ele><time>2026-04-25T09:04:29.24Z</time></trkpt><trkpt lat="43.470274" lon="11.4208441"><ele>491.5</ele><time>2026-04-25T09:04:31.239Z</time></trkpt><trkpt lat="43.4702425" lon="11.4207642"><ele>491.0</ele><time>2026-04-25T09:04:33.227Z</time></trkpt><trkpt lat="43.4701848" lon="11.4206679"><ele>490.50000000000006</ele><time>2026-04-25T09:04:36.236Z</time></trkpt><trkpt lat="43.4701333" lon="11.420571"><ele>490.0</ele><time>2026-04-25T09:04:39.24Z</time></trkpt><trkpt lat="43.4700839" lon="11.4204678"><ele>491.83333333333337</ele><time>2026-04-25T09:04:42.219Z</time></trkpt><trkpt lat="43.4700325" lon="11.4203665"><ele>493.6666666666667</ele><time>2026-04-25T09:04:45.22Z</time></trkpt><trkpt lat="43.4699848" lon="11.420267"><ele>495.5</ele><time>2026-04-25T09:04:48.209Z</time></trkpt><trkpt lat="43.4699326" lon="11.4201658"><ele>497.33333333333337</ele><time>2026-04-25T09:04:51.213Z</time></trkpt><trkpt lat="43.4698766" lon="11.4200609"><ele>499.1666666666667</ele><time>2026-04-25T09:04:54.22Z</time></trkpt><trkpt lat="43.4698275" lon="11.4199687"><ele>501.0</ele><time>2026-04-25T09:04:57.216Z</time></trkpt><trkpt lat="43.4697845" lon="11.4198638"><ele>501.0</ele><time>2026-04-25T09:05:00.229Z</time></trkpt><trkpt lat="43.4697348" lon="11.4197734"><ele>501.0</ele><time>2026-04-25T09:05:03.214Z</time></trkpt><trkpt lat="43.4696952" lon="11.4196663"><ele>501.0</ele><time>2026-04-25T09:05:06.218Z</time></trkpt><trkpt lat="43.4696716" lon="11.4195661"><ele>501.0</ele><time>2026-04-25T09:05:09.218Z</time></trkpt><trkpt lat="43.4696713" lon="11.4194498"><ele>501.0</ele><time>2026-04-25T09:05:12.212Z</time></trkpt><trkpt lat="43.4696928" lon="11.4193362"><ele>501.0</ele><time>2026-04-25T09:05:15.214Z</time></trkpt><trkpt lat="43.4697441" lon="11.4192443"><ele>501.1666666666667</ele><time>2026-04-25T09:05:18.227Z</time></trkpt><trkpt lat="43.4698001" lon="11.4191589"><ele>501.33333333333337</ele><time>2026-04-25T09:05:21.223Z</time></trkpt><trkpt lat="43.4698524" lon="11.4190813"><ele>501.5</ele><time>2026-04-25T09:05:24.229Z</time></trkpt><trkpt lat="43.4698906" lon="11.4190055"><ele>501.6666666666667</ele><time>2026-04-25T09:05:27.22Z</time></trkpt><trkpt lat="43.4699389" lon="11.4189237"><ele>501.83333333333337</ele><time>2026-04-25T09:05:30.216Z</time></trkpt><trkpt lat="43.4699958" lon="11.4188536"><ele>502.0</ele><time>2026-04-25T09:05:33.221Z</time></trkpt><trkpt lat="43.4700419" lon="11.4187794"><ele>501.99999999999994</ele><time>2026-04-25T09:05:36.216Z</time></trkpt><trkpt lat="43.4700908" lon="11.4186974"><ele>502.0</ele><time>2026-04-25T09:05:39.221Z</time></trkpt><trkpt lat="43.4701593" lon="11.4186372"><ele>501.99999999999994</ele><time>2026-04-25T09:05:43.222Z</time></trkpt><trkpt lat="43.4701948" lon="11.4185642"><ele>501.99999999999994</ele><time>2026-04-25T09:05:48.228Z</time></trkpt><trkpt lat="43.4702095" lon="11.4184737"><ele>502.0</ele><time>2026-04-25T09:08:31.231Z</time></trkpt><trkpt lat="43.4701511" lon="11.4184133"><ele>501.99999999999994</ele><time>2026-04-25T09:08:37.227Z</time></trkpt><trkpt lat="43.4701085" lon="11.4183427"><ele>501.99999999999994</ele><time>2026-04-25T09:09:04.213Z</time></trkpt><trkpt lat="43.4701335" lon="11.4182516"><ele>501.99999999999994</ele><time>2026-04-25T09:09:36.243Z</time></trkpt><trkpt lat="43.4701098" lon="11.4181701"><ele>502.0</ele><time>2026-04-25T09:09:53.23Z</time></trkpt><trkpt lat="43.4700441" lon="11.4181643"><ele>501.99999999999994</ele><time>2026-04-25T09:10:04.216Z</time></trkpt><trkpt lat="43.4700298" lon="11.418077"><ele>501.99999999999994</ele><time>2026-04-25T09:10:33.186Z</time></trkpt><trkpt lat="43.4699525" lon="11.4180472"><ele>502.0</ele><time>2026-04-25T09:11:17.2Z</time></trkpt><trkpt lat="43.4699693" lon="11.4179546"><ele>501.99999999999994</ele><time>2026-04-25T09:11:21.206Z</time></trkpt><trkpt lat="43.4700114" lon="11.4178561"><ele>501.99999999999994</ele><time>2026-04-25T09:11:25.205Z</time></trkpt><trkpt lat="43.4700061" lon="11.4177472"><ele>501.8</ele><time>2026-04-25T09:11:28.198Z</time></trkpt><trkpt lat="43.4700188" lon="11.4176461"><ele>501.6</ele><time>2026-04-25T09:11:32.21Z</time></trkpt><trkpt lat="43.4700955" lon="11.4176818"><ele>501.40000000000003</ele><time>2026-04-25T09:11:37.211Z</time></trkpt><trkpt lat="43.470046" lon="11.417628"><ele>501.20000000000005</ele><time>2026-04-25T09:12:07.175Z</time></trkpt><trkpt lat="43.4700847" lon="11.4177012"><ele>501.0</ele><time>2026-04-25T09:12:20.2Z</time></trkpt><trkpt lat="43.4705093" lon="11.41753"><ele>501.0</ele><time>2026-04-25T09:12:57.202Z</time></trkpt><trkpt lat="43.4703848" lon="11.4176075"><ele>501.0</ele><time>2026-04-25T09:12:59.213Z</time></trkpt><trkpt lat="43.4702274" lon="11.4176325"><ele>501.0</ele><time>2026-04-25T09:13:05.21Z</time></trkpt><trkpt lat="43.4701611" lon="11.4176705"><ele>501.0</ele><time>2026-04-25T09:13:31.235Z</time></trkpt><trkpt lat="43.4700964" lon="11.4176844"><ele>501.0</ele><time>2026-04-25T09:13:36.207Z</time></trkpt><trkpt lat="43.4700368" lon="11.4176486"><ele>501.0</ele><time>2026-04-25T09:13:44.207Z</time></trkpt><trkpt lat="43.4700707" lon="11.4175704"><ele>501.0</ele><time>2026-04-25T09:13:48.217Z</time></trkpt><trkpt lat="43.4701055" lon="11.4174959"><ele>501.0</ele><time>2026-04-25T09:13:53.209Z</time></trkpt><trkpt lat="43.4700074" lon="11.4174536"><ele>501.0</ele><time>2026-04-25T09:13:58.219Z</time></trkpt><trkpt lat="43.4699469" lon="11.4174293"><ele>501.0</ele><time>2026-04-25T09:14:03.226Z</time></trkpt><trkpt lat="43.4699018" lon="11.417363"><ele>501.0</ele><time>2026-04-25T09:14:09.206Z</time></trkpt><trkpt lat="43.4698348" lon="11.4173255"><ele>501.0</ele><time>2026-04-25T09:14:15.205Z</time></trkpt><trkpt lat="43.4697709" lon="11.4172994"><ele>501.0</ele><time>2026-04-25T09:14:25.216Z</time></trkpt><trkpt lat="43.4697785" lon="11.4172015"><ele>501.0</ele><time>2026-04-25T09:14:30.221Z</time></trkpt><trkpt lat="43.4697121" lon="11.4171717"><ele>501.0</ele><time>2026-04-25T09:15:07.21Z</time></trkpt><trkpt lat="43.469641" lon="11.4171692"><ele>501.0</ele><time>2026-04-25T09:15:10.205Z</time></trkpt><trkpt lat="43.4695779" lon="11.417229"><ele>501.0</ele><time>2026-04-25T09:15:42.216Z</time></trkpt><trkpt lat="43.469526" lon="11.4173042"><ele>501.0</ele><time>2026-04-25T09:15:45.202Z</time></trkpt><trkpt lat="43.4694941" lon="11.4173889"><ele>501.0</ele><time>2026-04-25T09:15:48.21Z</time></trkpt><trkpt lat="43.4695232" lon="11.4174939"><ele>501.0</ele><time>2026-04-25T09:15:52.213Z</time></trkpt><trkpt lat="43.4695723" lon="11.4175576"><ele>501.0</ele><time>2026-04-25T09:15:57.212Z</time></trkpt><trkpt lat="43.4696352" lon="11.4176279"><ele>501.0</ele><time>2026-04-25T09:16:01.224Z</time></trkpt><trkpt lat="43.4696722" lon="11.4177078"><ele>501.0</ele><time>2026-04-25T09:16:03.218Z</time></trkpt><trkpt lat="43.4697132" lon="11.4177951"><ele>501.0</ele><time>2026-04-25T09:16:05.215Z</time></trkpt><trkpt lat="43.4697489" lon="11.4178705"><ele>501.0</ele><time>2026-04-25T09:16:07.205Z</time></trkpt><trkpt lat="43.4697836" lon="11.4179818"><ele>501.0</ele><time>2026-04-25T09:16:10.204Z</time></trkpt><trkpt lat="43.4698444" lon="11.4180406"><ele>501.14285714285717</ele><time>2026-04-25T09:16:14.22Z</time></trkpt><trkpt lat="43.4699177" lon="11.4180837"><ele>501.2857142857142</ele><time>2026-04-25T09:16:18.222Z</time></trkpt><trkpt lat="43.4699811" lon="11.4180777"><ele>501.4285714285714</ele><time>2026-04-25T09:16:40.217Z</time></trkpt><trkpt lat="43.4700429" lon="11.4181267"><ele>501.57142857142856</ele><time>2026-04-25T09:16:50.214Z</time></trkpt><trkpt lat="43.4700882" lon="11.4182029"><ele>501.71428571428567</ele><time>2026-04-25T09:16:52.23Z</time></trkpt><trkpt lat="43.4701172" lon="11.4183043"><ele>501.8571428571428</ele><time>2026-04-25T09:16:54.234Z</time></trkpt><trkpt lat="43.4701225" lon="11.4184142"><ele>501.99999999999994</ele><time>2026-04-25T09:16:57.241Z</time></trkpt><trkpt lat="43.4700845" lon="11.418519"><ele>501.99999999999994</ele><time>2026-04-25T09:17:00.242Z</time></trkpt><trkpt lat="43.4700778" lon="11.4186102"><ele>502.0</ele><time>2026-04-25T09:17:06.254Z</time></trkpt><trkpt lat="43.470133" lon="11.4186567"><ele>501.99999999999994</ele><time>2026-04-25T09:17:18.256Z</time></trkpt><trkpt lat="43.4701725" lon="11.4185849"><ele>501.99999999999994</ele><time>2026-04-25T09:17:22.259Z</time></trkpt><trkpt lat="43.4702322" lon="11.4185513"><ele>502.0</ele><time>2026-04-25T09:17:25.258Z</time></trkpt><trkpt lat="43.4703059" lon="11.4185749"><ele>501.99999999999994</ele><time>2026-04-25T09:17:29.258Z</time></trkpt><trkpt lat="43.4703625" lon="11.4186512"><ele>501.99999999999994</ele><time>2026-04-25T09:17:33.256Z</time></trkpt><trkpt lat="43.4704089" lon="11.4187217"><ele>502.5714285714285</ele><time>2026-04-25T09:17:38.258Z</time></trkpt><trkpt lat="43.4704487" lon="11.4188129"><ele>503.1428571428571</ele><time>2026-04-25T09:17:42.258Z</time></trkpt><trkpt lat="43.4704854" lon="11.4188927"><ele>503.7142857142857</ele><time>2026-04-25T09:17:45.261Z</time></trkpt><trkpt lat="43.4705229" lon="11.4189756"><ele>504.2857142857143</ele><time>2026-04-25T09:17:48.261Z</time></trkpt><trkpt lat="43.4705732" lon="11.4190539"><ele>504.8571428571429</ele><time>2026-04-25T09:17:51.244Z</time></trkpt><trkpt lat="43.4706132" lon="11.4191344"><ele>505.4285714285715</ele><time>2026-04-25T09:17:54.25Z</time></trkpt><trkpt lat="43.4706535" lon="11.4192094"><ele>506.00000000000006</ele><time>2026-04-25T09:17:57.261Z</time></trkpt><trkpt lat="43.4706925" lon="11.4192899"><ele>506.00000000000006</ele><time>2026-04-25T09:18:00.252Z</time></trkpt><trkpt lat="43.4707417" lon="11.4193654"><ele>506.0</ele><time>2026-04-25T09:18:03.256Z</time></trkpt><trkpt lat="43.4707826" lon="11.4194332"><ele>506.00000000000006</ele><time>2026-04-25T09:18:06.247Z</time></trkpt><trkpt lat="43.4708291" lon="11.4195232"><ele>506.00000000000006</ele><time>2026-04-25T09:18:10.254Z</time></trkpt><trkpt lat="43.4708793" lon="11.4195855"><ele>506.0</ele><time>2026-04-25T09:18:13.256Z</time></trkpt><trkpt lat="43.470926" lon="11.4196456"><ele>506.00000000000006</ele><time>2026-04-25T09:18:16.251Z</time></trkpt><trkpt lat="43.4709744" lon="11.4197085"><ele>506.00000000000006</ele><time>2026-04-25T09:18:19.253Z</time></trkpt><trkpt lat="43.4710342" lon="11.4197914"><ele>507.16666666666663</ele><time>2026-04-25T09:18:23.246Z</time></trkpt><trkpt lat="43.4711012" lon="11.4198574"><ele>508.3333333333333</ele><time>2026-04-25T09:18:27.247Z</time></trkpt><trkpt lat="43.4711405" lon="11.4199296"><ele>509.5</ele><time>2026-04-25T09:18:30.251Z</time></trkpt><trkpt lat="43.4711718" lon="11.4200122"><ele>510.66666666666663</ele><time>2026-04-25T09:18:33.257Z</time></trkpt><trkpt lat="43.4712132" lon="11.4201006"><ele>511.8333333333333</ele><time>2026-04-25T09:18:37.254Z</time></trkpt><trkpt lat="43.4712518" lon="11.4201882"><ele>513.0</ele><time>2026-04-25T09:18:40.253Z</time></trkpt><trkpt lat="43.4713068" lon="11.4202806"><ele>513.7142857142858</ele><time>2026-04-25T09:18:43.25Z</time></trkpt><trkpt lat="43.4713593" lon="11.4203419"><ele>514.4285714285714</ele><time>2026-04-25T09:18:46.249Z</time></trkpt><trkpt lat="43.4714097" lon="11.4204335"><ele>515.1428571428571</ele><time>2026-04-25T09:18:50.26Z</time></trkpt><trkpt lat="43.4714528" lon="11.4205177"><ele>515.8571428571429</ele><time>2026-04-25T09:18:53.254Z</time></trkpt><trkpt lat="43.4714965" lon="11.4206024"><ele>516.5714285714286</ele><time>2026-04-25T09:18:56.252Z</time></trkpt><trkpt lat="43.4715429" lon="11.4206706"><ele>517.2857142857143</ele><time>2026-04-25T09:18:59.25Z</time></trkpt><trkpt lat="43.4715945" lon="11.4207473"><ele>518.0</ele><time>2026-04-25T09:19:02.255Z</time></trkpt><trkpt lat="43.4716491" lon="11.4208248"><ele>518.6666666666666</ele><time>2026-04-25T09:19:05.255Z</time></trkpt><trkpt lat="43.4717132" lon="11.4209096"><ele>519.3333333333333</ele><time>2026-04-25T09:19:08.258Z</time></trkpt><trkpt lat="43.4717756" lon="11.4209935"><ele>520.0</ele><time>2026-04-25T09:19:11.247Z</time></trkpt><trkpt lat="43.4718268" lon="11.4210527"><ele>520.6666666666666</ele><time>2026-04-25T09:19:13.255Z</time></trkpt><trkpt lat="43.4718908" lon="11.4211042"><ele>521.3333333333334</ele><time>2026-04-25T09:19:15.251Z</time></trkpt><trkpt lat="43.4719576" lon="11.4211465"><ele>522.0</ele><time>2026-04-25T09:19:17.256Z</time></trkpt><trkpt lat="43.4720354" lon="11.4211902"><ele>521.3333333333334</ele><time>2026-04-25T09:19:19.265Z</time></trkpt><trkpt lat="43.4721188" lon="11.4212176"><ele>520.6666666666666</ele><time>2026-04-25T09:19:21.254Z</time></trkpt><trkpt lat="43.4722093" lon="11.4212578"><ele>520.0</ele><time>2026-04-25T09:19:23.244Z</time></trkpt><trkpt lat="43.4722875" lon="11.4213022"><ele>519.3333333333333</ele><time>2026-04-25T09:19:25.247Z</time></trkpt><trkpt lat="43.4723681" lon="11.4213491"><ele>518.6666666666666</ele><time>2026-04-25T09:19:27.255Z</time></trkpt><trkpt lat="43.4724471" lon="11.4214045"><ele>518.0</ele><time>2026-04-25T09:19:29.252Z</time></trkpt><trkpt lat="43.472538" lon="11.4214692"><ele>517.8333333333333</ele><time>2026-04-25T09:19:31.25Z</time></trkpt><trkpt lat="43.4726303" lon="11.4215553"><ele>517.6666666666666</ele><time>2026-04-25T09:19:33.238Z</time></trkpt><trkpt lat="43.4726836" lon="11.4216046"><ele>517.5</ele><time>2026-04-25T09:19:34.238Z</time></trkpt><trkpt lat="43.4727348" lon="11.4216643"><ele>517.3333333333334</ele><time>2026-04-25T09:19:35.244Z</time></trkpt><trkpt lat="43.4727914" lon="11.4217272"><ele>517.1666666666667</ele><time>2026-04-25T09:19:36.237Z</time></trkpt><trkpt lat="43.472848" lon="11.4217921"><ele>517.0</ele><time>2026-04-25T09:19:37.251Z</time></trkpt><trkpt lat="43.4729076" lon="11.4218559"><ele>517.1666666666667</ele><time>2026-04-25T09:19:38.248Z</time></trkpt><trkpt lat="43.4729599" lon="11.4219241"><ele>517.3333333333334</ele><time>2026-04-25T09:19:39.254Z</time></trkpt><trkpt lat="43.4730114" lon="11.4219906"><ele>517.5</ele><time>2026-04-25T09:19:40.257Z</time></trkpt><trkpt lat="43.4730623" lon="11.4220482"><ele>517.6666666666666</ele><time>2026-04-25T09:19:41.254Z</time></trkpt><trkpt lat="43.4731517" lon="11.4221305"><ele>517.8333333333333</ele><time>2026-04-25T09:19:43.251Z</time></trkpt><trkpt lat="43.4732226" lon="11.4221691"><ele>518.0</ele><time>2026-04-25T09:19:45.241Z</time></trkpt><trkpt lat="43.4733079" lon="11.422199"><ele>518.0</ele><time>2026-04-25T09:19:48.26Z</time></trkpt><trkpt lat="43.4733962" lon="11.4222315"><ele>518.0</ele><time>2026-04-25T09:19:51.263Z</time></trkpt><trkpt lat="43.4734845" lon="11.4222522"><ele>518.0</ele><time>2026-04-25T09:19:54.256Z</time></trkpt><trkpt lat="43.47356" lon="11.4222836"><ele>518.0</ele><time>2026-04-25T09:19:57.265Z</time></trkpt><trkpt lat="43.4736249" lon="11.4223255"><ele>518.0</ele><time>2026-04-25T09:20:00.263Z</time></trkpt><trkpt lat="43.4737085" lon="11.4223503"><ele>518.0</ele><time>2026-04-25T09:20:03.254Z</time></trkpt><trkpt lat="43.4737924" lon="11.422372"><ele>518.3333333333333</ele><time>2026-04-25T09:20:06.263Z</time></trkpt><trkpt lat="43.4738714" lon="11.4223957"><ele>518.6666666666666</ele><time>2026-04-25T09:20:09.268Z</time></trkpt><trkpt lat="43.4739498" lon="11.4224125"><ele>519.0</ele><time>2026-04-25T09:20:12.256Z</time></trkpt><trkpt lat="43.4740134" lon="11.4224132"><ele>519.3333333333334</ele><time>2026-04-25T09:20:15.267Z</time></trkpt><trkpt lat="43.4740934" lon="11.4224275"><ele>519.6666666666667</ele><time>2026-04-25T09:20:18.259Z</time></trkpt><trkpt lat="43.4741591" lon="11.4224513"><ele>520.0</ele><time>2026-04-25T09:20:21.276Z</time></trkpt><trkpt lat="43.4742506" lon="11.4224755"><ele>520.0000000000001</ele><time>2026-04-25T09:20:24.268Z</time></trkpt><trkpt lat="43.4743391" lon="11.4224948"><ele>520.0</ele><time>2026-04-25T09:20:27.266Z</time></trkpt><trkpt lat="43.4744202" lon="11.4225384"><ele>520.0</ele><time>2026-04-25T09:20:30.27Z</time></trkpt><trkpt lat="43.4744845" lon="11.4225569"><ele>520.0</ele><time>2026-04-25T09:20:32.259Z</time></trkpt><trkpt lat="43.474547" lon="11.422573"><ele>520.0</ele><time>2026-04-25T09:20:34.257Z</time></trkpt><trkpt lat="43.4746107" lon="11.4225954"><ele>520.0000000000001</ele><time>2026-04-25T09:20:36.256Z</time></trkpt><trkpt lat="43.474677" lon="11.4226156"><ele>520.0</ele><time>2026-04-25T09:20:38.256Z</time></trkpt><trkpt lat="43.4747418" lon="11.4226239"><ele>519.4</ele><time>2026-04-25T09:20:40.264Z</time></trkpt><trkpt lat="43.4748223" lon="11.4226301"><ele>518.8</ele><time>2026-04-25T09:20:42.267Z</time></trkpt><trkpt lat="43.4749199" lon="11.4226341"><ele>518.2</ele><time>2026-04-25T09:20:44.255Z</time></trkpt><trkpt lat="43.4750272" lon="11.4226133"><ele>517.6</ele><time>2026-04-25T09:20:46.255Z</time></trkpt><trkpt lat="43.4751355" lon="11.4225624"><ele>517.0</ele><time>2026-04-25T09:20:48.24Z</time></trkpt><trkpt lat="43.4752538" lon="11.4224902"><ele>517.0</ele><time>2026-04-25T09:20:50.24Z</time></trkpt><trkpt lat="43.4753133" lon="11.422448"><ele>517.0</ele><time>2026-04-25T09:20:51.24Z</time></trkpt><trkpt lat="43.4753759" lon="11.4224069"><ele>517.0</ele><time>2026-04-25T09:20:52.249Z</time></trkpt><trkpt lat="43.4754416" lon="11.4223667"><ele>517.0</ele><time>2026-04-25T09:20:53.242Z</time></trkpt><trkpt lat="43.4755062" lon="11.4223347"><ele>517.0</ele><time>2026-04-25T09:20:54.233Z</time></trkpt><trkpt lat="43.4755814" lon="11.4223124"><ele>517.0</ele><time>2026-04-25T09:20:55.232Z</time></trkpt><trkpt lat="43.475656" lon="11.4223108"><ele>517.0</ele><time>2026-04-25T09:20:56.229Z</time></trkpt><trkpt lat="43.47573" lon="11.4223185"><ele>515.4285714285714</ele><time>2026-04-25T09:20:57.242Z</time></trkpt><trkpt lat="43.4758044" lon="11.4223312"><ele>513.8571428571429</ele><time>2026-04-25T09:20:58.25Z</time></trkpt><trkpt lat="43.4758772" lon="11.4223529"><ele>512.2857142857143</ele><time>2026-04-25T09:20:59.238Z</time></trkpt><trkpt lat="43.4759471" lon="11.4223785"><ele>510.7142857142858</ele><time>2026-04-25T09:21:00.243Z</time></trkpt><trkpt lat="43.4760131" lon="11.4224133"><ele>509.14285714285717</ele><time>2026-04-25T09:21:01.241Z</time></trkpt><trkpt lat="43.4760713" lon="11.4224579"><ele>507.57142857142867</ele><time>2026-04-25T09:21:02.253Z</time></trkpt><trkpt lat="43.4761286" lon="11.422501"><ele>506.00000000000006</ele><time>2026-04-25T09:21:03.254Z</time></trkpt><trkpt lat="43.476229" lon="11.4225754"><ele>505.66666666666663</ele><time>2026-04-25T09:21:05.243Z</time></trkpt><trkpt lat="43.4763177" lon="11.4226365"><ele>505.3333333333333</ele><time>2026-04-25T09:21:07.244Z</time></trkpt><trkpt lat="43.4763879" lon="11.422686"><ele>505.0</ele><time>2026-04-25T09:21:09.26Z</time></trkpt><trkpt lat="43.4764682" lon="11.4227382"><ele>504.66666666666663</ele><time>2026-04-25T09:21:12.259Z</time></trkpt><trkpt lat="43.4765278" lon="11.4227757"><ele>504.3333333333333</ele><time>2026-04-25T09:21:14.257Z</time></trkpt><trkpt lat="43.4766071" lon="11.4228211"><ele>504.0</ele><time>2026-04-25T09:21:17.262Z</time></trkpt><trkpt lat="43.4766827" lon="11.4228771"><ele>504.0</ele><time>2026-04-25T09:21:20.267Z</time></trkpt><trkpt lat="43.4767551" lon="11.422937"><ele>504.0</ele><time>2026-04-25T09:21:23.26Z</time></trkpt><trkpt lat="43.4768184" lon="11.4229957"><ele>504.0</ele><time>2026-04-25T09:21:26.257Z</time></trkpt><trkpt lat="43.4768846" lon="11.4230622"><ele>504.0</ele><time>2026-04-25T09:21:29.261Z</time></trkpt><trkpt lat="43.4769366" lon="11.4231205"><ele>504.0</ele><time>2026-04-25T09:21:31.256Z</time></trkpt><trkpt lat="43.4769917" lon="11.4231908"><ele>504.0</ele><time>2026-04-25T09:21:33.263Z</time></trkpt><trkpt lat="43.4770487" lon="11.4232644"><ele>504.79999999999995</ele><time>2026-04-25T09:21:35.258Z</time></trkpt><trkpt lat="43.4771149" lon="11.4233483"><ele>505.59999999999997</ele><time>2026-04-25T09:21:37.278Z</time></trkpt><trkpt lat="43.4771854" lon="11.4234408"><ele>506.4</ele><time>2026-04-25T09:21:39.253Z</time></trkpt><trkpt lat="43.4772528" lon="11.4235476"><ele>507.2</ele><time>2026-04-25T09:21:41.258Z</time></trkpt><trkpt lat="43.4773191" lon="11.423635"><ele>508.0</ele><time>2026-04-25T09:21:43.256Z</time></trkpt><trkpt lat="43.4773707" lon="11.4237083"><ele>508.00000000000006</ele><time>2026-04-25T09:21:45.26Z</time></trkpt><trkpt lat="43.4774141" lon="11.4237773"><ele>508.0</ele><time>2026-04-25T09:21:47.261Z</time></trkpt><trkpt lat="43.4774626" lon="11.4238488"><ele>508.0</ele><time>2026-04-25T09:21:49.251Z</time></trkpt><trkpt lat="43.4775165" lon="11.4239488"><ele>508.0</ele><time>2026-04-25T09:21:52.261Z</time></trkpt><trkpt lat="43.4775703" lon="11.4240343"><ele>508.00000000000006</ele><time>2026-04-25T09:21:55.257Z</time></trkpt><trkpt lat="43.4776227" lon="11.4241038"><ele>508.0</ele><time>2026-04-25T09:21:58.252Z</time></trkpt><trkpt lat="43.4776739" lon="11.4241782"><ele>508.00000000000006</ele><time>2026-04-25T09:22:01.258Z</time></trkpt><trkpt lat="43.4777254" lon="11.4242492"><ele>508.0</ele><time>2026-04-25T09:22:04.245Z</time></trkpt><trkpt lat="43.4777783" lon="11.4243333"><ele>508.0</ele><time>2026-04-25T09:22:07.261Z</time></trkpt><trkpt lat="43.477835" lon="11.4244102"><ele>508.0</ele><time>2026-04-25T09:22:10.262Z</time></trkpt><trkpt lat="43.4778828" lon="11.4245065"><ele>508.00000000000006</ele><time>2026-04-25T09:22:13.258Z</time></trkpt><trkpt lat="43.4779394" lon="11.4245875"><ele>508.0</ele><time>2026-04-25T09:22:16.262Z</time></trkpt><trkpt lat="43.4779909" lon="11.4246518"><ele>509.42857142857144</ele><time>2026-04-25T09:22:19.257Z</time></trkpt><trkpt lat="43.4780643" lon="11.424687"><ele>510.85714285714283</ele><time>2026-04-25T09:22:23.256Z</time></trkpt><trkpt lat="43.4781346" lon="11.4246817"><ele>512.2857142857142</ele><time>2026-04-25T09:22:26.262Z</time></trkpt><trkpt lat="43.4781999" lon="11.4246363"><ele>513.7142857142858</ele><time>2026-04-25T09:22:29.249Z</time></trkpt><trkpt lat="43.4782611" lon="11.4245792"><ele>515.1428571428571</ele><time>2026-04-25T09:22:32.263Z</time></trkpt><trkpt lat="43.4783317" lon="11.424531"><ele>516.5714285714286</ele><time>2026-04-25T09:22:36.267Z</time></trkpt><trkpt lat="43.478395" lon="11.4244921"><ele>518.0</ele><time>2026-04-25T09:22:39.258Z</time></trkpt><trkpt lat="43.4784571" lon="11.424449"><ele>518.5714285714286</ele><time>2026-04-25T09:22:42.256Z</time></trkpt><trkpt lat="43.4785206" lon="11.4244083"><ele>519.1428571428571</ele><time>2026-04-25T09:22:45.271Z</time></trkpt><trkpt lat="43.4785829" lon="11.4243572"><ele>519.7142857142858</ele><time>2026-04-25T09:22:48.279Z</time></trkpt><trkpt lat="43.4786448" lon="11.4243062"><ele>520.2857142857142</ele><time>2026-04-25T09:22:51.258Z</time></trkpt><trkpt lat="43.4787081" lon="11.4242633"><ele>520.8571428571429</ele><time>2026-04-25T09:22:54.258Z</time></trkpt><trkpt lat="43.4787805" lon="11.4242218"><ele>521.4285714285714</ele><time>2026-04-25T09:22:57.269Z</time></trkpt><trkpt lat="43.4788376" lon="11.4241763"><ele>522.0</ele><time>2026-04-25T09:23:00.257Z</time></trkpt><trkpt lat="43.4789004" lon="11.4241247"><ele>522.8571428571429</ele><time>2026-04-25T09:23:04.265Z</time></trkpt><trkpt lat="43.4789609" lon="11.4240507"><ele>523.7142857142857</ele><time>2026-04-25T09:23:08.257Z</time></trkpt><trkpt lat="43.4790124" lon="11.4239718"><ele>524.5714285714286</ele><time>2026-04-25T09:23:11.252Z</time></trkpt><trkpt lat="43.4790623" lon="11.4239156"><ele>525.4285714285714</ele><time>2026-04-25T09:23:14.269Z</time></trkpt><trkpt lat="43.4791151" lon="11.4238262"><ele>526.2857142857143</ele><time>2026-04-25T09:23:18.263Z</time></trkpt><trkpt lat="43.4791765" lon="11.4237564"><ele>527.1428571428571</ele><time>2026-04-25T09:23:22.26Z</time></trkpt><trkpt lat="43.479218" lon="11.4236901"><ele>528.0</ele><time>2026-04-25T09:23:25.262Z</time></trkpt><trkpt lat="43.4792605" lon="11.4236059"><ele>529.0</ele><time>2026-04-25T09:23:28.26Z</time></trkpt><trkpt lat="43.4793057" lon="11.4235211"><ele>530.0</ele><time>2026-04-25T09:23:31.256Z</time></trkpt><trkpt lat="43.4793516" lon="11.4234454"><ele>531.0</ele><time>2026-04-25T09:23:34.254Z</time></trkpt><trkpt lat="43.4793863" lon="11.4233464"><ele>532.0</ele><time>2026-04-25T09:23:37.253Z</time></trkpt><trkpt lat="43.4794398" lon="11.4232354"><ele>533.0</ele><time>2026-04-25T09:23:40.257Z</time></trkpt><trkpt lat="43.4794761" lon="11.4231551"><ele>534.0</ele><time>2026-04-25T09:23:42.252Z</time></trkpt><trkpt lat="43.4795158" lon="11.423078"><ele>534.0000000000001</ele><time>2026-04-25T09:23:44.257Z</time></trkpt><trkpt lat="43.4795613" lon="11.4230093"><ele>534.0</ele><time>2026-04-25T09:23:46.254Z</time></trkpt><trkpt lat="43.4796108" lon="11.4229498"><ele>534.0</ele><time>2026-04-25T09:23:48.253Z</time></trkpt><trkpt lat="43.4796721" lon="11.4228734"><ele>534.0</ele><time>2026-04-25T09:23:51.256Z</time></trkpt><trkpt lat="43.4797491" lon="11.4227967"><ele>534.0</ele><time>2026-04-25T09:23:54.26Z</time></trkpt><trkpt lat="43.4797976" lon="11.4227403"><ele>534.0000000000001</ele><time>2026-04-25T09:23:56.261Z</time></trkpt><trkpt lat="43.4798549" lon="11.4226929"><ele>534.0</ele><time>2026-04-25T09:23:58.259Z</time></trkpt><trkpt lat="43.4798995" lon="11.4226294"><ele>533.8571428571429</ele><time>2026-04-25T09:24:00.26Z</time></trkpt><trkpt lat="43.479948" lon="11.4225685"><ele>533.7142857142858</ele><time>2026-04-25T09:24:02.26Z</time></trkpt><trkpt lat="43.4800187" lon="11.4224809"><ele>533.5714285714286</ele><time>2026-04-25T09:24:05.263Z</time></trkpt><trkpt lat="43.4800664" lon="11.422423"><ele>533.4285714285714</ele><time>2026-04-25T09:24:07.266Z</time></trkpt><trkpt lat="43.4801327" lon="11.4223381"><ele>533.2857142857142</ele><time>2026-04-25T09:24:10.263Z</time></trkpt><trkpt lat="43.4801868" lon="11.4222833"><ele>533.1428571428571</ele><time>2026-04-25T09:24:12.253Z</time></trkpt><trkpt lat="43.4802406" lon="11.4222316"><ele>533.0</ele><time>2026-04-25T09:24:14.256Z</time></trkpt><trkpt lat="43.4802962" lon="11.4221795"><ele>532.8571428571429</ele><time>2026-04-25T09:24:16.261Z</time></trkpt><trkpt lat="43.4803501" lon="11.4221325"><ele>532.7142857142857</ele><time>2026-04-25T09:24:18.259Z</time></trkpt><trkpt lat="43.480409" lon="11.4220988"><ele>532.5714285714286</ele><time>2026-04-25T09:24:20.254Z</time></trkpt><trkpt lat="43.480474" lon="11.4220701"><ele>532.4285714285714</ele><time>2026-04-25T09:24:22.243Z</time></trkpt><trkpt lat="43.4805312" lon="11.4220316"><ele>532.2857142857142</ele><time>2026-04-25T09:24:24.243Z</time></trkpt><trkpt lat="43.4805915" lon="11.4220009"><ele>532.1428571428571</ele><time>2026-04-25T09:24:26.245Z</time></trkpt><trkpt lat="43.480652" lon="11.4219641"><ele>532.0</ele><time>2026-04-25T09:24:28.257Z</time></trkpt><trkpt lat="43.4807063" lon="11.4219102"><ele>533.0</ele><time>2026-04-25T09:24:30.256Z</time></trkpt><trkpt lat="43.4807801" lon="11.4218408"><ele>534.0</ele><time>2026-04-25T09:24:33.248Z</time></trkpt><trkpt lat="43.4808553" lon="11.4217684"><ele>535.0</ele><time>2026-04-25T09:24:36.246Z</time></trkpt><trkpt lat="43.4809283" lon="11.4216944"><ele>536.0</ele><time>2026-04-25T09:24:39.245Z</time></trkpt><trkpt lat="43.4810106" lon="11.4216323"><ele>537.0</ele><time>2026-04-25T09:24:42.242Z</time></trkpt><trkpt lat="43.4810719" lon="11.4215981"><ele>538.0</ele><time>2026-04-25T09:24:44.237Z</time></trkpt><trkpt lat="43.4811288" lon="11.4215569"><ele>538.0</ele><time>2026-04-25T09:24:46.232Z</time></trkpt><trkpt lat="43.4811834" lon="11.4215136"><ele>538.0</ele><time>2026-04-25T09:24:48.234Z</time></trkpt><trkpt lat="43.4812632" lon="11.4214586"><ele>538.0</ele><time>2026-04-25T09:24:51.241Z</time></trkpt><trkpt lat="43.4813229" lon="11.4214144"><ele>538.0</ele><time>2026-04-25T09:24:53.239Z</time></trkpt><trkpt lat="43.4813806" lon="11.4213674"><ele>538.0</ele><time>2026-04-25T09:24:55.244Z</time></trkpt><trkpt lat="43.4814591" lon="11.4213056"><ele>538.0</ele><time>2026-04-25T09:24:58.252Z</time></trkpt><trkpt lat="43.4815137" lon="11.4212601"><ele>538.0</ele><time>2026-04-25T09:25:00.251Z</time></trkpt><trkpt lat="43.4815925" lon="11.4211935"><ele>537.8333333333334</ele><time>2026-04-25T09:25:03.246Z</time></trkpt><trkpt lat="43.4816665" lon="11.4211352"><ele>537.6666666666667</ele><time>2026-04-25T09:25:06.25Z</time></trkpt><trkpt lat="43.4817245" lon="11.4210992"><ele>537.5</ele><time>2026-04-25T09:25:08.254Z</time></trkpt><trkpt lat="43.4818025" lon="11.4210392"><ele>537.3333333333334</ele><time>2026-04-25T09:25:11.261Z</time></trkpt><trkpt lat="43.4818813" lon="11.4209837"><ele>537.1666666666666</ele><time>2026-04-25T09:25:14.26Z</time></trkpt><trkpt lat="43.4819354" lon="11.4209388"><ele>537.0</ele><time>2026-04-25T09:25:16.248Z</time></trkpt><trkpt lat="43.4819905" lon="11.4208924"><ele>537.0</ele><time>2026-04-25T09:25:18.262Z</time></trkpt><trkpt lat="43.4820682" lon="11.4208258"><ele>537.0</ele><time>2026-04-25T09:25:21.254Z</time></trkpt><trkpt lat="43.4821497" lon="11.4207601"><ele>537.0</ele><time>2026-04-25T09:25:24.252Z</time></trkpt><trkpt lat="43.4822303" lon="11.4206932"><ele>537.0</ele><time>2026-04-25T09:25:27.258Z</time></trkpt><trkpt lat="43.4823158" lon="11.4206327"><ele>537.0</ele><time>2026-04-25T09:25:30.274Z</time></trkpt><trkpt lat="43.4823741" lon="11.4205936"><ele>537.0</ele><time>2026-04-25T09:25:32.26Z</time></trkpt><trkpt lat="43.4824309" lon="11.4205532"><ele>536.8571428571428</ele><time>2026-04-25T09:25:34.253Z</time></trkpt><trkpt lat="43.4824898" lon="11.4205127"><ele>536.7142857142857</ele><time>2026-04-25T09:25:36.245Z</time></trkpt><trkpt lat="43.4825705" lon="11.4204579"><ele>536.5714285714286</ele><time>2026-04-25T09:25:39.242Z</time></trkpt><trkpt lat="43.482628" lon="11.4204169"><ele>536.4285714285713</ele><time>2026-04-25T09:25:41.254Z</time></trkpt><trkpt lat="43.4826843" lon="11.4203687"><ele>536.2857142857142</ele><time>2026-04-25T09:25:43.249Z</time></trkpt><trkpt lat="43.4827477" lon="11.4203346"><ele>536.1428571428571</ele><time>2026-04-25T09:25:45.253Z</time></trkpt><trkpt lat="43.4828103" lon="11.4203023"><ele>536.0</ele><time>2026-04-25T09:25:47.246Z</time></trkpt><trkpt lat="43.4828693" lon="11.4202611"><ele>537.2857142857143</ele><time>2026-04-25T09:25:49.249Z</time></trkpt><trkpt lat="43.4829318" lon="11.4202152"><ele>538.5714285714286</ele><time>2026-04-25T09:25:51.248Z</time></trkpt><trkpt lat="43.4829918" lon="11.4201754"><ele>539.8571428571429</ele><time>2026-04-25T09:25:53.251Z</time></trkpt><trkpt lat="43.4830535" lon="11.4201416"><ele>541.1428571428571</ele><time>2026-04-25T09:25:55.249Z</time></trkpt><trkpt lat="43.4831395" lon="11.4200811"><ele>542.4285714285714</ele><time>2026-04-25T09:25:58.248Z</time></trkpt><trkpt lat="43.4831954" lon="11.4200402"><ele>543.7142857142858</ele><time>2026-04-25T09:26:00.236Z</time></trkpt><trkpt lat="43.4832548" lon="11.4199993"><ele>545.0</ele><time>2026-04-25T09:26:02.244Z</time></trkpt><trkpt lat="43.4833155" lon="11.4199575"><ele>545.0</ele><time>2026-04-25T09:26:04.244Z</time></trkpt><trkpt lat="43.4833727" lon="11.4199191"><ele>545.0</ele><time>2026-04-25T09:26:06.242Z</time></trkpt><trkpt lat="43.4834346" lon="11.4198812"><ele>545.0</ele><time>2026-04-25T09:26:08.247Z</time></trkpt><trkpt lat="43.4835193" lon="11.4198239"><ele>545.0</ele><time>2026-04-25T09:26:11.247Z</time></trkpt><trkpt lat="43.4835801" lon="11.4197883"><ele>545.0</ele><time>2026-04-25T09:26:13.25Z</time></trkpt><trkpt lat="43.4836405" lon="11.4197487"><ele>545.0</ele><time>2026-04-25T09:26:15.251Z</time></trkpt><trkpt lat="43.4837014" lon="11.4197107"><ele>545.0</ele><time>2026-04-25T09:26:17.243Z</time></trkpt><trkpt lat="43.4837854" lon="11.4196641"><ele>545.5</ele><time>2026-04-25T09:26:20.252Z</time></trkpt><trkpt lat="43.4838701" lon="11.4196178"><ele>546.0</ele><time>2026-04-25T09:26:23.249Z</time></trkpt><trkpt lat="43.4839297" lon="11.4195857"><ele>546.5</ele><time>2026-04-25T09:26:25.241Z</time></trkpt><trkpt lat="43.4839897" lon="11.419546"><ele>547.0</ele><time>2026-04-25T09:26:27.24Z</time></trkpt><trkpt lat="43.4840705" lon="11.4194932"><ele>547.5</ele><time>2026-04-25T09:26:30.239Z</time></trkpt><trkpt lat="43.4841505" lon="11.4194531"><ele>548.0</ele><time>2026-04-25T09:26:33.244Z</time></trkpt><trkpt lat="43.4842248" lon="11.4194283"><ele>548.0</ele><time>2026-04-25T09:26:36.239Z</time></trkpt><trkpt lat="43.484305" lon="11.419418"><ele>548.0</ele><time>2026-04-25T09:26:40.251Z</time></trkpt><trkpt lat="43.484388" lon="11.4194192"><ele>548.0</ele><time>2026-04-25T09:26:45.235Z</time></trkpt><trkpt lat="43.4844632" lon="11.4194365"><ele>548.0</ele><time>2026-04-25T09:26:49.25Z</time></trkpt><trkpt lat="43.4845273" lon="11.4194504"><ele>548.0</ele><time>2026-04-25T09:26:53.247Z</time></trkpt><trkpt lat="43.4845932" lon="11.4194722"><ele>548.0</ele><time>2026-04-25T09:26:57.244Z</time></trkpt><trkpt lat="43.4846723" lon="11.4195107"><ele>547.6666666666666</ele><time>2026-04-25T09:27:01.249Z</time></trkpt><trkpt lat="43.4847384" lon="11.4195398"><ele>547.3333333333333</ele><time>2026-04-25T09:27:04.248Z</time></trkpt><trkpt lat="43.4848047" lon="11.4195784"><ele>547.0</ele><time>2026-04-25T09:27:07.25Z</time></trkpt><trkpt lat="43.4848781" lon="11.4196179"><ele>546.6666666666666</ele><time>2026-04-25T09:27:10.247Z</time></trkpt><trkpt lat="43.4849631" lon="11.4196608"><ele>546.3333333333334</ele><time>2026-04-25T09:27:13.244Z</time></trkpt><trkpt lat="43.4850465" lon="11.419709"><ele>546.0</ele><time>2026-04-25T09:27:16.249Z</time></trkpt><trkpt lat="43.4851311" lon="11.419751"><ele>546.1666666666666</ele><time>2026-04-25T09:27:19.246Z</time></trkpt><trkpt lat="43.4852148" lon="11.4198014"><ele>546.3333333333334</ele><time>2026-04-25T09:27:22.252Z</time></trkpt><trkpt lat="43.4852728" lon="11.4198402"><ele>546.5</ele><time>2026-04-25T09:27:24.243Z</time></trkpt><trkpt lat="43.4853372" lon="11.4198729"><ele>546.6666666666667</ele><time>2026-04-25T09:27:26.244Z</time></trkpt><trkpt lat="43.4854038" lon="11.4199137"><ele>546.8333333333334</ele><time>2026-04-25T09:27:28.244Z</time></trkpt><trkpt lat="43.4854696" lon="11.4199551"><ele>547.0</ele><time>2026-04-25T09:27:30.242Z</time></trkpt><trkpt lat="43.4855494" lon="11.4199968"><ele>547.0</ele><time>2026-04-25T09:27:33.246Z</time></trkpt><trkpt lat="43.4856278" lon="11.420035"><ele>547.0</ele><time>2026-04-25T09:27:36.25Z</time></trkpt><trkpt lat="43.4857149" lon="11.4200787"><ele>547.0</ele><time>2026-04-25T09:27:39.24Z</time></trkpt><trkpt lat="43.4857765" lon="11.4201144"><ele>547.0</ele><time>2026-04-25T09:27:41.241Z</time></trkpt><trkpt lat="43.4858606" lon="11.4201639"><ele>547.0</ele><time>2026-04-25T09:27:44.242Z</time></trkpt><trkpt lat="43.4859483" lon="11.420213"><ele>547.0</ele><time>2026-04-25T09:27:47.247Z</time></trkpt><trkpt lat="43.4860103" lon="11.4202514"><ele>547.0</ele><time>2026-04-25T09:27:49.243Z</time></trkpt><trkpt lat="43.4860703" lon="11.4202945"><ele>547.0</ele><time>2026-04-25T09:27:51.245Z</time></trkpt><trkpt lat="43.4861305" lon="11.4203373"><ele>547.0</ele><time>2026-04-25T09:27:53.239Z</time></trkpt><trkpt lat="43.4861966" lon="11.4203801"><ele>547.0</ele><time>2026-04-25T09:27:55.241Z</time></trkpt><trkpt lat="43.4862642" lon="11.4204348"><ele>547.0</ele><time>2026-04-25T09:27:57.25Z</time></trkpt><trkpt lat="43.4863285" lon="11.4204894"><ele>547.0</ele><time>2026-04-25T09:27:59.242Z</time></trkpt><trkpt lat="43.4864008" lon="11.4205614"><ele>546.1666666666667</ele><time>2026-04-25T09:28:01.25Z</time></trkpt><trkpt lat="43.4864721" lon="11.4206406"><ele>545.3333333333334</ele><time>2026-04-25T09:28:03.25Z</time></trkpt><trkpt lat="43.4865327" lon="11.4207166"><ele>544.5</ele><time>2026-04-25T09:28:05.253Z</time></trkpt><trkpt lat="43.4865917" lon="11.4207946"><ele>543.6666666666666</ele><time>2026-04-25T09:28:07.252Z</time></trkpt><trkpt lat="43.4866268" lon="11.4208694"><ele>542.8333333333333</ele><time>2026-04-25T09:28:09.242Z</time></trkpt><trkpt lat="43.4866623" lon="11.4209487"><ele>542.0</ele><time>2026-04-25T09:28:11.247Z</time></trkpt><trkpt lat="43.4866862" lon="11.4210304"><ele>542.0</ele><time>2026-04-25T09:28:13.246Z</time></trkpt><trkpt lat="43.4867305" lon="11.4211313"><ele>542.0</ele><time>2026-04-25T09:28:16.245Z</time></trkpt><trkpt lat="43.4867667" lon="11.4212068"><ele>542.0</ele><time>2026-04-25T09:28:18.253Z</time></trkpt><trkpt lat="43.4868086" lon="11.4212755"><ele>542.0</ele><time>2026-04-25T09:28:20.251Z</time></trkpt><trkpt lat="43.4868486" lon="11.421346"><ele>542.0</ele><time>2026-04-25T09:28:22.251Z</time></trkpt><trkpt lat="43.4868861" lon="11.4214217"><ele>542.0</ele><time>2026-04-25T09:28:24.252Z</time></trkpt><trkpt lat="43.4869304" lon="11.421533"><ele>542.0</ele><time>2026-04-25T09:28:27.249Z</time></trkpt><trkpt lat="43.4869821" lon="11.4216398"><ele>542.1666666666666</ele><time>2026-04-25T09:28:30.243Z</time></trkpt><trkpt lat="43.487023" lon="11.4217104"><ele>542.3333333333333</ele><time>2026-04-25T09:28:32.236Z</time></trkpt><trkpt lat="43.4870869" lon="11.4218035"><ele>542.5</ele><time>2026-04-25T09:28:35.243Z</time></trkpt><trkpt lat="43.4871299" lon="11.4218721"><ele>542.6666666666666</ele><time>2026-04-25T09:28:37.24Z</time></trkpt><trkpt lat="43.4871925" lon="11.4219618"><ele>542.8333333333334</ele><time>2026-04-25T09:28:40.233Z</time></trkpt><trkpt lat="43.4872585" lon="11.4220409"><ele>543.0</ele><time>2026-04-25T09:28:43.218Z</time></trkpt><trkpt lat="43.4873082" lon="11.422095"><ele>544.5714285714286</ele><time>2026-04-25T09:28:45.219Z</time></trkpt><trkpt lat="43.4873578" lon="11.4221487"><ele>546.1428571428571</ele><time>2026-04-25T09:28:47.225Z</time></trkpt><trkpt lat="43.4874168" lon="11.4221959"><ele>547.7142857142857</ele><time>2026-04-25T09:28:49.229Z</time></trkpt><trkpt lat="43.4874901" lon="11.4222609"><ele>549.2857142857142</ele><time>2026-04-25T09:28:52.231Z</time></trkpt><trkpt lat="43.4875517" lon="11.4223277"><ele>550.8571428571428</ele><time>2026-04-25T09:28:55.224Z</time></trkpt><trkpt lat="43.4876183" lon="11.422394"><ele>552.4285714285714</ele><time>2026-04-25T09:28:58.231Z</time></trkpt><trkpt lat="43.4876762" lon="11.4224407"><ele>554.0</ele><time>2026-04-25T09:29:00.229Z</time></trkpt><trkpt lat="43.4877559" lon="11.422495"><ele>554.0</ele><time>2026-04-25T09:29:03.242Z</time></trkpt><trkpt lat="43.4878279" lon="11.4225546"><ele>554.0</ele><time>2026-04-25T09:29:06.229Z</time></trkpt><trkpt lat="43.4878846" lon="11.4226186"><ele>554.0</ele><time>2026-04-25T09:29:09.221Z</time></trkpt><trkpt lat="43.4879671" lon="11.4226754"><ele>554.0</ele><time>2026-04-25T09:29:12.224Z</time></trkpt><trkpt lat="43.4880306" lon="11.4227266"><ele>554.0</ele><time>2026-04-25T09:29:14.223Z</time></trkpt><trkpt lat="43.4881007" lon="11.4227716"><ele>554.0</ele><time>2026-04-25T09:29:16.227Z</time></trkpt><trkpt lat="43.4881672" lon="11.422775"><ele>554.6666666666666</ele><time>2026-04-25T09:29:18.225Z</time></trkpt><trkpt lat="43.4882252" lon="11.4227369"><ele>555.3333333333333</ele><time>2026-04-25T09:29:20.223Z</time></trkpt><trkpt lat="43.4882762" lon="11.4226444"><ele>556.0</ele><time>2026-04-25T09:29:23.24Z</time></trkpt><trkpt lat="43.4882917" lon="11.4225185"><ele>556.6666666666666</ele><time>2026-04-25T09:29:26.226Z</time></trkpt><trkpt lat="43.4883079" lon="11.422413"><ele>557.3333333333334</ele><time>2026-04-25T09:29:29.227Z</time></trkpt><trkpt lat="43.4883181" lon="11.4223194"><ele>558.0</ele><time>2026-04-25T09:29:32.227Z</time></trkpt><trkpt lat="43.4883554" lon="11.4222147"><ele>557.0</ele><time>2026-04-25T09:29:35.231Z</time></trkpt><trkpt lat="43.4884056" lon="11.4221194"><ele>556.0</ele><time>2026-04-25T09:29:38.242Z</time></trkpt><trkpt lat="43.4884698" lon="11.4220458"><ele>555.0</ele><time>2026-04-25T09:29:41.23Z</time></trkpt><trkpt lat="43.4885432" lon="11.4219988"><ele>554.0</ele><time>2026-04-25T09:29:44.231Z</time></trkpt><trkpt lat="43.4886223" lon="11.4219629"><ele>553.0</ele><time>2026-04-25T09:29:47.23Z</time></trkpt><trkpt lat="43.4887026" lon="11.421928"><ele>552.0</ele><time>2026-04-25T09:29:50.229Z</time></trkpt><trkpt lat="43.4887817" lon="11.4219075"><ele>552.0</ele><time>2026-04-25T09:29:53.232Z</time></trkpt><trkpt lat="43.4888447" lon="11.4218971"><ele>552.0</ele><time>2026-04-25T09:29:56.233Z</time></trkpt><trkpt lat="43.4889229" lon="11.4218747"><ele>552.0</ele><time>2026-04-25T09:30:00.224Z</time></trkpt><trkpt lat="43.4890066" lon="11.4218737"><ele>552.0</ele><time>2026-04-25T09:30:03.231Z</time></trkpt><trkpt lat="43.4890756" lon="11.4218772"><ele>552.0</ele><time>2026-04-25T09:30:05.229Z</time></trkpt><trkpt lat="43.4891501" lon="11.4218761"><ele>552.0</ele><time>2026-04-25T09:30:07.229Z</time></trkpt><trkpt lat="43.4892214" lon="11.4218727"><ele>552.0</ele><time>2026-04-25T09:30:09.233Z</time></trkpt><trkpt lat="43.4892952" lon="11.4218574"><ele>552.0</ele><time>2026-04-25T09:30:11.225Z</time></trkpt><trkpt lat="43.4893658" lon="11.4218233"><ele>552.0</ele><time>2026-04-25T09:30:13.223Z</time></trkpt><trkpt lat="43.4894212" lon="11.4217815"><ele>552.0</ele><time>2026-04-25T09:30:15.234Z</time></trkpt><trkpt lat="43.4894821" lon="11.4217368"><ele>552.0</ele><time>2026-04-25T09:30:17.23Z</time></trkpt><trkpt lat="43.4895496" lon="11.4216976"><ele>552.0</ele><time>2026-04-25T09:30:19.226Z</time></trkpt><trkpt lat="43.4896087" lon="11.4216542"><ele>552.0</ele><time>2026-04-25T09:30:21.229Z</time></trkpt><trkpt lat="43.4896983" lon="11.4216039"><ele>552.0</ele><time>2026-04-25T09:30:24.244Z</time></trkpt><trkpt lat="43.4897781" lon="11.4215569"><ele>554.2857142857143</ele><time>2026-04-25T09:30:27.235Z</time></trkpt><trkpt lat="43.489838" lon="11.4215283"><ele>556.5714285714287</ele><time>2026-04-25T09:30:29.227Z</time></trkpt><trkpt lat="43.4899037" lon="11.4215081"><ele>558.8571428571429</ele><time>2026-04-25T09:30:31.234Z</time></trkpt><trkpt lat="43.4899658" lon="11.4214868"><ele>561.1428571428571</ele><time>2026-04-25T09:30:33.233Z</time></trkpt><trkpt lat="43.4900501" lon="11.4214621"><ele>563.4285714285713</ele><time>2026-04-25T09:30:36.232Z</time></trkpt><trkpt lat="43.4901355" lon="11.4214382"><ele>565.7142857142857</ele><time>2026-04-25T09:30:39.225Z</time></trkpt><trkpt lat="43.4902074" lon="11.4214005"><ele>568.0</ele><time>2026-04-25T09:30:42.23Z</time></trkpt><trkpt lat="43.4903023" lon="11.4213845"><ele>568.0</ele><time>2026-04-25T09:30:45.23Z</time></trkpt><trkpt lat="43.4903875" lon="11.4213547"><ele>568.0</ele><time>2026-04-25T09:30:48.223Z</time></trkpt><trkpt lat="43.4904544" lon="11.4213426"><ele>568.0</ele><time>2026-04-25T09:30:50.223Z</time></trkpt><trkpt lat="43.4905413" lon="11.4213138"><ele>568.0</ele><time>2026-04-25T09:30:53.225Z</time></trkpt><trkpt lat="43.4906266" lon="11.421283"><ele>568.0</ele><time>2026-04-25T09:30:56.217Z</time></trkpt><trkpt lat="43.4906905" lon="11.4212606"><ele>568.0</ele><time>2026-04-25T09:30:58.222Z</time></trkpt><trkpt lat="43.4907799" lon="11.4212354"><ele>566.6666666666667</ele><time>2026-04-25T09:31:01.227Z</time></trkpt><trkpt lat="43.4908702" lon="11.4212195"><ele>565.3333333333334</ele><time>2026-04-25T09:31:04.228Z</time></trkpt><trkpt lat="43.4909446" lon="11.4211983"><ele>564.0</ele><time>2026-04-25T09:31:07.226Z</time></trkpt><trkpt lat="43.49102" lon="11.4211794"><ele>562.6666666666666</ele><time>2026-04-25T09:31:10.228Z</time></trkpt><trkpt lat="43.4911038" lon="11.4211721"><ele>561.3333333333333</ele><time>2026-04-25T09:31:13.233Z</time></trkpt><trkpt lat="43.4911899" lon="11.4211697"><ele>560.0</ele><time>2026-04-25T09:31:16.231Z</time></trkpt><trkpt lat="43.4912643" lon="11.4212127"><ele>562.6666666666666</ele><time>2026-04-25T09:31:19.226Z</time></trkpt><trkpt lat="43.4912381" lon="11.4213219"><ele>565.3333333333333</ele><time>2026-04-25T09:31:22.235Z</time></trkpt><trkpt lat="43.4911652" lon="11.4213517"><ele>568.0</ele><time>2026-04-25T09:31:24.229Z</time></trkpt><trkpt lat="43.4910945" lon="11.4213603"><ele>570.6666666666666</ele><time>2026-04-25T09:31:26.231Z</time></trkpt><trkpt lat="43.4910154" lon="11.4213881"><ele>573.3333333333334</ele><time>2026-04-25T09:31:29.241Z</time></trkpt><trkpt lat="43.4909457" lon="11.4214146"><ele>576.0</ele><time>2026-04-25T09:31:32.232Z</time></trkpt><trkpt lat="43.4908658" lon="11.4214428"><ele>576.0000000000001</ele><time>2026-04-25T09:31:35.24Z</time></trkpt><trkpt lat="43.4907844" lon="11.4214542"><ele>576.0</ele><time>2026-04-25T09:31:38.234Z</time></trkpt><trkpt lat="43.49071" lon="11.4214784"><ele>576.0</ele><time>2026-04-25T09:31:41.236Z</time></trkpt><trkpt lat="43.4906471" lon="11.4215261"><ele>576.0</ele><time>2026-04-25T09:31:44.23Z</time></trkpt><trkpt lat="43.4905998" lon="11.4215864"><ele>576.0</ele><time>2026-04-25T09:31:47.236Z</time></trkpt><trkpt lat="43.4905753" lon="11.4216909"><ele>576.0000000000001</ele><time>2026-04-25T09:31:51.236Z</time></trkpt><trkpt lat="43.4906086" lon="11.4217779"><ele>576.0</ele><time>2026-04-25T09:31:54.233Z</time></trkpt><trkpt lat="43.49068" lon="11.4218267"><ele>576.0</ele><time>2026-04-25T09:31:57.229Z</time></trkpt><trkpt lat="43.4907686" lon="11.4218395"><ele>576.0</ele><time>2026-04-25T09:32:00.227Z</time></trkpt><trkpt lat="43.4908359" lon="11.421795"><ele>576.0</ele><time>2026-04-25T09:32:03.225Z</time></trkpt><trkpt lat="43.4909013" lon="11.4217226"><ele>576.0</ele><time>2026-04-25T09:32:06.223Z</time></trkpt><trkpt lat="43.4909785" lon="11.4216939"><ele>576.0</ele><time>2026-04-25T09:32:09.224Z</time></trkpt><trkpt lat="43.4910595" lon="11.4216967"><ele>576.0</ele><time>2026-04-25T09:32:12.231Z</time></trkpt><trkpt lat="43.4911393" lon="11.4217305"><ele>576.0</ele><time>2026-04-25T09:32:15.24Z</time></trkpt><trkpt lat="43.4912034" lon="11.4217688"><ele>576.0</ele><time>2026-04-25T09:32:18.234Z</time></trkpt><trkpt lat="43.4912718" lon="11.4218355"><ele>576.0</ele><time>2026-04-25T09:32:21.226Z</time></trkpt><trkpt lat="43.4913443" lon="11.4219046"><ele>576.0</ele><time>2026-04-25T09:32:24.233Z</time></trkpt><trkpt lat="43.4913897" lon="11.4219832"><ele>576.0</ele><time>2026-04-25T09:32:27.236Z</time></trkpt><trkpt lat="43.4914395" lon="11.4220711"><ele>576.0</ele><time>2026-04-25T09:32:30.228Z</time></trkpt><trkpt lat="43.4914999" lon="11.4221575"><ele>578.1666666666666</ele><time>2026-04-25T09:32:33.233Z</time></trkpt><trkpt lat="43.4915397" lon="11.422231"><ele>580.3333333333334</ele><time>2026-04-25T09:32:35.235Z</time></trkpt><trkpt lat="43.4915836" lon="11.4223278"><ele>582.5</ele><time>2026-04-25T09:32:38.236Z</time></trkpt><trkpt lat="43.4916255" lon="11.4224184"><ele>584.6666666666667</ele><time>2026-04-25T09:32:41.231Z</time></trkpt><trkpt lat="43.4916751" lon="11.422504"><ele>586.8333333333334</ele><time>2026-04-25T09:32:44.232Z</time></trkpt><trkpt lat="43.4917244" lon="11.4225892"><ele>589.0</ele><time>2026-04-25T09:32:47.229Z</time></trkpt><trkpt lat="43.4917702" lon="11.422668"><ele>589.0</ele><time>2026-04-25T09:32:50.229Z</time></trkpt><trkpt lat="43.4918046" lon="11.4227634"><ele>589.0</ele><time>2026-04-25T09:32:53.231Z</time></trkpt><trkpt lat="43.4918597" lon="11.4228645"><ele>589.0</ele><time>2026-04-25T09:32:56.244Z</time></trkpt><trkpt lat="43.4919005" lon="11.4229442"><ele>589.0</ele><time>2026-04-25T09:32:59.234Z</time></trkpt><trkpt lat="43.4919376" lon="11.4230401"><ele>589.0</ele><time>2026-04-25T09:33:02.24Z</time></trkpt><trkpt lat="43.4919843" lon="11.4231058"><ele>589.0</ele><time>2026-04-25T09:33:05.233Z</time></trkpt><trkpt lat="43.4920398" lon="11.4231504"><ele>589.0</ele><time>2026-04-25T09:33:08.227Z</time></trkpt><trkpt lat="43.4921167" lon="11.42321"><ele>589.0</ele><time>2026-04-25T09:33:11.235Z</time></trkpt><trkpt lat="43.4921778" lon="11.4232542"><ele>589.0</ele><time>2026-04-25T09:33:14.237Z</time></trkpt><trkpt lat="43.4922491" lon="11.4233238"><ele>589.0</ele><time>2026-04-25T09:33:17.232Z</time></trkpt><trkpt lat="43.4923168" lon="11.4233869"><ele>589.0</ele><time>2026-04-25T09:33:20.227Z</time></trkpt><trkpt lat="43.4924015" lon="11.4234227"><ele>589.0</ele><time>2026-04-25T09:33:23.227Z</time></trkpt><trkpt lat="43.4924725" lon="11.4234746"><ele>589.0</ele><time>2026-04-25T09:33:26.23Z</time></trkpt><trkpt lat="43.4925364" lon="11.4235243"><ele>589.0</ele><time>2026-04-25T09:33:29.23Z</time></trkpt><trkpt lat="43.4926006" lon="11.4236068"><ele>589.0</ele><time>2026-04-25T09:33:32.225Z</time></trkpt><trkpt lat="43.4926485" lon="11.4236674"><ele>589.0</ele><time>2026-04-25T09:33:34.226Z</time></trkpt><trkpt lat="43.4926982" lon="11.4237275"><ele>589.0</ele><time>2026-04-25T09:33:36.223Z</time></trkpt><trkpt lat="43.4927458" lon="11.4237845"><ele>589.0</ele><time>2026-04-25T09:33:38.223Z</time></trkpt><trkpt lat="43.4928048" lon="11.4238847"><ele>589.0</ele><time>2026-04-25T09:33:41.228Z</time></trkpt><trkpt lat="43.4928653" lon="11.4239809"><ele>591.0</ele><time>2026-04-25T09:33:44.227Z</time></trkpt><trkpt lat="43.4929147" lon="11.4240686"><ele>593.0</ele><time>2026-04-25T09:33:47.233Z</time></trkpt><trkpt lat="43.4929674" lon="11.4241659"><ele>595.0</ele><time>2026-04-25T09:33:50.222Z</time></trkpt><trkpt lat="43.4930014" lon="11.4242806"><ele>597.0</ele><time>2026-04-25T09:33:53.227Z</time></trkpt><trkpt lat="43.4930187" lon="11.4243825"><ele>599.0</ele><time>2026-04-25T09:33:56.23Z</time></trkpt><trkpt lat="43.4930419" lon="11.4244965"><ele>601.0</ele><time>2026-04-25T09:33:59.23Z</time></trkpt><trkpt lat="43.4930737" lon="11.4245959"><ele>601.3333333333334</ele><time>2026-04-25T09:34:02.237Z</time></trkpt><trkpt lat="43.4931156" lon="11.4246939"><ele>601.6666666666667</ele><time>2026-04-25T09:34:05.234Z</time></trkpt><trkpt lat="43.4931429" lon="11.4248075"><ele>602.0</ele><time>2026-04-25T09:34:08.236Z</time></trkpt><trkpt lat="43.4931527" lon="11.4249198"><ele>602.3333333333334</ele><time>2026-04-25T09:34:11.237Z</time></trkpt><trkpt lat="43.4931685" lon="11.4250429"><ele>602.6666666666666</ele><time>2026-04-25T09:34:14.235Z</time></trkpt><trkpt lat="43.4931737" lon="11.4251638"><ele>603.0</ele><time>2026-04-25T09:34:17.244Z</time></trkpt><trkpt lat="43.4931653" lon="11.4252901"><ele>603.0</ele><time>2026-04-25T09:34:20.235Z</time></trkpt><trkpt lat="43.493141" lon="11.4254047"><ele>603.0</ele><time>2026-04-25T09:34:23.232Z</time></trkpt><trkpt lat="43.4931209" lon="11.4255068"><ele>603.0</ele><time>2026-04-25T09:34:26.232Z</time></trkpt><trkpt lat="43.4931016" lon="11.4256254"><ele>603.0</ele><time>2026-04-25T09:34:29.231Z</time></trkpt><trkpt lat="43.4930849" lon="11.425729"><ele>603.0</ele><time>2026-04-25T09:34:32.229Z</time></trkpt><trkpt lat="43.4930547" lon="11.4258429"><ele>603.0</ele><time>2026-04-25T09:34:35.227Z</time></trkpt><trkpt lat="43.4930453" lon="11.4259676"><ele>602.8333333333334</ele><time>2026-04-25T09:34:38.227Z</time></trkpt><trkpt lat="43.4930952" lon="11.4260771"><ele>602.6666666666666</ele><time>2026-04-25T09:34:41.221Z</time></trkpt><trkpt lat="43.4931622" lon="11.4261275"><ele>602.5</ele><time>2026-04-25T09:34:43.222Z</time></trkpt><trkpt lat="43.4932244" lon="11.4261632"><ele>602.3333333333333</ele><time>2026-04-25T09:34:45.229Z</time></trkpt><trkpt lat="43.4932991" lon="11.4262127"><ele>602.1666666666666</ele><time>2026-04-25T09:34:47.241Z</time></trkpt><trkpt lat="43.4933707" lon="11.4262926"><ele>602.0</ele><time>2026-04-25T09:34:49.23Z</time></trkpt><trkpt lat="43.493451" lon="11.4263893"><ele>603.6666666666666</ele><time>2026-04-25T09:34:51.233Z</time></trkpt><trkpt lat="43.4935141" lon="11.4265005"><ele>605.3333333333333</ele><time>2026-04-25T09:34:53.215Z</time></trkpt><trkpt lat="43.4935383" lon="11.4266095"><ele>607.0</ele><time>2026-04-25T09:34:55.231Z</time></trkpt><trkpt lat="43.4935408" lon="11.4267113"><ele>608.6666666666666</ele><time>2026-04-25T09:34:57.236Z</time></trkpt><trkpt lat="43.4935287" lon="11.426812"><ele>610.3333333333334</ele><time>2026-04-25T09:34:59.231Z</time></trkpt><trkpt lat="43.4935162" lon="11.4269058"><ele>612.0</ele><time>2026-04-25T09:35:01.231Z</time></trkpt><trkpt lat="43.493516" lon="11.4269964"><ele>612.0</ele><time>2026-04-25T09:35:03.228Z</time></trkpt><trkpt lat="43.4935215" lon="11.4270857"><ele>612.0</ele><time>2026-04-25T09:35:05.23Z</time></trkpt><trkpt lat="43.4935631" lon="11.4271899"><ele>612.0</ele><time>2026-04-25T09:35:08.226Z</time></trkpt><trkpt lat="43.4936437" lon="11.4272367"><ele>612.0</ele><time>2026-04-25T09:35:11.223Z</time></trkpt><trkpt lat="43.4937345" lon="11.4272837"><ele>612.0</ele><time>2026-04-25T09:35:14.226Z</time></trkpt><trkpt lat="43.4937959" lon="11.427339"><ele>612.0</ele><time>2026-04-25T09:35:16.232Z</time></trkpt><trkpt lat="43.493839" lon="11.4274123"><ele>614.1428571428571</ele><time>2026-04-25T09:35:18.24Z</time></trkpt><trkpt lat="43.4938501" lon="11.4275027"><ele>616.2857142857143</ele><time>2026-04-25T09:35:20.232Z</time></trkpt><trkpt lat="43.4938539" lon="11.4275934"><ele>618.4285714285714</ele><time>2026-04-25T09:35:22.227Z</time></trkpt><trkpt lat="43.4938421" lon="11.4276863"><ele>620.5714285714286</ele><time>2026-04-25T09:35:24.226Z</time></trkpt><trkpt lat="43.4938222" lon="11.4277793"><ele>622.7142857142857</ele><time>2026-04-25T09:35:26.215Z</time></trkpt><trkpt lat="43.4937969" lon="11.4278731"><ele>624.8571428571429</ele><time>2026-04-25T09:35:28.227Z</time></trkpt><trkpt lat="43.4937385" lon="11.4279778"><ele>627.0</ele><time>2026-04-25T09:35:31.217Z</time></trkpt><trkpt lat="43.4936922" lon="11.4280518"><ele>627.0</ele><time>2026-04-25T09:35:33.218Z</time></trkpt><trkpt lat="43.4936364" lon="11.4281189"><ele>627.0</ele><time>2026-04-25T09:35:35.218Z</time></trkpt><trkpt lat="43.4935761" lon="11.4281791"><ele>627.0</ele><time>2026-04-25T09:35:37.225Z</time></trkpt><trkpt lat="43.4935085" lon="11.4282607"><ele>627.0</ele><time>2026-04-25T09:35:40.22Z</time></trkpt><trkpt lat="43.4934694" lon="11.4283554"><ele>627.0</ele><time>2026-04-25T09:35:43.22Z</time></trkpt><trkpt lat="43.4934628" lon="11.4284686"><ele>627.0</ele><time>2026-04-25T09:35:46.225Z</time></trkpt><trkpt lat="43.4934663" lon="11.4285566"><ele>627.0</ele><time>2026-04-25T09:35:48.226Z</time></trkpt><trkpt lat="43.4934586" lon="11.4286517"><ele>627.0</ele><time>2026-04-25T09:35:50.228Z</time></trkpt><trkpt lat="43.4934242" lon="11.4287435"><ele>627.0</ele><time>2026-04-25T09:35:52.222Z</time></trkpt><trkpt lat="43.4933608" lon="11.4288288"><ele>627.0</ele><time>2026-04-25T09:35:55.218Z</time></trkpt><trkpt lat="43.493286" lon="11.4288877"><ele>627.0</ele><time>2026-04-25T09:35:58.218Z</time></trkpt><trkpt lat="43.4932294" lon="11.428969"><ele>627.0</ele><time>2026-04-25T09:36:01.212Z</time></trkpt><trkpt lat="43.4931949" lon="11.4290711"><ele>626.5714285714286</ele><time>2026-04-25T09:36:04.215Z</time></trkpt><trkpt lat="43.4931862" lon="11.4291596"><ele>626.1428571428571</ele><time>2026-04-25T09:36:06.214Z</time></trkpt><trkpt lat="43.4931987" lon="11.429247"><ele>625.7142857142858</ele><time>2026-04-25T09:36:08.211Z</time></trkpt><trkpt lat="43.4932636" lon="11.4293337"><ele>625.2857142857142</ele><time>2026-04-25T09:36:11.212Z</time></trkpt><trkpt lat="43.4933305" lon="11.4293837"><ele>624.8571428571428</ele><time>2026-04-25T09:36:14.22Z</time></trkpt><trkpt lat="43.4934118" lon="11.4293908"><ele>624.4285714285714</ele><time>2026-04-25T09:36:17.217Z</time></trkpt><trkpt lat="43.4934833" lon="11.4293869"><ele>624.0</ele><time>2026-04-25T09:36:20.218Z</time></trkpt><trkpt lat="43.4935548" lon="11.4294581"><ele>624.0</ele><time>2026-04-25T09:36:23.215Z</time></trkpt><trkpt lat="43.4936081" lon="11.4295499"><ele>624.0</ele><time>2026-04-25T09:36:26.201Z</time></trkpt><trkpt lat="43.4936535" lon="11.4296264"><ele>624.0</ele><time>2026-04-25T09:36:28.215Z</time></trkpt><trkpt lat="43.4936977" lon="11.4297337"><ele>624.0</ele><time>2026-04-25T09:36:31.215Z</time></trkpt><trkpt lat="43.4937335" lon="11.4298084"><ele>624.0</ele><time>2026-04-25T09:36:33.217Z</time></trkpt><trkpt lat="43.493788" lon="11.4298965"><ele>624.0</ele><time>2026-04-25T09:36:36.207Z</time></trkpt><trkpt lat="43.4938556" lon="11.4299102"><ele>625.2</ele><time>2026-04-25T09:36:39.208Z</time></trkpt><trkpt lat="43.493932" lon="11.4298632"><ele>626.4</ele><time>2026-04-25T09:36:42.211Z</time></trkpt><trkpt lat="43.4940048" lon="11.4297973"><ele>627.6</ele><time>2026-04-25T09:36:45.224Z</time></trkpt><trkpt lat="43.4940802" lon="11.4297481"><ele>628.8</ele><time>2026-04-25T09:36:48.221Z</time></trkpt><trkpt lat="43.4941583" lon="11.4297011"><ele>630.0</ele><time>2026-04-25T09:36:51.213Z</time></trkpt><trkpt lat="43.4942337" lon="11.4299832"><ele>630.0</ele><time>2026-04-25T09:36:56.19Z</time></trkpt><trkpt lat="43.4942321" lon="11.4301852"><ele>630.0</ele><time>2026-04-25T09:36:57.192Z</time></trkpt><trkpt lat="43.4942474" lon="11.430061"><ele>630.0</ele><time>2026-04-25T09:36:58.195Z</time></trkpt><trkpt lat="43.49439" lon="11.4300879"><ele>630.0</ele><time>2026-04-25T09:37:00.197Z</time></trkpt><trkpt lat="43.4944691" lon="11.430112"><ele>630.0</ele><time>2026-04-25T09:37:01.216Z</time></trkpt><trkpt lat="43.4945326" lon="11.4300794"><ele>630.0</ele><time>2026-04-25T09:37:04.233Z</time></trkpt><trkpt lat="43.494578" lon="11.4301435"><ele>630.0</ele><time>2026-04-25T09:37:09.224Z</time></trkpt><trkpt lat="43.4946241" lon="11.4302119"><ele>630.0</ele><time>2026-04-25T09:37:12.23Z</time></trkpt><trkpt lat="43.4946574" lon="11.4303065"><ele>630.0</ele><time>2026-04-25T09:37:15.231Z</time></trkpt><trkpt lat="43.494681" lon="11.430417"><ele>630.0</ele><time>2026-04-25T09:37:18.231Z</time></trkpt><trkpt lat="43.4946945" lon="11.4305375"><ele>630.0</ele><time>2026-04-25T09:37:21.228Z</time></trkpt><trkpt lat="43.4947094" lon="11.4306663"><ele>628.8333333333334</ele><time>2026-04-25T09:37:24.228Z</time></trkpt><trkpt lat="43.4947403" lon="11.430749"><ele>627.6666666666666</ele><time>2026-04-25T09:37:26.224Z</time></trkpt><trkpt lat="43.4947782" lon="11.4308203"><ele>626.5</ele><time>2026-04-25T09:37:28.223Z</time></trkpt><trkpt lat="43.4947974" lon="11.4309354"><ele>625.3333333333333</ele><time>2026-04-25T09:37:31.226Z</time></trkpt><trkpt lat="43.4948142" lon="11.4310525"><ele>624.1666666666666</ele><time>2026-04-25T09:37:34.231Z</time></trkpt><trkpt lat="43.494852" lon="11.4311396"><ele>623.0</ele><time>2026-04-25T09:37:37.217Z</time></trkpt><trkpt lat="43.4948876" lon="11.4312603"><ele>624.8333333333333</ele><time>2026-04-25T09:37:40.223Z</time></trkpt><trkpt lat="43.4949045" lon="11.4313868"><ele>626.6666666666666</ele><time>2026-04-25T09:37:43.221Z</time></trkpt><trkpt lat="43.4949248" lon="11.4315093"><ele>628.5</ele><time>2026-04-25T09:37:46.22Z</time></trkpt><trkpt lat="43.4949456" lon="11.4315914"><ele>630.3333333333334</ele><time>2026-04-25T09:37:48.223Z</time></trkpt><trkpt lat="43.4949671" lon="11.4316739"><ele>632.1666666666667</ele><time>2026-04-25T09:37:50.221Z</time></trkpt><trkpt lat="43.495016" lon="11.4317694"><ele>634.0</ele><time>2026-04-25T09:37:53.222Z</time></trkpt><trkpt lat="43.495055" lon="11.4318653"><ele>634.0</ele><time>2026-04-25T09:37:56.216Z</time></trkpt><trkpt lat="43.4950932" lon="11.4319476"><ele>634.0</ele><time>2026-04-25T09:37:59.228Z</time></trkpt><trkpt lat="43.4951214" lon="11.4320668"><ele>634.0</ele><time>2026-04-25T09:38:02.217Z</time></trkpt><trkpt lat="43.4951289" lon="11.4321583"><ele>634.0</ele><time>2026-04-25T09:38:04.225Z</time></trkpt><trkpt lat="43.4951273" lon="11.4322552"><ele>634.0</ele><time>2026-04-25T09:38:06.22Z</time></trkpt><trkpt lat="43.4951091" lon="11.4323729"><ele>634.0</ele><time>2026-04-25T09:38:09.221Z</time></trkpt><trkpt lat="43.4951005" lon="11.4324817"><ele>634.5714285714286</ele><time>2026-04-25T09:38:12.216Z</time></trkpt><trkpt lat="43.4950662" lon="11.432602"><ele>635.1428571428571</ele><time>2026-04-25T09:38:15.222Z</time></trkpt><trkpt lat="43.4950301" lon="11.4326879"><ele>635.7142857142858</ele><time>2026-04-25T09:38:17.221Z</time></trkpt><trkpt lat="43.494992" lon="11.4327619"><ele>636.2857142857142</ele><time>2026-04-25T09:38:19.226Z</time></trkpt><trkpt lat="43.4949626" lon="11.4328424"><ele>636.8571428571428</ele><time>2026-04-25T09:38:21.221Z</time></trkpt><trkpt lat="43.4949268" lon="11.432928"><ele>637.4285714285714</ele><time>2026-04-25T09:38:23.221Z</time></trkpt><trkpt lat="43.4948829" lon="11.4330142"><ele>638.0</ele><time>2026-04-25T09:38:25.222Z</time></trkpt><trkpt lat="43.4948479" lon="11.4330914"><ele>638.0</ele><time>2026-04-25T09:38:27.221Z</time></trkpt><trkpt lat="43.4947807" lon="11.4331836"><ele>638.0</ele><time>2026-04-25T09:38:30.231Z</time></trkpt><trkpt lat="43.4947136" lon="11.4332796"><ele>638.0</ele><time>2026-04-25T09:38:33.223Z</time></trkpt><trkpt lat="43.4946608" lon="11.433346"><ele>638.0</ele><time>2026-04-25T09:38:35.222Z</time></trkpt><trkpt lat="43.4946041" lon="11.4334451"><ele>638.0</ele><time>2026-04-25T09:38:38.222Z</time></trkpt><trkpt lat="43.4945548" lon="11.4335332"><ele>638.0</ele><time>2026-04-25T09:38:41.222Z</time></trkpt><trkpt lat="43.4945219" lon="11.4336398"><ele>639.8333333333333</ele><time>2026-04-25T09:38:44.222Z</time></trkpt><trkpt lat="43.4944877" lon="11.4337453"><ele>641.6666666666666</ele><time>2026-04-25T09:38:47.22Z</time></trkpt><trkpt lat="43.4944724" lon="11.4338455"><ele>643.5</ele><time>2026-04-25T09:38:50.222Z</time></trkpt><trkpt lat="43.4944496" lon="11.4339425"><ele>645.3333333333334</ele><time>2026-04-25T09:38:53.229Z</time></trkpt><trkpt lat="43.4944369" lon="11.4340527"><ele>647.1666666666667</ele><time>2026-04-25T09:38:56.225Z</time></trkpt><trkpt lat="43.4944161" lon="11.4341651"><ele>649.0</ele><time>2026-04-25T09:38:59.228Z</time></trkpt><trkpt lat="43.4943744" lon="11.4342659"><ele>649.0</ele><time>2026-04-25T09:39:02.216Z</time></trkpt><trkpt lat="43.4943593" lon="11.4343683"><ele>649.0</ele><time>2026-04-25T09:39:05.222Z</time></trkpt><trkpt lat="43.4943596" lon="11.4344769"><ele>649.0</ele><time>2026-04-25T09:39:08.214Z</time></trkpt><trkpt lat="43.4943421" lon="11.4345613"><ele>649.0</ele><time>2026-04-25T09:39:11.221Z</time></trkpt><trkpt lat="43.4942515" lon="11.4345855"><ele>649.0</ele><time>2026-04-25T09:39:14.224Z</time></trkpt><trkpt lat="43.4942018" lon="11.4345167"><ele>649.0</ele><time>2026-04-25T09:39:17.23Z</time></trkpt><trkpt lat="43.4941489" lon="11.434434"><ele>648.9999999999999</ele><time>2026-04-25T09:39:20.231Z</time></trkpt><trkpt lat="43.4940932" lon="11.434379"><ele>649.0</ele><time>2026-04-25T09:39:23.236Z</time></trkpt><trkpt lat="43.4940322" lon="11.4343148"><ele>649.0</ele><time>2026-04-25T09:39:28.232Z</time></trkpt><trkpt lat="43.4939776" lon="11.4342461"><ele>649.0</ele><time>2026-04-25T09:39:32.238Z</time></trkpt><trkpt lat="43.4939173" lon="11.4341944"><ele>649.0</ele><time>2026-04-25T09:39:35.238Z</time></trkpt><trkpt lat="43.4939094" lon="11.4340905"><ele>648.9999999999999</ele><time>2026-04-25T09:39:39.232Z</time></trkpt><trkpt lat="43.4938974" lon="11.4340017"><ele>649.0</ele><time>2026-04-25T09:39:43.24Z</time></trkpt><trkpt lat="43.4938558" lon="11.4339288"><ele>648.9999999999999</ele><time>2026-04-25T09:40:12.243Z</time></trkpt><trkpt lat="43.4938018" lon="11.4338715"><ele>649.0</ele><time>2026-04-25T09:40:26.244Z</time></trkpt><trkpt lat="43.4937531" lon="11.4337925"><ele>649.0</ele><time>2026-04-25T09:41:08.236Z</time></trkpt><trkpt lat="43.4937937" lon="11.433861"><ele>649.0</ele><time>2026-04-25T09:42:14.236Z</time></trkpt><trkpt lat="43.4938473" lon="11.4339076"><ele>649.0</ele><time>2026-04-25T09:42:32.243Z</time></trkpt><trkpt lat="43.4939142" lon="11.4339502"><ele>648.9999999999999</ele><time>2026-04-25T09:42:45.237Z</time></trkpt><trkpt lat="43.4939347" lon="11.4340515"><ele>649.0</ele><time>2026-04-25T09:42:49.24Z</time></trkpt><trkpt lat="43.4939533" lon="11.4341378"><ele>649.0</ele><time>2026-04-25T09:42:52.239Z</time></trkpt><trkpt lat="43.4940013" lon="11.4342337"><ele>649.0</ele><time>2026-04-25T09:42:55.243Z</time></trkpt><trkpt lat="43.4940602" lon="11.4343417"><ele>649.0</ele><time>2026-04-25T09:42:58.237Z</time></trkpt><trkpt lat="43.4941046" lon="11.434434"><ele>649.0</ele><time>2026-04-25T09:43:00.231Z</time></trkpt><trkpt lat="43.4941475" lon="11.4345088"><ele>649.0</ele><time>2026-04-25T09:43:02.239Z</time></trkpt><trkpt lat="43.4942212" lon="11.4344859"><ele>649.0</ele><time>2026-04-25T09:45:38.203Z</time></trkpt><trkpt lat="43.4942726" lon="11.4345493"><ele>649.0</ele><time>2026-04-25T09:46:33.215Z</time></trkpt><trkpt lat="43.4943392" lon="11.4345932"><ele>649.0</ele><time>2026-04-25T09:46:38.211Z</time></trkpt><trkpt lat="43.494414" lon="11.4346337"><ele>649.0</ele><time>2026-04-25T09:46:42.216Z</time></trkpt><trkpt lat="43.4944635" lon="11.4347089"><ele>649.0</ele><time>2026-04-25T09:46:45.218Z</time></trkpt><trkpt lat="43.4945341" lon="11.4347843"><ele>649.0</ele><time>2026-04-25T09:46:48.22Z</time></trkpt><trkpt lat="43.4945803" lon="11.4348441"><ele>649.0</ele><time>2026-04-25T09:46:50.237Z</time></trkpt><trkpt lat="43.4946261" lon="11.4349169"><ele>648.5</ele><time>2026-04-25T09:46:52.214Z</time></trkpt><trkpt lat="43.4946666" lon="11.4350071"><ele>648.0</ele><time>2026-04-25T09:46:55.216Z</time></trkpt><trkpt lat="43.4946731" lon="11.4350997"><ele>647.5</ele><time>2026-04-25T09:46:58.215Z</time></trkpt><trkpt lat="43.4946461" lon="11.4351959"><ele>647.0</ele><time>2026-04-25T09:47:01.212Z</time></trkpt><trkpt lat="43.4945949" lon="11.435285"><ele>646.5</ele><time>2026-04-25T09:47:04.222Z</time></trkpt><trkpt lat="43.4945447" lon="11.4353533"><ele>646.0</ele><time>2026-04-25T09:47:07.22Z</time></trkpt><trkpt lat="43.494499" lon="11.4354407"><ele>646.5</ele><time>2026-04-25T09:47:11.221Z</time></trkpt><trkpt lat="43.4944538" lon="11.4355291"><ele>647.0</ele><time>2026-04-25T09:47:14.222Z</time></trkpt><trkpt lat="43.4944148" lon="11.4356313"><ele>647.5</ele><time>2026-04-25T09:47:17.218Z</time></trkpt><trkpt lat="43.4943896" lon="11.4357306"><ele>648.0</ele><time>2026-04-25T09:47:21.205Z</time></trkpt><trkpt lat="43.4943578" lon="11.4358228"><ele>648.5</ele><time>2026-04-25T09:47:26.195Z</time></trkpt><trkpt lat="43.4943403" lon="11.4359307"><ele>649.0</ele><time>2026-04-25T09:47:28.197Z</time></trkpt><trkpt lat="43.4943261" lon="11.4360212"><ele>649.0</ele><time>2026-04-25T09:47:30.201Z</time></trkpt><trkpt lat="43.4942906" lon="11.4360947"><ele>649.0</ele><time>2026-04-25T09:47:32.207Z</time></trkpt><trkpt lat="43.4942786" lon="11.4362124"><ele>649.0</ele><time>2026-04-25T09:47:36.215Z</time></trkpt><trkpt lat="43.4942514" lon="11.4363204"><ele>649.0</ele><time>2026-04-25T09:47:39.229Z</time></trkpt><trkpt lat="43.4942326" lon="11.4364267"><ele>649.0</ele><time>2026-04-25T09:47:42.214Z</time></trkpt><trkpt lat="43.4942076" lon="11.4365233"><ele>649.0</ele><time>2026-04-25T09:47:45.211Z</time></trkpt><trkpt lat="43.4941935" lon="11.4366263"><ele>650.2857142857142</ele><time>2026-04-25T09:47:48.212Z</time></trkpt><trkpt lat="43.4941846" lon="11.4367293"><ele>651.5714285714286</ele><time>2026-04-25T09:47:51.217Z</time></trkpt><trkpt lat="43.4941861" lon="11.4368261"><ele>652.8571428571429</ele><time>2026-04-25T09:47:54.217Z</time></trkpt><trkpt lat="43.4941993" lon="11.4369285"><ele>654.1428571428571</ele><time>2026-04-25T09:47:57.219Z</time></trkpt><trkpt lat="43.494203" lon="11.4370246"><ele>655.4285714285714</ele><time>2026-04-25T09:48:00.216Z</time></trkpt><trkpt lat="43.4942066" lon="11.4371292"><ele>656.7142857142857</ele><time>2026-04-25T09:48:03.207Z</time></trkpt><trkpt lat="43.4942199" lon="11.4372215"><ele>658.0</ele><time>2026-04-25T09:48:06.215Z</time></trkpt><trkpt lat="43.4942427" lon="11.4373247"><ele>659.1666666666667</ele><time>2026-04-25T09:48:09.215Z</time></trkpt><trkpt lat="43.4942189" lon="11.4374288"><ele>660.3333333333334</ele><time>2026-04-25T09:48:12.217Z</time></trkpt><trkpt lat="43.4941937" lon="11.4375122"><ele>661.5</ele><time>2026-04-25T09:48:14.218Z</time></trkpt><trkpt lat="43.4941496" lon="11.4375804"><ele>662.6666666666666</ele><time>2026-04-25T09:48:16.22Z</time></trkpt><trkpt lat="43.4941076" lon="11.4376724"><ele>663.8333333333333</ele><time>2026-04-25T09:48:19.222Z</time></trkpt><trkpt lat="43.4940478" lon="11.4377696"><ele>665.0</ele><time>2026-04-25T09:48:22.212Z</time></trkpt><trkpt lat="43.4940088" lon="11.4378595"><ele>665.0</ele><time>2026-04-25T09:48:25.214Z</time></trkpt><trkpt lat="43.4939951" lon="11.4379509"><ele>665.0</ele><time>2026-04-25T09:48:28.232Z</time></trkpt><trkpt lat="43.4939999" lon="11.4380548"><ele>665.0</ele><time>2026-04-25T09:48:31.209Z</time></trkpt><trkpt lat="43.4939975" lon="11.4381472"><ele>665.0</ele><time>2026-04-25T09:48:34.218Z</time></trkpt><trkpt lat="43.4940037" lon="11.4382387"><ele>665.0</ele><time>2026-04-25T09:48:37.213Z</time></trkpt><trkpt lat="43.4940434" lon="11.4383368"><ele>665.0</ele><time>2026-04-25T09:48:41.224Z</time></trkpt><trkpt lat="43.4941039" lon="11.4384044"><ele>665.0</ele><time>2026-04-25T09:48:45.212Z</time></trkpt><trkpt lat="43.4941519" lon="11.4384866"><ele>665.4</ele><time>2026-04-25T09:48:48.193Z</time></trkpt><trkpt lat="43.4941081" lon="11.4386008"><ele>665.8</ele><time>2026-04-25T09:48:50.2Z</time></trkpt><trkpt lat="43.4940577" lon="11.4387142"><ele>666.2</ele><time>2026-04-25T09:48:51.185Z</time></trkpt><trkpt lat="43.4939721" lon="11.4388293"><ele>666.6</ele><time>2026-04-25T09:48:52.18Z</time></trkpt><trkpt lat="43.4939067" lon="11.4388767"><ele>667.0</ele><time>2026-04-25T09:48:53.183Z</time></trkpt><trkpt lat="43.4938158" lon="11.4388966"><ele>665.0</ele><time>2026-04-25T09:48:54.181Z</time></trkpt><trkpt lat="43.4939153" lon="11.4388705"><ele>663.0</ele><time>2026-04-25T09:48:57.211Z</time></trkpt><trkpt lat="43.493991" lon="11.438861"><ele>661.0</ele><time>2026-04-25T09:48:58.213Z</time></trkpt><trkpt lat="43.4940792" lon="11.4388619"><ele>659.0</ele><time>2026-04-25T09:48:59.218Z</time></trkpt><trkpt lat="43.4941612" lon="11.4388595"><ele>657.0</ele><time>2026-04-25T09:49:00.222Z</time></trkpt><trkpt lat="43.4942396" lon="11.4388547"><ele>655.0</ele><time>2026-04-25T09:49:01.217Z</time></trkpt><trkpt lat="43.4943114" lon="11.4388583"><ele>655.0</ele><time>2026-04-25T09:49:02.215Z</time></trkpt><trkpt lat="43.4943982" lon="11.4388592"><ele>655.0</ele><time>2026-04-25T09:49:04.216Z</time></trkpt><trkpt lat="43.4944654" lon="11.438868"><ele>655.0</ele><time>2026-04-25T09:49:06.237Z</time></trkpt><trkpt lat="43.4945467" lon="11.4389061"><ele>655.0</ele><time>2026-04-25T09:49:09.223Z</time></trkpt><trkpt lat="43.4946199" lon="11.4389496"><ele>655.0</ele><time>2026-04-25T09:49:12.235Z</time></trkpt><trkpt lat="43.4946917" lon="11.4390205"><ele>655.0</ele><time>2026-04-25T09:49:15.213Z</time></trkpt><trkpt lat="43.494759" lon="11.4390897"><ele>659.7142857142858</ele><time>2026-04-25T09:49:18.212Z</time></trkpt><trkpt lat="43.4948132" lon="11.4391559"><ele>664.4285714285714</ele><time>2026-04-25T09:49:21.208Z</time></trkpt><trkpt lat="43.4948645" lon="11.4392437"><ele>669.1428571428571</ele><time>2026-04-25T09:49:24.214Z</time></trkpt><trkpt lat="43.4948498" lon="11.4393433"><ele>673.8571428571429</ele><time>2026-04-25T09:49:27.21Z</time></trkpt><trkpt lat="43.4948205" lon="11.4394241"><ele>678.5714285714286</ele><time>2026-04-25T09:49:29.208Z</time></trkpt><trkpt lat="43.4947665" lon="11.4394897"><ele>683.2857142857143</ele><time>2026-04-25T09:49:31.217Z</time></trkpt><trkpt lat="43.4947119" lon="11.4395594"><ele>688.0</ele><time>2026-04-25T09:49:34.223Z</time></trkpt><trkpt lat="43.4946566" lon="11.4396308"><ele>688.8571428571429</ele><time>2026-04-25T09:49:37.214Z</time></trkpt><trkpt lat="43.4946277" lon="11.4397165"><ele>689.7142857142858</ele><time>2026-04-25T09:49:40.212Z</time></trkpt><trkpt lat="43.4945859" lon="11.4398004"><ele>690.5714285714287</ele><time>2026-04-25T09:49:43.217Z</time></trkpt><trkpt lat="43.4945778" lon="11.439892"><ele>691.4285714285714</ele><time>2026-04-25T09:49:46.212Z</time></trkpt><trkpt lat="43.4945714" lon="11.4399984"><ele>692.2857142857142</ele><time>2026-04-25T09:49:49.211Z</time></trkpt><trkpt lat="43.4945653" lon="11.440104"><ele>693.1428571428572</ele><time>2026-04-25T09:49:52.224Z</time></trkpt><trkpt lat="43.4945605" lon="11.4402029"><ele>694.0</ele><time>2026-04-25T09:49:55.217Z</time></trkpt><trkpt lat="43.4945485" lon="11.4403062"><ele>695.5</ele><time>2026-04-25T09:49:58.216Z</time></trkpt><trkpt lat="43.4945631" lon="11.4404147"><ele>697.0</ele><time>2026-04-25T09:50:01.223Z</time></trkpt><trkpt lat="43.494582" lon="11.4405303"><ele>698.5</ele><time>2026-04-25T09:50:04.215Z</time></trkpt><trkpt lat="43.4946168" lon="11.4406191"><ele>700.0</ele><time>2026-04-25T09:50:07.208Z</time></trkpt><trkpt lat="43.4946249" lon="11.4407156"><ele>701.5</ele><time>2026-04-25T09:50:10.211Z</time></trkpt><trkpt lat="43.4946069" lon="11.4408158"><ele>703.0</ele><time>2026-04-25T09:50:13.209Z</time></trkpt><trkpt lat="43.4945669" lon="11.4409253"><ele>701.3333333333334</ele><time>2026-04-25T09:50:16.211Z</time></trkpt><trkpt lat="43.4945126" lon="11.44102"><ele>699.6666666666667</ele><time>2026-04-25T09:50:19.207Z</time></trkpt><trkpt lat="43.4944453" lon="11.4411086"><ele>698.0</ele><time>2026-04-25T09:50:22.219Z</time></trkpt><trkpt lat="43.4943864" lon="11.4411905"><ele>696.3333333333334</ele><time>2026-04-25T09:50:25.21Z</time></trkpt><trkpt lat="43.4943435" lon="11.4412928"><ele>694.6666666666666</ele><time>2026-04-25T09:50:29.218Z</time></trkpt><trkpt lat="43.4943104" lon="11.4413907"><ele>693.0</ele><time>2026-04-25T09:50:33.209Z</time></trkpt><trkpt lat="43.4943104" lon="11.4414882"><ele>693.0</ele><time>2026-04-25T09:50:36.216Z</time></trkpt><trkpt lat="43.4943243" lon="11.4415898"><ele>693.0</ele><time>2026-04-25T09:50:39.218Z</time></trkpt><trkpt lat="43.4943186" lon="11.4416947"><ele>693.0</ele><time>2026-04-25T09:50:42.212Z</time></trkpt><trkpt lat="43.4943086" lon="11.4417962"><ele>693.0</ele><time>2026-04-25T09:50:45.221Z</time></trkpt><trkpt lat="43.494302" lon="11.441884"><ele>693.0</ele><time>2026-04-25T09:50:48.205Z</time></trkpt><trkpt lat="43.4942596" lon="11.441956"><ele>693.0</ele><time>2026-04-25T09:50:51.2Z</time></trkpt><trkpt lat="43.4941756" lon="11.4420294"><ele>693.0</ele><time>2026-04-25T09:50:54.203Z</time></trkpt><trkpt lat="43.4940852" lon="11.4420653"><ele>693.0</ele><time>2026-04-25T09:50:57.209Z</time></trkpt><trkpt lat="43.4939939" lon="11.4420591"><ele>693.0</ele><time>2026-04-25T09:51:00.206Z</time></trkpt><trkpt lat="43.4939152" lon="11.4420542"><ele>693.0</ele><time>2026-04-25T09:51:03.214Z</time></trkpt><trkpt lat="43.4938222" lon="11.442063"><ele>693.0</ele><time>2026-04-25T09:51:06.21Z</time></trkpt><trkpt lat="43.4937339" lon="11.4420697"><ele>693.0</ele><time>2026-04-25T09:51:09.201Z</time></trkpt><trkpt lat="43.4936632" lon="11.4420926"><ele>694.6666666666666</ele><time>2026-04-25T09:51:12.2Z</time></trkpt><trkpt lat="43.4935899" lon="11.4421247"><ele>696.3333333333334</ele><time>2026-04-25T09:51:15.216Z</time></trkpt><trkpt lat="43.4935126" lon="11.4421564"><ele>698.0</ele><time>2026-04-25T09:51:18.206Z</time></trkpt><trkpt lat="43.4934325" lon="11.4421893"><ele>699.6666666666667</ele><time>2026-04-25T09:51:21.204Z</time></trkpt><trkpt lat="43.4933485" lon="11.4421995"><ele>701.3333333333334</ele><time>2026-04-25T09:51:24.203Z</time></trkpt><trkpt lat="43.4932574" lon="11.4422072"><ele>703.0</ele><time>2026-04-25T09:51:27.219Z</time></trkpt><trkpt lat="43.4931987" lon="11.44225"><ele>703.0</ele><time>2026-04-25T09:51:30.211Z</time></trkpt><trkpt lat="43.4931351" lon="11.4423181"><ele>703.0</ele><time>2026-04-25T09:51:34.217Z</time></trkpt><trkpt lat="43.4930701" lon="11.4423554"><ele>703.0</ele><time>2026-04-25T09:51:37.208Z</time></trkpt><trkpt lat="43.4930052" lon="11.4424285"><ele>703.0</ele><time>2026-04-25T09:51:40.209Z</time></trkpt><trkpt lat="43.4929578" lon="11.4424958"><ele>703.0</ele><time>2026-04-25T09:51:42.22Z</time></trkpt><trkpt lat="43.4929136" lon="11.4425981"><ele>703.0</ele><time>2026-04-25T09:51:45.236Z</time></trkpt><trkpt lat="43.4928708" lon="11.4426876"><ele>700.7142857142857</ele><time>2026-04-25T09:51:48.222Z</time></trkpt><trkpt lat="43.4928506" lon="11.4427783"><ele>698.4285714285714</ele><time>2026-04-25T09:51:51.222Z</time></trkpt><trkpt lat="43.492821" lon="11.4428746"><ele>696.1428571428571</ele><time>2026-04-25T09:51:54.222Z</time></trkpt><trkpt lat="43.4928084" lon="11.4429699"><ele>693.8571428571429</ele><time>2026-04-25T09:51:57.218Z</time></trkpt><trkpt lat="43.4928002" lon="11.4430814"><ele>691.5714285714286</ele><time>2026-04-25T09:52:00.214Z</time></trkpt><trkpt lat="43.4927849" lon="11.4431895"><ele>689.2857142857143</ele><time>2026-04-25T09:52:03.215Z</time></trkpt><trkpt lat="43.4927763" lon="11.443287"><ele>687.0</ele><time>2026-04-25T09:52:06.22Z</time></trkpt><trkpt lat="43.492754" lon="11.4433921"><ele>687.0</ele><time>2026-04-25T09:52:09.205Z</time></trkpt><trkpt lat="43.492741" lon="11.443496"><ele>687.0</ele><time>2026-04-25T09:52:12.221Z</time></trkpt><trkpt lat="43.4927496" lon="11.443612"><ele>687.0</ele><time>2026-04-25T09:52:15.227Z</time></trkpt><trkpt lat="43.4927535" lon="11.4437094"><ele>687.0</ele><time>2026-04-25T09:52:18.222Z</time></trkpt><trkpt lat="43.4927506" lon="11.4438151"><ele>687.0</ele><time>2026-04-25T09:52:21.207Z</time></trkpt><trkpt lat="43.4927289" lon="11.4439171"><ele>687.0</ele><time>2026-04-25T09:52:24.213Z</time></trkpt><trkpt lat="43.4927134" lon="11.4440333"><ele>688.5</ele><time>2026-04-25T09:52:27.215Z</time></trkpt><trkpt lat="43.4927071" lon="11.4441605"><ele>690.0</ele><time>2026-04-25T09:52:30.222Z</time></trkpt><trkpt lat="43.49269" lon="11.4442709"><ele>691.5</ele><time>2026-04-25T09:52:33.207Z</time></trkpt><trkpt lat="43.4926727" lon="11.4443636"><ele>693.0</ele><time>2026-04-25T09:52:36.223Z</time></trkpt><trkpt lat="43.4926653" lon="11.4444833"><ele>694.5</ele><time>2026-04-25T09:52:39.211Z</time></trkpt><trkpt lat="43.4926649" lon="11.4445995"><ele>696.0</ele><time>2026-04-25T09:52:42.207Z</time></trkpt><trkpt lat="43.4926777" lon="11.4446929"><ele>697.7142857142857</ele><time>2026-04-25T09:52:45.214Z</time></trkpt><trkpt lat="43.4926757" lon="11.4447802"><ele>699.4285714285714</ele><time>2026-04-25T09:52:48.214Z</time></trkpt><trkpt lat="43.4926517" lon="11.4448674"><ele>701.1428571428571</ele><time>2026-04-25T09:52:51.213Z</time></trkpt><trkpt lat="43.4926314" lon="11.4449751"><ele>702.8571428571429</ele><time>2026-04-25T09:52:54.209Z</time></trkpt><trkpt lat="43.4926421" lon="11.4450724"><ele>704.5714285714286</ele><time>2026-04-25T09:52:57.213Z</time></trkpt><trkpt lat="43.492647" lon="11.4451796"><ele>706.2857142857143</ele><time>2026-04-25T09:53:00.216Z</time></trkpt><trkpt lat="43.4926494" lon="11.4452965"><ele>708.0</ele><time>2026-04-25T09:53:03.214Z</time></trkpt><trkpt lat="43.4926578" lon="11.445394"><ele>709.0</ele><time>2026-04-25T09:53:06.229Z</time></trkpt><trkpt lat="43.4926778" lon="11.445498"><ele>710.0</ele><time>2026-04-25T09:53:09.212Z</time></trkpt><trkpt lat="43.4927059" lon="11.4455902"><ele>711.0</ele><time>2026-04-25T09:53:12.22Z</time></trkpt><trkpt lat="43.4927557" lon="11.4456689"><ele>712.0</ele><time>2026-04-25T09:53:16.229Z</time></trkpt><trkpt lat="43.4928076" lon="11.4457512"><ele>713.0</ele><time>2026-04-25T09:53:23.208Z</time></trkpt><trkpt lat="43.4928402" lon="11.4458405"><ele>714.0</ele><time>2026-04-25T09:53:26.211Z</time></trkpt><trkpt lat="43.4928577" lon="11.4459743"><ele>714.0</ele><time>2026-04-25T09:53:29.222Z</time></trkpt><trkpt lat="43.4928701" lon="11.4460823"><ele>714.0</ele><time>2026-04-25T09:53:31.217Z</time></trkpt><trkpt lat="43.4929063" lon="11.4461822"><ele>714.0</ele><time>2026-04-25T09:53:34.206Z</time></trkpt><trkpt lat="43.492939" lon="11.4462729"><ele>714.0</ele><time>2026-04-25T09:53:37.207Z</time></trkpt><trkpt lat="43.4929826" lon="11.446346"><ele>714.0</ele><time>2026-04-25T09:53:39.215Z</time></trkpt><trkpt lat="43.4930333" lon="11.4464193"><ele>714.0</ele><time>2026-04-25T09:53:41.208Z</time></trkpt><trkpt lat="43.4930776" lon="11.4464949"><ele>714.0</ele><time>2026-04-25T09:53:43.211Z</time></trkpt><trkpt lat="43.4931142" lon="11.4465722"><ele>712.4285714285714</ele><time>2026-04-25T09:53:45.203Z</time></trkpt><trkpt lat="43.4931475" lon="11.4466546"><ele>710.8571428571429</ele><time>2026-04-25T09:53:47.207Z</time></trkpt><trkpt lat="43.4931966" lon="11.4467344"><ele>709.2857142857142</ele><time>2026-04-25T09:53:49.207Z</time></trkpt><trkpt lat="43.4932268" lon="11.4468166"><ele>707.7142857142858</ele><time>2026-04-25T09:53:51.214Z</time></trkpt><trkpt lat="43.4932948" lon="11.4468937"><ele>706.1428571428571</ele><time>2026-04-25T09:53:54.205Z</time></trkpt><trkpt lat="43.4933507" lon="11.4469407"><ele>704.5714285714286</ele><time>2026-04-25T09:53:56.209Z</time></trkpt><trkpt lat="43.4934331" lon="11.4469453"><ele>703.0</ele><time>2026-04-25T09:53:59.215Z</time></trkpt><trkpt lat="43.4934978" lon="11.446925"><ele>703.0</ele><time>2026-04-25T09:54:01.207Z</time></trkpt><trkpt lat="43.4935887" lon="11.4469551"><ele>703.0</ele><time>2026-04-25T09:54:04.214Z</time></trkpt><trkpt lat="43.4936569" lon="11.44703"><ele>703.0</ele><time>2026-04-25T09:54:06.203Z</time></trkpt><trkpt lat="43.4937178" lon="11.4471231"><ele>703.0</ele><time>2026-04-25T09:54:08.205Z</time></trkpt><trkpt lat="43.4937572" lon="11.4472254"><ele>703.0</ele><time>2026-04-25T09:54:10.207Z</time></trkpt><trkpt lat="43.4937935" lon="11.4473159"><ele>703.0</ele><time>2026-04-25T09:54:12.211Z</time></trkpt><trkpt lat="43.4938301" lon="11.447422"><ele>701.1666666666667</ele><time>2026-04-25T09:54:15.21Z</time></trkpt><trkpt lat="43.4938711" lon="11.4475317"><ele>699.3333333333334</ele><time>2026-04-25T09:54:18.207Z</time></trkpt><trkpt lat="43.4938995" lon="11.4476299"><ele>697.5</ele><time>2026-04-25T09:54:21.214Z</time></trkpt><trkpt lat="43.4939366" lon="11.4477365"><ele>695.6666666666666</ele><time>2026-04-25T09:54:24.226Z</time></trkpt><trkpt lat="43.4939852" lon="11.4478417"><ele>693.8333333333333</ele><time>2026-04-25T09:54:27.232Z</time></trkpt><trkpt lat="43.4940501" lon="11.4478838"><ele>692.0</ele><time>2026-04-25T09:54:30.213Z</time></trkpt><trkpt lat="43.4941211" lon="11.4479518"><ele>688.5</ele><time>2026-04-25T09:54:33.208Z</time></trkpt><trkpt lat="43.4941917" lon="11.4479957"><ele>685.0</ele><time>2026-04-25T09:54:36.207Z</time></trkpt><trkpt lat="43.4942847" lon="11.4480027"><ele>681.5</ele><time>2026-04-25T09:54:39.213Z</time></trkpt><trkpt lat="43.494368" lon="11.4479988"><ele>678.0</ele><time>2026-04-25T09:54:41.223Z</time></trkpt><trkpt lat="43.4944317" lon="11.4480066"><ele>674.5</ele><time>2026-04-25T09:54:43.227Z</time></trkpt><trkpt lat="43.4945325" lon="11.4480061"><ele>671.0</ele><time>2026-04-25T09:54:46.222Z</time></trkpt><trkpt lat="43.4946223" lon="11.4480088"><ele>669.8333333333333</ele><time>2026-04-25T09:54:49.222Z</time></trkpt><trkpt lat="43.4946905" lon="11.4480043"><ele>668.6666666666666</ele><time>2026-04-25T09:54:51.216Z</time></trkpt><trkpt lat="43.4947565" lon="11.4479986"><ele>667.5</ele><time>2026-04-25T09:54:53.242Z</time></trkpt><trkpt lat="43.4948441" lon="11.4479678"><ele>666.3333333333334</ele><time>2026-04-25T09:54:56.232Z</time></trkpt><trkpt lat="43.4949353" lon="11.4479484"><ele>665.1666666666667</ele><time>2026-04-25T09:54:59.229Z</time></trkpt><trkpt lat="43.4950066" lon="11.4479401"><ele>664.0</ele><time>2026-04-25T09:55:01.225Z</time></trkpt><trkpt lat="43.4950939" lon="11.4479805"><ele>664.0</ele><time>2026-04-25T09:55:03.229Z</time></trkpt><trkpt lat="43.4951831" lon="11.4480587"><ele>664.0</ele><time>2026-04-25T09:55:05.222Z</time></trkpt><trkpt lat="43.495245" lon="11.4481529"><ele>664.0</ele><time>2026-04-25T09:55:07.22Z</time></trkpt><trkpt lat="43.4953004" lon="11.4482476"><ele>664.0</ele><time>2026-04-25T09:55:09.233Z</time></trkpt><trkpt lat="43.4953469" lon="11.4483261"><ele>664.0</ele><time>2026-04-25T09:55:11.227Z</time></trkpt><trkpt lat="43.4954079" lon="11.4484063"><ele>664.0</ele><time>2026-04-25T09:55:14.23Z</time></trkpt><trkpt lat="43.4954814" lon="11.4484564"><ele>661.6666666666667</ele><time>2026-04-25T09:55:18.225Z</time></trkpt><trkpt lat="43.4955475" lon="11.4484797"><ele>659.3333333333334</ele><time>2026-04-25T09:55:21.218Z</time></trkpt><trkpt lat="43.4955942" lon="11.4485719"><ele>657.0</ele><time>2026-04-25T09:55:25.229Z</time></trkpt><trkpt lat="43.4955852" lon="11.4487046"><ele>654.6666666666666</ele><time>2026-04-25T09:55:28.233Z</time></trkpt><trkpt lat="43.4955608" lon="11.4488309"><ele>652.3333333333333</ele><time>2026-04-25T09:55:30.232Z</time></trkpt><trkpt lat="43.4955559" lon="11.4489505"><ele>650.0</ele><time>2026-04-25T09:55:32.222Z</time></trkpt><trkpt lat="43.4955457" lon="11.4490657"><ele>647.1666666666666</ele><time>2026-04-25T09:55:34.224Z</time></trkpt><trkpt lat="43.4955333" lon="11.449189"><ele>644.3333333333333</ele><time>2026-04-25T09:55:36.229Z</time></trkpt><trkpt lat="43.4955264" lon="11.4493115"><ele>641.5</ele><time>2026-04-25T09:55:38.231Z</time></trkpt><trkpt lat="43.4955097" lon="11.4494162"><ele>638.6666666666666</ele><time>2026-04-25T09:55:40.233Z</time></trkpt><trkpt lat="43.4955004" lon="11.4495116"><ele>635.8333333333334</ele><time>2026-04-25T09:55:42.24Z</time></trkpt><trkpt lat="43.4954953" lon="11.449629"><ele>633.0</ele><time>2026-04-25T09:55:45.232Z</time></trkpt><trkpt lat="43.4954782" lon="11.449741"><ele>632.5714285714286</ele><time>2026-04-25T09:55:48.243Z</time></trkpt><trkpt lat="43.4954264" lon="11.4498038"><ele>632.1428571428571</ele><time>2026-04-25T09:55:50.232Z</time></trkpt><trkpt lat="43.4953624" lon="11.449855"><ele>631.7142857142858</ele><time>2026-04-25T09:55:52.241Z</time></trkpt><trkpt lat="43.4953979" lon="11.4499361"><ele>631.2857142857142</ele><time>2026-04-25T09:55:57.236Z</time></trkpt><trkpt lat="43.4953836" lon="11.449845"><ele>630.8571428571429</ele><time>2026-04-25T09:56:03.235Z</time></trkpt><trkpt lat="43.4953045" lon="11.4498236"><ele>630.4285714285714</ele><time>2026-04-25T09:56:06.224Z</time></trkpt><trkpt lat="43.4952231" lon="11.4498096"><ele>630.0</ele><time>2026-04-25T09:56:09.225Z</time></trkpt><trkpt lat="43.4951518" lon="11.4497785"><ele>630.0</ele><time>2026-04-25T09:56:12.234Z</time></trkpt><trkpt lat="43.4950833" lon="11.4497365"><ele>630.0</ele><time>2026-04-25T09:56:16.223Z</time></trkpt><trkpt lat="43.495021" lon="11.4496775"><ele>630.0</ele><time>2026-04-25T09:56:20.232Z</time></trkpt><trkpt lat="43.4949579" lon="11.4496452"><ele>630.0</ele><time>2026-04-25T09:56:24.226Z</time></trkpt><trkpt lat="43.4948995" lon="11.4495831"><ele>630.0</ele><time>2026-04-25T09:56:28.231Z</time></trkpt><trkpt lat="43.4949396" lon="11.4496639"><ele>630.0</ele><time>2026-04-25T10:00:57.233Z</time></trkpt><trkpt lat="43.4950093" lon="11.4496932"><ele>630.0</ele><time>2026-04-25T10:01:02.231Z</time></trkpt><trkpt lat="43.4950808" lon="11.4497359"><ele>630.0</ele><time>2026-04-25T10:01:06.229Z</time></trkpt><trkpt lat="43.4951542" lon="11.4497514"><ele>630.0</ele><time>2026-04-25T10:01:11.236Z</time></trkpt><trkpt lat="43.4952173" lon="11.449773"><ele>630.0</ele><time>2026-04-25T10:01:15.236Z</time></trkpt><trkpt lat="43.4952752" lon="11.4498328"><ele>630.0</ele><time>2026-04-25T10:01:20.24Z</time></trkpt><trkpt lat="43.4953337" lon="11.4498847"><ele>630.0</ele><time>2026-04-25T10:01:25.234Z</time></trkpt><trkpt lat="43.4954082" lon="11.4498848"><ele>630.0</ele><time>2026-04-25T10:01:29.248Z</time></trkpt><trkpt lat="43.4954567" lon="11.4498138"><ele>630.0</ele><time>2026-04-25T10:01:37.242Z</time></trkpt><trkpt lat="43.4955152" lon="11.4497589"><ele>630.6</ele><time>2026-04-25T10:01:41.241Z</time></trkpt><trkpt lat="43.4955922" lon="11.449683"><ele>631.2</ele><time>2026-04-25T10:01:44.251Z</time></trkpt><trkpt lat="43.495663" lon="11.4496449"><ele>631.8</ele><time>2026-04-25T10:01:46.253Z</time></trkpt><trkpt lat="43.4957615" lon="11.4496082"><ele>632.4</ele><time>2026-04-25T10:01:48.242Z</time></trkpt><trkpt lat="43.4958592" lon="11.4495588"><ele>633.0</ele><time>2026-04-25T10:01:50.234Z</time></trkpt><trkpt lat="43.4959562" lon="11.4495001"><ele>633.0</ele><time>2026-04-25T10:01:52.236Z</time></trkpt><trkpt lat="43.4960329" lon="11.4494322"><ele>633.0</ele><time>2026-04-25T10:01:54.242Z</time></trkpt><trkpt lat="43.4961061" lon="11.4493331"><ele>633.0</ele><time>2026-04-25T10:01:56.239Z</time></trkpt><trkpt lat="43.4961852" lon="11.4492048"><ele>633.0</ele><time>2026-04-25T10:01:58.235Z</time></trkpt><trkpt lat="43.496266" lon="11.4490639"><ele>633.0</ele><time>2026-04-25T10:02:00.222Z</time></trkpt><trkpt lat="43.4963105" lon="11.4489848"><ele>632.5</ele><time>2026-04-25T10:02:01.216Z</time></trkpt><trkpt lat="43.4963579" lon="11.448912"><ele>632.0</ele><time>2026-04-25T10:02:02.221Z</time></trkpt><trkpt lat="43.4963951" lon="11.4488338"><ele>631.5</ele><time>2026-04-25T10:02:03.204Z</time></trkpt><trkpt lat="43.4964332" lon="11.4487632"><ele>631.0</ele><time>2026-04-25T10:02:04.228Z</time></trkpt><trkpt lat="43.49651" lon="11.4486683"><ele>630.5</ele><time>2026-04-25T10:02:06.219Z</time></trkpt><trkpt lat="43.4965967" lon="11.4486886"><ele>630.0</ele><time>2026-04-25T10:02:08.223Z</time></trkpt><trkpt lat="43.4966555" lon="11.4487616"><ele>630.0</ele><time>2026-04-25T10:02:10.229Z</time></trkpt><trkpt lat="43.496692" lon="11.4488424"><ele>630.0</ele><time>2026-04-25T10:02:12.225Z</time></trkpt><trkpt lat="43.4967161" lon="11.4489702"><ele>630.0</ele><time>2026-04-25T10:02:15.237Z</time></trkpt><trkpt lat="43.4967297" lon="11.4490675"><ele>630.0</ele><time>2026-04-25T10:02:17.232Z</time></trkpt><trkpt lat="43.4967476" lon="11.4491903"><ele>630.0</ele><time>2026-04-25T10:02:20.233Z</time></trkpt><trkpt lat="43.4967498" lon="11.449282"><ele>630.0</ele><time>2026-04-25T10:02:23.242Z</time></trkpt><trkpt lat="43.4967582" lon="11.4493781"><ele>630.0</ele><time>2026-04-25T10:02:26.23Z</time></trkpt><trkpt lat="43.4967676" lon="11.4494909"><ele>630.0</ele><time>2026-04-25T10:02:29.238Z</time></trkpt><trkpt lat="43.4967639" lon="11.4495793"><ele>630.0</ele><time>2026-04-25T10:02:31.231Z</time></trkpt><trkpt lat="43.4967604" lon="11.4496987"><ele>630.0</ele><time>2026-04-25T10:02:34.23Z</time></trkpt><trkpt lat="43.4967814" lon="11.4498022"><ele>630.0</ele><time>2026-04-25T10:02:37.232Z</time></trkpt><trkpt lat="43.4968124" lon="11.4499004"><ele>630.0</ele><time>2026-04-25T10:02:40.235Z</time></trkpt><trkpt lat="43.4968541" lon="11.4499839"><ele>632.0</ele><time>2026-04-25T10:02:43.238Z</time></trkpt><trkpt lat="43.4969086" lon="11.4500446"><ele>634.0</ele><time>2026-04-25T10:02:47.24Z</time></trkpt><trkpt lat="43.4969834" lon="11.450095"><ele>636.0</ele><time>2026-04-25T10:02:51.242Z</time></trkpt><trkpt lat="43.49705" lon="11.4500843"><ele>638.0</ele><time>2026-04-25T10:02:54.248Z</time></trkpt><trkpt lat="43.4971322" lon="11.450067"><ele>640.0</ele><time>2026-04-25T10:02:57.241Z</time></trkpt><trkpt lat="43.4972237" lon="11.4500711"><ele>642.0</ele><time>2026-04-25T10:03:00.244Z</time></trkpt><trkpt lat="43.4972973" lon="11.4501209"><ele>642.0</ele><time>2026-04-25T10:03:03.239Z</time></trkpt><trkpt lat="43.497361" lon="11.4502053"><ele>642.0</ele><time>2026-04-25T10:03:06.229Z</time></trkpt><trkpt lat="43.4974199" lon="11.450296"><ele>642.0</ele><time>2026-04-25T10:03:09.234Z</time></trkpt><trkpt lat="43.4974967" lon="11.4503835"><ele>642.0</ele><time>2026-04-25T10:03:12.242Z</time></trkpt><trkpt lat="43.4975537" lon="11.4504477"><ele>642.0</ele><time>2026-04-25T10:03:14.248Z</time></trkpt><trkpt lat="43.4976099" lon="11.450504"><ele>642.0</ele><time>2026-04-25T10:03:16.236Z</time></trkpt><trkpt lat="43.4976628" lon="11.4505688"><ele>641.3333333333334</ele><time>2026-04-25T10:03:18.24Z</time></trkpt><trkpt lat="43.4977177" lon="11.4506246"><ele>640.6666666666666</ele><time>2026-04-25T10:03:20.251Z</time></trkpt><trkpt lat="43.4977923" lon="11.4506945"><ele>640.0</ele><time>2026-04-25T10:03:23.243Z</time></trkpt><trkpt lat="43.497845" lon="11.4507509"><ele>639.3333333333333</ele><time>2026-04-25T10:03:25.251Z</time></trkpt><trkpt lat="43.4979001" lon="11.4508282"><ele>638.6666666666666</ele><time>2026-04-25T10:03:28.244Z</time></trkpt><trkpt lat="43.4979597" lon="11.4509129"><ele>638.0</ele><time>2026-04-25T10:03:31.244Z</time></trkpt><trkpt lat="43.4980067" lon="11.4510131"><ele>638.0</ele><time>2026-04-25T10:03:34.242Z</time></trkpt><trkpt lat="43.4980685" lon="11.4510834"><ele>638.0</ele><time>2026-04-25T10:03:37.232Z</time></trkpt><trkpt lat="43.4981387" lon="11.4511713"><ele>638.0</ele><time>2026-04-25T10:03:40.241Z</time></trkpt><trkpt lat="43.4982213" lon="11.4512289"><ele>638.0</ele><time>2026-04-25T10:03:43.239Z</time></trkpt><trkpt lat="43.4982956" lon="11.4512761"><ele>638.0</ele><time>2026-04-25T10:03:46.24Z</time></trkpt><trkpt lat="43.4983533" lon="11.4513122"><ele>638.0</ele><time>2026-04-25T10:03:48.236Z</time></trkpt><trkpt lat="43.4984259" lon="11.45135"><ele>635.0</ele><time>2026-04-25T10:03:51.24Z</time></trkpt><trkpt lat="43.4985085" lon="11.4514078"><ele>632.0</ele><time>2026-04-25T10:03:54.238Z</time></trkpt><trkpt lat="43.4985713" lon="11.4514434"><ele>629.0</ele><time>2026-04-25T10:03:56.248Z</time></trkpt><trkpt lat="43.4986301" lon="11.4514982"><ele>626.0</ele><time>2026-04-25T10:03:58.25Z</time></trkpt><trkpt lat="43.498693" lon="11.4515544"><ele>623.0</ele><time>2026-04-25T10:04:00.234Z</time></trkpt><trkpt lat="43.4987543" lon="11.4515902"><ele>620.0</ele><time>2026-04-25T10:04:02.234Z</time></trkpt><trkpt lat="43.4988163" lon="11.4516354"><ele>617.0</ele><time>2026-04-25T10:04:04.248Z</time></trkpt><trkpt lat="43.4988807" lon="11.4516819"><ele>617.0</ele><time>2026-04-25T10:04:06.245Z</time></trkpt><trkpt lat="43.4989484" lon="11.4517233"><ele>617.0</ele><time>2026-04-25T10:04:08.249Z</time></trkpt><trkpt lat="43.4990276" lon="11.4517508"><ele>617.0</ele><time>2026-04-25T10:04:10.243Z</time></trkpt><trkpt lat="43.499108" lon="11.4517709"><ele>617.0</ele><time>2026-04-25T10:04:12.238Z</time></trkpt><trkpt lat="43.499191" lon="11.4517764"><ele>617.0</ele><time>2026-04-25T10:04:14.244Z</time></trkpt><trkpt lat="43.4992736" lon="11.4517662"><ele>617.0</ele><time>2026-04-25T10:04:16.249Z</time></trkpt><trkpt lat="43.4993507" lon="11.4517327"><ele>617.0</ele><time>2026-04-25T10:04:18.232Z</time></trkpt><trkpt lat="43.4994356" lon="11.4516969"><ele>617.0</ele><time>2026-04-25T10:04:20.246Z</time></trkpt><trkpt lat="43.4995277" lon="11.4516434"><ele>617.0</ele><time>2026-04-25T10:04:22.242Z</time></trkpt><trkpt lat="43.4996356" lon="11.4515656"><ele>617.0</ele><time>2026-04-25T10:04:24.245Z</time></trkpt><trkpt lat="43.4996927" lon="11.4515199"><ele>617.0</ele><time>2026-04-25T10:04:25.225Z</time></trkpt><trkpt lat="43.4997454" lon="11.4514687"><ele>617.0</ele><time>2026-04-25T10:04:26.247Z</time></trkpt><trkpt lat="43.4998372" lon="11.4513738"><ele>618.6</ele><time>2026-04-25T10:04:28.234Z</time></trkpt><trkpt lat="43.499939" lon="11.4513007"><ele>620.2</ele><time>2026-04-25T10:04:30.221Z</time></trkpt><trkpt lat="43.5000386" lon="11.4512185"><ele>621.8</ele><time>2026-04-25T10:04:32.227Z</time></trkpt><trkpt lat="43.5001128" lon="11.4511159"><ele>623.4</ele><time>2026-04-25T10:04:34.217Z</time></trkpt><trkpt lat="43.5001718" lon="11.4509891"><ele>625.0</ele><time>2026-04-25T10:04:36.237Z</time></trkpt><trkpt lat="43.5002147" lon="11.4508774"><ele>625.0</ele><time>2026-04-25T10:04:38.229Z</time></trkpt><trkpt lat="43.5002945" lon="11.450846"><ele>625.0</ele><time>2026-04-25T10:04:40.226Z</time></trkpt><trkpt lat="43.5003672" lon="11.4509288"><ele>625.0</ele><time>2026-04-25T10:04:42.215Z</time></trkpt><trkpt lat="43.5004284" lon="11.4510427"><ele>625.0</ele><time>2026-04-25T10:04:44.214Z</time></trkpt><trkpt lat="43.500478" lon="11.4511747"><ele>625.0</ele><time>2026-04-25T10:04:46.221Z</time></trkpt><trkpt lat="43.5005171" lon="11.4513225"><ele>618.2</ele><time>2026-04-25T10:04:48.209Z</time></trkpt><trkpt lat="43.5005631" lon="11.4514716"><ele>611.4</ele><time>2026-04-25T10:04:50.21Z</time></trkpt><trkpt lat="43.5005868" lon="11.451624"><ele>604.6</ele><time>2026-04-25T10:04:52.218Z</time></trkpt><trkpt lat="43.5006137" lon="11.4517652"><ele>597.8</ele><time>2026-04-25T10:04:54.226Z</time></trkpt><trkpt lat="43.5006553" lon="11.4518741"><ele>591.0</ele><time>2026-04-25T10:04:56.214Z</time></trkpt><trkpt lat="43.5007131" lon="11.4519486"><ele>591.0</ele><time>2026-04-25T10:04:58.237Z</time></trkpt><trkpt lat="43.5007913" lon="11.4519772"><ele>591.0</ele><time>2026-04-25T10:05:00.228Z</time></trkpt><trkpt lat="43.5008784" lon="11.4519375"><ele>591.0</ele><time>2026-04-25T10:05:02.225Z</time></trkpt><trkpt lat="43.5009596" lon="11.4518485"><ele>591.0</ele><time>2026-04-25T10:05:04.226Z</time></trkpt><trkpt lat="43.5010527" lon="11.4517472"><ele>591.0</ele><time>2026-04-25T10:05:06.213Z</time></trkpt><trkpt lat="43.5011484" lon="11.4516911"><ele>591.0</ele><time>2026-04-25T10:05:08.224Z</time></trkpt><trkpt lat="43.5012456" lon="11.4516854"><ele>591.0</ele><time>2026-04-25T10:05:10.229Z</time></trkpt><trkpt lat="43.5013252" lon="11.4517454"><ele>591.0</ele><time>2026-04-25T10:05:12.223Z</time></trkpt><trkpt lat="43.5014147" lon="11.451841"><ele>591.0</ele><time>2026-04-25T10:05:14.212Z</time></trkpt><trkpt lat="43.5015071" lon="11.4519487"><ele>591.0</ele><time>2026-04-25T10:05:16.209Z</time></trkpt><trkpt lat="43.501587" lon="11.4520595"><ele>587.3333333333334</ele><time>2026-04-25T10:05:18.215Z</time></trkpt><trkpt lat="43.5016642" lon="11.4521897"><ele>583.6666666666666</ele><time>2026-04-25T10:05:20.215Z</time></trkpt><trkpt lat="43.5017008" lon="11.4522639"><ele>580.0</ele><time>2026-04-25T10:05:21.215Z</time></trkpt><trkpt lat="43.5017311" lon="11.4523464"><ele>576.3333333333333</ele><time>2026-04-25T10:05:22.216Z</time></trkpt><trkpt lat="43.5017599" lon="11.452428"><ele>572.6666666666666</ele><time>2026-04-25T10:05:23.223Z</time></trkpt><trkpt lat="43.5018134" lon="11.4525723"><ele>569.0</ele><time>2026-04-25T10:05:25.222Z</time></trkpt><trkpt lat="43.5018899" lon="11.4526625"><ele>569.0</ele><time>2026-04-25T10:05:27.223Z</time></trkpt><trkpt lat="43.5019838" lon="11.4526982"><ele>569.0</ele><time>2026-04-25T10:05:29.223Z</time></trkpt><trkpt lat="43.5020697" lon="11.4526655"><ele>569.0</ele><time>2026-04-25T10:05:31.217Z</time></trkpt><trkpt lat="43.5021548" lon="11.4526054"><ele>569.0</ele><time>2026-04-25T10:05:33.212Z</time></trkpt><trkpt lat="43.5022472" lon="11.4525424"><ele>569.0</ele><time>2026-04-25T10:05:35.224Z</time></trkpt><trkpt lat="43.5023537" lon="11.4524859"><ele>566.4</ele><time>2026-04-25T10:05:37.219Z</time></trkpt><trkpt lat="43.5024639" lon="11.4524462"><ele>563.8</ele><time>2026-04-25T10:05:39.22Z</time></trkpt><trkpt lat="43.5025833" lon="11.4523904"><ele>561.2</ele><time>2026-04-25T10:05:41.232Z</time></trkpt><trkpt lat="43.5027062" lon="11.4523218"><ele>558.6</ele><time>2026-04-25T10:05:43.211Z</time></trkpt><trkpt lat="43.5027617" lon="11.4522767"><ele>556.0</ele><time>2026-04-25T10:05:44.209Z</time></trkpt><trkpt lat="43.5028165" lon="11.4522295"><ele>556.0</ele><time>2026-04-25T10:05:45.213Z</time></trkpt><trkpt lat="43.5029119" lon="11.4521305"><ele>556.0</ele><time>2026-04-25T10:05:47.212Z</time></trkpt><trkpt lat="43.5029945" lon="11.4520326"><ele>556.0</ele><time>2026-04-25T10:05:49.223Z</time></trkpt><trkpt lat="43.5030799" lon="11.4519435"><ele>556.0</ele><time>2026-04-25T10:05:51.21Z</time></trkpt><trkpt lat="43.5031604" lon="11.4519019"><ele>556.0</ele><time>2026-04-25T10:05:53.22Z</time></trkpt><trkpt lat="43.5032311" lon="11.4519435"><ele>553.4285714285714</ele><time>2026-04-25T10:05:55.224Z</time></trkpt><trkpt lat="43.5032792" lon="11.4520248"><ele>550.8571428571429</ele><time>2026-04-25T10:05:57.224Z</time></trkpt><trkpt lat="43.5033129" lon="11.452101"><ele>548.2857142857143</ele><time>2026-04-25T10:05:59.244Z</time></trkpt><trkpt lat="43.5033597" lon="11.4521626"><ele>545.7142857142858</ele><time>2026-04-25T10:06:02.223Z</time></trkpt><trkpt lat="43.5033964" lon="11.4522541"><ele>543.1428571428572</ele><time>2026-04-25T10:06:06.222Z</time></trkpt><trkpt lat="43.5033278" lon="11.4521795"><ele>540.5714285714286</ele><time>2026-04-25T10:06:18.223Z</time></trkpt><trkpt lat="43.5032901" lon="11.4520965"><ele>538.0</ele><time>2026-04-25T10:06:21.226Z</time></trkpt><trkpt lat="43.5032811" lon="11.452005"><ele>537.5</ele><time>2026-04-25T10:06:24.224Z</time></trkpt><trkpt lat="43.5032412" lon="11.4518873"><ele>537.0</ele><time>2026-04-25T10:06:27.237Z</time></trkpt><trkpt lat="43.5032127" lon="11.4517979"><ele>536.5</ele><time>2026-04-25T10:06:30.239Z</time></trkpt><trkpt lat="43.5031769" lon="11.4517053"><ele>536.0</ele><time>2026-04-25T10:07:49.226Z</time></trkpt><trkpt lat="43.5031339" lon="11.4516371"><ele>535.5</ele><time>2026-04-25T10:07:52.225Z</time></trkpt><trkpt lat="43.5030735" lon="11.451587"><ele>535.0</ele><time>2026-04-25T10:07:57.236Z</time></trkpt><trkpt lat="43.5029992" lon="11.4515108"><ele>535.0</ele><time>2026-04-25T10:08:01.224Z</time></trkpt><trkpt lat="43.5029267" lon="11.4514228"><ele>535.0</ele><time>2026-04-25T10:08:04.223Z</time></trkpt><trkpt lat="43.5028924" lon="11.4513233"><ele>535.0</ele><time>2026-04-25T10:08:06.225Z</time></trkpt><trkpt lat="43.5028669" lon="11.451217"><ele>535.0</ele><time>2026-04-25T10:08:08.219Z</time></trkpt><trkpt lat="43.5028646" lon="11.4511039"><ele>535.0</ele><time>2026-04-25T10:08:10.221Z</time></trkpt><trkpt lat="43.5028752" lon="11.4509939"><ele>535.0</ele><time>2026-04-25T10:08:12.223Z</time></trkpt><trkpt lat="43.5029077" lon="11.4508796"><ele>535.0</ele><time>2026-04-25T10:08:14.228Z</time></trkpt><trkpt lat="43.502952" lon="11.4507668"><ele>535.0</ele><time>2026-04-25T10:08:16.223Z</time></trkpt><trkpt lat="43.5029804" lon="11.4506451"><ele>535.0</ele><time>2026-04-25T10:08:18.218Z</time></trkpt><trkpt lat="43.5030264" lon="11.4505234"><ele>535.0</ele><time>2026-04-25T10:08:20.213Z</time></trkpt><trkpt lat="43.5030806" lon="11.4504287"><ele>535.0</ele><time>2026-04-25T10:08:22.211Z</time></trkpt><trkpt lat="43.5031498" lon="11.4503501"><ele>535.0</ele><time>2026-04-25T10:08:24.214Z</time></trkpt><trkpt lat="43.5032259" lon="11.4502897"><ele>535.0</ele><time>2026-04-25T10:08:26.222Z</time></trkpt><trkpt lat="43.5033046" lon="11.4502308"><ele>535.0</ele><time>2026-04-25T10:08:28.221Z</time></trkpt><trkpt lat="43.5033754" lon="11.4501473"><ele>535.0</ele><time>2026-04-25T10:08:30.221Z</time></trkpt><trkpt lat="43.5034628" lon="11.4500521"><ele>535.0</ele><time>2026-04-25T10:08:32.226Z</time></trkpt><trkpt lat="43.5035503" lon="11.4499483"><ele>535.0</ele><time>2026-04-25T10:08:34.231Z</time></trkpt><trkpt lat="43.5036189" lon="11.449839"><ele>535.0</ele><time>2026-04-25T10:08:36.214Z</time></trkpt><trkpt lat="43.5036788" lon="11.4497523"><ele>535.0</ele><time>2026-04-25T10:08:38.232Z</time></trkpt><trkpt lat="43.5037371" lon="11.4496668"><ele>535.0</ele><time>2026-04-25T10:08:40.216Z</time></trkpt><trkpt lat="43.5037838" lon="11.4495512"><ele>535.0</ele><time>2026-04-25T10:08:42.217Z</time></trkpt><trkpt lat="43.5038106" lon="11.4494235"><ele>533.0</ele><time>2026-04-25T10:08:44.222Z</time></trkpt><trkpt lat="43.5038095" lon="11.4492877"><ele>531.0</ele><time>2026-04-25T10:08:46.214Z</time></trkpt><trkpt lat="43.5038076" lon="11.4491491"><ele>529.0</ele><time>2026-04-25T10:08:48.208Z</time></trkpt><trkpt lat="43.5038006" lon="11.4490013"><ele>527.0</ele><time>2026-04-25T10:08:50.211Z</time></trkpt><trkpt lat="43.5037944" lon="11.448849"><ele>525.0</ele><time>2026-04-25T10:08:52.21Z</time></trkpt><trkpt lat="43.503799" lon="11.4486974"><ele>525.0</ele><time>2026-04-25T10:08:54.208Z</time></trkpt><trkpt lat="43.5038229" lon="11.4485655"><ele>525.0</ele><time>2026-04-25T10:08:56.223Z</time></trkpt><trkpt lat="43.5038609" lon="11.448449"><ele>525.0</ele><time>2026-04-25T10:08:58.216Z</time></trkpt><trkpt lat="43.5038966" lon="11.4483604"><ele>525.0</ele><time>2026-04-25T10:09:00.215Z</time></trkpt><trkpt lat="43.503933" lon="11.4482621"><ele>525.0</ele><time>2026-04-25T10:09:03.217Z</time></trkpt><trkpt lat="43.5039851" lon="11.4482112"><ele>525.0</ele><time>2026-04-25T10:09:07.22Z</time></trkpt><trkpt lat="43.5040492" lon="11.4482323"><ele>525.0</ele><time>2026-04-25T10:09:10.214Z</time></trkpt><trkpt lat="43.5041052" lon="11.4483153"><ele>525.0</ele><time>2026-04-25T10:09:13.217Z</time></trkpt><trkpt lat="43.5041529" lon="11.4483812"><ele>525.0</ele><time>2026-04-25T10:09:15.22Z</time></trkpt><trkpt lat="43.5042403" lon="11.4484332"><ele>525.0</ele><time>2026-04-25T10:09:18.225Z</time></trkpt><trkpt lat="43.5042984" lon="11.4484726"><ele>525.0</ele><time>2026-04-25T10:09:20.225Z</time></trkpt><trkpt lat="43.5043581" lon="11.4485445"><ele>525.0</ele><time>2026-04-25T10:09:23.221Z</time></trkpt><trkpt lat="43.504418" lon="11.4486086"><ele>525.0</ele><time>2026-04-25T10:09:26.223Z</time></trkpt><trkpt lat="43.5044927" lon="11.4486622"><ele>525.0</ele><time>2026-04-25T10:09:30.222Z</time></trkpt><trkpt lat="43.5045486" lon="11.4487164"><ele>525.0</ele><time>2026-04-25T10:09:33.24Z</time></trkpt><trkpt lat="43.5045945" lon="11.4487843"><ele>525.0</ele><time>2026-04-25T10:09:36.238Z</time></trkpt><trkpt lat="43.5046421" lon="11.4488855"><ele>525.0</ele><time>2026-04-25T10:09:39.228Z</time></trkpt><trkpt lat="43.5046826" lon="11.4489696"><ele>525.0</ele><time>2026-04-25T10:09:42.222Z</time></trkpt><trkpt lat="43.5047439" lon="11.4490292"><ele>524.6666666666666</ele><time>2026-04-25T10:09:45.229Z</time></trkpt><trkpt lat="43.504807" lon="11.4491122"><ele>524.3333333333334</ele><time>2026-04-25T10:09:48.217Z</time></trkpt><trkpt lat="43.5048846" lon="11.4491637"><ele>524.0</ele><time>2026-04-25T10:09:51.22Z</time></trkpt><trkpt lat="43.5049517" lon="11.4492062"><ele>523.6666666666667</ele><time>2026-04-25T10:09:54.22Z</time></trkpt><trkpt lat="43.505022" lon="11.4492291"><ele>523.3333333333334</ele><time>2026-04-25T10:09:57.229Z</time></trkpt><trkpt lat="43.5050917" lon="11.4492494"><ele>523.0</ele><time>2026-04-25T10:10:00.22Z</time></trkpt><trkpt lat="43.5051603" lon="11.4492541"><ele>523.0</ele><time>2026-04-25T10:10:03.228Z</time></trkpt><trkpt lat="43.5052379" lon="11.4493048"><ele>523.0</ele><time>2026-04-25T10:10:07.234Z</time></trkpt><trkpt lat="43.5053099" lon="11.4493611"><ele>523.0</ele><time>2026-04-25T10:10:10.223Z</time></trkpt><trkpt lat="43.5053854" lon="11.4494319"><ele>523.0</ele><time>2026-04-25T10:10:13.228Z</time></trkpt><trkpt lat="43.505447" lon="11.4494695"><ele>523.0</ele><time>2026-04-25T10:10:15.224Z</time></trkpt><trkpt lat="43.5055344" lon="11.4495128"><ele>523.0</ele><time>2026-04-25T10:10:18.218Z</time></trkpt><trkpt lat="43.5056164" lon="11.4495181"><ele>523.8333333333334</ele><time>2026-04-25T10:10:21.23Z</time></trkpt><trkpt lat="43.5057001" lon="11.4494741"><ele>524.6666666666667</ele><time>2026-04-25T10:10:24.22Z</time></trkpt><trkpt lat="43.5057612" lon="11.4494288"><ele>525.5</ele><time>2026-04-25T10:10:26.228Z</time></trkpt><trkpt lat="43.505828" lon="11.4493634"><ele>526.3333333333334</ele><time>2026-04-25T10:10:29.23Z</time></trkpt><trkpt lat="43.5058801" lon="11.4493012"><ele>527.1666666666666</ele><time>2026-04-25T10:10:32.226Z</time></trkpt><trkpt lat="43.5059448" lon="11.4492165"><ele>528.0</ele><time>2026-04-25T10:10:35.215Z</time></trkpt><trkpt lat="43.5059852" lon="11.4491386"><ele>528.0</ele><time>2026-04-25T10:10:37.22Z</time></trkpt><trkpt lat="43.5060291" lon="11.449054"><ele>528.0</ele><time>2026-04-25T10:10:39.225Z</time></trkpt><trkpt lat="43.5060839" lon="11.4489815"><ele>528.0</ele><time>2026-04-25T10:10:41.219Z</time></trkpt><trkpt lat="43.506144" lon="11.4489233"><ele>528.0</ele><time>2026-04-25T10:10:43.226Z</time></trkpt><trkpt lat="43.5062026" lon="11.448879"><ele>528.0</ele><time>2026-04-25T10:10:45.221Z</time></trkpt><trkpt lat="43.5062603" lon="11.4488419"><ele>528.0</ele><time>2026-04-25T10:10:47.218Z</time></trkpt><trkpt lat="43.5063246" lon="11.4488206"><ele>528.0</ele><time>2026-04-25T10:10:50.222Z</time></trkpt><trkpt lat="43.5064115" lon="11.4487913"><ele>527.5714285714286</ele><time>2026-04-25T10:10:53.217Z</time></trkpt><trkpt lat="43.5064747" lon="11.4487797"><ele>527.1428571428571</ele><time>2026-04-25T10:10:55.22Z</time></trkpt><trkpt lat="43.5065544" lon="11.4487745"><ele>526.7142857142858</ele><time>2026-04-25T10:10:57.228Z</time></trkpt><trkpt lat="43.5066271" lon="11.4488255"><ele>526.2857142857142</ele><time>2026-04-25T10:10:59.235Z</time></trkpt><trkpt lat="43.5066606" lon="11.4489069"><ele>525.8571428571429</ele><time>2026-04-25T10:11:01.222Z</time></trkpt><trkpt lat="43.5066607" lon="11.4489947"><ele>525.4285714285714</ele><time>2026-04-25T10:11:03.228Z</time></trkpt><trkpt lat="43.506649" lon="11.4490827"><ele>525.0</ele><time>2026-04-25T10:11:05.226Z</time></trkpt><trkpt lat="43.5066522" lon="11.4491884"><ele>525.0</ele><time>2026-04-25T10:11:08.227Z</time></trkpt><trkpt lat="43.506693" lon="11.4492957"><ele>525.0</ele><time>2026-04-25T10:11:11.222Z</time></trkpt><trkpt lat="43.5067357" lon="11.4493783"><ele>525.0</ele><time>2026-04-25T10:11:13.223Z</time></trkpt><trkpt lat="43.5067684" lon="11.4494526"><ele>525.0</ele><time>2026-04-25T10:11:15.219Z</time></trkpt><trkpt lat="43.5068298" lon="11.4495162"><ele>525.0</ele><time>2026-04-25T10:11:18.211Z</time></trkpt><trkpt lat="43.5068999" lon="11.4495603"><ele>525.0</ele><time>2026-04-25T10:11:21.21Z</time></trkpt><trkpt lat="43.506962" lon="11.4495944"><ele>525.0</ele><time>2026-04-25T10:11:23.208Z</time></trkpt><trkpt lat="43.5070288" lon="11.4496105"><ele>523.6666666666666</ele><time>2026-04-25T10:11:25.208Z</time></trkpt><trkpt lat="43.5070911" lon="11.4496998"><ele>522.3333333333334</ele><time>2026-04-25T10:11:28.206Z</time></trkpt><trkpt lat="43.5070982" lon="11.4497918"><ele>521.0</ele><time>2026-04-25T10:11:31.212Z</time></trkpt><trkpt lat="43.5070275" lon="11.4498639"><ele>519.6666666666667</ele><time>2026-04-25T10:11:35.217Z</time></trkpt><trkpt lat="43.5069772" lon="11.44996"><ele>518.3333333333334</ele><time>2026-04-25T10:11:38.223Z</time></trkpt><trkpt lat="43.5069497" lon="11.450065"><ele>517.0</ele><time>2026-04-25T10:11:41.22Z</time></trkpt><trkpt lat="43.5069388" lon="11.4501542"><ele>517.0</ele><time>2026-04-25T10:11:43.223Z</time></trkpt><trkpt lat="43.5069587" lon="11.4502607"><ele>517.0</ele><time>2026-04-25T10:11:46.218Z</time></trkpt><trkpt lat="43.5069741" lon="11.4503542"><ele>517.0</ele><time>2026-04-25T10:11:49.225Z</time></trkpt><trkpt lat="43.506965" lon="11.4504627"><ele>517.0</ele><time>2026-04-25T10:11:53.231Z</time></trkpt><trkpt lat="43.5069537" lon="11.4505651"><ele>517.0</ele><time>2026-04-25T10:11:56.229Z</time></trkpt><trkpt lat="43.5069301" lon="11.4506593"><ele>517.0</ele><time>2026-04-25T10:11:59.226Z</time></trkpt><trkpt lat="43.5069303" lon="11.4507662"><ele>517.0</ele><time>2026-04-25T10:12:02.225Z</time></trkpt><trkpt lat="43.5069052" lon="11.4508605"><ele>517.0</ele><time>2026-04-25T10:12:05.223Z</time></trkpt><trkpt lat="43.5069029" lon="11.4509727"><ele>517.0</ele><time>2026-04-25T10:12:08.224Z</time></trkpt><trkpt lat="43.5069008" lon="11.4510628"><ele>517.0</ele><time>2026-04-25T10:12:10.225Z</time></trkpt><trkpt lat="43.5068994" lon="11.4511599"><ele>517.0</ele><time>2026-04-25T10:12:12.228Z</time></trkpt><trkpt lat="43.50688" lon="11.4512723"><ele>517.0</ele><time>2026-04-25T10:12:14.229Z</time></trkpt><trkpt lat="43.5068581" lon="11.4514017"><ele>517.0</ele><time>2026-04-25T10:12:16.228Z</time></trkpt><trkpt lat="43.5068734" lon="11.4515341"><ele>517.0</ele><time>2026-04-25T10:12:18.217Z</time></trkpt><trkpt lat="43.5069319" lon="11.4516466"><ele>517.0</ele><time>2026-04-25T10:12:20.225Z</time></trkpt><trkpt lat="43.5070158" lon="11.4517046"><ele>517.0</ele><time>2026-04-25T10:12:22.222Z</time></trkpt><trkpt lat="43.5071121" lon="11.4516974"><ele>517.0</ele><time>2026-04-25T10:12:24.231Z</time></trkpt><trkpt lat="43.5071986" lon="11.4516765"><ele>517.0</ele><time>2026-04-25T10:12:26.226Z</time></trkpt><trkpt lat="43.507267" lon="11.4516672"><ele>517.0</ele><time>2026-04-25T10:12:28.225Z</time></trkpt><trkpt lat="43.5073342" lon="11.4516983"><ele>517.0</ele><time>2026-04-25T10:12:30.224Z</time></trkpt><trkpt lat="43.5074206" lon="11.4517505"><ele>517.0</ele><time>2026-04-25T10:12:32.22Z</time></trkpt><trkpt lat="43.5075093" lon="11.4518007"><ele>517.0</ele><time>2026-04-25T10:12:34.217Z</time></trkpt><trkpt lat="43.5075928" lon="11.451816"><ele>517.0</ele><time>2026-04-25T10:12:36.225Z</time></trkpt><trkpt lat="43.507658" lon="11.4518097"><ele>517.0</ele><time>2026-04-25T10:12:38.227Z</time></trkpt><trkpt lat="43.5077255" lon="11.4517502"><ele>517.0</ele><time>2026-04-25T10:12:41.139Z</time></trkpt><trkpt lat="43.5077903" lon="11.4516933"><ele>517.0</ele><time>2026-04-25T10:12:44.232Z</time></trkpt><trkpt lat="43.5078775" lon="11.4516735"><ele>517.0</ele><time>2026-04-25T10:12:47.223Z</time></trkpt><trkpt lat="43.5079617" lon="11.4516746"><ele>517.0</ele><time>2026-04-25T10:12:50.235Z</time></trkpt><trkpt lat="43.5080454" lon="11.451697"><ele>517.0</ele><time>2026-04-25T10:12:53.229Z</time></trkpt><trkpt lat="43.5081268" lon="11.4517285"><ele>517.8333333333334</ele><time>2026-04-25T10:12:56.175Z</time></trkpt><trkpt lat="43.5081884" lon="11.4517827"><ele>518.6666666666667</ele><time>2026-04-25T10:12:58.719Z</time></trkpt><trkpt lat="43.508266" lon="11.4518748"><ele>519.5</ele><time>2026-04-25T10:13:01.211Z</time></trkpt><trkpt lat="43.5083393" lon="11.4519563"><ele>520.3333333333334</ele><time>2026-04-25T10:13:03.205Z</time></trkpt><trkpt lat="43.5084026" lon="11.4520181"><ele>521.1666666666666</ele><time>2026-04-25T10:13:05.182Z</time></trkpt><trkpt lat="43.5084915" lon="11.4520255"><ele>522.0</ele><time>2026-04-25T10:13:08.224Z</time></trkpt><trkpt lat="43.508568" lon="11.4520352"><ele>522.0</ele><time>2026-04-25T10:13:11.223Z</time></trkpt><trkpt lat="43.5086537" lon="11.4520728"><ele>522.0</ele><time>2026-04-25T10:13:14.229Z</time></trkpt><trkpt lat="43.508733" lon="11.4520875"><ele>522.0</ele><time>2026-04-25T10:13:16.222Z</time></trkpt><trkpt lat="43.5088112" lon="11.4521019"><ele>522.0</ele><time>2026-04-25T10:13:18.227Z</time></trkpt><trkpt lat="43.5088766" lon="11.452118"><ele>522.0</ele><time>2026-04-25T10:13:20.231Z</time></trkpt><trkpt lat="43.5089514" lon="11.4521263"><ele>522.0</ele><time>2026-04-25T10:13:22.213Z</time></trkpt><trkpt lat="43.5090434" lon="11.4521353"><ele>522.0</ele><time>2026-04-25T10:13:24.219Z</time></trkpt><trkpt lat="43.5091444" lon="11.4521317"><ele>522.0</ele><time>2026-04-25T10:13:26.257Z</time></trkpt><trkpt lat="43.5092401" lon="11.4521296"><ele>522.0</ele><time>2026-04-25T10:13:28.234Z</time></trkpt><trkpt lat="43.5093382" lon="11.4521242"><ele>522.0</ele><time>2026-04-25T10:13:30.226Z</time></trkpt><trkpt lat="43.5094325" lon="11.4521135"><ele>522.0</ele><time>2026-04-25T10:13:32.213Z</time></trkpt><trkpt lat="43.5095283" lon="11.4521071"><ele>517.5</ele><time>2026-04-25T10:13:34.218Z</time></trkpt><trkpt lat="43.5096214" lon="11.4521496"><ele>513.0</ele><time>2026-04-25T10:13:36.228Z</time></trkpt><trkpt lat="43.5097102" lon="11.4521946"><ele>508.5</ele><time>2026-04-25T10:13:38.22Z</time></trkpt><trkpt lat="43.5097837" lon="11.4522614"><ele>504.0</ele><time>2026-04-25T10:13:40.229Z</time></trkpt><trkpt lat="43.5098447" lon="11.4523264"><ele>499.5</ele><time>2026-04-25T10:13:43.223Z</time></trkpt><trkpt lat="43.5098918" lon="11.4522462"><ele>495.0</ele><time>2026-04-25T10:14:34.226Z</time></trkpt><trkpt lat="43.5099572" lon="11.4522112"><ele>494.99999999999994</ele><time>2026-04-25T10:14:38.23Z</time></trkpt><trkpt lat="43.51002" lon="11.4521726"><ele>495.0</ele><time>2026-04-25T10:14:42.224Z</time></trkpt><trkpt lat="43.5100853" lon="11.4521318"><ele>494.99999999999994</ele><time>2026-04-25T10:14:45.24Z</time></trkpt><trkpt lat="43.5101442" lon="11.4520961"><ele>494.99999999999994</ele><time>2026-04-25T10:14:48.232Z</time></trkpt><trkpt lat="43.5102006" lon="11.4520394"><ele>495.0</ele><time>2026-04-25T10:14:51.235Z</time></trkpt><trkpt lat="43.510255" lon="11.451962"><ele>494.99999999999994</ele><time>2026-04-25T10:14:54.233Z</time></trkpt><trkpt lat="43.510308" lon="11.4518932"><ele>494.99999999999994</ele><time>2026-04-25T10:14:56.235Z</time></trkpt><trkpt lat="43.5103474" lon="11.4517982"><ele>497.3333333333333</ele><time>2026-04-25T10:14:58.243Z</time></trkpt><trkpt lat="43.5103864" lon="11.4516916"><ele>499.66666666666663</ele><time>2026-04-25T10:15:00.242Z</time></trkpt><trkpt lat="43.5104059" lon="11.4515679"><ele>502.0</ele><time>2026-04-25T10:15:03.239Z</time></trkpt><trkpt lat="43.5104067" lon="11.4514389"><ele>504.3333333333333</ele><time>2026-04-25T10:15:06.234Z</time></trkpt><trkpt lat="43.5103827" lon="11.4513546"><ele>506.66666666666663</ele><time>2026-04-25T10:15:08.227Z</time></trkpt><trkpt lat="43.5103402" lon="11.4512834"><ele>509.0</ele><time>2026-04-25T10:15:10.23Z</time></trkpt><trkpt lat="43.5103073" lon="11.4511756"><ele>507.49999999999994</ele><time>2026-04-25T10:15:15.238Z</time></trkpt><trkpt lat="43.5103346" lon="11.4510931"><ele>506.0</ele><time>2026-04-25T10:15:18.231Z</time></trkpt><trkpt lat="43.5104004" lon="11.4510095"><ele>504.5</ele><time>2026-04-25T10:15:21.226Z</time></trkpt><trkpt lat="43.5104654" lon="11.4509255"><ele>503.0</ele><time>2026-04-25T10:15:24.218Z</time></trkpt><trkpt lat="43.5105155" lon="11.450825"><ele>501.49999999999994</ele><time>2026-04-25T10:15:27.225Z</time></trkpt><trkpt lat="43.5105671" lon="11.450727"><ele>500.0</ele><time>2026-04-25T10:15:30.224Z</time></trkpt><trkpt lat="43.5106008" lon="11.4506454"><ele>500.0</ele><time>2026-04-25T10:15:33.22Z</time></trkpt><trkpt lat="43.5106381" lon="11.4505579"><ele>500.0</ele><time>2026-04-25T10:15:36.22Z</time></trkpt><trkpt lat="43.5106884" lon="11.4504897"><ele>500.0</ele><time>2026-04-25T10:15:39.225Z</time></trkpt><trkpt lat="43.5107467" lon="11.4504566"><ele>500.0</ele><time>2026-04-25T10:15:42.22Z</time></trkpt><trkpt lat="43.5108133" lon="11.45044"><ele>500.0</ele><time>2026-04-25T10:15:45.229Z</time></trkpt><trkpt lat="43.5108706" lon="11.4503764"><ele>500.0</ele><time>2026-04-25T10:15:48.223Z</time></trkpt><trkpt lat="43.5109266" lon="11.4503139"><ele>500.0</ele><time>2026-04-25T10:15:51.229Z</time></trkpt><trkpt lat="43.5109865" lon="11.4502495"><ele>501.8333333333333</ele><time>2026-04-25T10:15:54.231Z</time></trkpt><trkpt lat="43.5109914" lon="11.4501502"><ele>503.66666666666663</ele><time>2026-04-25T10:15:58.233Z</time></trkpt><trkpt lat="43.5109898" lon="11.4500492"><ele>505.5</ele><time>2026-04-25T10:16:01.228Z</time></trkpt><trkpt lat="43.5110157" lon="11.4499562"><ele>507.33333333333337</ele><time>2026-04-25T10:16:04.228Z</time></trkpt><trkpt lat="43.511038" lon="11.4498723"><ele>509.1666666666667</ele><time>2026-04-25T10:16:07.223Z</time></trkpt><trkpt lat="43.5110785" lon="11.4497735"><ele>511.0</ele><time>2026-04-25T10:16:10.224Z</time></trkpt><trkpt lat="43.5111425" lon="11.4496962"><ele>511.00000000000006</ele><time>2026-04-25T10:16:13.221Z</time></trkpt><trkpt lat="43.5112032" lon="11.4497425"><ele>511.0</ele><time>2026-04-25T10:16:16.229Z</time></trkpt><trkpt lat="43.5112621" lon="11.4498147"><ele>511.0</ele><time>2026-04-25T10:16:19.224Z</time></trkpt><trkpt lat="43.5113106" lon="11.4499214"><ele>511.0</ele><time>2026-04-25T10:16:22.226Z</time></trkpt><trkpt lat="43.5113519" lon="11.4500233"><ele>511.00000000000006</ele><time>2026-04-25T10:16:25.224Z</time></trkpt><trkpt lat="43.5114057" lon="11.450126"><ele>511.0</ele><time>2026-04-25T10:16:28.226Z</time></trkpt><trkpt lat="43.5114615" lon="11.4501883"><ele>508.6666666666667</ele><time>2026-04-25T10:16:31.238Z</time></trkpt><trkpt lat="43.5115353" lon="11.4502071"><ele>506.33333333333337</ele><time>2026-04-25T10:16:34.226Z</time></trkpt><trkpt lat="43.5116062" lon="11.4501997"><ele>504.0</ele><time>2026-04-25T10:16:36.226Z</time></trkpt><trkpt lat="43.511668" lon="11.4501629"><ele>501.66666666666663</ele><time>2026-04-25T10:16:38.226Z</time></trkpt><trkpt lat="43.5117505" lon="11.4501242"><ele>499.3333333333333</ele><time>2026-04-25T10:16:41.229Z</time></trkpt><trkpt lat="43.5117917" lon="11.4500354"><ele>497.0</ele><time>2026-04-25T10:16:44.236Z</time></trkpt><trkpt lat="43.5118243" lon="11.449929"><ele>496.99999999999994</ele><time>2026-04-25T10:16:47.227Z</time></trkpt><trkpt lat="43.5118328" lon="11.4498274"><ele>497.0</ele><time>2026-04-25T10:16:50.22Z</time></trkpt><trkpt lat="43.5118531" lon="11.4497359"><ele>497.0</ele><time>2026-04-25T10:17:00.232Z</time></trkpt><trkpt lat="43.5118941" lon="11.4496491"><ele>497.0</ele><time>2026-04-25T10:17:09.225Z</time></trkpt><trkpt lat="43.5119235" lon="11.4495599"><ele>496.99999999999994</ele><time>2026-04-25T10:17:12.22Z</time></trkpt><trkpt lat="43.5119666" lon="11.4494567"><ele>497.0</ele><time>2026-04-25T10:17:15.225Z</time></trkpt><trkpt lat="43.5120269" lon="11.4493961"><ele>497.99999999999994</ele><time>2026-04-25T10:17:19.213Z</time></trkpt><trkpt lat="43.5121047" lon="11.4493997"><ele>499.0</ele><time>2026-04-25T10:17:24.221Z</time></trkpt><trkpt lat="43.5121694" lon="11.4494735"><ele>500.0</ele><time>2026-04-25T10:17:28.229Z</time></trkpt><trkpt lat="43.512238" lon="11.4494892"><ele>501.0</ele><time>2026-04-25T10:17:32.224Z</time></trkpt><trkpt lat="43.5122985" lon="11.4495279"><ele>501.99999999999994</ele><time>2026-04-25T10:17:36.211Z</time></trkpt><trkpt lat="43.5123685" lon="11.4495494"><ele>503.0</ele><time>2026-04-25T10:17:39.212Z</time></trkpt><trkpt lat="43.5124486" lon="11.4495883"><ele>503.0</ele><time>2026-04-25T10:17:42.209Z</time></trkpt><trkpt lat="43.5125102" lon="11.4496075"><ele>503.00000000000006</ele><time>2026-04-25T10:17:44.21Z</time></trkpt><trkpt lat="43.5125871" lon="11.4496378"><ele>503.0</ele><time>2026-04-25T10:17:47.216Z</time></trkpt><trkpt lat="43.5126723" lon="11.4496857"><ele>503.0</ele><time>2026-04-25T10:17:50.222Z</time></trkpt><trkpt lat="43.5127404" lon="11.4497298"><ele>503.00000000000006</ele><time>2026-04-25T10:17:53.22Z</time></trkpt><trkpt lat="43.5127797" lon="11.4497992"><ele>503.0</ele><time>2026-04-25T10:17:56.225Z</time></trkpt><trkpt lat="43.5128292" lon="11.4498708"><ele>503.0</ele><time>2026-04-25T10:17:59.214Z</time></trkpt><trkpt lat="43.5128795" lon="11.4499287"><ele>502.66666666666663</ele><time>2026-04-25T10:18:02.222Z</time></trkpt><trkpt lat="43.5129405" lon="11.449989"><ele>502.3333333333333</ele><time>2026-04-25T10:18:07.22Z</time></trkpt><trkpt lat="43.5130149" lon="11.4500089"><ele>502.0</ele><time>2026-04-25T10:18:11.219Z</time></trkpt><trkpt lat="43.5130973" lon="11.4500347"><ele>501.66666666666663</ele><time>2026-04-25T10:18:15.226Z</time></trkpt><trkpt lat="43.5131572" lon="11.4500858"><ele>501.3333333333333</ele><time>2026-04-25T10:18:18.213Z</time></trkpt><trkpt lat="43.5132294" lon="11.4501021"><ele>501.0</ele><time>2026-04-25T10:18:22.232Z</time></trkpt><trkpt lat="43.5133099" lon="11.4500805"><ele>501.0</ele><time>2026-04-25T10:18:26.23Z</time></trkpt><trkpt lat="43.513372" lon="11.4500202"><ele>501.0</ele><time>2026-04-25T10:18:30.225Z</time></trkpt><trkpt lat="43.5134502" lon="11.4499674"><ele>501.0</ele><time>2026-04-25T10:18:34.243Z</time></trkpt><trkpt lat="43.5135076" lon="11.4499071"><ele>501.0</ele><time>2026-04-25T10:18:37.226Z</time></trkpt><trkpt lat="43.5135701" lon="11.4498492"><ele>501.0</ele><time>2026-04-25T10:18:40.228Z</time></trkpt><trkpt lat="43.513611" lon="11.4497798"><ele>501.0</ele><time>2026-04-25T10:18:43.228Z</time></trkpt><trkpt lat="43.5136455" lon="11.44969"><ele>501.0</ele><time>2026-04-25T10:18:47.233Z</time></trkpt><trkpt lat="43.5136942" lon="11.4496209"><ele>503.8333333333333</ele><time>2026-04-25T10:18:50.232Z</time></trkpt><trkpt lat="43.5137485" lon="11.4495589"><ele>506.66666666666663</ele><time>2026-04-25T10:18:53.225Z</time></trkpt><trkpt lat="43.5138123" lon="11.4494804"><ele>509.5</ele><time>2026-04-25T10:18:56.229Z</time></trkpt><trkpt lat="43.51389" lon="11.4494185"><ele>512.3333333333333</ele><time>2026-04-25T10:18:59.231Z</time></trkpt><trkpt lat="43.5139526" lon="11.4494005"><ele>515.1666666666666</ele><time>2026-04-25T10:19:01.226Z</time></trkpt><trkpt lat="43.5140165" lon="11.4494065"><ele>518.0</ele><time>2026-04-25T10:19:03.224Z</time></trkpt><trkpt lat="43.5140979" lon="11.4493903"><ele>518.0</ele><time>2026-04-25T10:19:06.219Z</time></trkpt><trkpt lat="43.5141715" lon="11.4494155"><ele>518.0</ele><time>2026-04-25T10:19:08.226Z</time></trkpt><trkpt lat="43.5142459" lon="11.4494313"><ele>518.0</ele><time>2026-04-25T10:19:10.216Z</time></trkpt><trkpt lat="43.5143367" lon="11.449443"><ele>518.0</ele><time>2026-04-25T10:19:13.223Z</time></trkpt><trkpt lat="43.5144026" lon="11.449424"><ele>518.0</ele><time>2026-04-25T10:19:16.227Z</time></trkpt><trkpt lat="43.5144777" lon="11.4494107"><ele>518.0</ele><time>2026-04-25T10:19:19.219Z</time></trkpt><trkpt lat="43.5145419" lon="11.4494236"><ele>517.1428571428571</ele><time>2026-04-25T10:19:21.222Z</time></trkpt><trkpt lat="43.5146129" lon="11.4494282"><ele>516.2857142857142</ele><time>2026-04-25T10:19:23.226Z</time></trkpt><trkpt lat="43.5146828" lon="11.4494364"><ele>515.4285714285714</ele><time>2026-04-25T10:19:27.217Z</time></trkpt><trkpt lat="43.5147649" lon="11.4494626"><ele>514.5714285714286</ele><time>2026-04-25T10:19:31.222Z</time></trkpt><trkpt lat="43.5148443" lon="11.4494787"><ele>513.7142857142857</ele><time>2026-04-25T10:19:34.223Z</time></trkpt><trkpt lat="43.5149144" lon="11.4494828"><ele>512.8571428571429</ele><time>2026-04-25T10:19:37.218Z</time></trkpt><trkpt lat="43.5149754" lon="11.4495054"><ele>512.0</ele><time>2026-04-25T10:19:40.22Z</time></trkpt><trkpt lat="43.5150517" lon="11.4495464"><ele>512.0</ele><time>2026-04-25T10:19:43.226Z</time></trkpt><trkpt lat="43.515136" lon="11.44957"><ele>511.99999999999994</ele><time>2026-04-25T10:19:46.222Z</time></trkpt><trkpt lat="43.5152009" lon="11.4495374"><ele>512.0</ele><time>2026-04-25T10:19:48.229Z</time></trkpt><trkpt lat="43.5152675" lon="11.4495285"><ele>512.0</ele><time>2026-04-25T10:19:51.223Z</time></trkpt><trkpt lat="43.5153119" lon="11.4495918"><ele>511.99999999999994</ele><time>2026-04-25T10:19:55.244Z</time></trkpt><trkpt lat="43.5153514" lon="11.4496725"><ele>512.0</ele><time>2026-04-25T10:19:59.241Z</time></trkpt><trkpt lat="43.5153547" lon="11.4497681"><ele>512.0</ele><time>2026-04-25T10:20:04.229Z</time></trkpt><trkpt lat="43.5153869" lon="11.4498772"><ele>511.66666666666663</ele><time>2026-04-25T10:20:37.232Z</time></trkpt><trkpt lat="43.5154019" lon="11.4500034"><ele>511.3333333333333</ele><time>2026-04-25T10:20:40.229Z</time></trkpt><trkpt lat="43.5154005" lon="11.4500982"><ele>511.0</ele><time>2026-04-25T10:20:42.235Z</time></trkpt><trkpt lat="43.5154045" lon="11.4502161"><ele>510.66666666666663</ele><time>2026-04-25T10:20:45.232Z</time></trkpt><trkpt lat="43.5154109" lon="11.4503063"><ele>510.3333333333333</ele><time>2026-04-25T10:20:47.227Z</time></trkpt><trkpt lat="43.5154234" lon="11.4504218"><ele>510.0</ele><time>2026-04-25T10:20:50.233Z</time></trkpt><trkpt lat="43.5154681" lon="11.4505075"><ele>508.28571428571433</ele><time>2026-04-25T10:20:53.225Z</time></trkpt><trkpt lat="43.5155359" lon="11.450575"><ele>506.5714285714286</ele><time>2026-04-25T10:20:57.235Z</time></trkpt><trkpt lat="43.5155884" lon="11.4506319"><ele>504.8571428571429</ele><time>2026-04-25T10:21:01.22Z</time></trkpt><trkpt lat="43.5156596" lon="11.4506584"><ele>503.1428571428571</ele><time>2026-04-25T10:21:05.231Z</time></trkpt><trkpt lat="43.5157304" lon="11.4506788"><ele>501.4285714285714</ele><time>2026-04-25T10:21:14.234Z</time></trkpt><trkpt lat="43.5157958" lon="11.4506691"><ele>499.71428571428567</ele><time>2026-04-25T10:21:18.234Z</time></trkpt><trkpt lat="43.5158672" lon="11.4506626"><ele>498.0</ele><time>2026-04-25T10:21:22.23Z</time></trkpt><trkpt lat="43.5159332" lon="11.4506652"><ele>498.0</ele><time>2026-04-25T10:21:25.229Z</time></trkpt><trkpt lat="43.5160014" lon="11.4506368"><ele>497.99999999999994</ele><time>2026-04-25T10:21:29.232Z</time></trkpt><trkpt lat="43.5160748" lon="11.450609"><ele>498.0</ele><time>2026-04-25T10:21:32.235Z</time></trkpt><trkpt lat="43.5161494" lon="11.4506035"><ele>498.0</ele><time>2026-04-25T10:21:35.229Z</time></trkpt><trkpt lat="43.5162147" lon="11.4505822"><ele>497.99999999999994</ele><time>2026-04-25T10:21:38.232Z</time></trkpt><trkpt lat="43.5162824" lon="11.4505666"><ele>498.0</ele><time>2026-04-25T10:21:41.224Z</time></trkpt><trkpt lat="43.5163683" lon="11.4505446"><ele>498.0</ele><time>2026-04-25T10:21:45.226Z</time></trkpt><trkpt lat="43.516433" lon="11.4505388"><ele>499.57142857142856</ele><time>2026-04-25T10:21:48.218Z</time></trkpt><trkpt lat="43.5164978" lon="11.4505362"><ele>501.1428571428571</ele><time>2026-04-25T10:21:51.215Z</time></trkpt><trkpt lat="43.5165691" lon="11.4505276"><ele>502.71428571428567</ele><time>2026-04-25T10:21:54.222Z</time></trkpt><trkpt lat="43.51664" lon="11.4505172"><ele>504.2857142857142</ele><time>2026-04-25T10:21:57.22Z</time></trkpt><trkpt lat="43.516699" lon="11.4505536"><ele>505.85714285714283</ele><time>2026-04-25T10:22:02.224Z</time></trkpt><trkpt lat="43.5167575" lon="11.4506002"><ele>507.42857142857133</ele><time>2026-04-25T10:22:31.22Z</time></trkpt><trkpt lat="43.5168051" lon="11.4506904"><ele>508.99999999999994</ele><time>2026-04-25T10:23:39.216Z</time></trkpt><trkpt lat="43.5168676" lon="11.4507372"><ele>508.99999999999994</ele><time>2026-04-25T10:23:43.212Z</time></trkpt><trkpt lat="43.5168981" lon="11.4508197"><ele>509.0</ele><time>2026-04-25T10:23:49.211Z</time></trkpt><trkpt lat="43.5168777" lon="11.4507262"><ele>508.99999999999994</ele><time>2026-04-25T10:28:39.228Z</time></trkpt><trkpt lat="43.5168253" lon="11.4506756"><ele>508.99999999999994</ele><time>2026-04-25T10:28:46.231Z</time></trkpt><trkpt lat="43.5167628" lon="11.4506237"><ele>509.0</ele><time>2026-04-25T10:29:30.225Z</time></trkpt><trkpt lat="43.5167051" lon="11.4505632"><ele>508.99999999999994</ele><time>2026-04-25T10:29:33.233Z</time></trkpt><trkpt lat="43.5166383" lon="11.4505081"><ele>508.99999999999994</ele><time>2026-04-25T10:29:36.225Z</time></trkpt><trkpt lat="43.5165738" lon="11.45042"><ele>509.1428571428571</ele><time>2026-04-25T10:29:40.23Z</time></trkpt><trkpt lat="43.5165419" lon="11.4503417"><ele>509.2857142857143</ele><time>2026-04-25T10:29:43.225Z</time></trkpt><trkpt lat="43.5164982" lon="11.450249"><ele>509.42857142857144</ele><time>2026-04-25T10:29:47.232Z</time></trkpt><trkpt lat="43.5164567" lon="11.450168"><ele>509.57142857142856</ele><time>2026-04-25T10:29:50.24Z</time></trkpt><trkpt lat="43.5164296" lon="11.4500855"><ele>509.7142857142858</ele><time>2026-04-25T10:29:53.234Z</time></trkpt><trkpt lat="43.5163629" lon="11.4500552"><ele>509.8571428571429</ele><time>2026-04-25T10:29:57.228Z</time></trkpt><trkpt lat="43.5162985" lon="11.4500323"><ele>510.0</ele><time>2026-04-25T10:30:01.226Z</time></trkpt><trkpt lat="43.5162235" lon="11.4500005"><ele>510.0</ele><time>2026-04-25T10:30:05.237Z</time></trkpt><trkpt lat="43.5161568" lon="11.4499396"><ele>510.0</ele><time>2026-04-25T10:30:09.231Z</time></trkpt><trkpt lat="43.5161123" lon="11.4498713"><ele>510.0</ele><time>2026-04-25T10:30:12.223Z</time></trkpt><trkpt lat="43.5160607" lon="11.4497836"><ele>510.0</ele><time>2026-04-25T10:30:15.235Z</time></trkpt><trkpt lat="43.5160505" lon="11.4496794"><ele>510.0</ele><time>2026-04-25T10:30:18.229Z</time></trkpt><trkpt lat="43.5160971" lon="11.4496011"><ele>510.0</ele><time>2026-04-25T10:30:21.233Z</time></trkpt><trkpt lat="43.5161493" lon="11.4495292"><ele>511.3333333333333</ele><time>2026-04-25T10:30:24.229Z</time></trkpt><trkpt lat="43.5161754" lon="11.449437"><ele>512.6666666666666</ele><time>2026-04-25T10:30:28.225Z</time></trkpt><trkpt lat="43.5161743" lon="11.4493266"><ele>514.0</ele><time>2026-04-25T10:30:32.232Z</time></trkpt><trkpt lat="43.5161756" lon="11.4492312"><ele>515.3333333333333</ele><time>2026-04-25T10:30:36.223Z</time></trkpt><trkpt lat="43.5161612" lon="11.4491423"><ele>516.6666666666666</ele><time>2026-04-25T10:30:39.238Z</time></trkpt><trkpt lat="43.5161469" lon="11.449022"><ele>518.0</ele><time>2026-04-25T10:30:43.226Z</time></trkpt><trkpt lat="43.5161539" lon="11.4489183"><ele>518.0</ele><time>2026-04-25T10:30:46.232Z</time></trkpt><trkpt lat="43.5161646" lon="11.4488221"><ele>518.0</ele><time>2026-04-25T10:30:49.231Z</time></trkpt><trkpt lat="43.5161593" lon="11.448729"><ele>518.0</ele><time>2026-04-25T10:30:52.234Z</time></trkpt><trkpt lat="43.5161597" lon="11.4486235"><ele>518.0</ele><time>2026-04-25T10:30:56.251Z</time></trkpt><trkpt lat="43.5161796" lon="11.4485332"><ele>518.0</ele><time>2026-04-25T10:30:59.24Z</time></trkpt><trkpt lat="43.516206" lon="11.4484221"><ele>518.0</ele><time>2026-04-25T10:31:03.235Z</time></trkpt><trkpt lat="43.5162299" lon="11.4483277"><ele>518.0</ele><time>2026-04-25T10:31:07.229Z</time></trkpt><trkpt lat="43.5162616" lon="11.4482443"><ele>520.1428571428571</ele><time>2026-04-25T10:31:11.232Z</time></trkpt><trkpt lat="43.5162899" lon="11.448163"><ele>522.2857142857142</ele><time>2026-04-25T10:31:14.25Z</time></trkpt><trkpt lat="43.516313" lon="11.44806"><ele>524.4285714285714</ele><time>2026-04-25T10:31:18.225Z</time></trkpt><trkpt lat="43.5163205" lon="11.44796"><ele>526.5714285714286</ele><time>2026-04-25T10:31:22.231Z</time></trkpt><trkpt lat="43.5163273" lon="11.4478459"><ele>528.7142857142857</ele><time>2026-04-25T10:31:26.237Z</time></trkpt><trkpt lat="43.516331" lon="11.4477574"><ele>530.8571428571429</ele><time>2026-04-25T10:31:29.227Z</time></trkpt><trkpt lat="43.5163272" lon="11.4476658"><ele>533.0</ele><time>2026-04-25T10:31:32.23Z</time></trkpt><trkpt lat="43.5163242" lon="11.4475556"><ele>535.1428571428571</ele><time>2026-04-25T10:31:36.229Z</time></trkpt><trkpt lat="43.5163383" lon="11.4474586"><ele>537.2857142857142</ele><time>2026-04-25T10:31:40.234Z</time></trkpt><trkpt lat="43.5163903" lon="11.4474052"><ele>539.4285714285714</ele><time>2026-04-25T10:31:43.226Z</time></trkpt><trkpt lat="43.5164539" lon="11.4473849"><ele>541.5714285714286</ele><time>2026-04-25T10:31:46.234Z</time></trkpt><trkpt lat="43.5165162" lon="11.4473578"><ele>543.7142857142858</ele><time>2026-04-25T10:31:49.225Z</time></trkpt><trkpt lat="43.5165798" lon="11.4473278"><ele>545.8571428571429</ele><time>2026-04-25T10:31:52.229Z</time></trkpt><trkpt lat="43.5166354" lon="11.4472492"><ele>548.0</ele><time>2026-04-25T10:31:57.229Z</time></trkpt><trkpt lat="43.5166949" lon="11.4471923"><ele>551.0000000000001</ele><time>2026-04-25T10:32:01.232Z</time></trkpt><trkpt lat="43.5167375" lon="11.4470954"><ele>554.0</ele><time>2026-04-25T10:32:06.247Z</time></trkpt><trkpt lat="43.5167569" lon="11.4469986"><ele>557.0</ele><time>2026-04-25T10:32:12.23Z</time></trkpt><trkpt lat="43.5167499" lon="11.4469031"><ele>560.0</ele><time>2026-04-25T10:33:17.235Z</time></trkpt><trkpt lat="43.5167946" lon="11.4468321"><ele>563.0</ele><time>2026-04-25T10:33:22.229Z</time></trkpt><trkpt lat="43.516855" lon="11.446769"><ele>566.0000000000001</ele><time>2026-04-25T10:33:26.237Z</time></trkpt><trkpt lat="43.5169192" lon="11.4467332"><ele>569.0</ele><time>2026-04-25T10:33:30.228Z</time></trkpt><trkpt lat="43.5169868" lon="11.4467135"><ele>569.0000000000001</ele><time>2026-04-25T10:33:33.232Z</time></trkpt><trkpt lat="43.5170608" lon="11.4466895"><ele>569.0</ele><time>2026-04-25T10:33:36.233Z</time></trkpt><trkpt lat="43.5171361" lon="11.4466626"><ele>569.0</ele><time>2026-04-25T10:33:41.221Z</time></trkpt><trkpt lat="43.5172098" lon="11.4466581"><ele>569.0</ele><time>2026-04-25T10:33:47.225Z</time></trkpt><trkpt lat="43.5172723" lon="11.446643"><ele>569.0</ele><time>2026-04-25T10:33:55.228Z</time></trkpt><trkpt lat="43.5173361" lon="11.4466505"><ele>569.0000000000001</ele><time>2026-04-25T10:33:59.238Z</time></trkpt><trkpt lat="43.5174007" lon="11.4466318"><ele>569.0</ele><time>2026-04-25T10:34:02.23Z</time></trkpt><trkpt lat="43.5174666" lon="11.4465871"><ele>567.6666666666666</ele><time>2026-04-25T10:34:05.227Z</time></trkpt><trkpt lat="43.5175491" lon="11.4465606"><ele>566.3333333333333</ele><time>2026-04-25T10:34:11.24Z</time></trkpt><trkpt lat="43.5176085" lon="11.4465261"><ele>565.0</ele><time>2026-04-25T10:34:13.238Z</time></trkpt><trkpt lat="43.5176702" lon="11.4464558"><ele>563.6666666666666</ele><time>2026-04-25T10:34:15.235Z</time></trkpt><trkpt lat="43.5177171" lon="11.4463728"><ele>562.3333333333334</ele><time>2026-04-25T10:34:17.238Z</time></trkpt><trkpt lat="43.5177517" lon="11.4462735"><ele>561.0</ele><time>2026-04-25T10:34:20.248Z</time></trkpt><trkpt lat="43.5177748" lon="11.4461569"><ele>561.0</ele><time>2026-04-25T10:34:23.228Z</time></trkpt><trkpt lat="43.5178111" lon="11.4460534"><ele>561.0</ele><time>2026-04-25T10:34:26.233Z</time></trkpt><trkpt lat="43.5178392" lon="11.4459391"><ele>561.0</ele><time>2026-04-25T10:34:29.234Z</time></trkpt><trkpt lat="43.5178742" lon="11.4458565"><ele>561.0</ele><time>2026-04-25T10:34:32.23Z</time></trkpt><trkpt lat="43.5179507" lon="11.4458545"><ele>561.0</ele><time>2026-04-25T10:34:37.224Z</time></trkpt><trkpt lat="43.5180132" lon="11.4458861"><ele>561.0</ele><time>2026-04-25T10:34:40.225Z</time></trkpt><trkpt lat="43.518074" lon="11.4459319"><ele>558.5</ele><time>2026-04-25T10:34:42.222Z</time></trkpt><trkpt lat="43.5181424" lon="11.4460116"><ele>556.0</ele><time>2026-04-25T10:34:44.225Z</time></trkpt><trkpt lat="43.5181995" lon="11.4460999"><ele>553.5</ele><time>2026-04-25T10:34:46.232Z</time></trkpt><trkpt lat="43.5182625" lon="11.4462065"><ele>551.0</ele><time>2026-04-25T10:34:49.241Z</time></trkpt><trkpt lat="43.5183196" lon="11.4462865"><ele>548.5</ele><time>2026-04-25T10:34:51.228Z</time></trkpt><trkpt lat="43.5183778" lon="11.4463434"><ele>546.0</ele><time>2026-04-25T10:34:53.227Z</time></trkpt><trkpt lat="43.5184519" lon="11.4464006"><ele>542.5</ele><time>2026-04-25T10:34:56.228Z</time></trkpt><trkpt lat="43.5185014" lon="11.4464596"><ele>539.0</ele><time>2026-04-25T10:34:59.262Z</time></trkpt><trkpt lat="43.5185456" lon="11.4465249"><ele>535.5</ele><time>2026-04-25T10:35:02.246Z</time></trkpt><trkpt lat="43.5186103" lon="11.446597"><ele>532.0</ele><time>2026-04-25T10:35:06.235Z</time></trkpt><trkpt lat="43.5186885" lon="11.4465744"><ele>528.5</ele><time>2026-04-25T10:35:09.238Z</time></trkpt><trkpt lat="43.51876" lon="11.446516"><ele>525.0</ele><time>2026-04-25T10:35:13.243Z</time></trkpt><trkpt lat="43.5188264" lon="11.4464652"><ele>524.5</ele><time>2026-04-25T10:35:15.241Z</time></trkpt><trkpt lat="43.5189103" lon="11.4464168"><ele>524.0</ele><time>2026-04-25T10:35:17.241Z</time></trkpt><trkpt lat="43.51901" lon="11.4463547"><ele>523.5</ele><time>2026-04-25T10:35:19.242Z</time></trkpt><trkpt lat="43.5190783" lon="11.4462975"><ele>523.0</ele><time>2026-04-25T10:35:21.236Z</time></trkpt><trkpt lat="43.519147" lon="11.4462759"><ele>522.5</ele><time>2026-04-25T10:35:54.232Z</time></trkpt><trkpt lat="43.5192112" lon="11.4463006"><ele>522.0</ele><time>2026-04-25T10:35:57.247Z</time></trkpt><trkpt lat="43.5192847" lon="11.4463465"><ele>522.0</ele><time>2026-04-25T10:36:00.246Z</time></trkpt><trkpt lat="43.5193265" lon="11.4464161"><ele>522.0</ele><time>2026-04-25T10:36:04.232Z</time></trkpt><trkpt lat="43.5193865" lon="11.446497"><ele>522.0</ele><time>2026-04-25T10:36:07.228Z</time></trkpt><trkpt lat="43.519456" lon="11.4465756"><ele>522.0</ele><time>2026-04-25T10:36:10.232Z</time></trkpt><trkpt lat="43.5195307" lon="11.4466311"><ele>522.0</ele><time>2026-04-25T10:36:13.232Z</time></trkpt><trkpt lat="43.5195982" lon="11.4466742"><ele>522.0</ele><time>2026-04-25T10:36:16.234Z</time></trkpt><trkpt lat="43.5196854" lon="11.4467182"><ele>523.8333333333334</ele><time>2026-04-25T10:36:19.23Z</time></trkpt><trkpt lat="43.5197451" lon="11.4467565"><ele>525.6666666666666</ele><time>2026-04-25T10:36:21.223Z</time></trkpt><trkpt lat="43.519801" lon="11.446798"><ele>527.5</ele><time>2026-04-25T10:36:23.232Z</time></trkpt><trkpt lat="43.5198754" lon="11.4468442"><ele>529.3333333333333</ele><time>2026-04-25T10:36:26.238Z</time></trkpt><trkpt lat="43.5199682" lon="11.4469075"><ele>531.1666666666666</ele><time>2026-04-25T10:36:29.248Z</time></trkpt><trkpt lat="43.5200607" lon="11.4469466"><ele>533.0</ele><time>2026-04-25T10:36:31.244Z</time></trkpt><trkpt lat="43.5201725" lon="11.446954"><ele>533.0</ele><time>2026-04-25T10:36:33.235Z</time></trkpt><trkpt lat="43.5202897" lon="11.4469498"><ele>533.0</ele><time>2026-04-25T10:36:35.231Z</time></trkpt><trkpt lat="43.5204063" lon="11.4469628"><ele>533.0</ele><time>2026-04-25T10:36:37.239Z</time></trkpt><trkpt lat="43.520517" lon="11.4470076"><ele>533.0</ele><time>2026-04-25T10:36:39.229Z</time></trkpt><trkpt lat="43.5205921" lon="11.4470404"><ele>533.0</ele><time>2026-04-25T10:36:41.24Z</time></trkpt><trkpt lat="43.5206691" lon="11.4470992"><ele>528.8</ele><time>2026-04-25T10:36:43.249Z</time></trkpt><trkpt lat="43.5207422" lon="11.4471936"><ele>524.5999999999999</ele><time>2026-04-25T10:36:45.236Z</time></trkpt><trkpt lat="43.5208226" lon="11.4472777"><ele>520.4000000000001</ele><time>2026-04-25T10:36:47.238Z</time></trkpt><trkpt lat="43.5208937" lon="11.4473549"><ele>516.2</ele><time>2026-04-25T10:36:49.246Z</time></trkpt><trkpt lat="43.5209692" lon="11.4474155"><ele>512.0</ele><time>2026-04-25T10:36:51.248Z</time></trkpt><trkpt lat="43.521048" lon="11.4474537"><ele>511.99999999999994</ele><time>2026-04-25T10:36:53.242Z</time></trkpt><trkpt lat="43.5211361" lon="11.4474489"><ele>512.0</ele><time>2026-04-25T10:36:56.241Z</time></trkpt><trkpt lat="43.5211715" lon="11.4473483"><ele>512.0</ele><time>2026-04-25T10:36:59.254Z</time></trkpt><trkpt lat="43.5212037" lon="11.4472651"><ele>512.0</ele><time>2026-04-25T10:37:03.245Z</time></trkpt><trkpt lat="43.5212617" lon="11.4473135"><ele>511.99999999999994</ele><time>2026-04-25T10:37:06.249Z</time></trkpt><trkpt lat="43.521316" lon="11.4473917"><ele>512.0</ele><time>2026-04-25T10:37:08.253Z</time></trkpt><trkpt lat="43.5213943" lon="11.4475112"><ele>510.3333333333333</ele><time>2026-04-25T10:37:10.238Z</time></trkpt><trkpt lat="43.5214581" lon="11.4476296"><ele>508.66666666666663</ele><time>2026-04-25T10:37:12.234Z</time></trkpt><trkpt lat="43.5215155" lon="11.4477387"><ele>507.0</ele><time>2026-04-25T10:37:14.25Z</time></trkpt><trkpt lat="43.5215611" lon="11.447822"><ele>505.33333333333337</ele><time>2026-04-25T10:37:16.256Z</time></trkpt><trkpt lat="43.5215935" lon="11.4479113"><ele>503.6666666666667</ele><time>2026-04-25T10:37:19.246Z</time></trkpt><trkpt lat="43.521649" lon="11.4479553"><ele>502.0</ele><time>2026-04-25T10:37:23.239Z</time></trkpt><trkpt lat="43.5217351" lon="11.4479745"><ele>502.00000000000006</ele><time>2026-04-25T10:37:26.259Z</time></trkpt><trkpt lat="43.5218259" lon="11.4480054"><ele>502.0</ele><time>2026-04-25T10:37:29.246Z</time></trkpt><trkpt lat="43.5219033" lon="11.4480376"><ele>502.0</ele><time>2026-04-25T10:37:32.242Z</time></trkpt><trkpt lat="43.5219741" lon="11.4480701"><ele>502.0</ele><time>2026-04-25T10:37:35.264Z</time></trkpt><trkpt lat="43.5220567" lon="11.4480959"><ele>502.00000000000006</ele><time>2026-04-25T10:37:38.254Z</time></trkpt><trkpt lat="43.5221192" lon="11.4481222"><ele>502.0</ele><time>2026-04-25T10:37:40.25Z</time></trkpt><trkpt lat="43.5221799" lon="11.4482193"><ele>500.50000000000006</ele><time>2026-04-25T10:37:43.255Z</time></trkpt><trkpt lat="43.5222049" lon="11.4483217"><ele>499.0</ele><time>2026-04-25T10:37:45.255Z</time></trkpt><trkpt lat="43.5222191" lon="11.448434"><ele>497.5</ele><time>2026-04-25T10:37:47.256Z</time></trkpt><trkpt lat="43.5222383" lon="11.4485369"><ele>496.0</ele><time>2026-04-25T10:37:49.257Z</time></trkpt><trkpt lat="43.5222719" lon="11.4486392"><ele>494.50000000000006</ele><time>2026-04-25T10:37:51.25Z</time></trkpt><trkpt lat="43.5223239" lon="11.4487384"><ele>493.0</ele><time>2026-04-25T10:37:53.259Z</time></trkpt><trkpt lat="43.522388" lon="11.4488296"><ele>493.0</ele><time>2026-04-25T10:37:55.245Z</time></trkpt><trkpt lat="43.5224562" lon="11.4489299"><ele>492.99999999999994</ele><time>2026-04-25T10:37:57.247Z</time></trkpt><trkpt lat="43.5225366" lon="11.4490333"><ele>492.99999999999994</ele><time>2026-04-25T10:37:59.237Z</time></trkpt><trkpt lat="43.522621" lon="11.4491428"><ele>493.0</ele><time>2026-04-25T10:38:01.225Z</time></trkpt><trkpt lat="43.5226957" lon="11.4492522"><ele>493.0</ele><time>2026-04-25T10:38:03.239Z</time></trkpt><trkpt lat="43.5227801" lon="11.4493376"><ele>493.0</ele><time>2026-04-25T10:38:05.226Z</time></trkpt><trkpt lat="43.5228831" lon="11.4494004"><ele>493.0</ele><time>2026-04-25T10:38:07.237Z</time></trkpt><trkpt lat="43.5230006" lon="11.4494218"><ele>493.0</ele><time>2026-04-25T10:38:09.239Z</time></trkpt><trkpt lat="43.5231172" lon="11.449427"><ele>493.0</ele><time>2026-04-25T10:38:11.239Z</time></trkpt><trkpt lat="43.5232336" lon="11.4494455"><ele>490.6666666666667</ele><time>2026-04-25T10:38:13.226Z</time></trkpt><trkpt lat="43.52336" lon="11.4494679"><ele>488.33333333333337</ele><time>2026-04-25T10:38:15.229Z</time></trkpt><trkpt lat="43.5234274" lon="11.4494719"><ele>486.0</ele><time>2026-04-25T10:38:16.228Z</time></trkpt><trkpt lat="43.5234994" lon="11.4494815"><ele>483.66666666666663</ele><time>2026-04-25T10:38:17.227Z</time></trkpt><trkpt lat="43.5235695" lon="11.4494888"><ele>481.3333333333333</ele><time>2026-04-25T10:38:18.23Z</time></trkpt><trkpt lat="43.5236403" lon="11.4495005"><ele>479.0</ele><time>2026-04-25T10:38:19.229Z</time></trkpt><trkpt lat="43.5237131" lon="11.4495053"><ele>476.3333333333333</ele><time>2026-04-25T10:38:20.242Z</time></trkpt><trkpt lat="43.5237895" lon="11.4495088"><ele>473.66666666666663</ele><time>2026-04-25T10:38:21.236Z</time></trkpt><trkpt lat="43.5238618" lon="11.4495143"><ele>471.0</ele><time>2026-04-25T10:38:22.227Z</time></trkpt><trkpt lat="43.523932" lon="11.4495277"><ele>468.33333333333337</ele><time>2026-04-25T10:38:23.239Z</time></trkpt><trkpt lat="43.5240024" lon="11.4495496"><ele>465.6666666666667</ele><time>2026-04-25T10:38:24.238Z</time></trkpt><trkpt lat="43.5240642" lon="11.4495875"><ele>463.0</ele><time>2026-04-25T10:38:25.235Z</time></trkpt><trkpt lat="43.5241493" lon="11.4497002"><ele>463.0</ele><time>2026-04-25T10:38:27.234Z</time></trkpt><trkpt lat="43.524143" lon="11.4498383"><ele>462.99999999999994</ele><time>2026-04-25T10:38:29.252Z</time></trkpt><trkpt lat="43.5240611" lon="11.4499347"><ele>462.99999999999994</ele><time>2026-04-25T10:38:31.233Z</time></trkpt><trkpt lat="43.5239561" lon="11.4500242"><ele>463.0</ele><time>2026-04-25T10:38:33.244Z</time></trkpt><trkpt lat="43.52389" lon="11.4500678"><ele>463.0</ele><time>2026-04-25T10:38:34.236Z</time></trkpt><trkpt lat="43.5238236" lon="11.4501124"><ele>463.00000000000006</ele><time>2026-04-25T10:38:35.24Z</time></trkpt><trkpt lat="43.5237592" lon="11.4501639"><ele>463.0</ele><time>2026-04-25T10:38:36.245Z</time></trkpt><trkpt lat="43.5236953" lon="11.4502178"><ele>463.0</ele><time>2026-04-25T10:38:37.238Z</time></trkpt><trkpt lat="43.5236283" lon="11.4502688"><ele>463.0</ele><time>2026-04-25T10:38:38.243Z</time></trkpt><trkpt lat="43.5235562" lon="11.450319"><ele>463.00000000000006</ele><time>2026-04-25T10:38:39.24Z</time></trkpt><trkpt lat="43.5234763" lon="11.450366"><ele>463.0</ele><time>2026-04-25T10:38:40.239Z</time></trkpt><trkpt lat="43.5233913" lon="11.4504184"><ele>461.59999999999997</ele><time>2026-04-25T10:38:41.253Z</time></trkpt><trkpt lat="43.5233004" lon="11.4504742"><ele>460.19999999999993</ele><time>2026-04-25T10:38:42.237Z</time></trkpt><trkpt lat="43.5232194" lon="11.4505428"><ele>458.8</ele><time>2026-04-25T10:38:43.23Z</time></trkpt><trkpt lat="43.5231447" lon="11.450628"><ele>457.4</ele><time>2026-04-25T10:38:44.231Z</time></trkpt><trkpt lat="43.5230686" lon="11.450721"><ele>456.0</ele><time>2026-04-25T10:38:45.234Z</time></trkpt><trkpt lat="43.5229972" lon="11.4508215"><ele>456.0</ele><time>2026-04-25T10:38:46.262Z</time></trkpt><trkpt lat="43.5229331" lon="11.4509239"><ele>456.0</ele><time>2026-04-25T10:38:47.243Z</time></trkpt><trkpt lat="43.5228808" lon="11.4510194"><ele>456.0</ele><time>2026-04-25T10:38:48.244Z</time></trkpt><trkpt lat="43.5228428" lon="11.451111"><ele>456.0</ele><time>2026-04-25T10:38:49.238Z</time></trkpt><trkpt lat="43.5228215" lon="11.451205"><ele>456.0</ele><time>2026-04-25T10:38:50.237Z</time></trkpt><trkpt lat="43.5228206" lon="11.4513062"><ele>456.0</ele><time>2026-04-25T10:38:51.236Z</time></trkpt><trkpt lat="43.5228334" lon="11.4514153"><ele>456.4285714285714</ele><time>2026-04-25T10:38:52.242Z</time></trkpt><trkpt lat="43.5228441" lon="11.45152"><ele>456.8571428571428</ele><time>2026-04-25T10:38:53.237Z</time></trkpt><trkpt lat="43.5228599" lon="11.4516212"><ele>457.2857142857143</ele><time>2026-04-25T10:38:54.25Z</time></trkpt><trkpt lat="43.5228802" lon="11.4517178"><ele>457.71428571428567</ele><time>2026-04-25T10:38:55.239Z</time></trkpt><trkpt lat="43.5228879" lon="11.45181"><ele>458.1428571428571</ele><time>2026-04-25T10:38:56.245Z</time></trkpt><trkpt lat="43.5228894" lon="11.4519054"><ele>458.57142857142856</ele><time>2026-04-25T10:38:57.237Z</time></trkpt><trkpt lat="43.5228767" lon="11.4519908"><ele>459.0</ele><time>2026-04-25T10:38:58.246Z</time></trkpt><trkpt lat="43.5228053" lon="11.4521082"><ele>456.3333333333333</ele><time>2026-04-25T10:39:00.237Z</time></trkpt><trkpt lat="43.5227322" lon="11.4521968"><ele>453.66666666666663</ele><time>2026-04-25T10:39:02.237Z</time></trkpt><trkpt lat="43.5226752" lon="11.4522904"><ele>451.0</ele><time>2026-04-25T10:39:04.233Z</time></trkpt><trkpt lat="43.5226776" lon="11.4523948"><ele>448.3333333333333</ele><time>2026-04-25T10:39:06.249Z</time></trkpt><trkpt lat="43.5227219" lon="11.452462"><ele>445.66666666666663</ele><time>2026-04-25T10:39:08.241Z</time></trkpt><trkpt lat="43.5228108" lon="11.4524732"><ele>443.0</ele><time>2026-04-25T10:39:10.25Z</time></trkpt><trkpt lat="43.5229079" lon="11.4524147"><ele>443.0</ele><time>2026-04-25T10:39:12.251Z</time></trkpt><trkpt lat="43.5230086" lon="11.4523281"><ele>442.99999999999994</ele><time>2026-04-25T10:39:14.244Z</time></trkpt><trkpt lat="43.5230573" lon="11.4522721"><ele>442.99999999999994</ele><time>2026-04-25T10:39:15.244Z</time></trkpt><trkpt lat="43.5231099" lon="11.4522143"><ele>443.0</ele><time>2026-04-25T10:39:16.241Z</time></trkpt><trkpt lat="43.5232085" lon="11.452111"><ele>443.0</ele><time>2026-04-25T10:39:18.231Z</time></trkpt><trkpt lat="43.5232766" lon="11.4519981"><ele>443.0</ele><time>2026-04-25T10:39:20.23Z</time></trkpt><trkpt lat="43.5232894" lon="11.4518623"><ele>442.99999999999994</ele><time>2026-04-25T10:39:22.235Z</time></trkpt><trkpt lat="43.5232591" lon="11.4517133"><ele>442.99999999999994</ele><time>2026-04-25T10:39:24.235Z</time></trkpt><trkpt lat="43.5232477" lon="11.4516266"><ele>443.0</ele><time>2026-04-25T10:39:25.245Z</time></trkpt><trkpt lat="43.5232632" lon="11.4514696"><ele>443.0</ele><time>2026-04-25T10:39:27.232Z</time></trkpt><trkpt lat="43.5233066" lon="11.45131"><ele>445.16666666666663</ele><time>2026-04-25T10:39:29.238Z</time></trkpt><trkpt lat="43.5233352" lon="11.4512284"><ele>447.3333333333333</ele><time>2026-04-25T10:39:30.238Z</time></trkpt><trkpt lat="43.5233713" lon="11.4511521"><ele>449.5</ele><time>2026-04-25T10:39:31.239Z</time></trkpt><trkpt lat="43.523417" lon="11.4510827"><ele>451.66666666666663</ele><time>2026-04-25T10:39:32.236Z</time></trkpt><trkpt lat="43.5234678" lon="11.4510223"><ele>453.8333333333333</ele><time>2026-04-25T10:39:33.237Z</time></trkpt><trkpt lat="43.5235605" lon="11.4509538"><ele>456.0</ele><time>2026-04-25T10:39:35.225Z</time></trkpt><trkpt lat="43.5236511" lon="11.4509378"><ele>452.4</ele><time>2026-04-25T10:39:37.247Z</time></trkpt><trkpt lat="43.5237495" lon="11.4509252"><ele>448.8</ele><time>2026-04-25T10:39:39.237Z</time></trkpt><trkpt lat="43.5238472" lon="11.4509087"><ele>445.19999999999993</ele><time>2026-04-25T10:39:41.223Z</time></trkpt><trkpt lat="43.5239408" lon="11.450861"><ele>441.59999999999997</ele><time>2026-04-25T10:39:43.224Z</time></trkpt><trkpt lat="43.5240484" lon="11.4508111"><ele>438.0</ele><time>2026-04-25T10:39:45.226Z</time></trkpt><trkpt lat="43.5241688" lon="11.4507818"><ele>438.0</ele><time>2026-04-25T10:39:47.228Z</time></trkpt><trkpt lat="43.5242358" lon="11.4507756"><ele>438.0</ele><time>2026-04-25T10:39:48.218Z</time></trkpt><trkpt lat="43.5242994" lon="11.4507725"><ele>438.0</ele><time>2026-04-25T10:39:49.223Z</time></trkpt><trkpt lat="43.5243702" lon="11.4507751"><ele>438.0</ele><time>2026-04-25T10:39:50.226Z</time></trkpt><trkpt lat="43.5244456" lon="11.4507822"><ele>438.0</ele><time>2026-04-25T10:39:51.222Z</time></trkpt><trkpt lat="43.5245258" lon="11.4507947"><ele>438.0</ele><time>2026-04-25T10:39:52.215Z</time></trkpt><trkpt lat="43.5246072" lon="11.4508122"><ele>438.0</ele><time>2026-04-25T10:39:53.226Z</time></trkpt><trkpt lat="43.5246833" lon="11.4508413"><ele>436.5</ele><time>2026-04-25T10:39:54.227Z</time></trkpt><trkpt lat="43.5247563" lon="11.4508777"><ele>435.0</ele><time>2026-04-25T10:39:55.226Z</time></trkpt><trkpt lat="43.5248298" lon="11.4509208"><ele>433.5</ele><time>2026-04-25T10:39:56.229Z</time></trkpt><trkpt lat="43.5249059" lon="11.4509683"><ele>432.0</ele><time>2026-04-25T10:39:57.232Z</time></trkpt><trkpt lat="43.5249855" lon="11.4510198"><ele>430.5</ele><time>2026-04-25T10:39:58.244Z</time></trkpt><trkpt lat="43.5250711" lon="11.4510757"><ele>429.0</ele><time>2026-04-25T10:39:59.236Z</time></trkpt><trkpt lat="43.5251583" lon="11.4511342"><ele>429.0</ele><time>2026-04-25T10:40:00.225Z</time></trkpt><trkpt lat="43.5252408" lon="11.4511894"><ele>429.0</ele><time>2026-04-25T10:40:01.235Z</time></trkpt><trkpt lat="43.5253251" lon="11.4512319"><ele>429.0</ele><time>2026-04-25T10:40:02.237Z</time></trkpt><trkpt lat="43.5254044" lon="11.4512627"><ele>429.0</ele><time>2026-04-25T10:40:03.231Z</time></trkpt><trkpt lat="43.525482" lon="11.4512792"><ele>429.0</ele><time>2026-04-25T10:40:04.235Z</time></trkpt><trkpt lat="43.5255624" lon="11.4512805"><ele>429.0</ele><time>2026-04-25T10:40:05.234Z</time></trkpt><trkpt lat="43.5256423" lon="11.4512767"><ele>426.0</ele><time>2026-04-25T10:40:06.237Z</time></trkpt><trkpt lat="43.5257225" lon="11.4512722"><ele>423.0</ele><time>2026-04-25T10:40:07.224Z</time></trkpt><trkpt lat="43.5258115" lon="11.4512673"><ele>420.0</ele><time>2026-04-25T10:40:08.24Z</time></trkpt><trkpt lat="43.5259053" lon="11.4512742"><ele>417.0</ele><time>2026-04-25T10:40:09.228Z</time></trkpt><trkpt lat="43.5259992" lon="11.4513069"><ele>414.0</ele><time>2026-04-25T10:40:10.233Z</time></trkpt><trkpt lat="43.5260925" lon="11.4513517"><ele>411.79999999999995</ele><time>2026-04-25T10:40:11.253Z</time></trkpt><trkpt lat="43.5261902" lon="11.4514058"><ele>409.59999999999997</ele><time>2026-04-25T10:40:12.249Z</time></trkpt><trkpt lat="43.5262859" lon="11.4514625"><ele>407.4</ele><time>2026-04-25T10:40:13.241Z</time></trkpt><trkpt lat="43.5263768" lon="11.4515236"><ele>405.2</ele><time>2026-04-25T10:40:14.253Z</time></trkpt><trkpt lat="43.526462" lon="11.4515735"><ele>403.0</ele><time>2026-04-25T10:40:15.24Z</time></trkpt><trkpt lat="43.5265468" lon="11.4516263"><ele>401.4</ele><time>2026-04-25T10:40:16.243Z</time></trkpt><trkpt lat="43.5266323" lon="11.4516813"><ele>399.79999999999995</ele><time>2026-04-25T10:40:17.236Z</time></trkpt><trkpt lat="43.5267158" lon="11.4517331"><ele>398.2</ele><time>2026-04-25T10:40:18.242Z</time></trkpt><trkpt lat="43.5268008" lon="11.4517816"><ele>396.6</ele><time>2026-04-25T10:40:19.234Z</time></trkpt><trkpt lat="43.5268855" lon="11.4518259"><ele>395.0</ele><time>2026-04-25T10:40:20.235Z</time></trkpt><trkpt lat="43.5269732" lon="11.4518704"><ele>392.6</ele><time>2026-04-25T10:40:21.236Z</time></trkpt><trkpt lat="43.5270652" lon="11.4519139"><ele>390.2</ele><time>2026-04-25T10:40:22.228Z</time></trkpt><trkpt lat="43.5271629" lon="11.4519565"><ele>387.79999999999995</ele><time>2026-04-25T10:40:23.232Z</time></trkpt><trkpt lat="43.5272603" lon="11.4519936"><ele>385.4</ele><time>2026-04-25T10:40:24.226Z</time></trkpt><trkpt lat="43.5273521" lon="11.4520232"><ele>383.0</ele><time>2026-04-25T10:40:25.228Z</time></trkpt><trkpt lat="43.5274374" lon="11.4520398"><ele>383.0</ele><time>2026-04-25T10:40:26.231Z</time></trkpt><trkpt lat="43.5275176" lon="11.4520547"><ele>383.0</ele><time>2026-04-25T10:40:27.233Z</time></trkpt><trkpt lat="43.5275918" lon="11.452069"><ele>383.0</ele><time>2026-04-25T10:40:28.228Z</time></trkpt><trkpt lat="43.5276586" lon="11.4520884"><ele>383.0</ele><time>2026-04-25T10:40:29.221Z</time></trkpt><trkpt lat="43.527726" lon="11.4521105"><ele>383.0</ele><time>2026-04-25T10:40:30.211Z</time></trkpt><trkpt lat="43.5278405" lon="11.4521499"><ele>383.0</ele><time>2026-04-25T10:40:32.222Z</time></trkpt><trkpt lat="43.5279242" lon="11.4522217"><ele>382.6666666666667</ele><time>2026-04-25T10:40:34.225Z</time></trkpt><trkpt lat="43.5279592" lon="11.4523136"><ele>382.33333333333337</ele><time>2026-04-25T10:40:37.237Z</time></trkpt><trkpt lat="43.5280014" lon="11.4524082"><ele>382.0</ele><time>2026-04-25T10:40:41.235Z</time></trkpt><trkpt lat="43.5280403" lon="11.4524897"><ele>381.6666666666667</ele><time>2026-04-25T10:40:44.242Z</time></trkpt><trkpt lat="43.5281038" lon="11.4525896"><ele>381.3333333333333</ele><time>2026-04-25T10:40:47.245Z</time></trkpt><trkpt lat="43.5281524" lon="11.4526628"><ele>381.0</ele><time>2026-04-25T10:40:49.242Z</time></trkpt><trkpt lat="43.5282079" lon="11.4527309"><ele>381.0</ele><time>2026-04-25T10:40:51.234Z</time></trkpt><trkpt lat="43.5282653" lon="11.4528129"><ele>381.0</ele><time>2026-04-25T10:40:53.235Z</time></trkpt><trkpt lat="43.528317" lon="11.4528835"><ele>381.0</ele><time>2026-04-25T10:40:55.235Z</time></trkpt><trkpt lat="43.5283753" lon="11.4529435"><ele>381.0</ele><time>2026-04-25T10:40:57.235Z</time></trkpt><trkpt lat="43.5284333" lon="11.4529855"><ele>381.0</ele><time>2026-04-25T10:40:59.237Z</time></trkpt><trkpt lat="43.5285021" lon="11.4530232"><ele>381.0</ele><time>2026-04-25T10:41:01.237Z</time></trkpt><trkpt lat="43.5285669" lon="11.4530507"><ele>381.0</ele><time>2026-04-25T10:41:03.24Z</time></trkpt><trkpt lat="43.5286285" lon="11.4530816"><ele>381.6666666666667</ele><time>2026-04-25T10:41:05.232Z</time></trkpt><trkpt lat="43.5286944" lon="11.453121"><ele>382.33333333333337</ele><time>2026-04-25T10:41:07.232Z</time></trkpt><trkpt lat="43.5287661" lon="11.4531715"><ele>383.0</ele><time>2026-04-25T10:41:09.236Z</time></trkpt><trkpt lat="43.5288446" lon="11.4532089"><ele>383.6666666666667</ele><time>2026-04-25T10:41:11.228Z</time></trkpt><trkpt lat="43.5289261" lon="11.4532701"><ele>384.33333333333337</ele><time>2026-04-25T10:41:13.23Z</time></trkpt><trkpt lat="43.528994" lon="11.4533034"><ele>385.0</ele><time>2026-04-25T10:41:15.243Z</time></trkpt><trkpt lat="43.5290812" lon="11.4533082"><ele>385.6</ele><time>2026-04-25T10:41:18.245Z</time></trkpt><trkpt lat="43.5291626" lon="11.4532835"><ele>386.2</ele><time>2026-04-25T10:41:20.244Z</time></trkpt><trkpt lat="43.5292653" lon="11.4532394"><ele>386.79999999999995</ele><time>2026-04-25T10:41:22.219Z</time></trkpt><trkpt lat="43.5293754" lon="11.4532067"><ele>387.4</ele><time>2026-04-25T10:41:24.225Z</time></trkpt><trkpt lat="43.5295029" lon="11.4531972"><ele>388.0</ele><time>2026-04-25T10:41:26.222Z</time></trkpt><trkpt lat="43.5295761" lon="11.4532015"><ele>386.6666666666667</ele><time>2026-04-25T10:41:27.227Z</time></trkpt><trkpt lat="43.5296551" lon="11.453218"><ele>385.33333333333337</ele><time>2026-04-25T10:41:28.226Z</time></trkpt><trkpt lat="43.5297385" lon="11.4532445"><ele>384.0</ele><time>2026-04-25T10:41:29.225Z</time></trkpt><trkpt lat="43.5298215" lon="11.4532805"><ele>382.6666666666667</ele><time>2026-04-25T10:41:30.223Z</time></trkpt><trkpt lat="43.5299057" lon="11.4533225"><ele>381.33333333333337</ele><time>2026-04-25T10:41:31.221Z</time></trkpt><trkpt lat="43.5299877" lon="11.4533636"><ele>380.0</ele><time>2026-04-25T10:41:32.221Z</time></trkpt><trkpt lat="43.5300714" lon="11.4533981"><ele>380.0</ele><time>2026-04-25T10:41:33.222Z</time></trkpt><trkpt lat="43.5301522" lon="11.4534335"><ele>380.0</ele><time>2026-04-25T10:41:34.227Z</time></trkpt><trkpt lat="43.5302294" lon="11.4534626"><ele>380.0</ele><time>2026-04-25T10:41:35.216Z</time></trkpt><trkpt lat="43.5302995" lon="11.4534838"><ele>380.0</ele><time>2026-04-25T10:41:36.239Z</time></trkpt><trkpt lat="43.5304149" lon="11.4535243"><ele>380.0</ele><time>2026-04-25T10:41:38.227Z</time></trkpt><trkpt lat="43.5305111" lon="11.4535783"><ele>379.4</ele><time>2026-04-25T10:41:40.234Z</time></trkpt><trkpt lat="43.5305912" lon="11.4536501"><ele>378.8</ele><time>2026-04-25T10:41:42.239Z</time></trkpt><trkpt lat="43.5306677" lon="11.4537179"><ele>378.20000000000005</ele><time>2026-04-25T10:41:44.244Z</time></trkpt><trkpt lat="43.530753" lon="11.4537946"><ele>377.6</ele><time>2026-04-25T10:41:46.241Z</time></trkpt><trkpt lat="43.5308511" lon="11.453863"><ele>377.0</ele><time>2026-04-25T10:41:48.244Z</time></trkpt><trkpt lat="43.5309531" lon="11.4539054"><ele>377.0</ele><time>2026-04-25T10:41:50.24Z</time></trkpt><trkpt lat="43.5310487" lon="11.4539015"><ele>377.0</ele><time>2026-04-25T10:41:52.249Z</time></trkpt><trkpt lat="43.5311417" lon="11.4538815"><ele>377.0</ele><time>2026-04-25T10:41:54.247Z</time></trkpt><trkpt lat="43.5312135" lon="11.4538829"><ele>377.0</ele><time>2026-04-25T10:41:56.251Z</time></trkpt><trkpt lat="43.5312798" lon="11.4539211"><ele>377.0</ele><time>2026-04-25T10:41:58.248Z</time></trkpt><trkpt lat="43.5313552" lon="11.4540191"><ele>377.0</ele><time>2026-04-25T10:42:00.242Z</time></trkpt><trkpt lat="43.5313937" lon="11.4540927"><ele>375.85714285714283</ele><time>2026-04-25T10:42:01.237Z</time></trkpt><trkpt lat="43.5314262" lon="11.4541772"><ele>374.7142857142857</ele><time>2026-04-25T10:42:02.235Z</time></trkpt><trkpt lat="43.5314528" lon="11.454267"><ele>373.57142857142856</ele><time>2026-04-25T10:42:03.233Z</time></trkpt><trkpt lat="43.5314674" lon="11.4543599"><ele>372.42857142857144</ele><time>2026-04-25T10:42:04.242Z</time></trkpt><trkpt lat="43.5314686" lon="11.454459"><ele>371.2857142857143</ele><time>2026-04-25T10:42:05.243Z</time></trkpt><trkpt lat="43.5314567" lon="11.4545624"><ele>370.1428571428571</ele><time>2026-04-25T10:42:06.233Z</time></trkpt><trkpt lat="43.5314284" lon="11.4546637"><ele>369.0</ele><time>2026-04-25T10:42:07.243Z</time></trkpt><trkpt lat="43.5313945" lon="11.4547662"><ele>367.57142857142856</ele><time>2026-04-25T10:42:08.241Z</time></trkpt><trkpt lat="43.5313692" lon="11.4548701"><ele>366.1428571428571</ele><time>2026-04-25T10:42:09.245Z</time></trkpt><trkpt lat="43.5313566" lon="11.4549707"><ele>364.7142857142857</ele><time>2026-04-25T10:42:10.242Z</time></trkpt><trkpt lat="43.531359" lon="11.4550645"><ele>363.2857142857143</ele><time>2026-04-25T10:42:11.243Z</time></trkpt><trkpt lat="43.5313799" lon="11.4551536"><ele>361.8571428571429</ele><time>2026-04-25T10:42:12.235Z</time></trkpt><trkpt lat="43.5314151" lon="11.4552418"><ele>360.42857142857144</ele><time>2026-04-25T10:42:13.232Z</time></trkpt><trkpt lat="43.531454" lon="11.4553352"><ele>359.0</ele><time>2026-04-25T10:42:14.237Z</time></trkpt><trkpt lat="43.5314912" lon="11.4554373"><ele>357.79999999999995</ele><time>2026-04-25T10:42:15.243Z</time></trkpt><trkpt lat="43.5315258" lon="11.4555451"><ele>356.59999999999997</ele><time>2026-04-25T10:42:16.239Z</time></trkpt><trkpt lat="43.5315668" lon="11.4556656"><ele>355.4</ele><time>2026-04-25T10:42:17.235Z</time></trkpt><trkpt lat="43.5316093" lon="11.4558032"><ele>354.2</ele><time>2026-04-25T10:42:18.242Z</time></trkpt><trkpt lat="43.5316528" lon="11.4559388"><ele>353.0</ele><time>2026-04-25T10:42:19.312Z</time></trkpt><trkpt lat="43.5316944" lon="11.4560717"><ele>353.0</ele><time>2026-04-25T10:42:20.325Z</time></trkpt><trkpt lat="43.5317313" lon="11.4561961"><ele>353.0</ele><time>2026-04-25T10:42:21.319Z</time></trkpt><trkpt lat="43.5317684" lon="11.4563141"><ele>353.0</ele><time>2026-04-25T10:42:22.313Z</time></trkpt><trkpt lat="43.5318065" lon="11.4564258"><ele>353.0</ele><time>2026-04-25T10:42:23.315Z</time></trkpt><trkpt lat="43.531841" lon="11.4565349"><ele>353.0</ele><time>2026-04-25T10:42:24.312Z</time></trkpt><trkpt lat="43.5318728" lon="11.4566289"><ele>353.0</ele><time>2026-04-25T10:42:25.309Z</time></trkpt><trkpt lat="43.5319115" lon="11.4567126"><ele>351.83333333333337</ele><time>2026-04-25T10:42:26.311Z</time></trkpt><trkpt lat="43.5319579" lon="11.4567808"><ele>350.6666666666667</ele><time>2026-04-25T10:42:27.308Z</time></trkpt><trkpt lat="43.5320097" lon="11.4568478"><ele>349.5</ele><time>2026-04-25T10:42:28.32Z</time></trkpt><trkpt lat="43.5320647" lon="11.4569154"><ele>348.3333333333333</ele><time>2026-04-25T10:42:29.312Z</time></trkpt><trkpt lat="43.5321811" lon="11.4570284"><ele>347.16666666666663</ele><time>2026-04-25T10:42:31.327Z</time></trkpt><trkpt lat="43.5322504" lon="11.4571026"><ele>346.0</ele><time>2026-04-25T10:42:32.327Z</time></trkpt><trkpt lat="43.5323139" lon="11.4571726"><ele>344.16666666666663</ele><time>2026-04-25T10:42:33.318Z</time></trkpt><trkpt lat="43.5323734" lon="11.4572439"><ele>342.3333333333333</ele><time>2026-04-25T10:42:34.32Z</time></trkpt><trkpt lat="43.532424" lon="11.4573206"><ele>340.5</ele><time>2026-04-25T10:42:35.328Z</time></trkpt><trkpt lat="43.5324869" lon="11.4573668"><ele>338.6666666666667</ele><time>2026-04-25T10:42:36.234Z</time></trkpt><trkpt lat="43.5325291" lon="11.4574353"><ele>336.83333333333337</ele><time>2026-04-25T10:42:37.214Z</time></trkpt><trkpt lat="43.5325549" lon="11.4576072"><ele>335.0</ele><time>2026-04-25T10:42:39.214Z</time></trkpt><trkpt lat="43.5325342" lon="11.4576954"><ele>334.99999999999994</ele><time>2026-04-25T10:42:40.219Z</time></trkpt><trkpt lat="43.5324996" lon="11.4577887"><ele>335.0</ele><time>2026-04-25T10:42:41.226Z</time></trkpt><trkpt lat="43.5324674" lon="11.4578865"><ele>335.0</ele><time>2026-04-25T10:42:42.22Z</time></trkpt><trkpt lat="43.5324336" lon="11.4579807"><ele>335.0</ele><time>2026-04-25T10:42:43.225Z</time></trkpt><trkpt lat="43.5323979" lon="11.4580723"><ele>335.0</ele><time>2026-04-25T10:42:44.235Z</time></trkpt><trkpt lat="43.5323598" lon="11.4581638"><ele>334.99999999999994</ele><time>2026-04-25T10:42:45.235Z</time></trkpt><trkpt lat="43.5323377" lon="11.4582515"><ele>335.0</ele><time>2026-04-25T10:42:46.225Z</time></trkpt><trkpt lat="43.5323309" lon="11.4583391"><ele>333.2</ele><time>2026-04-25T10:42:47.231Z</time></trkpt><trkpt lat="43.532414" lon="11.4584783"><ele>331.4</ele><time>2026-04-25T10:42:49.224Z</time></trkpt><trkpt lat="43.5324845" lon="11.4585246"><ele>329.6</ele><time>2026-04-25T10:42:50.232Z</time></trkpt><trkpt lat="43.5325517" lon="11.4585631"><ele>327.8</ele><time>2026-04-25T10:42:51.229Z</time></trkpt><trkpt lat="43.532614" lon="11.4585968"><ele>326.0</ele><time>2026-04-25T10:42:52.232Z</time></trkpt><trkpt lat="43.5327253" lon="11.4586604"><ele>326.0</ele><time>2026-04-25T10:42:54.237Z</time></trkpt><trkpt lat="43.5328208" lon="11.4587241"><ele>326.0</ele><time>2026-04-25T10:42:56.236Z</time></trkpt><trkpt lat="43.5329087" lon="11.4587878"><ele>326.0</ele><time>2026-04-25T10:42:58.237Z</time></trkpt><trkpt lat="43.5329875" lon="11.4588404"><ele>326.0</ele><time>2026-04-25T10:43:00.243Z</time></trkpt><trkpt lat="43.5330541" lon="11.4588723"><ele>326.0</ele><time>2026-04-25T10:43:02.231Z</time></trkpt><trkpt lat="43.5331304" lon="11.4589299"><ele>324.33333333333337</ele><time>2026-04-25T10:43:05.235Z</time></trkpt><trkpt lat="43.5332083" lon="11.4589618"><ele>322.6666666666667</ele><time>2026-04-25T10:43:08.24Z</time></trkpt><trkpt lat="43.5332703" lon="11.459028"><ele>321.0</ele><time>2026-04-25T10:43:11.24Z</time></trkpt><trkpt lat="43.5333198" lon="11.4590921"><ele>319.3333333333333</ele><time>2026-04-25T10:43:13.245Z</time></trkpt><trkpt lat="43.5333674" lon="11.4591743"><ele>317.66666666666663</ele><time>2026-04-25T10:43:15.243Z</time></trkpt><trkpt lat="43.5334035" lon="11.45927"><ele>316.0</ele><time>2026-04-25T10:43:17.231Z</time></trkpt><trkpt lat="43.5334324" lon="11.4593754"><ele>316.0</ele><time>2026-04-25T10:43:19.241Z</time></trkpt><trkpt lat="43.5334624" lon="11.4594842"><ele>316.0</ele><time>2026-04-25T10:43:21.235Z</time></trkpt><trkpt lat="43.5334927" lon="11.4595931"><ele>316.0</ele><time>2026-04-25T10:43:23.243Z</time></trkpt><trkpt lat="43.5335264" lon="11.4597024"><ele>316.0</ele><time>2026-04-25T10:43:25.237Z</time></trkpt><trkpt lat="43.5335662" lon="11.4598161"><ele>316.0</ele><time>2026-04-25T10:43:27.24Z</time></trkpt><trkpt lat="43.5336274" lon="11.4599336"><ele>314.8</ele><time>2026-04-25T10:43:29.23Z</time></trkpt><trkpt lat="43.5336972" lon="11.4600352"><ele>313.6</ele><time>2026-04-25T10:43:31.224Z</time></trkpt><trkpt lat="43.5337706" lon="11.4601333"><ele>312.4</ele><time>2026-04-25T10:43:33.233Z</time></trkpt><trkpt lat="43.5338498" lon="11.4602398"><ele>311.2</ele><time>2026-04-25T10:43:35.229Z</time></trkpt><trkpt lat="43.5339457" lon="11.4603311"><ele>310.0</ele><time>2026-04-25T10:43:37.222Z</time></trkpt><trkpt lat="43.5340488" lon="11.4604073"><ele>308.4</ele><time>2026-04-25T10:43:39.217Z</time></trkpt><trkpt lat="43.5341495" lon="11.4604866"><ele>306.8</ele><time>2026-04-25T10:43:41.227Z</time></trkpt><trkpt lat="43.534241" lon="11.4605552"><ele>305.2</ele><time>2026-04-25T10:43:43.233Z</time></trkpt><trkpt lat="43.5343249" lon="11.4606256"><ele>303.6</ele><time>2026-04-25T10:43:45.231Z</time></trkpt><trkpt lat="43.5344056" lon="11.4607219"><ele>302.0</ele><time>2026-04-25T10:43:47.218Z</time></trkpt><trkpt lat="43.5344861" lon="11.4608466"><ele>302.0</ele><time>2026-04-25T10:43:49.223Z</time></trkpt><trkpt lat="43.5345243" lon="11.4609188"><ele>302.0</ele><time>2026-04-25T10:43:50.24Z</time></trkpt><trkpt lat="43.5345581" lon="11.4609928"><ele>302.0</ele><time>2026-04-25T10:43:51.232Z</time></trkpt><trkpt lat="43.5346019" lon="11.4611329"><ele>302.0</ele><time>2026-04-25T10:43:53.243Z</time></trkpt><trkpt lat="43.5346411" lon="11.4612488"><ele>302.0</ele><time>2026-04-25T10:43:55.229Z</time></trkpt><trkpt lat="43.5346996" lon="11.4613623"><ele>302.0</ele><time>2026-04-25T10:43:57.226Z</time></trkpt><trkpt lat="43.5347562" lon="11.4614897"><ele>300.42857142857144</ele><time>2026-04-25T10:43:59.23Z</time></trkpt><trkpt lat="43.5348032" lon="11.4615873"><ele>298.8571428571429</ele><time>2026-04-25T10:44:01.226Z</time></trkpt><trkpt lat="43.5348492" lon="11.4616726"><ele>297.2857142857143</ele><time>2026-04-25T10:44:04.235Z</time></trkpt><trkpt lat="43.5348471" lon="11.4617667"><ele>295.7142857142857</ele><time>2026-04-25T10:44:10.234Z</time></trkpt><trkpt lat="43.5348861" lon="11.4616859"><ele>294.1428571428571</ele><time>2026-04-25T10:44:15.232Z</time></trkpt><trkpt lat="43.5348777" lon="11.4615933"><ele>292.57142857142856</ele><time>2026-04-25T10:44:22.233Z</time></trkpt><trkpt lat="43.5349414" lon="11.4615671"><ele>291.0</ele><time>2026-04-25T10:44:25.237Z</time></trkpt><trkpt lat="43.5349888" lon="11.4614517"><ele>291.0</ele><time>2026-04-25T10:44:28.242Z</time></trkpt><trkpt lat="43.5350243" lon="11.4613627"><ele>291.0</ele><time>2026-04-25T10:44:30.238Z</time></trkpt><trkpt lat="43.5350531" lon="11.4612639"><ele>291.0</ele><time>2026-04-25T10:44:32.231Z</time></trkpt><trkpt lat="43.5350918" lon="11.4611781"><ele>291.0</ele><time>2026-04-25T10:44:34.238Z</time></trkpt><trkpt lat="43.5351293" lon="11.4610832"><ele>291.0</ele><time>2026-04-25T10:44:36.236Z</time></trkpt><trkpt lat="43.5351768" lon="11.4610012"><ele>291.0</ele><time>2026-04-25T10:44:38.24Z</time></trkpt><trkpt lat="43.5352185" lon="11.460909"><ele>291.6</ele><time>2026-04-25T10:44:40.239Z</time></trkpt><trkpt lat="43.5352701" lon="11.4608183"><ele>292.20000000000005</ele><time>2026-04-25T10:44:42.234Z</time></trkpt><trkpt lat="43.5353305" lon="11.4607287"><ele>292.79999999999995</ele><time>2026-04-25T10:44:44.238Z</time></trkpt><trkpt lat="43.5353885" lon="11.4606281"><ele>293.4</ele><time>2026-04-25T10:44:46.231Z</time></trkpt><trkpt lat="43.5354485" lon="11.460526"><ele>294.0</ele><time>2026-04-25T10:44:48.233Z</time></trkpt><trkpt lat="43.5355035" lon="11.4604085"><ele>291.2</ele><time>2026-04-25T10:44:50.24Z</time></trkpt><trkpt lat="43.5355626" lon="11.4602779"><ele>288.4</ele><time>2026-04-25T10:44:52.236Z</time></trkpt><trkpt lat="43.5356227" lon="11.4601492"><ele>285.6</ele><time>2026-04-25T10:44:54.238Z</time></trkpt><trkpt lat="43.5356854" lon="11.4600141"><ele>282.8</ele><time>2026-04-25T10:44:56.233Z</time></trkpt><trkpt lat="43.5357178" lon="11.4599388"><ele>280.0</ele><time>2026-04-25T10:44:57.233Z</time></trkpt><trkpt lat="43.5357651" lon="11.4597805"><ele>279.66666666666663</ele><time>2026-04-25T10:44:59.236Z</time></trkpt><trkpt lat="43.5357851" lon="11.4596131"><ele>279.3333333333333</ele><time>2026-04-25T10:45:01.225Z</time></trkpt><trkpt lat="43.5357834" lon="11.4595242"><ele>279.0</ele><time>2026-04-25T10:45:02.21Z</time></trkpt><trkpt lat="43.535769" lon="11.4594388"><ele>278.6666666666667</ele><time>2026-04-25T10:45:03.231Z</time></trkpt><trkpt lat="43.5357485" lon="11.4593508"><ele>278.33333333333337</ele><time>2026-04-25T10:45:04.239Z</time></trkpt><trkpt lat="43.5357223" lon="11.4592631"><ele>278.0</ele><time>2026-04-25T10:45:05.217Z</time></trkpt><trkpt lat="43.5356866" lon="11.4591804"><ele>278.0</ele><time>2026-04-25T10:45:06.234Z</time></trkpt><trkpt lat="43.5356434" lon="11.4590963"><ele>278.0</ele><time>2026-04-25T10:45:07.227Z</time></trkpt><trkpt lat="43.5355944" lon="11.459015"><ele>278.0</ele><time>2026-04-25T10:45:08.232Z</time></trkpt><trkpt lat="43.5355491" lon="11.4589358"><ele>278.0</ele><time>2026-04-25T10:45:09.23Z</time></trkpt><trkpt lat="43.535504" lon="11.4588613"><ele>278.0</ele><time>2026-04-25T10:45:10.234Z</time></trkpt><trkpt lat="43.5354664" lon="11.4587725"><ele>278.0</ele><time>2026-04-25T10:45:11.225Z</time></trkpt><trkpt lat="43.5354266" lon="11.4586747"><ele>277.0</ele><time>2026-04-25T10:45:12.225Z</time></trkpt><trkpt lat="43.5353942" lon="11.4585731"><ele>276.0</ele><time>2026-04-25T10:45:13.224Z</time></trkpt><trkpt lat="43.535374" lon="11.4584702"><ele>275.0</ele><time>2026-04-25T10:45:14.227Z</time></trkpt><trkpt lat="43.5353674" lon="11.4583696"><ele>274.0</ele><time>2026-04-25T10:45:15.226Z</time></trkpt><trkpt lat="43.5353698" lon="11.4582672"><ele>273.0</ele><time>2026-04-25T10:45:16.227Z</time></trkpt><trkpt lat="43.5353838" lon="11.4581603"><ele>272.0</ele><time>2026-04-25T10:45:17.219Z</time></trkpt><trkpt lat="43.5354079" lon="11.4580547"><ele>271.1666666666667</ele><time>2026-04-25T10:45:18.217Z</time></trkpt><trkpt lat="43.5354327" lon="11.4579484"><ele>270.33333333333337</ele><time>2026-04-25T10:45:19.227Z</time></trkpt><trkpt lat="43.5354553" lon="11.4578412"><ele>269.5</ele><time>2026-04-25T10:45:20.225Z</time></trkpt><trkpt lat="43.5354688" lon="11.4577335"><ele>268.6666666666667</ele><time>2026-04-25T10:45:21.223Z</time></trkpt><trkpt lat="43.5354809" lon="11.4576281"><ele>267.8333333333333</ele><time>2026-04-25T10:45:22.226Z</time></trkpt><trkpt lat="43.5354949" lon="11.4575168"><ele>267.0</ele><time>2026-04-25T10:45:23.239Z</time></trkpt><trkpt lat="43.5355124" lon="11.4574064"><ele>267.0</ele><time>2026-04-25T10:45:24.222Z</time></trkpt><trkpt lat="43.5355246" lon="11.4572893"><ele>267.0</ele><time>2026-04-25T10:45:25.23Z</time></trkpt><trkpt lat="43.5355478" lon="11.457174"><ele>267.0</ele><time>2026-04-25T10:45:26.222Z</time></trkpt><trkpt lat="43.5355808" lon="11.4570616"><ele>267.0</ele><time>2026-04-25T10:45:27.221Z</time></trkpt><trkpt lat="43.5356333" lon="11.456958"><ele>267.0</ele><time>2026-04-25T10:45:28.221Z</time></trkpt><trkpt lat="43.5356938" lon="11.4568672"><ele>267.0</ele><time>2026-04-25T10:45:29.229Z</time></trkpt><trkpt lat="43.5357724" lon="11.4568187"><ele>269.6</ele><time>2026-04-25T10:45:30.225Z</time></trkpt><trkpt lat="43.5358559" lon="11.456787"><ele>272.2</ele><time>2026-04-25T10:45:31.221Z</time></trkpt><trkpt lat="43.5359364" lon="11.4567547"><ele>274.8</ele><time>2026-04-25T10:45:32.221Z</time></trkpt><trkpt lat="43.536014" lon="11.4567288"><ele>277.4</ele><time>2026-04-25T10:45:33.224Z</time></trkpt><trkpt lat="43.5360869" lon="11.4567139"><ele>280.0</ele><time>2026-04-25T10:45:34.217Z</time></trkpt><trkpt lat="43.5362025" lon="11.456784"><ele>281.4</ele><time>2026-04-25T10:45:36.223Z</time></trkpt><trkpt lat="43.5362543" lon="11.4568788"><ele>282.8</ele><time>2026-04-25T10:45:37.222Z</time></trkpt><trkpt lat="43.5363086" lon="11.4569849"><ele>284.2</ele><time>2026-04-25T10:45:38.22Z</time></trkpt><trkpt lat="43.5363583" lon="11.4570942"><ele>285.6</ele><time>2026-04-25T10:45:39.219Z</time></trkpt><trkpt lat="43.5364138" lon="11.4571948"><ele>287.0</ele><time>2026-04-25T10:45:40.219Z</time></trkpt><trkpt lat="43.5364708" lon="11.4572931"><ele>283.6666666666667</ele><time>2026-04-25T10:45:41.22Z</time></trkpt><trkpt lat="43.5365257" lon="11.4573834"><ele>280.33333333333337</ele><time>2026-04-25T10:45:42.221Z</time></trkpt><trkpt lat="43.5365764" lon="11.45747"><ele>277.0</ele><time>2026-04-25T10:45:43.224Z</time></trkpt><trkpt lat="43.5366264" lon="11.4575551"><ele>273.6666666666667</ele><time>2026-04-25T10:45:44.223Z</time></trkpt><trkpt lat="43.5366774" lon="11.4576374"><ele>270.3333333333333</ele><time>2026-04-25T10:45:45.224Z</time></trkpt><trkpt lat="43.5367292" lon="11.4577011"><ele>267.0</ele><time>2026-04-25T10:45:46.213Z</time></trkpt><trkpt lat="43.5367874" lon="11.4577516"><ele>267.0</ele><time>2026-04-25T10:45:47.214Z</time></trkpt><trkpt lat="43.5368875" lon="11.4578197"><ele>267.0</ele><time>2026-04-25T10:45:49.213Z</time></trkpt><trkpt lat="43.5369785" lon="11.457844"><ele>267.0</ele><time>2026-04-25T10:45:51.228Z</time></trkpt><trkpt lat="43.5370647" lon="11.4578039"><ele>267.0</ele><time>2026-04-25T10:45:53.228Z</time></trkpt><trkpt lat="43.5371436" lon="11.4577425"><ele>267.0</ele><time>2026-04-25T10:45:55.237Z</time></trkpt><trkpt lat="43.5372114" lon="11.4576638"><ele>267.5</ele><time>2026-04-25T10:45:57.23Z</time></trkpt><trkpt lat="43.5372692" lon="11.4575567"><ele>268.0</ele><time>2026-04-25T10:45:59.246Z</time></trkpt><trkpt lat="43.537304" lon="11.4574413"><ele>268.5</ele><time>2026-04-25T10:46:01.242Z</time></trkpt><trkpt lat="43.5373302" lon="11.4573356"><ele>269.0</ele><time>2026-04-25T10:46:03.239Z</time></trkpt><trkpt lat="43.5373564" lon="11.457223"><ele>269.5</ele><time>2026-04-25T10:46:05.237Z</time></trkpt><trkpt lat="43.5373862" lon="11.4571033"><ele>270.0</ele><time>2026-04-25T10:46:07.231Z</time></trkpt><trkpt lat="43.5374144" lon="11.4569879"><ele>272.1666666666667</ele><time>2026-04-25T10:46:09.235Z</time></trkpt><trkpt lat="43.5374424" lon="11.4568742"><ele>274.3333333333333</ele><time>2026-04-25T10:46:11.233Z</time></trkpt><trkpt lat="43.5374715" lon="11.4567702"><ele>276.5</ele><time>2026-04-25T10:46:13.243Z</time></trkpt><trkpt lat="43.5374959" lon="11.4566764"><ele>278.66666666666663</ele><time>2026-04-25T10:46:15.232Z</time></trkpt><trkpt lat="43.537519" lon="11.4565882"><ele>280.8333333333333</ele><time>2026-04-25T10:46:17.232Z</time></trkpt><trkpt lat="43.5375403" lon="11.4564875"><ele>283.0</ele><time>2026-04-25T10:46:19.242Z</time></trkpt><trkpt lat="43.5375562" lon="11.4563859"><ele>283.0</ele><time>2026-04-25T10:46:21.243Z</time></trkpt><trkpt lat="43.5375539" lon="11.4562897"><ele>283.0</ele><time>2026-04-25T10:46:23.239Z</time></trkpt><trkpt lat="43.5375271" lon="11.4561639"><ele>283.0</ele><time>2026-04-25T10:46:26.246Z</time></trkpt><trkpt lat="43.5375124" lon="11.4560701"><ele>283.0</ele><time>2026-04-25T10:46:28.241Z</time></trkpt><trkpt lat="43.5374959" lon="11.4559771"><ele>283.0</ele><time>2026-04-25T10:46:30.246Z</time></trkpt><trkpt lat="43.5374665" lon="11.455888"><ele>283.0</ele><time>2026-04-25T10:46:32.241Z</time></trkpt><trkpt lat="43.5374332" lon="11.4558065"><ele>283.0</ele><time>2026-04-25T10:46:34.231Z</time></trkpt><trkpt lat="43.5374015" lon="11.4557249"><ele>283.7142857142857</ele><time>2026-04-25T10:46:36.241Z</time></trkpt><trkpt lat="43.5373658" lon="11.4556424"><ele>284.42857142857144</ele><time>2026-04-25T10:46:38.241Z</time></trkpt><trkpt lat="43.5373433" lon="11.4555496"><ele>285.14285714285717</ele><time>2026-04-25T10:46:40.24Z</time></trkpt><trkpt lat="43.5373348" lon="11.4554517"><ele>285.8571428571429</ele><time>2026-04-25T10:46:42.232Z</time></trkpt><trkpt lat="43.5373391" lon="11.4553546"><ele>286.57142857142856</ele><time>2026-04-25T10:46:44.241Z</time></trkpt><trkpt lat="43.5373619" lon="11.4552681"><ele>287.28571428571433</ele><time>2026-04-25T10:46:46.24Z</time></trkpt><trkpt lat="43.5373934" lon="11.4551795"><ele>288.0</ele><time>2026-04-25T10:46:48.236Z</time></trkpt><trkpt lat="43.5374424" lon="11.455094"><ele>288.42857142857144</ele><time>2026-04-25T10:46:50.246Z</time></trkpt><trkpt lat="43.5374977" lon="11.4550178"><ele>288.8571428571429</ele><time>2026-04-25T10:46:52.24Z</time></trkpt><trkpt lat="43.5375481" lon="11.4549474"><ele>289.2857142857143</ele><time>2026-04-25T10:46:54.241Z</time></trkpt><trkpt lat="43.5375912" lon="11.4548717"><ele>289.7142857142857</ele><time>2026-04-25T10:46:56.246Z</time></trkpt><trkpt lat="43.5376261" lon="11.4547975"><ele>290.1428571428571</ele><time>2026-04-25T10:46:58.246Z</time></trkpt><trkpt lat="43.5376544" lon="11.4547199"><ele>290.57142857142856</ele><time>2026-04-25T10:47:00.236Z</time></trkpt><trkpt lat="43.5376698" lon="11.4546326"><ele>291.0</ele><time>2026-04-25T10:47:02.24Z</time></trkpt><trkpt lat="43.5376744" lon="11.4545414"><ele>292.1428571428571</ele><time>2026-04-25T10:47:04.239Z</time></trkpt><trkpt lat="43.5376612" lon="11.4544306"><ele>293.2857142857143</ele><time>2026-04-25T10:47:06.223Z</time></trkpt><trkpt lat="43.5376345" lon="11.4543225"><ele>294.42857142857144</ele><time>2026-04-25T10:47:08.234Z</time></trkpt><trkpt lat="43.5376046" lon="11.4542334"><ele>295.57142857142856</ele><time>2026-04-25T10:47:10.231Z</time></trkpt><trkpt lat="43.5375566" lon="11.4541624"><ele>296.7142857142857</ele><time>2026-04-25T10:47:12.226Z</time></trkpt><trkpt lat="43.5375112" lon="11.4540891"><ele>297.85714285714283</ele><time>2026-04-25T10:47:14.229Z</time></trkpt><trkpt lat="43.5374655" lon="11.4540098"><ele>299.0</ele><time>2026-04-25T10:47:16.226Z</time></trkpt><trkpt lat="43.5374226" lon="11.4539172"><ele>299.0</ele><time>2026-04-25T10:47:18.221Z</time></trkpt><trkpt lat="43.537386" lon="11.4538076"><ele>299.0</ele><time>2026-04-25T10:47:20.235Z</time></trkpt><trkpt lat="43.5373547" lon="11.4536942"><ele>299.0</ele><time>2026-04-25T10:47:22.226Z</time></trkpt><trkpt lat="43.5373127" lon="11.453578"><ele>299.0</ele><time>2026-04-25T10:47:24.228Z</time></trkpt><trkpt lat="43.5372769" lon="11.453474"><ele>299.0</ele><time>2026-04-25T10:47:26.231Z</time></trkpt><trkpt lat="43.5372408" lon="11.4533698"><ele>299.0</ele><time>2026-04-25T10:47:28.241Z</time></trkpt><trkpt lat="43.5372143" lon="11.4532536"><ele>299.1666666666667</ele><time>2026-04-25T10:47:30.24Z</time></trkpt><trkpt lat="43.5371904" lon="11.453141"><ele>299.33333333333337</ele><time>2026-04-25T10:47:32.236Z</time></trkpt><trkpt lat="43.5371677" lon="11.4530306"><ele>299.5</ele><time>2026-04-25T10:47:34.226Z</time></trkpt><trkpt lat="43.5371502" lon="11.4529187"><ele>299.6666666666667</ele><time>2026-04-25T10:47:36.235Z</time></trkpt><trkpt lat="43.5371329" lon="11.4527979"><ele>299.8333333333333</ele><time>2026-04-25T10:47:38.233Z</time></trkpt><trkpt lat="43.5371152" lon="11.4526776"><ele>300.0</ele><time>2026-04-25T10:47:40.241Z</time></trkpt><trkpt lat="43.5371133" lon="11.4525687"><ele>300.6666666666667</ele><time>2026-04-25T10:47:42.227Z</time></trkpt><trkpt lat="43.5371361" lon="11.4524712"><ele>301.3333333333333</ele><time>2026-04-25T10:47:44.233Z</time></trkpt><trkpt lat="43.5371976" lon="11.4523812"><ele>302.0</ele><time>2026-04-25T10:47:46.226Z</time></trkpt><trkpt lat="43.5372789" lon="11.4523366"><ele>302.66666666666663</ele><time>2026-04-25T10:47:48.227Z</time></trkpt><trkpt lat="43.5373615" lon="11.4523315"><ele>303.3333333333333</ele><time>2026-04-25T10:47:50.221Z</time></trkpt><trkpt lat="43.5374384" lon="11.452366"><ele>304.0</ele><time>2026-04-25T10:47:52.231Z</time></trkpt><trkpt lat="43.53749" lon="11.4524404"><ele>304.0</ele><time>2026-04-25T10:47:54.234Z</time></trkpt><trkpt lat="43.5375278" lon="11.4525317"><ele>304.0</ele><time>2026-04-25T10:47:56.237Z</time></trkpt><trkpt lat="43.53758" lon="11.4526235"><ele>304.0</ele><time>2026-04-25T10:47:58.236Z</time></trkpt><trkpt lat="43.5376396" lon="11.4527247"><ele>304.0</ele><time>2026-04-25T10:48:00.232Z</time></trkpt><trkpt lat="43.5376933" lon="11.4528279"><ele>304.0</ele><time>2026-04-25T10:48:02.231Z</time></trkpt><trkpt lat="43.5377485" lon="11.452933"><ele>304.0</ele><time>2026-04-25T10:48:04.229Z</time></trkpt><trkpt lat="43.5378072" lon="11.4530427"><ele>303.4</ele><time>2026-04-25T10:48:06.221Z</time></trkpt><trkpt lat="43.537874" lon="11.4531583"><ele>302.79999999999995</ele><time>2026-04-25T10:48:08.221Z</time></trkpt><trkpt lat="43.5379396" lon="11.4532699"><ele>302.20000000000005</ele><time>2026-04-25T10:48:10.223Z</time></trkpt><trkpt lat="43.5380069" lon="11.4533844"><ele>301.6</ele><time>2026-04-25T10:48:12.231Z</time></trkpt><trkpt lat="43.5380815" lon="11.4535019"><ele>301.0</ele><time>2026-04-25T10:48:14.229Z</time></trkpt><trkpt lat="43.5381692" lon="11.4536047"><ele>301.0</ele><time>2026-04-25T10:48:16.239Z</time></trkpt><trkpt lat="43.5382723" lon="11.4536831"><ele>301.0</ele><time>2026-04-25T10:48:18.229Z</time></trkpt><trkpt lat="43.5383847" lon="11.4537505"><ele>301.0</ele><time>2026-04-25T10:48:20.235Z</time></trkpt><trkpt lat="43.5385006" lon="11.453823"><ele>301.0</ele><time>2026-04-25T10:48:22.231Z</time></trkpt><trkpt lat="43.5385615" lon="11.4538559"><ele>301.0</ele><time>2026-04-25T10:48:23.226Z</time></trkpt><trkpt lat="43.538623" lon="11.4538899"><ele>299.7142857142857</ele><time>2026-04-25T10:48:24.228Z</time></trkpt><trkpt lat="43.5386859" lon="11.4539197"><ele>298.42857142857144</ele><time>2026-04-25T10:48:25.233Z</time></trkpt><trkpt lat="43.5387487" lon="11.4539527"><ele>297.1428571428571</ele><time>2026-04-25T10:48:26.238Z</time></trkpt><trkpt lat="43.5388094" lon="11.4539887"><ele>295.8571428571429</ele><time>2026-04-25T10:48:27.23Z</time></trkpt><trkpt lat="43.538876" lon="11.4540241"><ele>294.57142857142856</ele><time>2026-04-25T10:48:28.23Z</time></trkpt><trkpt lat="43.5389405" lon="11.4540555"><ele>293.2857142857143</ele><time>2026-04-25T10:48:29.233Z</time></trkpt><trkpt lat="43.5390058" lon="11.4540823"><ele>292.0</ele><time>2026-04-25T10:48:30.224Z</time></trkpt><trkpt lat="43.5390686" lon="11.4541112"><ele>292.0</ele><time>2026-04-25T10:48:31.229Z</time></trkpt><trkpt lat="43.53913" lon="11.4541456"><ele>292.0</ele><time>2026-04-25T10:48:32.224Z</time></trkpt><trkpt lat="43.5391947" lon="11.4541788"><ele>292.0</ele><time>2026-04-25T10:48:33.223Z</time></trkpt><trkpt lat="43.5392595" lon="11.4542105"><ele>292.0</ele><time>2026-04-25T10:48:34.221Z</time></trkpt><trkpt lat="43.5393248" lon="11.4542336"><ele>292.0</ele><time>2026-04-25T10:48:35.219Z</time></trkpt><trkpt lat="43.5394521" lon="11.4542562"><ele>292.0</ele><time>2026-04-25T10:48:37.224Z</time></trkpt><trkpt lat="43.5395194" lon="11.4542446"><ele>291.7142857142857</ele><time>2026-04-25T10:48:38.217Z</time></trkpt><trkpt lat="43.5395808" lon="11.4542218"><ele>291.42857142857144</ele><time>2026-04-25T10:48:39.22Z</time></trkpt><trkpt lat="43.5396423" lon="11.4541815"><ele>291.14285714285717</ele><time>2026-04-25T10:48:40.223Z</time></trkpt><trkpt lat="43.5396997" lon="11.4541447"><ele>290.8571428571429</ele><time>2026-04-25T10:48:41.222Z</time></trkpt><trkpt lat="43.5398164" lon="11.4540786"><ele>290.5714285714286</ele><time>2026-04-25T10:48:43.225Z</time></trkpt><trkpt lat="43.5398745" lon="11.4540422"><ele>290.2857142857143</ele><time>2026-04-25T10:48:44.225Z</time></trkpt><trkpt lat="43.5399334" lon="11.454006"><ele>290.0</ele><time>2026-04-25T10:48:45.227Z</time></trkpt><trkpt lat="43.5400408" lon="11.4539415"><ele>290.0</ele><time>2026-04-25T10:48:47.225Z</time></trkpt><trkpt lat="43.5401431" lon="11.4538779"><ele>290.0</ele><time>2026-04-25T10:48:49.222Z</time></trkpt><trkpt lat="43.5402431" lon="11.4538131"><ele>290.0</ele><time>2026-04-25T10:48:51.218Z</time></trkpt><trkpt lat="43.5403376" lon="11.4537462"><ele>290.0</ele><time>2026-04-25T10:48:53.221Z</time></trkpt><trkpt lat="43.5404332" lon="11.4536695"><ele>290.0</ele><time>2026-04-25T10:48:55.226Z</time></trkpt><trkpt lat="43.5405247" lon="11.4535676"><ele>290.0</ele><time>2026-04-25T10:48:57.24Z</time></trkpt><trkpt lat="43.5406187" lon="11.4534614"><ele>290.0</ele><time>2026-04-25T10:48:59.237Z</time></trkpt><trkpt lat="43.5406711" lon="11.4534105"><ele>290.0</ele><time>2026-04-25T10:49:00.235Z</time></trkpt><trkpt lat="43.5407281" lon="11.4533646"><ele>290.0</ele><time>2026-04-25T10:49:01.225Z</time></trkpt><trkpt lat="43.5407856" lon="11.4533244"><ele>290.0</ele><time>2026-04-25T10:49:02.231Z</time></trkpt><trkpt lat="43.5409064" lon="11.4532669"><ele>290.0</ele><time>2026-04-25T10:49:04.226Z</time></trkpt><trkpt lat="43.5409687" lon="11.4532451"><ele>290.0</ele><time>2026-04-25T10:49:05.231Z</time></trkpt><trkpt lat="43.5410333" lon="11.4532298"><ele>290.0</ele><time>2026-04-25T10:49:06.216Z</time></trkpt><trkpt lat="43.5411518" lon="11.453221"><ele>290.0</ele><time>2026-04-25T10:49:08.217Z</time></trkpt><trkpt lat="43.5412595" lon="11.4532356"><ele>290.0</ele><time>2026-04-25T10:49:10.228Z</time></trkpt><trkpt lat="43.541359" lon="11.4532696"><ele>290.0</ele><time>2026-04-25T10:49:12.218Z</time></trkpt><trkpt lat="43.5414592" lon="11.4533172"><ele>290.0</ele><time>2026-04-25T10:49:14.222Z</time></trkpt><trkpt lat="43.5415553" lon="11.4533512"><ele>290.0</ele><time>2026-04-25T10:49:16.23Z</time></trkpt><trkpt lat="43.541641" lon="11.4533878"><ele>290.0</ele><time>2026-04-25T10:49:18.233Z</time></trkpt><trkpt lat="43.5417203" lon="11.453401"><ele>290.0</ele><time>2026-04-25T10:49:20.233Z</time></trkpt><trkpt lat="43.5418126" lon="11.4534128"><ele>290.0</ele><time>2026-04-25T10:49:22.235Z</time></trkpt><trkpt lat="43.5418991" lon="11.45343"><ele>290.0</ele><time>2026-04-25T10:49:24.232Z</time></trkpt><trkpt lat="43.5419856" lon="11.4534327"><ele>289.83333333333337</ele><time>2026-04-25T10:49:26.237Z</time></trkpt><trkpt lat="43.5420758" lon="11.4534247"><ele>289.6666666666667</ele><time>2026-04-25T10:49:28.22Z</time></trkpt><trkpt lat="43.5421554" lon="11.4534089"><ele>289.5</ele><time>2026-04-25T10:49:30.226Z</time></trkpt><trkpt lat="43.5422261" lon="11.4533846"><ele>289.3333333333333</ele><time>2026-04-25T10:49:32.222Z</time></trkpt><trkpt lat="43.5422975" lon="11.4533635"><ele>289.16666666666663</ele><time>2026-04-25T10:49:35.22Z</time></trkpt><trkpt lat="43.5423561" lon="11.4534036"><ele>289.0</ele><time>2026-04-25T10:49:37.234Z</time></trkpt><trkpt lat="43.5424318" lon="11.4534169"><ele>289.0</ele><time>2026-04-25T10:49:40.224Z</time></trkpt><trkpt lat="43.5424966" lon="11.4534229"><ele>289.0</ele><time>2026-04-25T10:49:43.204Z</time></trkpt><trkpt lat="43.5425689" lon="11.4534418"><ele>289.0</ele><time>2026-04-25T10:49:45.218Z</time></trkpt><trkpt lat="43.5426386" lon="11.4534702"><ele>289.0</ele><time>2026-04-25T10:49:47.217Z</time></trkpt><trkpt lat="43.5427241" lon="11.4534512"><ele>289.0</ele><time>2026-04-25T10:49:50.228Z</time></trkpt><trkpt lat="43.542794" lon="11.4534167"><ele>289.0</ele><time>2026-04-25T10:49:54.228Z</time></trkpt><trkpt lat="43.5428544" lon="11.4533799"><ele>289.0</ele><time>2026-04-25T10:49:58.236Z</time></trkpt><trkpt lat="43.5428839" lon="11.4532905"><ele>289.0</ele><time>2026-04-25T10:50:03.223Z</time></trkpt><trkpt lat="43.542846" lon="11.4533816"><ele>289.0</ele><time>2026-04-25T10:50:24.228Z</time></trkpt><trkpt lat="43.5427804" lon="11.4534452"><ele>289.0</ele><time>2026-04-25T10:50:29.229Z</time></trkpt><trkpt lat="43.5427173" lon="11.4534745"><ele>289.0</ele><time>2026-04-25T10:50:33.235Z</time></trkpt><trkpt lat="43.5426497" lon="11.4534935"><ele>289.0</ele><time>2026-04-25T10:50:38.232Z</time></trkpt><trkpt lat="43.5425758" lon="11.4534933"><ele>289.0</ele><time>2026-04-25T10:50:43.231Z</time></trkpt><trkpt lat="43.5425083" lon="11.4534569"><ele>289.0</ele><time>2026-04-25T10:50:47.225Z</time></trkpt><trkpt lat="43.5424387" lon="11.4534113"><ele>289.0</ele><time>2026-04-25T10:50:52.209Z</time></trkpt><trkpt lat="43.5423656" lon="11.4533959"><ele>289.0</ele><time>2026-04-25T10:50:55.206Z</time></trkpt><trkpt lat="43.5422929" lon="11.4534264"><ele>289.0</ele><time>2026-04-25T10:50:59.215Z</time></trkpt><trkpt lat="43.5422214" lon="11.4534316"><ele>289.0</ele><time>2026-04-25T10:51:02.218Z</time></trkpt><trkpt lat="43.5422022" lon="11.4533251"><ele>289.0</ele><time>2026-04-25T10:51:06.214Z</time></trkpt><trkpt lat="43.5422565" lon="11.4532648"><ele>289.0</ele><time>2026-04-25T10:51:08.211Z</time></trkpt><trkpt lat="43.5423107" lon="11.4532028"><ele>289.0</ele><time>2026-04-25T10:51:11.219Z</time></trkpt><trkpt lat="43.5423552" lon="11.4531315"><ele>289.0</ele><time>2026-04-25T10:51:14.232Z</time></trkpt><trkpt lat="43.5424114" lon="11.4530386"><ele>289.0</ele><time>2026-04-25T10:51:17.23Z</time></trkpt><trkpt lat="43.542454" lon="11.4529702"><ele>289.0</ele><time>2026-04-25T10:51:19.219Z</time></trkpt><trkpt lat="43.5425175" lon="11.452877"><ele>289.0</ele><time>2026-04-25T10:51:22.228Z</time></trkpt><trkpt lat="43.542574" lon="11.4528187"><ele>289.0</ele><time>2026-04-25T10:51:24.232Z</time></trkpt><trkpt lat="43.5426342" lon="11.4527516"><ele>289.0</ele><time>2026-04-25T10:51:26.232Z</time></trkpt><trkpt lat="43.5427059" lon="11.4526727"><ele>289.5</ele><time>2026-04-25T10:51:28.226Z</time></trkpt><trkpt lat="43.5427811" lon="11.4525827"><ele>290.0</ele><time>2026-04-25T10:51:30.226Z</time></trkpt><trkpt lat="43.5428585" lon="11.4524771"><ele>290.5</ele><time>2026-04-25T10:51:32.218Z</time></trkpt><trkpt lat="43.5429308" lon="11.4523458"><ele>291.0</ele><time>2026-04-25T10:51:34.219Z</time></trkpt><trkpt lat="43.5430154" lon="11.4522188"><ele>290.42857142857144</ele><time>2026-04-25T10:51:36.217Z</time></trkpt><trkpt lat="43.5430632" lon="11.4521493"><ele>289.85714285714283</ele><time>2026-04-25T10:51:37.217Z</time></trkpt><trkpt lat="43.5431131" lon="11.4520889"><ele>289.2857142857143</ele><time>2026-04-25T10:51:38.223Z</time></trkpt><trkpt lat="43.5431651" lon="11.4520295"><ele>288.7142857142857</ele><time>2026-04-25T10:51:39.219Z</time></trkpt><trkpt lat="43.5432182" lon="11.4519645"><ele>288.1428571428571</ele><time>2026-04-25T10:51:40.218Z</time></trkpt><trkpt lat="43.5432748" lon="11.4519011"><ele>287.57142857142856</ele><time>2026-04-25T10:51:41.218Z</time></trkpt><trkpt lat="43.5433329" lon="11.4518516"><ele>287.0</ele><time>2026-04-25T10:51:42.22Z</time></trkpt><trkpt lat="43.5433936" lon="11.451805"><ele>285.0</ele><time>2026-04-25T10:51:43.217Z</time></trkpt><trkpt lat="43.5434601" lon="11.4517589"><ele>283.0</ele><time>2026-04-25T10:51:44.217Z</time></trkpt><trkpt lat="43.5435269" lon="11.4517113"><ele>281.0</ele><time>2026-04-25T10:51:45.228Z</time></trkpt><trkpt lat="43.543596" lon="11.4516638"><ele>279.0</ele><time>2026-04-25T10:51:46.212Z</time></trkpt><trkpt lat="43.543665" lon="11.4516187"><ele>277.0</ele><time>2026-04-25T10:51:47.215Z</time></trkpt><trkpt lat="43.5437344" lon="11.4515732"><ele>275.0</ele><time>2026-04-25T10:51:48.221Z</time></trkpt><trkpt lat="43.5438012" lon="11.4515273"><ele>272.6666666666667</ele><time>2026-04-25T10:51:49.213Z</time></trkpt><trkpt lat="43.543868" lon="11.4514808"><ele>270.33333333333337</ele><time>2026-04-25T10:51:50.222Z</time></trkpt><trkpt lat="43.5439362" lon="11.4514358"><ele>268.0</ele><time>2026-04-25T10:51:51.216Z</time></trkpt><trkpt lat="43.5440006" lon="11.4513851"><ele>265.6666666666667</ele><time>2026-04-25T10:51:52.215Z</time></trkpt><trkpt lat="43.5440659" lon="11.4513364"><ele>263.3333333333333</ele><time>2026-04-25T10:51:53.214Z</time></trkpt><trkpt lat="43.5441342" lon="11.4512866"><ele>261.0</ele><time>2026-04-25T10:51:54.217Z</time></trkpt><trkpt lat="43.5442032" lon="11.4512366"><ele>261.0</ele><time>2026-04-25T10:51:55.214Z</time></trkpt><trkpt lat="43.5442696" lon="11.4511862"><ele>261.0</ele><time>2026-04-25T10:51:56.215Z</time></trkpt><trkpt lat="43.5443348" lon="11.4511335"><ele>261.0</ele><time>2026-04-25T10:51:57.217Z</time></trkpt><trkpt lat="43.5444014" lon="11.4510796"><ele>261.0</ele><time>2026-04-25T10:51:58.229Z</time></trkpt><trkpt lat="43.5444699" lon="11.4510261"><ele>261.0</ele><time>2026-04-25T10:51:59.221Z</time></trkpt><trkpt lat="43.5445396" lon="11.4509717"><ele>261.0</ele><time>2026-04-25T10:52:00.216Z</time></trkpt><trkpt lat="43.5446069" lon="11.4509194"><ele>262.5</ele><time>2026-04-25T10:52:01.221Z</time></trkpt><trkpt lat="43.5446751" lon="11.4508669"><ele>264.0</ele><time>2026-04-25T10:52:02.213Z</time></trkpt><trkpt lat="43.5447432" lon="11.4508137"><ele>265.5</ele><time>2026-04-25T10:52:03.218Z</time></trkpt><trkpt lat="43.5448113" lon="11.450768"><ele>267.0</ele><time>2026-04-25T10:52:04.224Z</time></trkpt><trkpt lat="43.5448812" lon="11.4507178"><ele>268.5</ele><time>2026-04-25T10:52:05.227Z</time></trkpt><trkpt lat="43.5449466" lon="11.450665"><ele>270.0</ele><time>2026-04-25T10:52:06.211Z</time></trkpt><trkpt lat="43.545009" lon="11.4506103"><ele>270.0</ele><time>2026-04-25T10:52:07.209Z</time></trkpt><trkpt lat="43.5450682" lon="11.450553"><ele>270.0</ele><time>2026-04-25T10:52:08.209Z</time></trkpt><trkpt lat="43.5451253" lon="11.4504825"><ele>270.0</ele><time>2026-04-25T10:52:09.209Z</time></trkpt><trkpt lat="43.5451779" lon="11.4503995"><ele>270.0</ele><time>2026-04-25T10:52:10.206Z</time></trkpt><trkpt lat="43.5452245" lon="11.4503063"><ele>270.0</ele><time>2026-04-25T10:52:11.211Z</time></trkpt><trkpt lat="43.5452691" lon="11.4502014"><ele>270.0</ele><time>2026-04-25T10:52:12.21Z</time></trkpt><trkpt lat="43.5453153" lon="11.4500865"><ele>270.0</ele><time>2026-04-25T10:52:13.212Z</time></trkpt><trkpt lat="43.5453594" lon="11.449954"><ele>270.0</ele><time>2026-04-25T10:52:14.226Z</time></trkpt><trkpt lat="43.545405" lon="11.4498166"><ele>270.0</ele><time>2026-04-25T10:52:15.21Z</time></trkpt><trkpt lat="43.5454515" lon="11.4496777"><ele>270.0</ele><time>2026-04-25T10:52:16.211Z</time></trkpt><trkpt lat="43.5455059" lon="11.4495403"><ele>270.0</ele><time>2026-04-25T10:52:17.212Z</time></trkpt><trkpt lat="43.5455668" lon="11.4494106"><ele>270.0</ele><time>2026-04-25T10:52:18.226Z</time></trkpt><trkpt lat="43.5456358" lon="11.4492864"><ele>270.0</ele><time>2026-04-25T10:52:19.218Z</time></trkpt><trkpt lat="43.5457056" lon="11.4491673"><ele>270.0</ele><time>2026-04-25T10:52:20.213Z</time></trkpt><trkpt lat="43.545771" lon="11.4490703"><ele>270.0</ele><time>2026-04-25T10:52:21.212Z</time></trkpt><trkpt lat="43.5458401" lon="11.4489895"><ele>270.0</ele><time>2026-04-25T10:52:22.22Z</time></trkpt><trkpt lat="43.5459099" lon="11.4489218"><ele>270.0</ele><time>2026-04-25T10:52:23.215Z</time></trkpt><trkpt lat="43.5459646" lon="11.4488447"><ele>270.0</ele><time>2026-04-25T10:52:24.204Z</time></trkpt><trkpt lat="43.5460593" lon="11.44877"><ele>270.0</ele><time>2026-04-25T10:52:26.212Z</time></trkpt><trkpt lat="43.5461565" lon="11.4487601"><ele>270.0</ele><time>2026-04-25T10:52:28.21Z</time></trkpt><trkpt lat="43.5462568" lon="11.448784"><ele>270.0</ele><time>2026-04-25T10:52:30.204Z</time></trkpt><trkpt lat="43.5463545" lon="11.4488386"><ele>265.25</ele><time>2026-04-25T10:52:31.209Z</time></trkpt><trkpt lat="43.5464528" lon="11.4489093"><ele>260.5</ele><time>2026-04-25T10:52:32.211Z</time></trkpt><trkpt lat="43.5465647" lon="11.4489981"><ele>255.75</ele><time>2026-04-25T10:52:33.207Z</time></trkpt><trkpt lat="43.5466673" lon="11.4491178"><ele>251.0</ele><time>2026-04-25T10:52:34.218Z</time></trkpt><trkpt lat="43.5467882" lon="11.4493981"><ele>251.0</ele><time>2026-04-25T10:52:35.202Z</time></trkpt><trkpt lat="43.5468805" lon="11.4495816"><ele>251.0</ele><time>2026-04-25T10:52:36.206Z</time></trkpt><trkpt lat="43.546993" lon="11.4499479"><ele>246.33333333333334</ele><time>2026-04-25T10:52:37.214Z</time></trkpt><trkpt lat="43.5470977" lon="11.4502612"><ele>241.66666666666669</ele><time>2026-04-25T10:52:38.206Z</time></trkpt><trkpt lat="43.5471733" lon="11.4504719"><ele>237.0</ele><time>2026-04-25T10:52:39.216Z</time></trkpt><trkpt lat="43.5472441" lon="11.4506546"><ele>237.0</ele><time>2026-04-25T10:52:40.233Z</time></trkpt><trkpt lat="43.5473288" lon="11.4508168"><ele>237.0</ele><time>2026-04-25T10:52:41.222Z</time></trkpt><trkpt lat="43.5474276" lon="11.450973"><ele>237.0</ele><time>2026-04-25T10:52:42.24Z</time></trkpt><trkpt lat="43.5475428" lon="11.4510769"><ele>237.0</ele><time>2026-04-25T10:52:43.232Z</time></trkpt><trkpt lat="43.5476778" lon="11.451171"><ele>237.0</ele><time>2026-04-25T10:52:44.23Z</time></trkpt><trkpt lat="43.5478154" lon="11.4512236"><ele>237.0</ele><time>2026-04-25T10:52:45.231Z</time></trkpt><trkpt lat="43.5479564" lon="11.451259"><ele>237.0</ele><time>2026-04-25T10:52:46.228Z</time></trkpt><trkpt lat="43.5481" lon="11.451283"><ele>237.0</ele><time>2026-04-25T10:52:47.233Z</time></trkpt><trkpt lat="43.5482327" lon="11.4512892"><ele>235.75</ele><time>2026-04-25T10:52:48.228Z</time></trkpt><trkpt lat="43.5483675" lon="11.4512877"><ele>234.5</ele><time>2026-04-25T10:52:49.225Z</time></trkpt><trkpt lat="43.5484988" lon="11.4512841"><ele>233.25</ele><time>2026-04-25T10:52:50.234Z</time></trkpt><trkpt lat="43.5486275" lon="11.4512758"><ele>232.0</ele><time>2026-04-25T10:52:51.216Z</time></trkpt><trkpt lat="43.5487636" lon="11.4512737"><ele>230.75</ele><time>2026-04-25T10:52:52.235Z</time></trkpt><trkpt lat="43.5488992" lon="11.4512677"><ele>229.5</ele><time>2026-04-25T10:52:53.232Z</time></trkpt><trkpt lat="43.5490335" lon="11.451264"><ele>228.25</ele><time>2026-04-25T10:52:54.232Z</time></trkpt><trkpt lat="43.5491678" lon="11.4512652"><ele>227.0</ele><time>2026-04-25T10:52:55.237Z</time></trkpt><trkpt lat="43.5493026" lon="11.4512855"><ele>227.0</ele><time>2026-04-25T10:52:56.239Z</time></trkpt><trkpt lat="43.5494335" lon="11.4513217"><ele>227.0</ele><time>2026-04-25T10:52:57.235Z</time></trkpt><trkpt lat="43.5495587" lon="11.4513822"><ele>227.0</ele><time>2026-04-25T10:52:58.227Z</time></trkpt><trkpt lat="43.5496902" lon="11.451455"><ele>227.0</ele><time>2026-04-25T10:52:59.223Z</time></trkpt><trkpt lat="43.5498125" lon="11.4515387"><ele>225.0</ele><time>2026-04-25T10:53:00.239Z</time></trkpt><trkpt lat="43.5499332" lon="11.451604"><ele>223.0</ele><time>2026-04-25T10:53:01.31Z</time></trkpt><trkpt lat="43.5500545" lon="11.4516666"><ele>221.0</ele><time>2026-04-25T10:53:02.304Z</time></trkpt><trkpt lat="43.5501753" lon="11.4517257"><ele>219.0</ele><time>2026-04-25T10:53:03.303Z</time></trkpt><trkpt lat="43.5502953" lon="11.4517795"><ele>216.75</ele><time>2026-04-25T10:53:04.317Z</time></trkpt><trkpt lat="43.5504149" lon="11.4518302"><ele>214.5</ele><time>2026-04-25T10:53:05.32Z</time></trkpt><trkpt lat="43.5505334" lon="11.4518816"><ele>212.25</ele><time>2026-04-25T10:53:06.302Z</time></trkpt><trkpt lat="43.55065" lon="11.4519343"><ele>210.0</ele><time>2026-04-25T10:53:07.305Z</time></trkpt><trkpt lat="43.5507663" lon="11.4519881"><ele>210.0</ele><time>2026-04-25T10:53:08.311Z</time></trkpt><trkpt lat="43.5508817" lon="11.4520413"><ele>210.0</ele><time>2026-04-25T10:53:09.307Z</time></trkpt><trkpt lat="43.550997" lon="11.452095"><ele>210.0</ele><time>2026-04-25T10:53:10.307Z</time></trkpt><trkpt lat="43.5511144" lon="11.4522067"><ele>210.0</ele><time>2026-04-25T10:53:11.318Z</time></trkpt><trkpt lat="43.5512396" lon="11.4522321"><ele>208.0</ele><time>2026-04-25T10:53:12.303Z</time></trkpt><trkpt lat="43.5513617" lon="11.4522264"><ele>206.0</ele><time>2026-04-25T10:53:13.313Z</time></trkpt><trkpt lat="43.5514823" lon="11.4521947"><ele>204.0</ele><time>2026-04-25T10:53:14.296Z</time></trkpt><trkpt lat="43.5515938" lon="11.4521507"><ele>202.0</ele><time>2026-04-25T10:53:15.294Z</time></trkpt><trkpt lat="43.5517047" lon="11.4520968"><ele>202.0</ele><time>2026-04-25T10:53:16.3Z</time></trkpt><trkpt lat="43.5518112" lon="11.4520423"><ele>202.0</ele><time>2026-04-25T10:53:17.3Z</time></trkpt><trkpt lat="43.5519161" lon="11.451989"><ele>202.0</ele><time>2026-04-25T10:53:18.303Z</time></trkpt><trkpt lat="43.5520182" lon="11.4519277"><ele>202.0</ele><time>2026-04-25T10:53:19.31Z</time></trkpt><trkpt lat="43.5521085" lon="11.4518624"><ele>202.0</ele><time>2026-04-25T10:53:20.326Z</time></trkpt><trkpt lat="43.5521902" lon="11.4517881"><ele>201.33333333333331</ele><time>2026-04-25T10:53:21.303Z</time></trkpt><trkpt lat="43.5522657" lon="11.4517111"><ele>200.66666666666666</ele><time>2026-04-25T10:53:22.304Z</time></trkpt><trkpt lat="43.5523362" lon="11.4516326"><ele>200.0</ele><time>2026-04-25T10:53:23.313Z</time></trkpt><trkpt lat="43.5524022" lon="11.4515539"><ele>199.33333333333331</ele><time>2026-04-25T10:53:24.312Z</time></trkpt><trkpt lat="43.5524636" lon="11.4514745"><ele>198.66666666666666</ele><time>2026-04-25T10:53:25.301Z</time></trkpt><trkpt lat="43.5525239" lon="11.4513982"><ele>198.0</ele><time>2026-04-25T10:53:26.315Z</time></trkpt><trkpt lat="43.552584" lon="11.4513233"><ele>197.66666666666666</ele><time>2026-04-25T10:53:27.32Z</time></trkpt><trkpt lat="43.5526456" lon="11.4512481"><ele>197.33333333333331</ele><time>2026-04-25T10:53:28.308Z</time></trkpt><trkpt lat="43.5527066" lon="11.4511773"><ele>197.0</ele><time>2026-04-25T10:53:29.323Z</time></trkpt><trkpt lat="43.5527662" lon="11.4511081"><ele>196.66666666666666</ele><time>2026-04-25T10:53:30.319Z</time></trkpt><trkpt lat="43.5528268" lon="11.4510385"><ele>196.33333333333331</ele><time>2026-04-25T10:53:31.309Z</time></trkpt><trkpt lat="43.5528874" lon="11.4509733"><ele>196.0</ele><time>2026-04-25T10:53:32.317Z</time></trkpt><trkpt lat="43.5529499" lon="11.4509103"><ele>195.99999999999997</ele><time>2026-04-25T10:53:33.306Z</time></trkpt><trkpt lat="43.5530146" lon="11.4508558"><ele>196.0</ele><time>2026-04-25T10:53:34.308Z</time></trkpt><trkpt lat="43.5530784" lon="11.4508073"><ele>196.0</ele><time>2026-04-25T10:53:35.312Z</time></trkpt><trkpt lat="43.5531518" lon="11.4507571"><ele>196.0</ele><time>2026-04-25T10:53:36.298Z</time></trkpt><trkpt lat="43.5532261" lon="11.4507191"><ele>195.99999999999997</ele><time>2026-04-25T10:53:37.299Z</time></trkpt><trkpt lat="43.5533036" lon="11.4506835"><ele>196.0</ele><time>2026-04-25T10:53:38.314Z</time></trkpt><trkpt lat="43.5533849" lon="11.4506572"><ele>195.99999999999997</ele><time>2026-04-25T10:53:39.299Z</time></trkpt><trkpt lat="43.5534684" lon="11.4506379"><ele>196.0</ele><time>2026-04-25T10:53:40.309Z</time></trkpt><trkpt lat="43.5535533" lon="11.4506236"><ele>196.0</ele><time>2026-04-25T10:53:41.321Z</time></trkpt><trkpt lat="43.5536402" lon="11.4506155"><ele>196.0</ele><time>2026-04-25T10:53:42.322Z</time></trkpt><trkpt lat="43.5537255" lon="11.4506122"><ele>195.99999999999997</ele><time>2026-04-25T10:53:43.319Z</time></trkpt><trkpt lat="43.5538119" lon="11.4506141"><ele>196.0</ele><time>2026-04-25T10:53:44.32Z</time></trkpt><trkpt lat="43.553898" lon="11.450621"><ele>195.16666666666666</ele><time>2026-04-25T10:53:45.315Z</time></trkpt><trkpt lat="43.5539872" lon="11.4506372"><ele>194.33333333333331</ele><time>2026-04-25T10:53:46.315Z</time></trkpt><trkpt lat="43.5540715" lon="11.4506659"><ele>193.5</ele><time>2026-04-25T10:53:47.306Z</time></trkpt><trkpt lat="43.5541552" lon="11.4507009"><ele>192.66666666666666</ele><time>2026-04-25T10:53:48.304Z</time></trkpt><trkpt lat="43.5542367" lon="11.4507388"><ele>191.83333333333331</ele><time>2026-04-25T10:53:49.312Z</time></trkpt><trkpt lat="43.5543152" lon="11.4507806"><ele>191.0</ele><time>2026-04-25T10:53:50.319Z</time></trkpt><trkpt lat="43.5543906" lon="11.4508268"><ele>191.0</ele><time>2026-04-25T10:53:51.301Z</time></trkpt><trkpt lat="43.5544639" lon="11.4508737"><ele>191.0</ele><time>2026-04-25T10:53:52.308Z</time></trkpt><trkpt lat="43.554535" lon="11.4509196"><ele>191.0</ele><time>2026-04-25T10:53:53.319Z</time></trkpt><trkpt lat="43.5546057" lon="11.4509645"><ele>191.0</ele><time>2026-04-25T10:53:54.311Z</time></trkpt><trkpt lat="43.5546717" lon="11.4510058"><ele>191.0</ele><time>2026-04-25T10:53:55.318Z</time></trkpt><trkpt lat="43.5547366" lon="11.4510499"><ele>191.0</ele><time>2026-04-25T10:53:56.324Z</time></trkpt><trkpt lat="43.554799" lon="11.451091"><ele>190.20000000000002</ele><time>2026-04-25T10:53:57.314Z</time></trkpt><trkpt lat="43.5548562" lon="11.4511287"><ele>189.4</ele><time>2026-04-25T10:53:58.33Z</time></trkpt><trkpt lat="43.5549624" lon="11.4511934"><ele>188.6</ele><time>2026-04-25T10:54:00.309Z</time></trkpt><trkpt lat="43.5550655" lon="11.4512574"><ele>187.8</ele><time>2026-04-25T10:54:02.317Z</time></trkpt><trkpt lat="43.5551655" lon="11.4513242"><ele>187.0</ele><time>2026-04-25T10:54:04.317Z</time></trkpt><trkpt lat="43.5552761" lon="11.4513943"><ele>187.0</ele><time>2026-04-25T10:54:06.323Z</time></trkpt><trkpt lat="43.5553341" lon="11.451431"><ele>187.0</ele><time>2026-04-25T10:54:07.304Z</time></trkpt><trkpt lat="43.5553925" lon="11.4514687"><ele>187.0</ele><time>2026-04-25T10:54:08.324Z</time></trkpt><trkpt lat="43.555452" lon="11.4515068"><ele>187.0</ele><time>2026-04-25T10:54:09.331Z</time></trkpt><trkpt lat="43.5555115" lon="11.4515433"><ele>187.0</ele><time>2026-04-25T10:54:10.317Z</time></trkpt><trkpt lat="43.5555692" lon="11.4515788"><ele>187.0</ele><time>2026-04-25T10:54:11.322Z</time></trkpt><trkpt lat="43.5556791" lon="11.4516432"><ele>187.0</ele><time>2026-04-25T10:54:13.33Z</time></trkpt><trkpt lat="43.555784" lon="11.4517079"><ele>187.0</ele><time>2026-04-25T10:54:15.323Z</time></trkpt><trkpt lat="43.5558864" lon="11.4517684"><ele>187.0</ele><time>2026-04-25T10:54:17.32Z</time></trkpt><trkpt lat="43.5559935" lon="11.4518261"><ele>187.0</ele><time>2026-04-25T10:54:19.316Z</time></trkpt><trkpt lat="43.5560964" lon="11.4518736"><ele>187.0</ele><time>2026-04-25T10:54:21.313Z</time></trkpt><trkpt lat="43.5561955" lon="11.4519175"><ele>187.0</ele><time>2026-04-25T10:54:23.316Z</time></trkpt><trkpt lat="43.5562965" lon="11.4519511"><ele>187.2</ele><time>2026-04-25T10:54:25.311Z</time></trkpt><trkpt lat="43.5563977" lon="11.4519765"><ele>187.39999999999998</ele><time>2026-04-25T10:54:27.311Z</time></trkpt><trkpt lat="43.5565001" lon="11.4519866"><ele>187.60000000000002</ele><time>2026-04-25T10:54:29.317Z</time></trkpt><trkpt lat="43.5566002" lon="11.4519962"><ele>187.8</ele><time>2026-04-25T10:54:31.315Z</time></trkpt><trkpt lat="43.5566978" lon="11.4519975"><ele>188.0</ele><time>2026-04-25T10:54:33.311Z</time></trkpt><trkpt lat="43.556798" lon="11.4519931"><ele>188.0</ele><time>2026-04-25T10:54:35.318Z</time></trkpt><trkpt lat="43.5569092" lon="11.4519604"><ele>188.0</ele><time>2026-04-25T10:54:37.31Z</time></trkpt><trkpt lat="43.5570155" lon="11.4519282"><ele>188.0</ele><time>2026-04-25T10:54:39.313Z</time></trkpt><trkpt lat="43.5571177" lon="11.4518976"><ele>188.0</ele><time>2026-04-25T10:54:41.313Z</time></trkpt><trkpt lat="43.5572201" lon="11.4518625"><ele>188.0</ele><time>2026-04-25T10:54:43.312Z</time></trkpt><trkpt lat="43.557323" lon="11.4518212"><ele>188.2</ele><time>2026-04-25T10:54:45.322Z</time></trkpt><trkpt lat="43.5574234" lon="11.451793"><ele>188.4</ele><time>2026-04-25T10:54:47.304Z</time></trkpt><trkpt lat="43.557526" lon="11.4517875"><ele>188.6</ele><time>2026-04-25T10:54:49.317Z</time></trkpt><trkpt lat="43.5576287" lon="11.4517932"><ele>188.79999999999998</ele><time>2026-04-25T10:54:51.309Z</time></trkpt><trkpt lat="43.5577406" lon="11.4518114"><ele>189.0</ele><time>2026-04-25T10:54:53.312Z</time></trkpt><trkpt lat="43.5578539" lon="11.4518419"><ele>188.75</ele><time>2026-04-25T10:54:55.315Z</time></trkpt><trkpt lat="43.557968" lon="11.4518876"><ele>188.5</ele><time>2026-04-25T10:54:57.317Z</time></trkpt><trkpt lat="43.5580783" lon="11.4519403"><ele>188.25</ele><time>2026-04-25T10:54:59.319Z</time></trkpt><trkpt lat="43.5581829" lon="11.4520058"><ele>188.0</ele><time>2026-04-25T10:55:01.313Z</time></trkpt><trkpt lat="43.5582789" lon="11.4520801"><ele>188.33333333333331</ele><time>2026-04-25T10:55:03.318Z</time></trkpt><trkpt lat="43.5583343" lon="11.452126"><ele>188.66666666666666</ele><time>2026-04-25T10:55:04.328Z</time></trkpt><trkpt lat="43.5584309" lon="11.452229"><ele>189.0</ele><time>2026-04-25T10:55:06.316Z</time></trkpt><trkpt lat="43.5584797" lon="11.4522888"><ele>189.33333333333334</ele><time>2026-04-25T10:55:07.304Z</time></trkpt><trkpt lat="43.5585274" lon="11.4523516"><ele>189.66666666666669</ele><time>2026-04-25T10:55:08.325Z</time></trkpt><trkpt lat="43.5585742" lon="11.4524205"><ele>190.0</ele><time>2026-04-25T10:55:09.31Z</time></trkpt><trkpt lat="43.5586202" lon="11.4524913"><ele>190.0</ele><time>2026-04-25T10:55:10.304Z</time></trkpt><trkpt lat="43.5586667" lon="11.4525603"><ele>190.0</ele><time>2026-04-25T10:55:11.332Z</time></trkpt><trkpt lat="43.5587116" lon="11.4526289"><ele>190.0</ele><time>2026-04-25T10:55:12.314Z</time></trkpt><trkpt lat="43.5587531" lon="11.4526954"><ele>190.0</ele><time>2026-04-25T10:55:13.327Z</time></trkpt><trkpt lat="43.5587958" lon="11.4527598"><ele>190.0</ele><time>2026-04-25T10:55:14.33Z</time></trkpt><trkpt lat="43.5588745" lon="11.4528918"><ele>190.0</ele><time>2026-04-25T10:55:16.309Z</time></trkpt><trkpt lat="43.5589521" lon="11.4530283"><ele>189.57142857142858</ele><time>2026-04-25T10:55:18.316Z</time></trkpt><trkpt lat="43.5589949" lon="11.4531015"><ele>189.14285714285717</ele><time>2026-04-25T10:55:19.321Z</time></trkpt><trkpt lat="43.5590397" lon="11.4531703"><ele>188.71428571428572</ele><time>2026-04-25T10:55:20.325Z</time></trkpt><trkpt lat="43.5590833" lon="11.4532477"><ele>188.28571428571428</ele><time>2026-04-25T10:55:21.321Z</time></trkpt><trkpt lat="43.5591283" lon="11.4533199"><ele>187.85714285714286</ele><time>2026-04-25T10:55:22.312Z</time></trkpt><trkpt lat="43.5591753" lon="11.4533923"><ele>187.42857142857142</ele><time>2026-04-25T10:55:23.316Z</time></trkpt><trkpt lat="43.5592189" lon="11.4534705"><ele>187.0</ele><time>2026-04-25T10:55:24.317Z</time></trkpt><trkpt lat="43.5592637" lon="11.453548"><ele>187.0</ele><time>2026-04-25T10:55:25.322Z</time></trkpt><trkpt lat="43.5593094" lon="11.4536262"><ele>187.0</ele><time>2026-04-25T10:55:26.331Z</time></trkpt><trkpt lat="43.5593563" lon="11.4537047"><ele>187.0</ele><time>2026-04-25T10:55:27.325Z</time></trkpt><trkpt lat="43.5594034" lon="11.453784"><ele>187.0</ele><time>2026-04-25T10:55:28.336Z</time></trkpt><trkpt lat="43.5594507" lon="11.4538627"><ele>187.0</ele><time>2026-04-25T10:55:29.336Z</time></trkpt><trkpt lat="43.5594994" lon="11.453941"><ele>187.0</ele><time>2026-04-25T10:55:30.329Z</time></trkpt><trkpt lat="43.5595477" lon="11.4540186"><ele>187.0</ele><time>2026-04-25T10:55:31.323Z</time></trkpt><trkpt lat="43.5595971" lon="11.4540967"><ele>187.16666666666669</ele><time>2026-04-25T10:55:32.328Z</time></trkpt><trkpt lat="43.5596465" lon="11.4541771"><ele>187.33333333333334</ele><time>2026-04-25T10:55:33.325Z</time></trkpt><trkpt lat="43.5596949" lon="11.4542595"><ele>187.5</ele><time>2026-04-25T10:55:34.316Z</time></trkpt><trkpt lat="43.5597437" lon="11.4543446"><ele>187.66666666666666</ele><time>2026-04-25T10:55:35.323Z</time></trkpt><trkpt lat="43.5597894" lon="11.4544321"><ele>187.83333333333331</ele><time>2026-04-25T10:55:36.321Z</time></trkpt><trkpt lat="43.5598334" lon="11.4545214"><ele>188.0</ele><time>2026-04-25T10:55:37.307Z</time></trkpt><trkpt lat="43.5598755" lon="11.4546117"><ele>187.5</ele><time>2026-04-25T10:55:38.303Z</time></trkpt><trkpt lat="43.5599136" lon="11.4547045"><ele>187.0</ele><time>2026-04-25T10:55:39.304Z</time></trkpt><trkpt lat="43.559949" lon="11.4547974"><ele>186.5</ele><time>2026-04-25T10:55:40.305Z</time></trkpt><trkpt lat="43.559982" lon="11.4548907"><ele>186.0</ele><time>2026-04-25T10:55:41.306Z</time></trkpt><trkpt lat="43.5600145" lon="11.4549848"><ele>185.5</ele><time>2026-04-25T10:55:42.304Z</time></trkpt><trkpt lat="43.5600449" lon="11.4550794"><ele>185.0</ele><time>2026-04-25T10:55:43.313Z</time></trkpt><trkpt lat="43.5600741" lon="11.4551765"><ele>184.99999999999997</ele><time>2026-04-25T10:55:44.316Z</time></trkpt><trkpt lat="43.5601031" lon="11.4552734"><ele>185.0</ele><time>2026-04-25T10:55:45.312Z</time></trkpt><trkpt lat="43.5601299" lon="11.4553708"><ele>185.0</ele><time>2026-04-25T10:55:46.315Z</time></trkpt><trkpt lat="43.5601545" lon="11.4554674"><ele>185.0</ele><time>2026-04-25T10:55:47.311Z</time></trkpt><trkpt lat="43.5601707" lon="11.4555654"><ele>185.0</ele><time>2026-04-25T10:55:48.314Z</time></trkpt><trkpt lat="43.5601865" lon="11.45566"><ele>184.99999999999997</ele><time>2026-04-25T10:55:49.314Z</time></trkpt><trkpt lat="43.5602032" lon="11.4557505"><ele>185.0</ele><time>2026-04-25T10:55:50.31Z</time></trkpt><trkpt lat="43.5602192" lon="11.4558389"><ele>184.2</ele><time>2026-04-25T10:55:51.31Z</time></trkpt><trkpt lat="43.5602347" lon="11.4559239"><ele>183.4</ele><time>2026-04-25T10:55:52.302Z</time></trkpt><trkpt lat="43.5602653" lon="11.4560869"><ele>182.60000000000002</ele><time>2026-04-25T10:55:54.313Z</time></trkpt><trkpt lat="43.5602965" lon="11.4562398"><ele>181.8</ele><time>2026-04-25T10:55:56.308Z</time></trkpt><trkpt lat="43.5603287" lon="11.4563949"><ele>181.0</ele><time>2026-04-25T10:55:58.31Z</time></trkpt><trkpt lat="43.560364" lon="11.45655"><ele>181.75</ele><time>2026-04-25T10:56:00.318Z</time></trkpt><trkpt lat="43.560397" lon="11.4567117"><ele>182.5</ele><time>2026-04-25T10:56:02.309Z</time></trkpt><trkpt lat="43.5604317" lon="11.4568716"><ele>183.25</ele><time>2026-04-25T10:56:04.312Z</time></trkpt><trkpt lat="43.5604627" lon="11.457034"><ele>184.0</ele><time>2026-04-25T10:56:06.306Z</time></trkpt><trkpt lat="43.5604938" lon="11.4571973"><ele>184.0</ele><time>2026-04-25T10:56:08.309Z</time></trkpt><trkpt lat="43.5605232" lon="11.457362"><ele>184.0</ele><time>2026-04-25T10:56:10.32Z</time></trkpt><trkpt lat="43.5605468" lon="11.4575344"><ele>184.0</ele><time>2026-04-25T10:56:12.317Z</time></trkpt><trkpt lat="43.5605726" lon="11.4576968"><ele>184.0</ele><time>2026-04-25T10:56:14.319Z</time></trkpt><trkpt lat="43.5605987" lon="11.4578548"><ele>184.0</ele><time>2026-04-25T10:56:16.311Z</time></trkpt><trkpt lat="43.5606292" lon="11.4580074"><ele>184.0</ele><time>2026-04-25T10:56:18.326Z</time></trkpt><trkpt lat="43.5606597" lon="11.4581653"><ele>184.0</ele><time>2026-04-25T10:56:20.331Z</time></trkpt><trkpt lat="43.560693" lon="11.4583277"><ele>184.0</ele><time>2026-04-25T10:56:22.325Z</time></trkpt><trkpt lat="43.5607249" lon="11.4584942"><ele>184.0</ele><time>2026-04-25T10:56:24.327Z</time></trkpt><trkpt lat="43.5607596" lon="11.4586622"><ele>184.0</ele><time>2026-04-25T10:56:26.319Z</time></trkpt><trkpt lat="43.5607757" lon="11.4587463"><ele>184.0</ele><time>2026-04-25T10:56:27.324Z</time></trkpt><trkpt lat="43.5608087" lon="11.458911"><ele>184.0</ele><time>2026-04-25T10:56:29.327Z</time></trkpt><trkpt lat="43.5608234" lon="11.4589966"><ele>184.0</ele><time>2026-04-25T10:56:30.325Z</time></trkpt><trkpt lat="43.56084" lon="11.4590832"><ele>184.0</ele><time>2026-04-25T10:56:31.319Z</time></trkpt><trkpt lat="43.560859" lon="11.4591727"><ele>184.0</ele><time>2026-04-25T10:56:32.31Z</time></trkpt><trkpt lat="43.560876" lon="11.459267"><ele>184.0</ele><time>2026-04-25T10:56:33.314Z</time></trkpt><trkpt lat="43.5608947" lon="11.4593658"><ele>184.0</ele><time>2026-04-25T10:56:34.313Z</time></trkpt><trkpt lat="43.5609135" lon="11.4594669"><ele>184.0</ele><time>2026-04-25T10:56:35.332Z</time></trkpt><trkpt lat="43.5609369" lon="11.4595727"><ele>184.0</ele><time>2026-04-25T10:56:36.319Z</time></trkpt><trkpt lat="43.5609608" lon="11.4596808"><ele>184.0</ele><time>2026-04-25T10:56:37.328Z</time></trkpt><trkpt lat="43.5609844" lon="11.4597924"><ele>183.2</ele><time>2026-04-25T10:56:38.335Z</time></trkpt><trkpt lat="43.5610071" lon="11.4599071"><ele>182.39999999999998</ele><time>2026-04-25T10:56:39.325Z</time></trkpt><trkpt lat="43.5610315" lon="11.4600258"><ele>181.6</ele><time>2026-04-25T10:56:40.331Z</time></trkpt><trkpt lat="43.5610559" lon="11.4601469"><ele>180.8</ele><time>2026-04-25T10:56:41.328Z</time></trkpt><trkpt lat="43.5610817" lon="11.4602719"><ele>180.0</ele><time>2026-04-25T10:56:42.326Z</time></trkpt><trkpt lat="43.5611097" lon="11.4603996"><ele>179.8</ele><time>2026-04-25T10:56:43.326Z</time></trkpt><trkpt lat="43.5611372" lon="11.4605289"><ele>179.6</ele><time>2026-04-25T10:56:44.319Z</time></trkpt><trkpt lat="43.5611656" lon="11.4606624"><ele>179.39999999999998</ele><time>2026-04-25T10:56:45.327Z</time></trkpt><trkpt lat="43.5611926" lon="11.4607997"><ele>179.2</ele><time>2026-04-25T10:56:46.329Z</time></trkpt><trkpt lat="43.5612214" lon="11.4609396"><ele>179.0</ele><time>2026-04-25T10:56:47.313Z</time></trkpt><trkpt lat="43.5612495" lon="11.4610805"><ele>179.0</ele><time>2026-04-25T10:56:48.318Z</time></trkpt><trkpt lat="43.5612784" lon="11.4612264"><ele>179.0</ele><time>2026-04-25T10:56:49.329Z</time></trkpt><trkpt lat="43.5613081" lon="11.4613756"><ele>179.0</ele><time>2026-04-25T10:56:50.332Z</time></trkpt><trkpt lat="43.5613378" lon="11.4615291"><ele>179.0</ele><time>2026-04-25T10:56:51.325Z</time></trkpt><trkpt lat="43.5613657" lon="11.461683"><ele>177.25</ele><time>2026-04-25T10:56:52.331Z</time></trkpt><trkpt lat="43.5613917" lon="11.4618407"><ele>175.5</ele><time>2026-04-25T10:56:53.333Z</time></trkpt><trkpt lat="43.5614165" lon="11.462001"><ele>173.75</ele><time>2026-04-25T10:56:54.324Z</time></trkpt><trkpt lat="43.5614361" lon="11.4621623"><ele>172.0</ele><time>2026-04-25T10:56:55.321Z</time></trkpt><trkpt lat="43.5614511" lon="11.4623283"><ele>171.25</ele><time>2026-04-25T10:56:56.343Z</time></trkpt><trkpt lat="43.5614615" lon="11.4624954"><ele>170.5</ele><time>2026-04-25T10:56:57.319Z</time></trkpt><trkpt lat="43.561465" lon="11.4626657"><ele>169.75</ele><time>2026-04-25T10:56:58.332Z</time></trkpt><trkpt lat="43.5614616" lon="11.4628377"><ele>169.0</ele><time>2026-04-25T10:56:59.333Z</time></trkpt><trkpt lat="43.5614532" lon="11.463013"><ele>168.25</ele><time>2026-04-25T10:57:00.325Z</time></trkpt><trkpt lat="43.5614404" lon="11.4631867"><ele>167.5</ele><time>2026-04-25T10:57:01.322Z</time></trkpt><trkpt lat="43.561424" lon="11.463358"><ele>166.75</ele><time>2026-04-25T10:57:02.321Z</time></trkpt><trkpt lat="43.561406" lon="11.4635289"><ele>166.0</ele><time>2026-04-25T10:57:03.323Z</time></trkpt><trkpt lat="43.5613872" lon="11.4636977"><ele>165.5</ele><time>2026-04-25T10:57:04.311Z</time></trkpt><trkpt lat="43.5613666" lon="11.463863"><ele>165.0</ele><time>2026-04-25T10:57:05.323Z</time></trkpt><trkpt lat="43.5613466" lon="11.4640244"><ele>164.5</ele><time>2026-04-25T10:57:06.327Z</time></trkpt><trkpt lat="43.5613265" lon="11.4641817"><ele>164.0</ele><time>2026-04-25T10:57:07.32Z</time></trkpt><trkpt lat="43.5613081" lon="11.4643349"><ele>164.0</ele><time>2026-04-25T10:57:08.329Z</time></trkpt><trkpt lat="43.5612911" lon="11.4644847"><ele>164.0</ele><time>2026-04-25T10:57:09.329Z</time></trkpt><trkpt lat="43.5612731" lon="11.464631"><ele>164.0</ele><time>2026-04-25T10:57:10.321Z</time></trkpt><trkpt lat="43.5612558" lon="11.4647747"><ele>164.0</ele><time>2026-04-25T10:57:11.323Z</time></trkpt><trkpt lat="43.5612377" lon="11.4649147"><ele>164.0</ele><time>2026-04-25T10:57:12.335Z</time></trkpt><trkpt lat="43.5612209" lon="11.465054"><ele>163.6</ele><time>2026-04-25T10:57:13.324Z</time></trkpt><trkpt lat="43.5612073" lon="11.4651917"><ele>163.2</ele><time>2026-04-25T10:57:14.325Z</time></trkpt><trkpt lat="43.5612007" lon="11.4653283"><ele>162.79999999999998</ele><time>2026-04-25T10:57:15.33Z</time></trkpt><trkpt lat="43.5611927" lon="11.4654628"><ele>162.39999999999998</ele><time>2026-04-25T10:57:16.326Z</time></trkpt><trkpt lat="43.5611901" lon="11.4655946"><ele>162.0</ele><time>2026-04-25T10:57:17.32Z</time></trkpt><trkpt lat="43.5611887" lon="11.4657237"><ele>162.0</ele><time>2026-04-25T10:57:18.329Z</time></trkpt><trkpt lat="43.5611947" lon="11.4658499"><ele>162.0</ele><time>2026-04-25T10:57:19.331Z</time></trkpt><trkpt lat="43.5612049" lon="11.4659752"><ele>162.0</ele><time>2026-04-25T10:57:20.323Z</time></trkpt><trkpt lat="43.5612162" lon="11.4661008"><ele>162.0</ele><time>2026-04-25T10:57:21.333Z</time></trkpt><trkpt lat="43.5612287" lon="11.4662267"><ele>162.0</ele><time>2026-04-25T10:57:22.321Z</time></trkpt><trkpt lat="43.5612455" lon="11.4663495"><ele>162.0</ele><time>2026-04-25T10:57:23.327Z</time></trkpt><trkpt lat="43.5612647" lon="11.4664706"><ele>162.0</ele><time>2026-04-25T10:57:24.321Z</time></trkpt><trkpt lat="43.5612889" lon="11.4665899"><ele>162.0</ele><time>2026-04-25T10:57:25.33Z</time></trkpt><trkpt lat="43.5613166" lon="11.4667081"><ele>162.0</ele><time>2026-04-25T10:57:26.334Z</time></trkpt><trkpt lat="43.5613455" lon="11.4668249"><ele>162.0</ele><time>2026-04-25T10:57:27.324Z</time></trkpt><trkpt lat="43.5613748" lon="11.4669403"><ele>162.0</ele><time>2026-04-25T10:57:28.331Z</time></trkpt><trkpt lat="43.5614045" lon="11.4670547"><ele>161.66666666666666</ele><time>2026-04-25T10:57:29.332Z</time></trkpt><trkpt lat="43.5614332" lon="11.4671666"><ele>161.33333333333334</ele><time>2026-04-25T10:57:30.318Z</time></trkpt><trkpt lat="43.5614612" lon="11.4672791"><ele>161.0</ele><time>2026-04-25T10:57:31.324Z</time></trkpt><trkpt lat="43.5614862" lon="11.46739"><ele>160.66666666666669</ele><time>2026-04-25T10:57:32.328Z</time></trkpt><trkpt lat="43.5615094" lon="11.4675005"><ele>160.33333333333334</ele><time>2026-04-25T10:57:33.327Z</time></trkpt><trkpt lat="43.5615318" lon="11.4676112"><ele>160.0</ele><time>2026-04-25T10:57:34.331Z</time></trkpt><trkpt lat="43.561555" lon="11.4677197"><ele>160.0</ele><time>2026-04-25T10:57:35.334Z</time></trkpt><trkpt lat="43.5615774" lon="11.4678276"><ele>160.0</ele><time>2026-04-25T10:57:36.323Z</time></trkpt><trkpt lat="43.5615993" lon="11.4679361"><ele>160.0</ele><time>2026-04-25T10:57:37.314Z</time></trkpt><trkpt lat="43.5616206" lon="11.4680414"><ele>160.0</ele><time>2026-04-25T10:57:38.328Z</time></trkpt><trkpt lat="43.5616426" lon="11.4681459"><ele>160.0</ele><time>2026-04-25T10:57:39.326Z</time></trkpt><trkpt lat="43.5616671" lon="11.4682499"><ele>160.0</ele><time>2026-04-25T10:57:40.329Z</time></trkpt><trkpt lat="43.5616927" lon="11.4683465"><ele>159.85714285714286</ele><time>2026-04-25T10:57:41.331Z</time></trkpt><trkpt lat="43.5617194" lon="11.4684476"><ele>159.71428571428572</ele><time>2026-04-25T10:57:42.334Z</time></trkpt><trkpt lat="43.5617471" lon="11.4685463"><ele>159.57142857142856</ele><time>2026-04-25T10:57:43.321Z</time></trkpt><trkpt lat="43.5617776" lon="11.4686394"><ele>159.42857142857144</ele><time>2026-04-25T10:57:44.332Z</time></trkpt><trkpt lat="43.5618081" lon="11.4687347"><ele>159.2857142857143</ele><time>2026-04-25T10:57:45.341Z</time></trkpt><trkpt lat="43.5618389" lon="11.4688263"><ele>159.14285714285714</ele><time>2026-04-25T10:57:46.342Z</time></trkpt><trkpt lat="43.5618723" lon="11.4689138"><ele>159.0</ele><time>2026-04-25T10:57:47.32Z</time></trkpt><trkpt lat="43.5619054" lon="11.469003"><ele>158.7142857142857</ele><time>2026-04-25T10:57:48.339Z</time></trkpt><trkpt lat="43.5619408" lon="11.4690916"><ele>158.42857142857144</ele><time>2026-04-25T10:57:49.333Z</time></trkpt><trkpt lat="43.561973" lon="11.4691802"><ele>158.14285714285714</ele><time>2026-04-25T10:57:50.337Z</time></trkpt><trkpt lat="43.5620047" lon="11.4692709"><ele>157.85714285714283</ele><time>2026-04-25T10:57:51.336Z</time></trkpt><trkpt lat="43.5620378" lon="11.4693579"><ele>157.57142857142856</ele><time>2026-04-25T10:57:52.331Z</time></trkpt><trkpt lat="43.5620694" lon="11.4694466"><ele>157.28571428571428</ele><time>2026-04-25T10:57:53.331Z</time></trkpt><trkpt lat="43.5621028" lon="11.469534"><ele>157.0</ele><time>2026-04-25T10:57:54.322Z</time></trkpt><trkpt lat="43.5621369" lon="11.4696216"><ele>156.85714285714283</ele><time>2026-04-25T10:57:55.33Z</time></trkpt><trkpt lat="43.5621693" lon="11.4697094"><ele>156.71428571428572</ele><time>2026-04-25T10:57:56.343Z</time></trkpt><trkpt lat="43.5622002" lon="11.4697974"><ele>156.57142857142856</ele><time>2026-04-25T10:57:57.334Z</time></trkpt><trkpt lat="43.5622301" lon="11.4698852"><ele>156.42857142857142</ele><time>2026-04-25T10:57:58.327Z</time></trkpt><trkpt lat="43.5622618" lon="11.4699721"><ele>156.28571428571428</ele><time>2026-04-25T10:57:59.333Z</time></trkpt><trkpt lat="43.5622932" lon="11.4700579"><ele>156.14285714285714</ele><time>2026-04-25T10:58:00.327Z</time></trkpt><trkpt lat="43.5623235" lon="11.4701436"><ele>156.0</ele><time>2026-04-25T10:58:01.323Z</time></trkpt><trkpt lat="43.5623532" lon="11.470228"><ele>156.0</ele><time>2026-04-25T10:58:02.314Z</time></trkpt><trkpt lat="43.5623824" lon="11.4703137"><ele>156.0</ele><time>2026-04-25T10:58:03.318Z</time></trkpt><trkpt lat="43.5624114" lon="11.4703974"><ele>156.0</ele><time>2026-04-25T10:58:04.33Z</time></trkpt><trkpt lat="43.5624394" lon="11.470481"><ele>156.0</ele><time>2026-04-25T10:58:05.333Z</time></trkpt><trkpt lat="43.5624649" lon="11.4705665"><ele>156.0</ele><time>2026-04-25T10:58:06.334Z</time></trkpt><trkpt lat="43.5624878" lon="11.470649"><ele>156.0</ele><time>2026-04-25T10:58:07.325Z</time></trkpt><trkpt lat="43.5625121" lon="11.4707304"><ele>156.0</ele><time>2026-04-25T10:58:08.346Z</time></trkpt><trkpt lat="43.5625529" lon="11.4708882"><ele>155.83333333333334</ele><time>2026-04-25T10:58:10.318Z</time></trkpt><trkpt lat="43.5625963" lon="11.4710517"><ele>155.66666666666666</ele><time>2026-04-25T10:58:12.329Z</time></trkpt><trkpt lat="43.5626174" lon="11.4711384"><ele>155.5</ele><time>2026-04-25T10:58:13.336Z</time></trkpt><trkpt lat="43.5626388" lon="11.4712243"><ele>155.33333333333331</ele><time>2026-04-25T10:58:14.33Z</time></trkpt><trkpt lat="43.5626616" lon="11.4713089"><ele>155.16666666666666</ele><time>2026-04-25T10:58:15.336Z</time></trkpt><trkpt lat="43.5626856" lon="11.4713893"><ele>155.0</ele><time>2026-04-25T10:58:16.343Z</time></trkpt><trkpt lat="43.5627083" lon="11.4714758"><ele>155.0</ele><time>2026-04-25T10:58:17.329Z</time></trkpt><trkpt lat="43.562732" lon="11.4715583"><ele>155.0</ele><time>2026-04-25T10:58:18.327Z</time></trkpt><trkpt lat="43.5627559" lon="11.4716389"><ele>155.0</ele><time>2026-04-25T10:58:19.326Z</time></trkpt><trkpt lat="43.5627788" lon="11.4717209"><ele>155.0</ele><time>2026-04-25T10:58:20.322Z</time></trkpt><trkpt lat="43.5628267" lon="11.4718778"><ele>155.0</ele><time>2026-04-25T10:58:22.333Z</time></trkpt><trkpt lat="43.5628727" lon="11.4720278"><ele>155.0</ele><time>2026-04-25T10:58:24.322Z</time></trkpt><trkpt lat="43.5629143" lon="11.4721764"><ele>154.75</ele><time>2026-04-25T10:58:26.333Z</time></trkpt><trkpt lat="43.5629595" lon="11.4723259"><ele>154.5</ele><time>2026-04-25T10:58:28.34Z</time></trkpt><trkpt lat="43.5630007" lon="11.4724811"><ele>154.25</ele><time>2026-04-25T10:58:30.325Z</time></trkpt><trkpt lat="43.5630421" lon="11.4726327"><ele>154.0</ele><time>2026-04-25T10:58:32.343Z</time></trkpt><trkpt lat="43.5630811" lon="11.4727846"><ele>154.0</ele><time>2026-04-25T10:58:34.34Z</time></trkpt><trkpt lat="43.563117" lon="11.4729322"><ele>154.0</ele><time>2026-04-25T10:58:36.347Z</time></trkpt><trkpt lat="43.563164" lon="11.4730096"><ele>154.0</ele><time>2026-04-25T10:58:38.337Z</time></trkpt><trkpt lat="43.5631783" lon="11.4731671"><ele>154.0</ele><time>2026-04-25T10:58:40.346Z</time></trkpt><trkpt lat="43.5631834" lon="11.4733384"><ele>154.0</ele><time>2026-04-25T10:58:42.331Z</time></trkpt><trkpt lat="43.5631771" lon="11.4735091"><ele>153.66666666666669</ele><time>2026-04-25T10:58:44.345Z</time></trkpt><trkpt lat="43.5631655" lon="11.4736803"><ele>153.33333333333334</ele><time>2026-04-25T10:58:46.337Z</time></trkpt><trkpt lat="43.5631576" lon="11.4737717"><ele>153.0</ele><time>2026-04-25T10:58:47.355Z</time></trkpt><trkpt lat="43.563148" lon="11.4738658"><ele>152.66666666666666</ele><time>2026-04-25T10:58:48.328Z</time></trkpt><trkpt lat="43.5631372" lon="11.4739596"><ele>152.33333333333331</ele><time>2026-04-25T10:58:49.348Z</time></trkpt><trkpt lat="43.5631276" lon="11.4740507"><ele>152.0</ele><time>2026-04-25T10:58:50.343Z</time></trkpt><trkpt lat="43.5631185" lon="11.4741409"><ele>152.0</ele><time>2026-04-25T10:58:51.344Z</time></trkpt><trkpt lat="43.5631017" lon="11.4743129"><ele>152.0</ele><time>2026-04-25T10:58:53.344Z</time></trkpt><trkpt lat="43.5630925" lon="11.4743989"><ele>152.0</ele><time>2026-04-25T10:58:54.329Z</time></trkpt><trkpt lat="43.5630744" lon="11.4745712"><ele>152.0</ele><time>2026-04-25T10:58:56.335Z</time></trkpt><trkpt lat="43.5630658" lon="11.474659"><ele>152.0</ele><time>2026-04-25T10:58:57.347Z</time></trkpt><trkpt lat="43.5630578" lon="11.4747483"><ele>152.0</ele><time>2026-04-25T10:58:58.353Z</time></trkpt><trkpt lat="43.5630484" lon="11.4748367"><ele>151.5</ele><time>2026-04-25T10:58:59.349Z</time></trkpt><trkpt lat="43.5630382" lon="11.4749241"><ele>151.0</ele><time>2026-04-25T10:59:00.347Z</time></trkpt><trkpt lat="43.5630287" lon="11.4750104"><ele>150.5</ele><time>2026-04-25T10:59:01.343Z</time></trkpt><trkpt lat="43.563009" lon="11.4751804"><ele>150.0</ele><time>2026-04-25T10:59:03.347Z</time></trkpt><trkpt lat="43.5629916" lon="11.4753517"><ele>149.5</ele><time>2026-04-25T10:59:05.333Z</time></trkpt><trkpt lat="43.5629815" lon="11.4754383"><ele>149.0</ele><time>2026-04-25T10:59:06.346Z</time></trkpt><trkpt lat="43.5629638" lon="11.4756035"><ele>148.75</ele><time>2026-04-25T10:59:08.33Z</time></trkpt><trkpt lat="43.5629425" lon="11.475766"><ele>148.5</ele><time>2026-04-25T10:59:10.341Z</time></trkpt><trkpt lat="43.5629208" lon="11.4759287"><ele>148.25</ele><time>2026-04-25T10:59:12.341Z</time></trkpt><trkpt lat="43.5629026" lon="11.47609"><ele>148.0</ele><time>2026-04-25T10:59:14.342Z</time></trkpt><trkpt lat="43.5628844" lon="11.4762568"><ele>148.57142857142858</ele><time>2026-04-25T10:59:16.346Z</time></trkpt><trkpt lat="43.5628752" lon="11.4763434"><ele>149.14285714285714</ele><time>2026-04-25T10:59:17.338Z</time></trkpt><trkpt lat="43.5628555" lon="11.4765139"><ele>149.71428571428572</ele><time>2026-04-25T10:59:19.342Z</time></trkpt><trkpt lat="43.5628452" lon="11.4766001"><ele>150.28571428571428</ele><time>2026-04-25T10:59:20.351Z</time></trkpt><trkpt lat="43.562833" lon="11.4766861"><ele>150.85714285714286</ele><time>2026-04-25T10:59:21.336Z</time></trkpt><trkpt lat="43.5628233" lon="11.4767743"><ele>151.42857142857142</ele><time>2026-04-25T10:59:22.344Z</time></trkpt><trkpt lat="43.5628147" lon="11.4768619"><ele>152.0</ele><time>2026-04-25T10:59:23.342Z</time></trkpt><trkpt lat="43.5628004" lon="11.4769476"><ele>151.5</ele><time>2026-04-25T10:59:24.348Z</time></trkpt><trkpt lat="43.562783" lon="11.4771189"><ele>151.0</ele><time>2026-04-25T10:59:26.347Z</time></trkpt><trkpt lat="43.5627717" lon="11.477287"><ele>150.5</ele><time>2026-04-25T10:59:28.349Z</time></trkpt><trkpt lat="43.562765" lon="11.4774536"><ele>150.0</ele><time>2026-04-25T10:59:30.348Z</time></trkpt><trkpt lat="43.5627637" lon="11.4776123"><ele>150.0</ele><time>2026-04-25T10:59:32.339Z</time></trkpt><trkpt lat="43.5627695" lon="11.4777728"><ele>150.0</ele><time>2026-04-25T10:59:34.348Z</time></trkpt><trkpt lat="43.5627788" lon="11.4779279"><ele>150.0</ele><time>2026-04-25T10:59:36.332Z</time></trkpt><trkpt lat="43.5627932" lon="11.4780734"><ele>150.0</ele><time>2026-04-25T10:59:38.361Z</time></trkpt><trkpt lat="43.5628138" lon="11.4782173"><ele>150.0</ele><time>2026-04-25T10:59:40.353Z</time></trkpt><trkpt lat="43.5628456" lon="11.4783668"><ele>149.75</ele><time>2026-04-25T10:59:42.344Z</time></trkpt><trkpt lat="43.5628781" lon="11.4785104"><ele>149.5</ele><time>2026-04-25T10:59:44.353Z</time></trkpt><trkpt lat="43.5629161" lon="11.4786529"><ele>149.25</ele><time>2026-04-25T10:59:46.326Z</time></trkpt><trkpt lat="43.5629597" lon="11.4788003"><ele>149.0</ele><time>2026-04-25T10:59:48.341Z</time></trkpt><trkpt lat="43.5630123" lon="11.4789429"><ele>148.5</ele><time>2026-04-25T10:59:50.349Z</time></trkpt><trkpt lat="43.5630677" lon="11.4790927"><ele>148.0</ele><time>2026-04-25T10:59:52.328Z</time></trkpt><trkpt lat="43.5631252" lon="11.4792369"><ele>147.5</ele><time>2026-04-25T10:59:54.314Z</time></trkpt><trkpt lat="43.5631817" lon="11.4793775"><ele>147.0</ele><time>2026-04-25T10:59:56.342Z</time></trkpt><trkpt lat="43.5632385" lon="11.4795239"><ele>146.75</ele><time>2026-04-25T10:59:58.34Z</time></trkpt><trkpt lat="43.5632952" lon="11.479669"><ele>146.5</ele><time>2026-04-25T11:00:00.327Z</time></trkpt><trkpt lat="43.5633523" lon="11.4798097"><ele>146.25</ele><time>2026-04-25T11:00:02.316Z</time></trkpt><trkpt lat="43.5634062" lon="11.4799502"><ele>146.0</ele><time>2026-04-25T11:00:04.337Z</time></trkpt><trkpt lat="43.5634584" lon="11.4800756"><ele>146.0</ele><time>2026-04-25T11:00:06.327Z</time></trkpt><trkpt lat="43.5635048" lon="11.4801959"><ele>146.0</ele><time>2026-04-25T11:00:08.311Z</time></trkpt><trkpt lat="43.5635546" lon="11.4803153"><ele>146.0</ele><time>2026-04-25T11:00:10.337Z</time></trkpt><trkpt lat="43.5636047" lon="11.4804385"><ele>146.0</ele><time>2026-04-25T11:00:12.33Z</time></trkpt><trkpt lat="43.5636639" lon="11.4805641"><ele>146.0</ele><time>2026-04-25T11:00:14.345Z</time></trkpt><trkpt lat="43.5637264" lon="11.4806861"><ele>146.0</ele><time>2026-04-25T11:00:16.334Z</time></trkpt><trkpt lat="43.5637913" lon="11.4807974"><ele>146.0</ele><time>2026-04-25T11:00:18.329Z</time></trkpt><trkpt lat="43.563863" lon="11.4809218"><ele>146.0</ele><time>2026-04-25T11:00:20.321Z</time></trkpt><trkpt lat="43.5639303" lon="11.4810359"><ele>146.0</ele><time>2026-04-25T11:00:22.336Z</time></trkpt><trkpt lat="43.5639956" lon="11.4811489"><ele>146.0</ele><time>2026-04-25T11:00:24.346Z</time></trkpt><trkpt lat="43.56404" lon="11.4812695"><ele>146.0</ele><time>2026-04-25T11:00:26.335Z</time></trkpt><trkpt lat="43.5640157" lon="11.4814145"><ele>146.0</ele><time>2026-04-25T11:00:28.341Z</time></trkpt><trkpt lat="43.5640431" lon="11.4816841"><ele>146.0</ele><time>2026-04-25T11:00:31.231Z</time></trkpt><trkpt lat="43.564112" lon="11.4818188"><ele>146.0</ele><time>2026-04-25T11:00:33.243Z</time></trkpt><trkpt lat="43.5642148" lon="11.4819037"><ele>146.0</ele><time>2026-04-25T11:00:35.239Z</time></trkpt><trkpt lat="43.5643391" lon="11.4818695"><ele>146.0</ele><time>2026-04-25T11:00:37.235Z</time></trkpt><trkpt lat="43.5643926" lon="11.4818174"><ele>146.0</ele><time>2026-04-25T11:00:38.236Z</time></trkpt><trkpt lat="43.5644905" lon="11.4817456"><ele>146.0</ele><time>2026-04-25T11:00:40.244Z</time></trkpt><trkpt lat="43.5645873" lon="11.4817784"><ele>146.0</ele><time>2026-04-25T11:00:42.237Z</time></trkpt><trkpt lat="43.5646703" lon="11.4818699"><ele>145.83333333333331</ele><time>2026-04-25T11:00:44.245Z</time></trkpt><trkpt lat="43.5647668" lon="11.4819678"><ele>145.66666666666666</ele><time>2026-04-25T11:00:46.245Z</time></trkpt><trkpt lat="43.5648187" lon="11.4820182"><ele>145.5</ele><time>2026-04-25T11:00:47.243Z</time></trkpt><trkpt lat="43.5648715" lon="11.4820689"><ele>145.33333333333334</ele><time>2026-04-25T11:00:48.249Z</time></trkpt><trkpt lat="43.5649257" lon="11.4821164"><ele>145.16666666666669</ele><time>2026-04-25T11:00:49.237Z</time></trkpt><trkpt lat="43.5650313" lon="11.4822012"><ele>145.0</ele><time>2026-04-25T11:00:51.25Z</time></trkpt><trkpt lat="43.5650882" lon="11.4822391"><ele>145.0</ele><time>2026-04-25T11:00:52.227Z</time></trkpt><trkpt lat="43.5651999" lon="11.4823138"><ele>145.0</ele><time>2026-04-25T11:00:54.243Z</time></trkpt><trkpt lat="43.5652571" lon="11.4823519"><ele>145.0</ele><time>2026-04-25T11:00:55.242Z</time></trkpt><trkpt lat="43.5653704" lon="11.4824244"><ele>145.0</ele><time>2026-04-25T11:00:57.238Z</time></trkpt><trkpt lat="43.5654309" lon="11.4824642"><ele>145.0</ele><time>2026-04-25T11:00:58.25Z</time></trkpt><trkpt lat="43.5654941" lon="11.4825069"><ele>144.85714285714286</ele><time>2026-04-25T11:00:59.24Z</time></trkpt><trkpt lat="43.5655596" lon="11.4825465"><ele>144.71428571428572</ele><time>2026-04-25T11:01:00.227Z</time></trkpt><trkpt lat="43.5656255" lon="11.4825899"><ele>144.57142857142858</ele><time>2026-04-25T11:01:01.244Z</time></trkpt><trkpt lat="43.5656829" lon="11.4826336"><ele>144.42857142857144</ele><time>2026-04-25T11:01:02.247Z</time></trkpt><trkpt lat="43.5657368" lon="11.4826875"><ele>144.28571428571428</ele><time>2026-04-25T11:01:03.234Z</time></trkpt><trkpt lat="43.5657838" lon="11.4827551"><ele>144.14285714285717</ele><time>2026-04-25T11:01:04.247Z</time></trkpt><trkpt lat="43.565827" lon="11.4828267"><ele>144.0</ele><time>2026-04-25T11:01:05.242Z</time></trkpt><trkpt lat="43.5658667" lon="11.4829037"><ele>143.85714285714286</ele><time>2026-04-25T11:01:06.244Z</time></trkpt><trkpt lat="43.5658992" lon="11.4829847"><ele>143.71428571428572</ele><time>2026-04-25T11:01:07.235Z</time></trkpt><trkpt lat="43.5659313" lon="11.4830645"><ele>143.57142857142856</ele><time>2026-04-25T11:01:08.251Z</time></trkpt><trkpt lat="43.5659585" lon="11.4831472"><ele>143.42857142857144</ele><time>2026-04-25T11:01:09.249Z</time></trkpt><trkpt lat="43.5659896" lon="11.4832269"><ele>143.28571428571428</ele><time>2026-04-25T11:01:10.241Z</time></trkpt><trkpt lat="43.5660207" lon="11.4833082"><ele>143.14285714285714</ele><time>2026-04-25T11:01:11.243Z</time></trkpt><trkpt lat="43.5660538" lon="11.4833939"><ele>143.0</ele><time>2026-04-25T11:01:12.24Z</time></trkpt><trkpt lat="43.5660908" lon="11.4834782"><ele>143.0</ele><time>2026-04-25T11:01:13.24Z</time></trkpt><trkpt lat="43.5661286" lon="11.4835587"><ele>143.0</ele><time>2026-04-25T11:01:14.238Z</time></trkpt><trkpt lat="43.5661557" lon="11.4836408"><ele>143.0</ele><time>2026-04-25T11:01:15.25Z</time></trkpt><trkpt lat="43.5662107" lon="11.4837913"><ele>143.0</ele><time>2026-04-25T11:01:17.245Z</time></trkpt><trkpt lat="43.5662673" lon="11.4839353"><ele>143.0</ele><time>2026-04-25T11:01:19.247Z</time></trkpt><trkpt lat="43.5663293" lon="11.4840847"><ele>143.14285714285714</ele><time>2026-04-25T11:01:21.247Z</time></trkpt><trkpt lat="43.5663622" lon="11.4841619"><ele>143.28571428571428</ele><time>2026-04-25T11:01:22.237Z</time></trkpt><trkpt lat="43.5663957" lon="11.4842398"><ele>143.42857142857144</ele><time>2026-04-25T11:01:23.253Z</time></trkpt><trkpt lat="43.5664295" lon="11.4843187"><ele>143.57142857142856</ele><time>2026-04-25T11:01:24.247Z</time></trkpt><trkpt lat="43.5664639" lon="11.4844001"><ele>143.71428571428572</ele><time>2026-04-25T11:01:25.255Z</time></trkpt><trkpt lat="43.566499" lon="11.4844823"><ele>143.85714285714286</ele><time>2026-04-25T11:01:26.245Z</time></trkpt><trkpt lat="43.5665341" lon="11.4845623"><ele>144.0</ele><time>2026-04-25T11:01:27.248Z</time></trkpt><trkpt lat="43.5665706" lon="11.4846427"><ele>144.00000000000003</ele><time>2026-04-25T11:01:28.254Z</time></trkpt><trkpt lat="43.5666053" lon="11.4847223"><ele>144.0</ele><time>2026-04-25T11:01:29.242Z</time></trkpt><trkpt lat="43.5666388" lon="11.4848011"><ele>144.0</ele><time>2026-04-25T11:01:30.252Z</time></trkpt><trkpt lat="43.5666679" lon="11.4848798"><ele>144.0</ele><time>2026-04-25T11:01:31.25Z</time></trkpt><trkpt lat="43.5667254" lon="11.4850302"><ele>144.0</ele><time>2026-04-25T11:01:33.242Z</time></trkpt><trkpt lat="43.5667548" lon="11.4851074"><ele>144.00000000000003</ele><time>2026-04-25T11:01:34.244Z</time></trkpt><trkpt lat="43.5667891" lon="11.4851814"><ele>144.0</ele><time>2026-04-25T11:01:35.245Z</time></trkpt><trkpt lat="43.5668635" lon="11.4853227"><ele>144.00000000000003</ele><time>2026-04-25T11:01:37.234Z</time></trkpt><trkpt lat="43.566909" lon="11.4853849"><ele>144.0</ele><time>2026-04-25T11:01:38.231Z</time></trkpt><trkpt lat="43.5669618" lon="11.4854409"><ele>144.0</ele><time>2026-04-25T11:01:39.241Z</time></trkpt><trkpt lat="43.5670176" lon="11.4854905"><ele>144.0</ele><time>2026-04-25T11:01:40.244Z</time></trkpt><trkpt lat="43.5670794" lon="11.4855269"><ele>144.0</ele><time>2026-04-25T11:01:41.24Z</time></trkpt><trkpt lat="43.567142" lon="11.4855562"><ele>144.00000000000003</ele><time>2026-04-25T11:01:42.232Z</time></trkpt><trkpt lat="43.5672061" lon="11.4855788"><ele>144.0</ele><time>2026-04-25T11:01:43.236Z</time></trkpt><trkpt lat="43.5672727" lon="11.4855986"><ele>143.66666666666666</ele><time>2026-04-25T11:01:44.244Z</time></trkpt><trkpt lat="43.5673374" lon="11.4856109"><ele>143.33333333333334</ele><time>2026-04-25T11:01:45.249Z</time></trkpt><trkpt lat="43.5674035" lon="11.4856214"><ele>143.0</ele><time>2026-04-25T11:01:46.242Z</time></trkpt><trkpt lat="43.5675217" lon="11.4856501"><ele>142.66666666666669</ele><time>2026-04-25T11:01:48.243Z</time></trkpt><trkpt lat="43.5676166" lon="11.4856655"><ele>142.33333333333334</ele><time>2026-04-25T11:01:50.238Z</time></trkpt><trkpt lat="43.5676881" lon="11.4857107"><ele>142.0</ele><time>2026-04-25T11:01:53.255Z</time></trkpt><trkpt lat="43.5676989" lon="11.4858113"><ele>142.0</ele><time>2026-04-25T11:01:56.262Z</time></trkpt><trkpt lat="43.5677135" lon="11.4859124"><ele>142.0</ele><time>2026-04-25T11:01:58.269Z</time></trkpt><trkpt lat="43.5677464" lon="11.4860595"><ele>142.0</ele><time>2026-04-25T11:02:00.258Z</time></trkpt><trkpt lat="43.5677952" lon="11.4862083"><ele>142.0</ele><time>2026-04-25T11:02:02.252Z</time></trkpt><trkpt lat="43.5678393" lon="11.4863509"><ele>142.0</ele><time>2026-04-25T11:02:04.244Z</time></trkpt><trkpt lat="43.5678815" lon="11.4864788"><ele>141.79999999999998</ele><time>2026-04-25T11:02:06.252Z</time></trkpt><trkpt lat="43.5679274" lon="11.4865909"><ele>141.6</ele><time>2026-04-25T11:02:08.245Z</time></trkpt><trkpt lat="43.5679796" lon="11.4866985"><ele>141.39999999999998</ele><time>2026-04-25T11:02:10.248Z</time></trkpt><trkpt lat="43.5680373" lon="11.4868106"><ele>141.2</ele><time>2026-04-25T11:02:12.233Z</time></trkpt><trkpt lat="43.5681034" lon="11.4869216"><ele>141.0</ele><time>2026-04-25T11:02:14.23Z</time></trkpt><trkpt lat="43.56817" lon="11.4870297"><ele>141.0</ele><time>2026-04-25T11:02:16.242Z</time></trkpt><trkpt lat="43.5682317" lon="11.4871273"><ele>141.0</ele><time>2026-04-25T11:02:18.244Z</time></trkpt><trkpt lat="43.5682864" lon="11.4872368"><ele>141.0</ele><time>2026-04-25T11:02:20.262Z</time></trkpt><trkpt lat="43.568343" lon="11.487361"><ele>141.0</ele><time>2026-04-25T11:02:22.243Z</time></trkpt><trkpt lat="43.5684002" lon="11.487501"><ele>141.0</ele><time>2026-04-25T11:02:24.246Z</time></trkpt><trkpt lat="43.568456" lon="11.4876333"><ele>141.0</ele><time>2026-04-25T11:02:26.253Z</time></trkpt><trkpt lat="43.5685005" lon="11.4877569"><ele>141.0</ele><time>2026-04-25T11:02:28.254Z</time></trkpt><trkpt lat="43.568547" lon="11.487879"><ele>141.0</ele><time>2026-04-25T11:02:30.248Z</time></trkpt><trkpt lat="43.5685919" lon="11.4880109"><ele>141.0</ele><time>2026-04-25T11:02:32.248Z</time></trkpt><trkpt lat="43.5686406" lon="11.4881544"><ele>141.0</ele><time>2026-04-25T11:02:34.238Z</time></trkpt><trkpt lat="43.5686971" lon="11.4882825"><ele>140.8</ele><time>2026-04-25T11:02:36.245Z</time></trkpt><trkpt lat="43.5687555" lon="11.4883808"><ele>140.6</ele><time>2026-04-25T11:02:38.236Z</time></trkpt><trkpt lat="43.5688183" lon="11.4884654"><ele>140.4</ele><time>2026-04-25T11:02:40.254Z</time></trkpt><trkpt lat="43.5688944" lon="11.488548"><ele>140.2</ele><time>2026-04-25T11:02:42.242Z</time></trkpt><trkpt lat="43.5689791" lon="11.4886091"><ele>140.0</ele><time>2026-04-25T11:02:44.245Z</time></trkpt><trkpt lat="43.56909" lon="11.4886579"><ele>140.0</ele><time>2026-04-25T11:02:46.25Z</time></trkpt><trkpt lat="43.5692019" lon="11.4887147"><ele>140.0</ele><time>2026-04-25T11:02:48.247Z</time></trkpt><trkpt lat="43.5693165" lon="11.4887531"><ele>140.0</ele><time>2026-04-25T11:02:50.257Z</time></trkpt><trkpt lat="43.5694231" lon="11.488787"><ele>140.0</ele><time>2026-04-25T11:02:52.248Z</time></trkpt><trkpt lat="43.569525" lon="11.4887896"><ele>140.0</ele><time>2026-04-25T11:02:54.255Z</time></trkpt><trkpt lat="43.5696343" lon="11.4887608"><ele>140.0</ele><time>2026-04-25T11:02:56.258Z</time></trkpt><trkpt lat="43.5697508" lon="11.4887644"><ele>140.0</ele><time>2026-04-25T11:02:58.251Z</time></trkpt><trkpt lat="43.5698644" lon="11.4887861"><ele>140.0</ele><time>2026-04-25T11:03:00.242Z</time></trkpt><trkpt lat="43.5699704" lon="11.4887999"><ele>140.0</ele><time>2026-04-25T11:03:02.248Z</time></trkpt><trkpt lat="43.5700723" lon="11.4887948"><ele>140.0</ele><time>2026-04-25T11:03:04.248Z</time></trkpt><trkpt lat="43.570175" lon="11.4887909"><ele>140.0</ele><time>2026-04-25T11:03:06.236Z</time></trkpt><trkpt lat="43.5702731" lon="11.488828"><ele>140.0</ele><time>2026-04-25T11:03:08.249Z</time></trkpt><trkpt lat="43.5703654" lon="11.4888991"><ele>140.0</ele><time>2026-04-25T11:03:10.254Z</time></trkpt><trkpt lat="43.5704581" lon="11.4889787"><ele>140.0</ele><time>2026-04-25T11:03:12.242Z</time></trkpt><trkpt lat="43.5705533" lon="11.4890526"><ele>140.0</ele><time>2026-04-25T11:03:14.254Z</time></trkpt><trkpt lat="43.5706423" lon="11.4891209"><ele>140.0</ele><time>2026-04-25T11:03:16.249Z</time></trkpt><trkpt lat="43.5707223" lon="11.4891813"><ele>140.0</ele><time>2026-04-25T11:03:18.251Z</time></trkpt><trkpt lat="43.5708005" lon="11.4892466"><ele>140.0</ele><time>2026-04-25T11:03:20.244Z</time></trkpt><trkpt lat="43.5708784" lon="11.4893107"><ele>140.0</ele><time>2026-04-25T11:03:22.258Z</time></trkpt><trkpt lat="43.5709533" lon="11.4893789"><ele>140.0</ele><time>2026-04-25T11:03:24.249Z</time></trkpt><trkpt lat="43.5710224" lon="11.4894487"><ele>140.0</ele><time>2026-04-25T11:03:26.269Z</time></trkpt><trkpt lat="43.5710661" lon="11.48955"><ele>139.8</ele><time>2026-04-25T11:03:28.265Z</time></trkpt><trkpt lat="43.5710928" lon="11.4896736"><ele>139.6</ele><time>2026-04-25T11:03:30.258Z</time></trkpt><trkpt lat="43.5711235" lon="11.4898033"><ele>139.4</ele><time>2026-04-25T11:03:32.25Z</time></trkpt><trkpt lat="43.5711602" lon="11.489922"><ele>139.2</ele><time>2026-04-25T11:03:34.255Z</time></trkpt><trkpt lat="43.5712074" lon="11.4900386"><ele>139.0</ele><time>2026-04-25T11:03:36.244Z</time></trkpt><trkpt lat="43.5712666" lon="11.4901678"><ele>139.0</ele><time>2026-04-25T11:03:38.252Z</time></trkpt><trkpt lat="43.5713232" lon="11.4902917"><ele>139.0</ele><time>2026-04-25T11:03:40.26Z</time></trkpt><trkpt lat="43.5713744" lon="11.4904152"><ele>139.0</ele><time>2026-04-25T11:03:42.262Z</time></trkpt><trkpt lat="43.5714324" lon="11.4905267"><ele>139.0</ele><time>2026-04-25T11:03:44.252Z</time></trkpt><trkpt lat="43.5714786" lon="11.4906362"><ele>139.0</ele><time>2026-04-25T11:03:46.253Z</time></trkpt><trkpt lat="43.5715321" lon="11.4907347"><ele>138.6</ele><time>2026-04-25T11:03:48.228Z</time></trkpt><trkpt lat="43.571584" lon="11.4908263"><ele>138.2</ele><time>2026-04-25T11:03:50.265Z</time></trkpt><trkpt lat="43.5716504" lon="11.4908768"><ele>137.79999999999998</ele><time>2026-04-25T11:03:52.261Z</time></trkpt><trkpt lat="43.5717405" lon="11.4908655"><ele>137.4</ele><time>2026-04-25T11:03:54.252Z</time></trkpt><trkpt lat="43.5718365" lon="11.4908128"><ele>137.0</ele><time>2026-04-25T11:03:56.264Z</time></trkpt><trkpt lat="43.5719333" lon="11.4907988"><ele>137.4</ele><time>2026-04-25T11:03:58.255Z</time></trkpt><trkpt lat="43.5720318" lon="11.4908214"><ele>137.79999999999998</ele><time>2026-04-25T11:04:00.25Z</time></trkpt><trkpt lat="43.5721342" lon="11.4908499"><ele>138.2</ele><time>2026-04-25T11:04:02.241Z</time></trkpt><trkpt lat="43.5722459" lon="11.4908686"><ele>138.6</ele><time>2026-04-25T11:04:04.253Z</time></trkpt><trkpt lat="43.5723613" lon="11.4908793"><ele>139.0</ele><time>2026-04-25T11:04:06.251Z</time></trkpt><trkpt lat="43.572473" lon="11.4908939"><ele>139.0</ele><time>2026-04-25T11:04:08.256Z</time></trkpt><trkpt lat="43.5725791" lon="11.4909355"><ele>139.0</ele><time>2026-04-25T11:04:10.254Z</time></trkpt><trkpt lat="43.5726722" lon="11.4910119"><ele>139.0</ele><time>2026-04-25T11:04:12.249Z</time></trkpt><trkpt lat="43.5727435" lon="11.4911328"><ele>139.0</ele><time>2026-04-25T11:04:14.263Z</time></trkpt><trkpt lat="43.5727915" lon="11.4912684"><ele>139.0</ele><time>2026-04-25T11:04:16.244Z</time></trkpt><trkpt lat="43.5728355" lon="11.4913836"><ele>139.2</ele><time>2026-04-25T11:04:18.257Z</time></trkpt><trkpt lat="43.5729005" lon="11.491501"><ele>139.4</ele><time>2026-04-25T11:04:20.253Z</time></trkpt><trkpt lat="43.5729539" lon="11.4916214"><ele>139.6</ele><time>2026-04-25T11:04:22.242Z</time></trkpt><trkpt lat="43.5729901" lon="11.4917671"><ele>139.8</ele><time>2026-04-25T11:04:24.253Z</time></trkpt><trkpt lat="43.5730338" lon="11.4919154"><ele>140.0</ele><time>2026-04-25T11:04:26.25Z</time></trkpt><trkpt lat="43.5730721" lon="11.4920591"><ele>140.2</ele><time>2026-04-25T11:04:28.267Z</time></trkpt><trkpt lat="43.5731195" lon="11.4922019"><ele>140.4</ele><time>2026-04-25T11:04:30.248Z</time></trkpt><trkpt lat="43.5731686" lon="11.4923322"><ele>140.6</ele><time>2026-04-25T11:04:32.254Z</time></trkpt><trkpt lat="43.5732241" lon="11.4924481"><ele>140.8</ele><time>2026-04-25T11:04:34.256Z</time></trkpt><trkpt lat="43.5732688" lon="11.4925661"><ele>141.0</ele><time>2026-04-25T11:04:36.259Z</time></trkpt><trkpt lat="43.5733091" lon="11.4926857"><ele>141.0</ele><time>2026-04-25T11:04:38.245Z</time></trkpt><trkpt lat="43.5733468" lon="11.4928172"><ele>141.0</ele><time>2026-04-25T11:04:40.243Z</time></trkpt><trkpt lat="43.5733878" lon="11.4929486"><ele>141.0</ele><time>2026-04-25T11:04:42.229Z</time></trkpt><trkpt lat="43.5734254" lon="11.4930823"><ele>141.0</ele><time>2026-04-25T11:04:44.232Z</time></trkpt><trkpt lat="43.5734683" lon="11.493215"><ele>141.0</ele><time>2026-04-25T11:04:46.245Z</time></trkpt><trkpt lat="43.5735135" lon="11.4933324"><ele>140.83333333333334</ele><time>2026-04-25T11:04:48.235Z</time></trkpt><trkpt lat="43.5735709" lon="11.4934208"><ele>140.66666666666666</ele><time>2026-04-25T11:04:50.248Z</time></trkpt><trkpt lat="43.5736321" lon="11.4934785"><ele>140.5</ele><time>2026-04-25T11:04:52.248Z</time></trkpt><trkpt lat="43.5736933" lon="11.493527"><ele>140.33333333333331</ele><time>2026-04-25T11:04:54.248Z</time></trkpt><trkpt lat="43.5737685" lon="11.4935872"><ele>140.16666666666666</ele><time>2026-04-25T11:04:57.245Z</time></trkpt><trkpt lat="43.5738365" lon="11.4936413"><ele>140.0</ele><time>2026-04-25T11:05:02.252Z</time></trkpt><trkpt lat="43.5738898" lon="11.4936881"><ele>140.83333333333331</ele><time>2026-04-25T11:05:04.245Z</time></trkpt><trkpt lat="43.5739454" lon="11.493754"><ele>141.66666666666666</ele><time>2026-04-25T11:05:06.243Z</time></trkpt><trkpt lat="43.5739855" lon="11.4938216"><ele>142.5</ele><time>2026-04-25T11:05:08.24Z</time></trkpt><trkpt lat="43.5740393" lon="11.4939193"><ele>143.33333333333334</ele><time>2026-04-25T11:05:11.243Z</time></trkpt><trkpt lat="43.5741043" lon="11.4939828"><ele>144.16666666666669</ele><time>2026-04-25T11:05:14.243Z</time></trkpt><trkpt lat="43.5741309" lon="11.4941121"><ele>145.0</ele><time>2026-04-25T11:05:17.249Z</time></trkpt><trkpt lat="43.574153" lon="11.4942099"><ele>145.0</ele><time>2026-04-25T11:05:19.235Z</time></trkpt><trkpt lat="43.5741755" lon="11.4943074"><ele>145.0</ele><time>2026-04-25T11:05:21.247Z</time></trkpt><trkpt lat="43.5742048" lon="11.4944133"><ele>145.0</ele><time>2026-04-25T11:05:23.241Z</time></trkpt><trkpt lat="43.5742414" lon="11.4945197"><ele>145.0</ele><time>2026-04-25T11:05:25.242Z</time></trkpt><trkpt lat="43.5742805" lon="11.4946224"><ele>145.0</ele><time>2026-04-25T11:05:27.236Z</time></trkpt><trkpt lat="43.5743275" lon="11.4947177"><ele>145.0</ele><time>2026-04-25T11:05:29.25Z</time></trkpt><trkpt lat="43.5743429" lon="11.4948139"><ele>144.6</ele><time>2026-04-25T11:05:31.239Z</time></trkpt><trkpt lat="43.5743474" lon="11.4949265"><ele>144.2</ele><time>2026-04-25T11:05:33.243Z</time></trkpt><trkpt lat="43.5743532" lon="11.4950545"><ele>143.8</ele><time>2026-04-25T11:05:35.242Z</time></trkpt><trkpt lat="43.5743644" lon="11.4951766"><ele>143.4</ele><time>2026-04-25T11:05:37.233Z</time></trkpt><trkpt lat="43.5743802" lon="11.4952956"><ele>143.0</ele><time>2026-04-25T11:05:39.224Z</time></trkpt><trkpt lat="43.5743801" lon="11.4954348"><ele>143.0</ele><time>2026-04-25T11:05:41.221Z</time></trkpt><trkpt lat="43.5743457" lon="11.4955654"><ele>143.0</ele><time>2026-04-25T11:05:43.225Z</time></trkpt><trkpt lat="43.5742875" lon="11.4956754"><ele>143.0</ele><time>2026-04-25T11:05:45.242Z</time></trkpt><trkpt lat="43.574223" lon="11.4957627"><ele>143.0</ele><time>2026-04-25T11:05:47.242Z</time></trkpt><trkpt lat="43.5741697" lon="11.4958412"><ele>143.0</ele><time>2026-04-25T11:05:49.236Z</time></trkpt><trkpt lat="43.57416" lon="11.4959469"><ele>143.0</ele><time>2026-04-25T11:05:51.247Z</time></trkpt><trkpt lat="43.5741935" lon="11.4960845"><ele>143.0</ele><time>2026-04-25T11:05:53.248Z</time></trkpt><trkpt lat="43.5742326" lon="11.4962069"><ele>143.0</ele><time>2026-04-25T11:05:55.237Z</time></trkpt><trkpt lat="43.5742742" lon="11.4963239"><ele>143.0</ele><time>2026-04-25T11:05:57.238Z</time></trkpt><trkpt lat="43.5743108" lon="11.4964242"><ele>143.0</ele><time>2026-04-25T11:05:59.251Z</time></trkpt><trkpt lat="43.5743315" lon="11.4965108"><ele>143.0</ele><time>2026-04-25T11:06:01.248Z</time></trkpt><trkpt lat="43.5743683" lon="11.4966065"><ele>143.0</ele><time>2026-04-25T11:06:04.248Z</time></trkpt><trkpt lat="43.5743983" lon="11.4967062"><ele>142.83333333333331</ele><time>2026-04-25T11:06:07.247Z</time></trkpt><trkpt lat="43.5744331" lon="11.4968077"><ele>142.66666666666666</ele><time>2026-04-25T11:06:10.243Z</time></trkpt><trkpt lat="43.5744666" lon="11.4969113"><ele>142.5</ele><time>2026-04-25T11:06:13.247Z</time></trkpt><trkpt lat="43.5744978" lon="11.4970039"><ele>142.33333333333334</ele><time>2026-04-25T11:06:16.246Z</time></trkpt><trkpt lat="43.5745169" lon="11.4970952"><ele>142.16666666666669</ele><time>2026-04-25T11:06:19.249Z</time></trkpt><trkpt lat="43.5745526" lon="11.4971982"><ele>142.0</ele><time>2026-04-25T11:06:23.249Z</time></trkpt><trkpt lat="43.5745867" lon="11.4973003"><ele>143.83333333333334</ele><time>2026-04-25T11:06:27.248Z</time></trkpt><trkpt lat="43.5746129" lon="11.4974027"><ele>145.66666666666669</ele><time>2026-04-25T11:06:30.246Z</time></trkpt><trkpt lat="43.5746442" lon="11.4975118"><ele>147.5</ele><time>2026-04-25T11:06:33.25Z</time></trkpt><trkpt lat="43.5746661" lon="11.4976003"><ele>149.33333333333334</ele><time>2026-04-25T11:06:35.245Z</time></trkpt><trkpt lat="43.5746906" lon="11.4976934"><ele>151.16666666666666</ele><time>2026-04-25T11:06:37.25Z</time></trkpt><trkpt lat="43.5747161" lon="11.4977897"><ele>153.0</ele><time>2026-04-25T11:06:39.25Z</time></trkpt><trkpt lat="43.5747509" lon="11.4979035"><ele>151.8</ele><time>2026-04-25T11:06:41.245Z</time></trkpt><trkpt lat="43.5747806" lon="11.4980297"><ele>150.60000000000002</ele><time>2026-04-25T11:06:43.249Z</time></trkpt><trkpt lat="43.5748224" lon="11.4981665"><ele>149.39999999999998</ele><time>2026-04-25T11:06:45.24Z</time></trkpt><trkpt lat="43.5748705" lon="11.4983256"><ele>148.2</ele><time>2026-04-25T11:06:47.245Z</time></trkpt><trkpt lat="43.5748976" lon="11.4984082"><ele>147.0</ele><time>2026-04-25T11:06:48.23Z</time></trkpt><trkpt lat="43.5749274" lon="11.4984944"><ele>147.0</ele><time>2026-04-25T11:06:49.236Z</time></trkpt><trkpt lat="43.574957" lon="11.4985822"><ele>147.0</ele><time>2026-04-25T11:06:50.246Z</time></trkpt><trkpt lat="43.5749882" lon="11.4986734"><ele>147.0</ele><time>2026-04-25T11:06:51.244Z</time></trkpt><trkpt lat="43.5750217" lon="11.498764"><ele>147.0</ele><time>2026-04-25T11:06:52.229Z</time></trkpt><trkpt lat="43.575055" lon="11.4988608"><ele>147.0</ele><time>2026-04-25T11:06:53.24Z</time></trkpt><trkpt lat="43.575086" lon="11.4989514"><ele>147.0</ele><time>2026-04-25T11:06:54.237Z</time></trkpt><trkpt lat="43.5751141" lon="11.4990378"><ele>147.0</ele><time>2026-04-25T11:06:55.241Z</time></trkpt><trkpt lat="43.5751416" lon="11.4991241"><ele>147.2</ele><time>2026-04-25T11:06:56.239Z</time></trkpt><trkpt lat="43.5751666" lon="11.4992073"><ele>147.39999999999998</ele><time>2026-04-25T11:06:57.233Z</time></trkpt><trkpt lat="43.575194" lon="11.4992863"><ele>147.60000000000002</ele><time>2026-04-25T11:06:58.234Z</time></trkpt><trkpt lat="43.5752517" lon="11.499435"><ele>147.8</ele><time>2026-04-25T11:07:00.229Z</time></trkpt><trkpt lat="43.5753082" lon="11.4995783"><ele>148.0</ele><time>2026-04-25T11:07:02.233Z</time></trkpt><trkpt lat="43.5753589" lon="11.4997"><ele>148.0</ele><time>2026-04-25T11:07:04.23Z</time></trkpt><trkpt lat="43.5754356" lon="11.4997665"><ele>148.0</ele><time>2026-04-25T11:07:06.24Z</time></trkpt><trkpt lat="43.5754711" lon="11.4998752"><ele>148.0</ele><time>2026-04-25T11:07:08.246Z</time></trkpt><trkpt lat="43.5754558" lon="11.4999944"><ele>148.0</ele><time>2026-04-25T11:07:10.243Z</time></trkpt><trkpt lat="43.5754709" lon="11.5001383"><ele>148.0</ele><time>2026-04-25T11:07:12.235Z</time></trkpt><trkpt lat="43.5755189" lon="11.5002695"><ele>148.0</ele><time>2026-04-25T11:07:14.233Z</time></trkpt><trkpt lat="43.5755733" lon="11.500401"><ele>148.0</ele><time>2026-04-25T11:07:16.232Z</time></trkpt><trkpt lat="43.5756342" lon="11.5005409"><ele>148.0</ele><time>2026-04-25T11:07:18.232Z</time></trkpt><trkpt lat="43.5756664" lon="11.500616"><ele>148.0</ele><time>2026-04-25T11:07:19.233Z</time></trkpt><trkpt lat="43.5756999" lon="11.500695"><ele>148.0</ele><time>2026-04-25T11:07:20.221Z</time></trkpt><trkpt lat="43.5757318" lon="11.500783"><ele>148.0</ele><time>2026-04-25T11:07:21.223Z</time></trkpt><trkpt lat="43.5757626" lon="11.5008758"><ele>147.28571428571428</ele><time>2026-04-25T11:07:22.23Z</time></trkpt><trkpt lat="43.5757984" lon="11.5009664"><ele>146.57142857142856</ele><time>2026-04-25T11:07:23.22Z</time></trkpt><trkpt lat="43.5758315" lon="11.5010499"><ele>145.85714285714283</ele><time>2026-04-25T11:07:24.218Z</time></trkpt><trkpt lat="43.5758675" lon="11.5011345"><ele>145.14285714285714</ele><time>2026-04-25T11:07:25.217Z</time></trkpt><trkpt lat="43.5759093" lon="11.5012255"><ele>144.42857142857142</ele><time>2026-04-25T11:07:26.224Z</time></trkpt><trkpt lat="43.5759498" lon="11.501313"><ele>143.7142857142857</ele><time>2026-04-25T11:07:27.219Z</time></trkpt><trkpt lat="43.57599" lon="11.5013967"><ele>143.0</ele><time>2026-04-25T11:07:28.223Z</time></trkpt><trkpt lat="43.5760284" lon="11.5014801"><ele>143.16666666666666</ele><time>2026-04-25T11:07:29.22Z</time></trkpt><trkpt lat="43.5760656" lon="11.5015694"><ele>143.33333333333331</ele><time>2026-04-25T11:07:30.219Z</time></trkpt><trkpt lat="43.5761026" lon="11.5016605"><ele>143.5</ele><time>2026-04-25T11:07:31.216Z</time></trkpt><trkpt lat="43.5761431" lon="11.5017505"><ele>143.66666666666666</ele><time>2026-04-25T11:07:32.219Z</time></trkpt><trkpt lat="43.5761843" lon="11.50184"><ele>143.83333333333334</ele><time>2026-04-25T11:07:33.223Z</time></trkpt><trkpt lat="43.576225" lon="11.50193"><ele>144.0</ele><time>2026-04-25T11:07:34.221Z</time></trkpt><trkpt lat="43.5762644" lon="11.5020157"><ele>143.2857142857143</ele><time>2026-04-25T11:07:35.222Z</time></trkpt><trkpt lat="43.576304" lon="11.5021057"><ele>142.57142857142858</ele><time>2026-04-25T11:07:36.221Z</time></trkpt><trkpt lat="43.5763413" lon="11.5021916"><ele>141.85714285714286</ele><time>2026-04-25T11:07:37.223Z</time></trkpt><trkpt lat="43.5763797" lon="11.5022751"><ele>141.14285714285717</ele><time>2026-04-25T11:07:38.223Z</time></trkpt><trkpt lat="43.5764165" lon="11.5023587"><ele>140.42857142857144</ele><time>2026-04-25T11:07:39.225Z</time></trkpt><trkpt lat="43.5764531" lon="11.5024469"><ele>139.71428571428572</ele><time>2026-04-25T11:07:40.228Z</time></trkpt><trkpt lat="43.5764898" lon="11.5025355"><ele>139.0</ele><time>2026-04-25T11:07:41.219Z</time></trkpt><trkpt lat="43.5765273" lon="11.5026248"><ele>139.0</ele><time>2026-04-25T11:07:42.223Z</time></trkpt><trkpt lat="43.5765635" lon="11.5027111"><ele>139.0</ele><time>2026-04-25T11:07:43.226Z</time></trkpt><trkpt lat="43.5766022" lon="11.5027925"><ele>139.0</ele><time>2026-04-25T11:07:44.233Z</time></trkpt><trkpt lat="43.5766414" lon="11.5028655"><ele>139.0</ele><time>2026-04-25T11:07:45.227Z</time></trkpt><trkpt lat="43.5766792" lon="11.5029372"><ele>139.0</ele><time>2026-04-25T11:07:46.218Z</time></trkpt><trkpt lat="43.5767168" lon="11.5030094"><ele>139.0</ele><time>2026-04-25T11:07:47.22Z</time></trkpt><trkpt lat="43.5767858" lon="11.5031401"><ele>139.0</ele><time>2026-04-25T11:07:49.224Z</time></trkpt><trkpt lat="43.5768468" lon="11.5032019"><ele>139.0</ele><time>2026-04-25T11:07:51.237Z</time></trkpt><trkpt lat="43.5769282" lon="11.5032337"><ele>139.0</ele><time>2026-04-25T11:07:54.237Z</time></trkpt><trkpt lat="43.5769594" lon="11.5033261"><ele>139.0</ele><time>2026-04-25T11:07:56.244Z</time></trkpt><trkpt lat="43.5770175" lon="11.5034326"><ele>139.0</ele><time>2026-04-25T11:07:58.227Z</time></trkpt><trkpt lat="43.5770926" lon="11.5035461"><ele>139.0</ele><time>2026-04-25T11:08:00.231Z</time></trkpt><trkpt lat="43.5771701" lon="11.5036661"><ele>138.66666666666669</ele><time>2026-04-25T11:08:02.229Z</time></trkpt><trkpt lat="43.5772557" lon="11.5037961"><ele>138.33333333333334</ele><time>2026-04-25T11:08:04.233Z</time></trkpt><trkpt lat="43.5773016" lon="11.5038663"><ele>138.0</ele><time>2026-04-25T11:08:05.228Z</time></trkpt><trkpt lat="43.5773459" lon="11.5039351"><ele>137.66666666666666</ele><time>2026-04-25T11:08:06.233Z</time></trkpt><trkpt lat="43.5773898" lon="11.5039984"><ele>137.33333333333331</ele><time>2026-04-25T11:08:07.226Z</time></trkpt><trkpt lat="43.5774683" lon="11.5041293"><ele>137.0</ele><time>2026-04-25T11:08:09.223Z</time></trkpt><trkpt lat="43.577536" lon="11.5042589"><ele>137.0</ele><time>2026-04-25T11:08:11.235Z</time></trkpt><trkpt lat="43.5776129" lon="11.5043935"><ele>137.0</ele><time>2026-04-25T11:08:13.23Z</time></trkpt><trkpt lat="43.5776533" lon="11.5044663"><ele>137.0</ele><time>2026-04-25T11:08:14.23Z</time></trkpt><trkpt lat="43.5776931" lon="11.5045374"><ele>137.0</ele><time>2026-04-25T11:08:15.228Z</time></trkpt><trkpt lat="43.5777665" lon="11.504669"><ele>137.0</ele><time>2026-04-25T11:08:17.233Z</time></trkpt><trkpt lat="43.5778313" lon="11.5048232"><ele>136.83333333333331</ele><time>2026-04-25T11:08:19.227Z</time></trkpt><trkpt lat="43.5778579" lon="11.504907"><ele>136.66666666666666</ele><time>2026-04-25T11:08:20.238Z</time></trkpt><trkpt lat="43.5778849" lon="11.5049879"><ele>136.5</ele><time>2026-04-25T11:08:21.238Z</time></trkpt><trkpt lat="43.5779155" lon="11.5050653"><ele>136.33333333333334</ele><time>2026-04-25T11:08:22.229Z</time></trkpt><trkpt lat="43.5779715" lon="11.5052176"><ele>136.16666666666669</ele><time>2026-04-25T11:08:24.229Z</time></trkpt><trkpt lat="43.5780244" lon="11.5053635"><ele>136.0</ele><time>2026-04-25T11:08:26.232Z</time></trkpt><trkpt lat="43.5780896" lon="11.5055024"><ele>136.0</ele><time>2026-04-25T11:08:28.23Z</time></trkpt><trkpt lat="43.5781495" lon="11.5056268"><ele>136.0</ele><time>2026-04-25T11:08:30.224Z</time></trkpt><trkpt lat="43.5782049" lon="11.5057463"><ele>136.0</ele><time>2026-04-25T11:08:32.23Z</time></trkpt><trkpt lat="43.5782564" lon="11.5058756"><ele>136.0</ele><time>2026-04-25T11:08:34.233Z</time></trkpt><trkpt lat="43.578312" lon="11.5059951"><ele>136.0</ele><time>2026-04-25T11:08:36.227Z</time></trkpt><trkpt lat="43.5783649" lon="11.5061258"><ele>135.5</ele><time>2026-04-25T11:08:38.235Z</time></trkpt><trkpt lat="43.5784116" lon="11.50626"><ele>135.0</ele><time>2026-04-25T11:08:40.229Z</time></trkpt><trkpt lat="43.5784589" lon="11.506366"><ele>134.5</ele><time>2026-04-25T11:08:42.234Z</time></trkpt><trkpt lat="43.5785119" lon="11.5064213"><ele>134.0</ele><time>2026-04-25T11:08:44.24Z</time></trkpt><trkpt lat="43.5785152" lon="11.5065119"><ele>133.5</ele><time>2026-04-25T11:08:46.24Z</time></trkpt><trkpt lat="43.5785339" lon="11.5066028"><ele>133.0</ele><time>2026-04-25T11:08:48.243Z</time></trkpt><trkpt lat="43.5785533" lon="11.5066903"><ele>133.0</ele><time>2026-04-25T11:08:50.246Z</time></trkpt><trkpt lat="43.578568" lon="11.5067859"><ele>133.0</ele><time>2026-04-25T11:08:53.244Z</time></trkpt><trkpt lat="43.5785148" lon="11.5068845"><ele>133.0</ele><time>2026-04-25T11:08:56.249Z</time></trkpt><trkpt lat="43.578482" lon="11.5069849"><ele>133.0</ele><time>2026-04-25T11:08:58.243Z</time></trkpt><trkpt lat="43.5785079" lon="11.5071333"><ele>133.0</ele><time>2026-04-25T11:09:00.231Z</time></trkpt><trkpt lat="43.5785077" lon="11.5072971"><ele>132.6</ele><time>2026-04-25T11:09:02.229Z</time></trkpt><trkpt lat="43.5784345" lon="11.5073973"><ele>132.20000000000002</ele><time>2026-04-25T11:09:04.232Z</time></trkpt><trkpt lat="43.5783706" lon="11.5074063"><ele>131.8</ele><time>2026-04-25T11:09:05.233Z</time></trkpt><trkpt lat="43.5783061" lon="11.50741"><ele>131.4</ele><time>2026-04-25T11:09:06.24Z</time></trkpt><trkpt lat="43.5781942" lon="11.5074308"><ele>131.0</ele><time>2026-04-25T11:09:08.241Z</time></trkpt><trkpt lat="43.5780917" lon="11.5074634"><ele>131.0</ele><time>2026-04-25T11:09:10.24Z</time></trkpt><trkpt lat="43.5779773" lon="11.5074983"><ele>131.0</ele><time>2026-04-25T11:09:12.24Z</time></trkpt><trkpt lat="43.5778652" lon="11.5075447"><ele>131.0</ele><time>2026-04-25T11:09:14.243Z</time></trkpt><trkpt lat="43.5777596" lon="11.5075851"><ele>131.0</ele><time>2026-04-25T11:09:16.24Z</time></trkpt><trkpt lat="43.5776511" lon="11.507618"><ele>130.8</ele><time>2026-04-25T11:09:18.242Z</time></trkpt><trkpt lat="43.5775397" lon="11.5076574"><ele>130.6</ele><time>2026-04-25T11:09:20.24Z</time></trkpt><trkpt lat="43.5774285" lon="11.5076955"><ele>130.4</ele><time>2026-04-25T11:09:22.24Z</time></trkpt><trkpt lat="43.57732" lon="11.5077258"><ele>130.2</ele><time>2026-04-25T11:09:24.242Z</time></trkpt><trkpt lat="43.5772114" lon="11.5077373"><ele>130.0</ele><time>2026-04-25T11:09:26.243Z</time></trkpt><trkpt lat="43.5771047" lon="11.5077206"><ele>130.16666666666669</ele><time>2026-04-25T11:09:28.244Z</time></trkpt><trkpt lat="43.5770105" lon="11.5077023"><ele>130.33333333333334</ele><time>2026-04-25T11:09:30.238Z</time></trkpt><trkpt lat="43.5769364" lon="11.5076818"><ele>130.5</ele><time>2026-04-25T11:09:32.25Z</time></trkpt><trkpt lat="43.5768616" lon="11.5076603"><ele>130.66666666666666</ele><time>2026-04-25T11:09:34.248Z</time></trkpt><trkpt lat="43.5767863" lon="11.5076331"><ele>130.83333333333331</ele><time>2026-04-25T11:09:36.248Z</time></trkpt><trkpt lat="43.5767246" lon="11.5076102"><ele>131.0</ele><time>2026-04-25T11:09:38.246Z</time></trkpt><trkpt lat="43.576667" lon="11.5076891"><ele>131.0</ele><time>2026-04-25T11:09:44.244Z</time></trkpt><trkpt lat="43.5766798" lon="11.5078043"><ele>131.0</ele><time>2026-04-25T11:09:46.232Z</time></trkpt><trkpt lat="43.5766842" lon="11.5078939"><ele>131.0</ele><time>2026-04-25T11:09:47.231Z</time></trkpt><trkpt lat="43.5767091" lon="11.5080547"><ele>131.0</ele><time>2026-04-25T11:09:49.239Z</time></trkpt><trkpt lat="43.5767149" lon="11.5081705"><ele>131.0</ele><time>2026-04-25T11:09:51.239Z</time></trkpt><trkpt lat="43.5767353" lon="11.50831"><ele>131.0</ele><time>2026-04-25T11:09:53.244Z</time></trkpt><trkpt lat="43.5767455" lon="11.5084525"><ele>131.0</ele><time>2026-04-25T11:09:55.25Z</time></trkpt><trkpt lat="43.5767574" lon="11.5085864"><ele>131.0</ele><time>2026-04-25T11:09:57.244Z</time></trkpt><trkpt lat="43.5767494" lon="11.5087316"><ele>131.0</ele><time>2026-04-25T11:09:59.248Z</time></trkpt><trkpt lat="43.576743" lon="11.5088762"><ele>131.0</ele><time>2026-04-25T11:10:01.242Z</time></trkpt><trkpt lat="43.5767439" lon="11.5090043"><ele>130.8</ele><time>2026-04-25T11:10:03.243Z</time></trkpt><trkpt lat="43.5767518" lon="11.5091405"><ele>130.6</ele><time>2026-04-25T11:10:05.243Z</time></trkpt><trkpt lat="43.5767782" lon="11.5092707"><ele>130.4</ele><time>2026-04-25T11:10:07.238Z</time></trkpt><trkpt lat="43.5768129" lon="11.5094057"><ele>130.2</ele><time>2026-04-25T11:10:09.238Z</time></trkpt><trkpt lat="43.5768563" lon="11.5095279"><ele>130.0</ele><time>2026-04-25T11:10:11.233Z</time></trkpt><trkpt lat="43.5768915" lon="11.5096331"><ele>130.4</ele><time>2026-04-25T11:10:13.233Z</time></trkpt><trkpt lat="43.5769244" lon="11.5097431"><ele>130.8</ele><time>2026-04-25T11:10:15.248Z</time></trkpt><trkpt lat="43.5769688" lon="11.5098661"><ele>131.2</ele><time>2026-04-25T11:10:17.247Z</time></trkpt><trkpt lat="43.5770127" lon="11.5099905"><ele>131.6</ele><time>2026-04-25T11:10:19.238Z</time></trkpt><trkpt lat="43.5770432" lon="11.5101219"><ele>132.0</ele><time>2026-04-25T11:10:21.243Z</time></trkpt><trkpt lat="43.5770748" lon="11.510248"><ele>132.2</ele><time>2026-04-25T11:10:23.242Z</time></trkpt><trkpt lat="43.5771176" lon="11.5103705"><ele>132.39999999999998</ele><time>2026-04-25T11:10:25.243Z</time></trkpt><trkpt lat="43.5771679" lon="11.5104899"><ele>132.60000000000002</ele><time>2026-04-25T11:10:27.242Z</time></trkpt><trkpt lat="43.5772143" lon="11.5106"><ele>132.8</ele><time>2026-04-25T11:10:29.243Z</time></trkpt><trkpt lat="43.5772539" lon="11.5107013"><ele>133.0</ele><time>2026-04-25T11:10:31.249Z</time></trkpt><trkpt lat="43.5772977" lon="11.5107897"><ele>132.6</ele><time>2026-04-25T11:10:33.25Z</time></trkpt><trkpt lat="43.5773423" lon="11.5108748"><ele>132.20000000000002</ele><time>2026-04-25T11:10:35.249Z</time></trkpt><trkpt lat="43.5773029" lon="11.5109771"><ele>131.8</ele><time>2026-04-25T11:10:38.255Z</time></trkpt><trkpt lat="43.5772148" lon="11.5110239"><ele>131.4</ele><time>2026-04-25T11:10:40.253Z</time></trkpt><trkpt lat="43.5771107" lon="11.5110948"><ele>131.0</ele><time>2026-04-25T11:10:42.247Z</time></trkpt><trkpt lat="43.5770005" lon="11.5111814"><ele>131.0</ele><time>2026-04-25T11:10:44.253Z</time></trkpt><trkpt lat="43.57694" lon="11.5112286"><ele>131.0</ele><time>2026-04-25T11:10:45.241Z</time></trkpt><trkpt lat="43.5768824" lon="11.5112825"><ele>131.0</ele><time>2026-04-25T11:10:46.238Z</time></trkpt><trkpt lat="43.5768262" lon="11.5113362"><ele>131.0</ele><time>2026-04-25T11:10:47.239Z</time></trkpt><trkpt lat="43.5767703" lon="11.5113886"><ele>131.0</ele><time>2026-04-25T11:10:48.237Z</time></trkpt><trkpt lat="43.5767191" lon="11.5114462"><ele>131.0</ele><time>2026-04-25T11:10:49.238Z</time></trkpt><trkpt lat="43.5766681" lon="11.511503"><ele>131.0</ele><time>2026-04-25T11:10:50.237Z</time></trkpt><trkpt lat="43.5766154" lon="11.5115577"><ele>131.2</ele><time>2026-04-25T11:10:51.243Z</time></trkpt><trkpt lat="43.5765628" lon="11.5116142"><ele>131.39999999999998</ele><time>2026-04-25T11:10:52.239Z</time></trkpt><trkpt lat="43.5765112" lon="11.5116709"><ele>131.6</ele><time>2026-04-25T11:10:53.244Z</time></trkpt><trkpt lat="43.5764173" lon="11.5117808"><ele>131.79999999999998</ele><time>2026-04-25T11:10:55.236Z</time></trkpt><trkpt lat="43.5763337" lon="11.5118949"><ele>132.0</ele><time>2026-04-25T11:10:57.239Z</time></trkpt><trkpt lat="43.5762434" lon="11.5120072"><ele>132.25</ele><time>2026-04-25T11:10:59.241Z</time></trkpt><trkpt lat="43.576153" lon="11.5121282"><ele>132.5</ele><time>2026-04-25T11:11:01.238Z</time></trkpt><trkpt lat="43.576067" lon="11.5122503"><ele>132.75</ele><time>2026-04-25T11:11:03.238Z</time></trkpt><trkpt lat="43.5759864" lon="11.5123757"><ele>133.0</ele><time>2026-04-25T11:11:05.239Z</time></trkpt><trkpt lat="43.575916" lon="11.5124988"><ele>133.0</ele><time>2026-04-25T11:11:07.236Z</time></trkpt><trkpt lat="43.5758502" lon="11.5126066"><ele>133.0</ele><time>2026-04-25T11:11:09.236Z</time></trkpt><trkpt lat="43.5757901" lon="11.5127108"><ele>133.0</ele><time>2026-04-25T11:11:11.236Z</time></trkpt><trkpt lat="43.5757288" lon="11.5128155"><ele>133.0</ele><time>2026-04-25T11:11:13.236Z</time></trkpt><trkpt lat="43.5756578" lon="11.5129173"><ele>133.0</ele><time>2026-04-25T11:11:15.24Z</time></trkpt><trkpt lat="43.5755778" lon="11.5130114"><ele>132.8</ele><time>2026-04-25T11:11:17.244Z</time></trkpt><trkpt lat="43.5754974" lon="11.5130981"><ele>132.60000000000002</ele><time>2026-04-25T11:11:19.232Z</time></trkpt><trkpt lat="43.5754116" lon="11.5131908"><ele>132.39999999999998</ele><time>2026-04-25T11:11:21.241Z</time></trkpt><trkpt lat="43.5753351" lon="11.5132834"><ele>132.2</ele><time>2026-04-25T11:11:23.241Z</time></trkpt><trkpt lat="43.5752522" lon="11.5133716"><ele>132.0</ele><time>2026-04-25T11:11:25.241Z</time></trkpt><trkpt lat="43.5751729" lon="11.5134677"><ele>132.4</ele><time>2026-04-25T11:11:27.234Z</time></trkpt><trkpt lat="43.5750964" lon="11.5135594"><ele>132.79999999999998</ele><time>2026-04-25T11:11:29.237Z</time></trkpt><trkpt lat="43.5750212" lon="11.513651"><ele>133.2</ele><time>2026-04-25T11:11:31.236Z</time></trkpt><trkpt lat="43.5749409" lon="11.5137397"><ele>133.6</ele><time>2026-04-25T11:11:33.233Z</time></trkpt><trkpt lat="43.5748708" lon="11.513822"><ele>134.0</ele><time>2026-04-25T11:11:35.239Z</time></trkpt><trkpt lat="43.5747965" lon="11.5139123"><ele>134.0</ele><time>2026-04-25T11:11:37.237Z</time></trkpt><trkpt lat="43.5747113" lon="11.5140002"><ele>134.0</ele><time>2026-04-25T11:11:39.235Z</time></trkpt><trkpt lat="43.5746274" lon="11.5141032"><ele>134.0</ele><time>2026-04-25T11:11:41.236Z</time></trkpt><trkpt lat="43.5745452" lon="11.5142093"><ele>134.0</ele><time>2026-04-25T11:11:43.248Z</time></trkpt><trkpt lat="43.5744693" lon="11.5143243"><ele>134.0</ele><time>2026-04-25T11:11:45.241Z</time></trkpt><trkpt lat="43.5743977" lon="11.514447"><ele>134.25</ele><time>2026-04-25T11:11:47.237Z</time></trkpt><trkpt lat="43.5743257" lon="11.514575"><ele>134.5</ele><time>2026-04-25T11:11:49.242Z</time></trkpt><trkpt lat="43.5742538" lon="11.5147053"><ele>134.75</ele><time>2026-04-25T11:11:51.243Z</time></trkpt><trkpt lat="43.5742" lon="11.5148369"><ele>135.0</ele><time>2026-04-25T11:11:53.253Z</time></trkpt><trkpt lat="43.5741501" lon="11.5149714"><ele>135.0</ele><time>2026-04-25T11:11:55.242Z</time></trkpt><trkpt lat="43.5740979" lon="11.5151125"><ele>135.0</ele><time>2026-04-25T11:11:57.233Z</time></trkpt><trkpt lat="43.5740435" lon="11.5152563"><ele>135.0</ele><time>2026-04-25T11:11:59.245Z</time></trkpt><trkpt lat="43.574016" lon="11.5153866"><ele>135.0</ele><time>2026-04-25T11:12:01.236Z</time></trkpt><trkpt lat="43.5739848" lon="11.5155022"><ele>135.0</ele><time>2026-04-25T11:12:03.242Z</time></trkpt><trkpt lat="43.5739465" lon="11.5156078"><ele>135.0</ele><time>2026-04-25T11:12:05.249Z</time></trkpt><trkpt lat="43.5739116" lon="11.515711"><ele>135.0</ele><time>2026-04-25T11:12:07.253Z</time></trkpt><trkpt lat="43.5738771" lon="11.5158081"><ele>135.0</ele><time>2026-04-25T11:12:09.257Z</time></trkpt><trkpt lat="43.5738422" lon="11.5159156"><ele>135.0</ele><time>2026-04-25T11:12:11.266Z</time></trkpt><trkpt lat="43.5738162" lon="11.5160454"><ele>135.0</ele><time>2026-04-25T11:12:13.245Z</time></trkpt><trkpt lat="43.5737817" lon="11.5161799"><ele>135.0</ele><time>2026-04-25T11:12:15.246Z</time></trkpt><trkpt lat="43.5737308" lon="11.5162979"><ele>134.8</ele><time>2026-04-25T11:12:17.245Z</time></trkpt><trkpt lat="43.5736574" lon="11.516363"><ele>134.6</ele><time>2026-04-25T11:12:19.252Z</time></trkpt><trkpt lat="43.573562" lon="11.51637"><ele>134.4</ele><time>2026-04-25T11:12:21.26Z</time></trkpt><trkpt lat="43.5734487" lon="11.5163543"><ele>134.2</ele><time>2026-04-25T11:12:23.246Z</time></trkpt><trkpt lat="43.5733703" lon="11.5163846"><ele>134.0</ele><time>2026-04-25T11:12:25.255Z</time></trkpt><trkpt lat="43.5733084" lon="11.5164853"><ele>134.0</ele><time>2026-04-25T11:12:27.244Z</time></trkpt><trkpt lat="43.573267" lon="11.5166034"><ele>134.0</ele><time>2026-04-25T11:12:29.238Z</time></trkpt><trkpt lat="43.5732743" lon="11.5167187"><ele>134.0</ele><time>2026-04-25T11:12:31.249Z</time></trkpt><trkpt lat="43.57333" lon="11.5168197"><ele>134.0</ele><time>2026-04-25T11:12:33.255Z</time></trkpt><trkpt lat="43.5734045" lon="11.5168996"><ele>134.0</ele><time>2026-04-25T11:12:35.246Z</time></trkpt><trkpt lat="43.5734911" lon="11.5169723"><ele>134.0</ele><time>2026-04-25T11:12:37.251Z</time></trkpt><trkpt lat="43.5735698" lon="11.5170445"><ele>134.0</ele><time>2026-04-25T11:12:39.253Z</time></trkpt><trkpt lat="43.5736395" lon="11.5171397"><ele>134.0</ele><time>2026-04-25T11:12:41.253Z</time></trkpt><trkpt lat="43.5736736" lon="11.5172821"><ele>134.0</ele><time>2026-04-25T11:12:43.244Z</time></trkpt><trkpt lat="43.5736691" lon="11.5174495"><ele>134.0</ele><time>2026-04-25T11:12:45.245Z</time></trkpt><trkpt lat="43.5736756" lon="11.5176111"><ele>134.0</ele><time>2026-04-25T11:12:47.243Z</time></trkpt><trkpt lat="43.5736644" lon="11.5177747"><ele>134.0</ele><time>2026-04-25T11:12:49.235Z</time></trkpt><trkpt lat="43.5736507" lon="11.5179339"><ele>134.0</ele><time>2026-04-25T11:12:51.242Z</time></trkpt><trkpt lat="43.5736355" lon="11.5180811"><ele>134.0</ele><time>2026-04-25T11:12:53.243Z</time></trkpt><trkpt lat="43.5736199" lon="11.5182219"><ele>134.0</ele><time>2026-04-25T11:12:55.254Z</time></trkpt><trkpt lat="43.5736005" lon="11.518358"><ele>134.0</ele><time>2026-04-25T11:12:57.232Z</time></trkpt><trkpt lat="43.5735739" lon="11.5184961"><ele>134.0</ele><time>2026-04-25T11:12:59.25Z</time></trkpt><trkpt lat="43.5735469" lon="11.5186436"><ele>134.0</ele><time>2026-04-25T11:13:01.244Z</time></trkpt><trkpt lat="43.57354" lon="11.518791"><ele>134.0</ele><time>2026-04-25T11:13:03.241Z</time></trkpt><trkpt lat="43.5735158" lon="11.5189224"><ele>134.0</ele><time>2026-04-25T11:13:05.249Z</time></trkpt><trkpt lat="43.5734926" lon="11.5190344"><ele>134.0</ele><time>2026-04-25T11:13:07.245Z</time></trkpt><trkpt lat="43.5734681" lon="11.5191169"><ele>134.0</ele><time>2026-04-25T11:13:09.245Z</time></trkpt><trkpt lat="43.5734597" lon="11.5192251"><ele>134.0</ele><time>2026-04-25T11:13:11.245Z</time></trkpt><trkpt lat="43.573448" lon="11.519368"><ele>134.0</ele><time>2026-04-25T11:13:13.238Z</time></trkpt><trkpt lat="43.5734416" lon="11.5195277"><ele>134.0</ele><time>2026-04-25T11:13:15.243Z</time></trkpt><trkpt lat="43.573428" lon="11.5196993"><ele>133.83333333333331</ele><time>2026-04-25T11:13:17.234Z</time></trkpt><trkpt lat="43.5734129" lon="11.519871"><ele>133.66666666666666</ele><time>2026-04-25T11:13:19.233Z</time></trkpt><trkpt lat="43.5734025" lon="11.5199588"><ele>133.5</ele><time>2026-04-25T11:13:20.224Z</time></trkpt><trkpt lat="43.5733923" lon="11.520047"><ele>133.33333333333334</ele><time>2026-04-25T11:13:21.219Z</time></trkpt><trkpt lat="43.5733633" lon="11.5202142"><ele>133.16666666666669</ele><time>2026-04-25T11:13:23.199Z</time></trkpt><trkpt lat="43.5733556" lon="11.5203012"><ele>133.0</ele><time>2026-04-25T11:13:24.172Z</time></trkpt><trkpt lat="43.5733466" lon="11.5203894"><ele>132.66666666666669</ele><time>2026-04-25T11:13:25.167Z</time></trkpt><trkpt lat="43.5731748" lon="11.5204566"><ele>132.33333333333334</ele><time>2026-04-25T11:13:26.184Z</time></trkpt><trkpt lat="43.572946" lon="11.5205612"><ele>132.0</ele><time>2026-04-25T11:13:27.169Z</time></trkpt><trkpt lat="43.5727628" lon="11.5207047"><ele>132.0</ele><time>2026-04-25T11:13:28.183Z</time></trkpt><trkpt lat="43.5727538" lon="11.5208847"><ele>132.0</ele><time>2026-04-25T11:13:29.199Z</time></trkpt><trkpt lat="43.572867" lon="11.5209642"><ele>132.0</ele><time>2026-04-25T11:13:30.207Z</time></trkpt><trkpt lat="43.5730577" lon="11.5209946"><ele>132.0</ele><time>2026-04-25T11:13:31.218Z</time></trkpt><trkpt lat="43.573198" lon="11.5210066"><ele>132.0</ele><time>2026-04-25T11:13:32.217Z</time></trkpt><trkpt lat="43.5732436" lon="11.521131"><ele>132.0</ele><time>2026-04-25T11:13:34.236Z</time></trkpt><trkpt lat="43.5732468" lon="11.5212424"><ele>132.0</ele><time>2026-04-25T11:13:36.241Z</time></trkpt><trkpt lat="43.5732377" lon="11.5213493"><ele>132.0</ele><time>2026-04-25T11:13:38.25Z</time></trkpt><trkpt lat="43.5732168" lon="11.5214506"><ele>132.6</ele><time>2026-04-25T11:13:40.253Z</time></trkpt><trkpt lat="43.5731986" lon="11.5215644"><ele>133.2</ele><time>2026-04-25T11:13:42.252Z</time></trkpt><trkpt lat="43.573158" lon="11.5216873"><ele>133.8</ele><time>2026-04-25T11:13:44.259Z</time></trkpt><trkpt lat="43.5731071" lon="11.5218027"><ele>134.4</ele><time>2026-04-25T11:13:46.243Z</time></trkpt><trkpt lat="43.5730525" lon="11.5219189"><ele>135.0</ele><time>2026-04-25T11:13:48.24Z</time></trkpt><trkpt lat="43.5729874" lon="11.5220361"><ele>135.0</ele><time>2026-04-25T11:13:50.244Z</time></trkpt><trkpt lat="43.5729389" lon="11.5221451"><ele>135.0</ele><time>2026-04-25T11:13:52.24Z</time></trkpt><trkpt lat="43.5728891" lon="11.5222478"><ele>135.0</ele><time>2026-04-25T11:13:54.247Z</time></trkpt><trkpt lat="43.5728516" lon="11.522347"><ele>135.0</ele><time>2026-04-25T11:13:56.254Z</time></trkpt><trkpt lat="43.5728172" lon="11.5224361"><ele>135.0</ele><time>2026-04-25T11:13:58.25Z</time></trkpt><trkpt lat="43.5727784" lon="11.5225103"><ele>135.0</ele><time>2026-04-25T11:14:00.247Z</time></trkpt><trkpt lat="43.5727285" lon="11.5225963"><ele>135.0</ele><time>2026-04-25T11:14:03.244Z</time></trkpt><trkpt lat="43.572764" lon="11.5226888"><ele>135.0</ele><time>2026-04-25T11:14:10.247Z</time></trkpt><trkpt lat="43.5728366" lon="11.5227471"><ele>135.0</ele><time>2026-04-25T11:14:12.248Z</time></trkpt><trkpt lat="43.5728905" lon="11.5228258"><ele>135.0</ele><time>2026-04-25T11:14:14.254Z</time></trkpt><trkpt lat="43.5729609" lon="11.522889"><ele>135.0</ele><time>2026-04-25T11:14:16.256Z</time></trkpt><trkpt lat="43.5730262" lon="11.5229421"><ele>135.0</ele><time>2026-04-25T11:14:18.245Z</time></trkpt><trkpt lat="43.5731151" lon="11.5229486"><ele>134.4</ele><time>2026-04-25T11:14:20.259Z</time></trkpt><trkpt lat="43.5732183" lon="11.5229203"><ele>133.8</ele><time>2026-04-25T11:14:22.248Z</time></trkpt><trkpt lat="43.5733194" lon="11.5228793"><ele>133.2</ele><time>2026-04-25T11:14:24.257Z</time></trkpt><trkpt lat="43.5733979" lon="11.5228722"><ele>132.6</ele><time>2026-04-25T11:14:26.264Z</time></trkpt><trkpt lat="43.5734853" lon="11.5229472"><ele>132.0</ele><time>2026-04-25T11:14:28.248Z</time></trkpt><trkpt lat="43.5735574" lon="11.5230634"><ele>131.79999999999998</ele><time>2026-04-25T11:14:30.243Z</time></trkpt><trkpt lat="43.5736143" lon="11.5231861"><ele>131.6</ele><time>2026-04-25T11:14:32.242Z</time></trkpt><trkpt lat="43.5736621" lon="11.5233115"><ele>131.39999999999998</ele><time>2026-04-25T11:14:34.245Z</time></trkpt><trkpt lat="43.5737171" lon="11.5234137"><ele>131.2</ele><time>2026-04-25T11:14:36.251Z</time></trkpt><trkpt lat="43.5737693" lon="11.5235144"><ele>131.0</ele><time>2026-04-25T11:14:38.249Z</time></trkpt><trkpt lat="43.5738257" lon="11.5235992"><ele>131.0</ele><time>2026-04-25T11:14:40.245Z</time></trkpt><trkpt lat="43.5738726" lon="11.523708"><ele>131.0</ele><time>2026-04-25T11:14:42.249Z</time></trkpt><trkpt lat="43.5739256" lon="11.523822"><ele>131.0</ele><time>2026-04-25T11:14:44.242Z</time></trkpt><trkpt lat="43.5739807" lon="11.5239187"><ele>131.0</ele><time>2026-04-25T11:14:46.252Z</time></trkpt><trkpt lat="43.5740292" lon="11.5239991"><ele>131.0</ele><time>2026-04-25T11:14:48.254Z</time></trkpt><trkpt lat="43.5740753" lon="11.524086"><ele>131.0</ele><time>2026-04-25T11:14:50.258Z</time></trkpt><trkpt lat="43.5741285" lon="11.524177"><ele>131.33333333333331</ele><time>2026-04-25T11:14:52.258Z</time></trkpt><trkpt lat="43.5741753" lon="11.5242548"><ele>131.66666666666666</ele><time>2026-04-25T11:14:54.255Z</time></trkpt><trkpt lat="43.5742291" lon="11.5243039"><ele>132.0</ele><time>2026-04-25T11:14:56.257Z</time></trkpt><trkpt lat="43.5742878" lon="11.5243636"><ele>132.33333333333334</ele><time>2026-04-25T11:14:58.253Z</time></trkpt><trkpt lat="43.5743522" lon="11.5244568"><ele>132.66666666666669</ele><time>2026-04-25T11:15:00.247Z</time></trkpt><trkpt lat="43.5744105" lon="11.5245618"><ele>133.0</ele><time>2026-04-25T11:15:02.252Z</time></trkpt><trkpt lat="43.5744662" lon="11.5246556"><ele>133.0</ele><time>2026-04-25T11:15:04.261Z</time></trkpt><trkpt lat="43.5745073" lon="11.5247337"><ele>133.0</ele><time>2026-04-25T11:15:06.255Z</time></trkpt><trkpt lat="43.5745545" lon="11.5247932"><ele>133.0</ele><time>2026-04-25T11:15:08.258Z</time></trkpt><trkpt lat="43.5746156" lon="11.5248946"><ele>133.0</ele><time>2026-04-25T11:15:11.252Z</time></trkpt><trkpt lat="43.5746542" lon="11.5249703"><ele>133.0</ele><time>2026-04-25T11:15:13.251Z</time></trkpt><trkpt lat="43.574695" lon="11.5250478"><ele>133.0</ele><time>2026-04-25T11:15:15.251Z</time></trkpt><trkpt lat="43.5747447" lon="11.5251302"><ele>133.0</ele><time>2026-04-25T11:15:17.252Z</time></trkpt><trkpt lat="43.5748017" lon="11.5252092"><ele>132.66666666666669</ele><time>2026-04-25T11:15:19.258Z</time></trkpt><trkpt lat="43.5748469" lon="11.5252805"><ele>132.33333333333334</ele><time>2026-04-25T11:15:21.258Z</time></trkpt><trkpt lat="43.5748933" lon="11.5253654"><ele>132.0</ele><time>2026-04-25T11:15:23.254Z</time></trkpt><trkpt lat="43.5749489" lon="11.5254592"><ele>131.66666666666666</ele><time>2026-04-25T11:15:25.26Z</time></trkpt><trkpt lat="43.5750012" lon="11.5255407"><ele>131.33333333333331</ele><time>2026-04-25T11:15:27.255Z</time></trkpt><trkpt lat="43.5750455" lon="11.5256207"><ele>131.0</ele><time>2026-04-25T11:15:29.262Z</time></trkpt><trkpt lat="43.5750979" lon="11.5257182"><ele>131.0</ele><time>2026-04-25T11:15:32.267Z</time></trkpt><trkpt lat="43.5751455" lon="11.5258154"><ele>131.0</ele><time>2026-04-25T11:15:35.257Z</time></trkpt><trkpt lat="43.5751901" lon="11.5258955"><ele>131.0</ele><time>2026-04-25T11:15:37.266Z</time></trkpt><trkpt lat="43.5752208" lon="11.5259934"><ele>131.0</ele><time>2026-04-25T11:15:39.262Z</time></trkpt><trkpt lat="43.5752579" lon="11.5260793"><ele>131.0</ele><time>2026-04-25T11:15:41.257Z</time></trkpt><trkpt lat="43.5753139" lon="11.5261603"><ele>131.0</ele><time>2026-04-25T11:15:43.259Z</time></trkpt><trkpt lat="43.5753639" lon="11.5262398"><ele>131.16666666666666</ele><time>2026-04-25T11:15:46.258Z</time></trkpt><trkpt lat="43.5754282" lon="11.5262962"><ele>131.33333333333331</ele><time>2026-04-25T11:15:51.257Z</time></trkpt><trkpt lat="43.5754811" lon="11.5263961"><ele>131.5</ele><time>2026-04-25T11:15:54.258Z</time></trkpt><trkpt lat="43.5755058" lon="11.5265356"><ele>131.66666666666666</ele><time>2026-04-25T11:15:56.248Z</time></trkpt><trkpt lat="43.5754877" lon="11.526649"><ele>131.83333333333334</ele><time>2026-04-25T11:15:58.255Z</time></trkpt><trkpt lat="43.5754188" lon="11.5267228"><ele>132.0</ele><time>2026-04-25T11:16:00.248Z</time></trkpt><trkpt lat="43.5753448" lon="11.526788"><ele>132.0</ele><time>2026-04-25T11:16:02.246Z</time></trkpt><trkpt lat="43.575287" lon="11.5268572"><ele>132.0</ele><time>2026-04-25T11:16:04.25Z</time></trkpt><trkpt lat="43.5752336" lon="11.5269152"><ele>132.0</ele><time>2026-04-25T11:16:06.248Z</time></trkpt><trkpt lat="43.5751753" lon="11.526972"><ele>132.0</ele><time>2026-04-25T11:16:08.251Z</time></trkpt><trkpt lat="43.5751145" lon="11.5270318"><ele>132.0</ele><time>2026-04-25T11:16:10.249Z</time></trkpt><trkpt lat="43.5750538" lon="11.5271024"><ele>132.0</ele><time>2026-04-25T11:16:12.252Z</time></trkpt><trkpt lat="43.5749946" lon="11.527171"><ele>132.0</ele><time>2026-04-25T11:16:14.257Z</time></trkpt><trkpt lat="43.5749253" lon="11.5272399"><ele>131.5</ele><time>2026-04-25T11:16:16.251Z</time></trkpt><trkpt lat="43.5748572" lon="11.5273084"><ele>131.0</ele><time>2026-04-25T11:16:18.25Z</time></trkpt><trkpt lat="43.5747866" lon="11.527376"><ele>130.5</ele><time>2026-04-25T11:16:20.256Z</time></trkpt><trkpt lat="43.574729" lon="11.5274541"><ele>130.0</ele><time>2026-04-25T11:16:22.251Z</time></trkpt><trkpt lat="43.5746663" lon="11.5275237"><ele>129.5</ele><time>2026-04-25T11:16:24.258Z</time></trkpt><trkpt lat="43.5745985" lon="11.5275911"><ele>129.0</ele><time>2026-04-25T11:16:26.258Z</time></trkpt><trkpt lat="43.5745332" lon="11.527667"><ele>129.16666666666666</ele><time>2026-04-25T11:16:28.258Z</time></trkpt><trkpt lat="43.5744663" lon="11.5277412"><ele>129.33333333333334</ele><time>2026-04-25T11:16:30.25Z</time></trkpt><trkpt lat="43.5744017" lon="11.5278145"><ele>129.5</ele><time>2026-04-25T11:16:32.255Z</time></trkpt><trkpt lat="43.574331" lon="11.5278884"><ele>129.66666666666669</ele><time>2026-04-25T11:16:34.248Z</time></trkpt><trkpt lat="43.57426" lon="11.5279494"><ele>129.83333333333334</ele><time>2026-04-25T11:16:36.253Z</time></trkpt><trkpt lat="43.5741911" lon="11.5280213"><ele>130.0</ele><time>2026-04-25T11:16:38.253Z</time></trkpt><trkpt lat="43.5741096" lon="11.5281102"><ele>130.0</ele><time>2026-04-25T11:16:40.253Z</time></trkpt><trkpt lat="43.5740356" lon="11.5281892"><ele>130.0</ele><time>2026-04-25T11:16:42.256Z</time></trkpt><trkpt lat="43.5739701" lon="11.5282587"><ele>130.0</ele><time>2026-04-25T11:16:44.261Z</time></trkpt><trkpt lat="43.5739009" lon="11.5283315"><ele>130.0</ele><time>2026-04-25T11:16:46.257Z</time></trkpt><trkpt lat="43.5738279" lon="11.5283921"><ele>130.0</ele><time>2026-04-25T11:16:48.251Z</time></trkpt><trkpt lat="43.573767" lon="11.528449"><ele>130.0</ele><time>2026-04-25T11:16:50.258Z</time></trkpt><trkpt lat="43.5737034" lon="11.5285171"><ele>130.0</ele><time>2026-04-25T11:16:52.253Z</time></trkpt><trkpt lat="43.573644" lon="11.5285968"><ele>130.0</ele><time>2026-04-25T11:16:54.255Z</time></trkpt><trkpt lat="43.5735687" lon="11.5286791"><ele>130.0</ele><time>2026-04-25T11:16:56.257Z</time></trkpt><trkpt lat="43.5735019" lon="11.5287621"><ele>130.0</ele><time>2026-04-25T11:16:58.255Z</time></trkpt><trkpt lat="43.573436" lon="11.5288376"><ele>130.0</ele><time>2026-04-25T11:17:00.255Z</time></trkpt><trkpt lat="43.5733689" lon="11.5289215"><ele>130.0</ele><time>2026-04-25T11:17:02.261Z</time></trkpt><trkpt lat="43.5733016" lon="11.5290048"><ele>130.0</ele><time>2026-04-25T11:17:04.253Z</time></trkpt><trkpt lat="43.5732403" lon="11.5290772"><ele>130.0</ele><time>2026-04-25T11:17:06.25Z</time></trkpt><trkpt lat="43.573171" lon="11.529129"><ele>130.0</ele><time>2026-04-25T11:17:08.248Z</time></trkpt><trkpt lat="43.573106" lon="11.5291827"><ele>130.0</ele><time>2026-04-25T11:17:10.249Z</time></trkpt><trkpt lat="43.5730416" lon="11.5292453"><ele>130.0</ele><time>2026-04-25T11:17:12.248Z</time></trkpt><trkpt lat="43.5729826" lon="11.5293147"><ele>130.0</ele><time>2026-04-25T11:17:14.252Z</time></trkpt><trkpt lat="43.5729233" lon="11.5293867"><ele>130.0</ele><time>2026-04-25T11:17:16.25Z</time></trkpt><trkpt lat="43.5728568" lon="11.5294515"><ele>130.0</ele><time>2026-04-25T11:17:18.253Z</time></trkpt><trkpt lat="43.5727853" lon="11.5295186"><ele>130.0</ele><time>2026-04-25T11:17:20.261Z</time></trkpt><trkpt lat="43.5727182" lon="11.5295863"><ele>130.0</ele><time>2026-04-25T11:17:22.251Z</time></trkpt><trkpt lat="43.5726488" lon="11.5296598"><ele>130.0</ele><time>2026-04-25T11:17:24.256Z</time></trkpt><trkpt lat="43.5725899" lon="11.529735"><ele>130.0</ele><time>2026-04-25T11:17:26.255Z</time></trkpt><trkpt lat="43.5725303" lon="11.5298029"><ele>130.2857142857143</ele><time>2026-04-25T11:17:28.253Z</time></trkpt><trkpt lat="43.5724645" lon="11.5298623"><ele>130.57142857142858</ele><time>2026-04-25T11:17:30.253Z</time></trkpt><trkpt lat="43.5724085" lon="11.5299209"><ele>130.85714285714286</ele><time>2026-04-25T11:17:32.252Z</time></trkpt><trkpt lat="43.5723601" lon="11.5299869"><ele>131.14285714285717</ele><time>2026-04-25T11:17:34.255Z</time></trkpt><trkpt lat="43.5723024" lon="11.5300325"><ele>131.42857142857144</ele><time>2026-04-25T11:17:36.249Z</time></trkpt><trkpt lat="43.5722434" lon="11.5300766"><ele>131.71428571428572</ele><time>2026-04-25T11:17:38.257Z</time></trkpt><trkpt lat="43.5721858" lon="11.5301411"><ele>132.0</ele><time>2026-04-25T11:17:40.253Z</time></trkpt><trkpt lat="43.572121" lon="11.5302028"><ele>132.0</ele><time>2026-04-25T11:17:42.25Z</time></trkpt><trkpt lat="43.5720545" lon="11.5302619"><ele>132.0</ele><time>2026-04-25T11:17:44.251Z</time></trkpt><trkpt lat="43.5719951" lon="11.5303217"><ele>132.0</ele><time>2026-04-25T11:17:46.249Z</time></trkpt><trkpt lat="43.571935" lon="11.5303816"><ele>132.0</ele><time>2026-04-25T11:17:48.249Z</time></trkpt><trkpt lat="43.5718747" lon="11.530445"><ele>132.0</ele><time>2026-04-25T11:17:50.247Z</time></trkpt><trkpt lat="43.5718117" lon="11.5305195"><ele>132.0</ele><time>2026-04-25T11:17:52.249Z</time></trkpt><trkpt lat="43.5717443" lon="11.530589"><ele>131.5</ele><time>2026-04-25T11:17:54.252Z</time></trkpt><trkpt lat="43.5716766" lon="11.5306529"><ele>131.0</ele><time>2026-04-25T11:17:56.253Z</time></trkpt><trkpt lat="43.5716001" lon="11.5307264"><ele>130.5</ele><time>2026-04-25T11:17:58.256Z</time></trkpt><trkpt lat="43.5715251" lon="11.5307923"><ele>130.0</ele><time>2026-04-25T11:18:00.274Z</time></trkpt><trkpt lat="43.5714614" lon="11.5308415"><ele>129.5</ele><time>2026-04-25T11:18:02.255Z</time></trkpt><trkpt lat="43.5714068" lon="11.5308952"><ele>129.0</ele><time>2026-04-25T11:18:04.241Z</time></trkpt><trkpt lat="43.5713447" lon="11.5309477"><ele>129.0</ele><time>2026-04-25T11:18:06.225Z</time></trkpt><trkpt lat="43.571275" lon="11.5310469"><ele>129.0</ele><time>2026-04-25T11:18:08.231Z</time></trkpt><trkpt lat="43.5711891" lon="11.5311115"><ele>129.0</ele><time>2026-04-25T11:18:10.249Z</time></trkpt><trkpt lat="43.5711069" lon="11.531181"><ele>129.0</ele><time>2026-04-25T11:18:12.245Z</time></trkpt><trkpt lat="43.5710287" lon="11.531257"><ele>129.0</ele><time>2026-04-25T11:18:14.257Z</time></trkpt><trkpt lat="43.5709594" lon="11.5313157"><ele>129.7142857142857</ele><time>2026-04-25T11:18:16.26Z</time></trkpt><trkpt lat="43.5709006" lon="11.53137"><ele>130.42857142857142</ele><time>2026-04-25T11:18:18.259Z</time></trkpt><trkpt lat="43.570835" lon="11.5314131"><ele>131.14285714285714</ele><time>2026-04-25T11:18:20.259Z</time></trkpt><trkpt lat="43.5707775" lon="11.5314566"><ele>131.85714285714283</ele><time>2026-04-25T11:18:22.258Z</time></trkpt><trkpt lat="43.5707242" lon="11.531509"><ele>132.57142857142856</ele><time>2026-04-25T11:18:24.256Z</time></trkpt><trkpt lat="43.5706561" lon="11.5315523"><ele>133.28571428571428</ele><time>2026-04-25T11:18:26.248Z</time></trkpt><trkpt lat="43.5705752" lon="11.5316011"><ele>134.0</ele><time>2026-04-25T11:18:28.252Z</time></trkpt><trkpt lat="43.5704999" lon="11.5316513"><ele>134.0</ele><time>2026-04-25T11:18:30.249Z</time></trkpt><trkpt lat="43.570424" lon="11.5316972"><ele>134.0</ele><time>2026-04-25T11:18:32.259Z</time></trkpt><trkpt lat="43.5703568" lon="11.531747"><ele>134.0</ele><time>2026-04-25T11:18:34.256Z</time></trkpt><trkpt lat="43.5702794" lon="11.5317995"><ele>134.0</ele><time>2026-04-25T11:18:36.256Z</time></trkpt><trkpt lat="43.570201" lon="11.5318489"><ele>134.0</ele><time>2026-04-25T11:18:38.245Z</time></trkpt><trkpt lat="43.5701308" lon="11.5318989"><ele>134.0</ele><time>2026-04-25T11:18:40.254Z</time></trkpt><trkpt lat="43.570052" lon="11.531952"><ele>134.0</ele><time>2026-04-25T11:18:42.257Z</time></trkpt><trkpt lat="43.5699739" lon="11.5320129"><ele>134.0</ele><time>2026-04-25T11:18:44.251Z</time></trkpt><trkpt lat="43.5698896" lon="11.5320776"><ele>134.0</ele><time>2026-04-25T11:18:46.249Z</time></trkpt><trkpt lat="43.5698166" lon="11.5321376"><ele>134.0</ele><time>2026-04-25T11:18:48.254Z</time></trkpt><trkpt lat="43.5697529" lon="11.532201"><ele>134.0</ele><time>2026-04-25T11:18:50.253Z</time></trkpt><trkpt lat="43.5696814" lon="11.5322573"><ele>134.0</ele><time>2026-04-25T11:18:52.247Z</time></trkpt><trkpt lat="43.5696062" lon="11.5323282"><ele>134.0</ele><time>2026-04-25T11:18:54.246Z</time></trkpt><trkpt lat="43.5695317" lon="11.5323831"><ele>134.0</ele><time>2026-04-25T11:18:56.248Z</time></trkpt><trkpt lat="43.5694485" lon="11.5324472"><ele>134.0</ele><time>2026-04-25T11:18:58.249Z</time></trkpt><trkpt lat="43.5693637" lon="11.5325034"><ele>134.0</ele><time>2026-04-25T11:19:00.255Z</time></trkpt><trkpt lat="43.5692881" lon="11.5325578"><ele>134.0</ele><time>2026-04-25T11:19:02.24Z</time></trkpt><trkpt lat="43.569211" lon="11.5326129"><ele>134.0</ele><time>2026-04-25T11:19:04.252Z</time></trkpt><trkpt lat="43.5691194" lon="11.5326722"><ele>134.0</ele><time>2026-04-25T11:19:06.253Z</time></trkpt><trkpt lat="43.5690385" lon="11.532726"><ele>134.0</ele><time>2026-04-25T11:19:08.26Z</time></trkpt><trkpt lat="43.5689558" lon="11.5327902"><ele>134.0</ele><time>2026-04-25T11:19:10.254Z</time></trkpt><trkpt lat="43.5688673" lon="11.5328555"><ele>134.0</ele><time>2026-04-25T11:19:12.24Z</time></trkpt><trkpt lat="43.5687891" lon="11.5329196"><ele>134.0</ele><time>2026-04-25T11:19:14.239Z</time></trkpt><trkpt lat="43.5687083" lon="11.5329785"><ele>133.83333333333331</ele><time>2026-04-25T11:19:16.251Z</time></trkpt><trkpt lat="43.5686268" lon="11.5330315"><ele>133.66666666666666</ele><time>2026-04-25T11:19:18.257Z</time></trkpt><trkpt lat="43.5685551" lon="11.5330718"><ele>133.5</ele><time>2026-04-25T11:19:20.253Z</time></trkpt><trkpt lat="43.5684879" lon="11.5331223"><ele>133.33333333333334</ele><time>2026-04-25T11:19:22.268Z</time></trkpt><trkpt lat="43.5684039" lon="11.5331799"><ele>133.16666666666669</ele><time>2026-04-25T11:19:24.253Z</time></trkpt><trkpt lat="43.5683141" lon="11.5332479"><ele>133.0</ele><time>2026-04-25T11:19:26.245Z</time></trkpt><trkpt lat="43.5682236" lon="11.5333205"><ele>133.0</ele><time>2026-04-25T11:19:28.257Z</time></trkpt><trkpt lat="43.5681352" lon="11.5333777"><ele>133.0</ele><time>2026-04-25T11:19:30.257Z</time></trkpt><trkpt lat="43.5680565" lon="11.5334315"><ele>133.0</ele><time>2026-04-25T11:19:32.258Z</time></trkpt><trkpt lat="43.5679702" lon="11.533484"><ele>133.0</ele><time>2026-04-25T11:19:34.254Z</time></trkpt><trkpt lat="43.567894" lon="11.5335425"><ele>133.0</ele><time>2026-04-25T11:19:36.247Z</time></trkpt><trkpt lat="43.5678195" lon="11.5335895"><ele>133.0</ele><time>2026-04-25T11:19:38.252Z</time></trkpt><trkpt lat="43.5677421" lon="11.5336396"><ele>133.5</ele><time>2026-04-25T11:19:40.252Z</time></trkpt><trkpt lat="43.5676607" lon="11.5336936"><ele>134.0</ele><time>2026-04-25T11:19:42.249Z</time></trkpt><trkpt lat="43.5675874" lon="11.5337464"><ele>134.5</ele><time>2026-04-25T11:19:44.261Z</time></trkpt><trkpt lat="43.5675181" lon="11.5337942"><ele>135.0</ele><time>2026-04-25T11:19:46.258Z</time></trkpt><trkpt lat="43.5674395" lon="11.5338411"><ele>135.5</ele><time>2026-04-25T11:19:48.255Z</time></trkpt><trkpt lat="43.5673724" lon="11.5338993"><ele>136.0</ele><time>2026-04-25T11:19:50.25Z</time></trkpt><trkpt lat="43.5673049" lon="11.5339615"><ele>136.0</ele><time>2026-04-25T11:19:52.251Z</time></trkpt><trkpt lat="43.5672382" lon="11.5340193"><ele>136.0</ele><time>2026-04-25T11:19:54.247Z</time></trkpt><trkpt lat="43.5671632" lon="11.5340818"><ele>136.0</ele><time>2026-04-25T11:19:56.253Z</time></trkpt><trkpt lat="43.5670788" lon="11.534143"><ele>136.0</ele><time>2026-04-25T11:19:58.248Z</time></trkpt><trkpt lat="43.5669965" lon="11.5341925"><ele>136.0</ele><time>2026-04-25T11:20:00.251Z</time></trkpt><trkpt lat="43.5669073" lon="11.5342448"><ele>136.0</ele><time>2026-04-25T11:20:02.259Z</time></trkpt><trkpt lat="43.5668275" lon="11.5342962"><ele>135.83333333333334</ele><time>2026-04-25T11:20:04.25Z</time></trkpt><trkpt lat="43.5667579" lon="11.5343366"><ele>135.66666666666669</ele><time>2026-04-25T11:20:06.252Z</time></trkpt><trkpt lat="43.5666688" lon="11.5343693"><ele>135.5</ele><time>2026-04-25T11:20:08.248Z</time></trkpt><trkpt lat="43.5665792" lon="11.5343929"><ele>135.33333333333334</ele><time>2026-04-25T11:20:10.251Z</time></trkpt><trkpt lat="43.566491" lon="11.5344094"><ele>135.16666666666666</ele><time>2026-04-25T11:20:12.265Z</time></trkpt><trkpt lat="43.5664061" lon="11.534421"><ele>135.0</ele><time>2026-04-25T11:20:14.252Z</time></trkpt><trkpt lat="43.5663302" lon="11.5344295"><ele>135.0</ele><time>2026-04-25T11:20:16.256Z</time></trkpt><trkpt lat="43.5662342" lon="11.5344448"><ele>135.0</ele><time>2026-04-25T11:20:19.252Z</time></trkpt><trkpt lat="43.5661496" lon="11.53444"><ele>135.0</ele><time>2026-04-25T11:20:21.252Z</time></trkpt><trkpt lat="43.5660806" lon="11.5344285"><ele>135.0</ele><time>2026-04-25T11:20:23.25Z</time></trkpt><trkpt lat="43.5660118" lon="11.5344825"><ele>135.0</ele><time>2026-04-25T11:20:26.248Z</time></trkpt><trkpt lat="43.5659813" lon="11.5345943"><ele>135.0</ele><time>2026-04-25T11:20:28.262Z</time></trkpt><trkpt lat="43.5659829" lon="11.5347121"><ele>134.83333333333334</ele><time>2026-04-25T11:20:30.261Z</time></trkpt><trkpt lat="43.5659915" lon="11.5348074"><ele>134.66666666666666</ele><time>2026-04-25T11:20:32.258Z</time></trkpt><trkpt lat="43.5659368" lon="11.5348841"><ele>134.5</ele><time>2026-04-25T11:20:35.25Z</time></trkpt><trkpt lat="43.565836" lon="11.5349134"><ele>134.33333333333331</ele><time>2026-04-25T11:20:38.261Z</time></trkpt><trkpt lat="43.565768" lon="11.5348927"><ele>134.16666666666666</ele><time>2026-04-25T11:20:40.256Z</time></trkpt><trkpt lat="43.5656976" lon="11.5348694"><ele>134.0</ele><time>2026-04-25T11:20:42.26Z</time></trkpt><trkpt lat="43.5656209" lon="11.5348528"><ele>134.0</ele><time>2026-04-25T11:20:44.257Z</time></trkpt><trkpt lat="43.5655399" lon="11.534839"><ele>134.0</ele><time>2026-04-25T11:20:46.252Z</time></trkpt><trkpt lat="43.5654641" lon="11.5348451"><ele>134.0</ele><time>2026-04-25T11:20:48.253Z</time></trkpt><trkpt lat="43.5653967" lon="11.5348839"><ele>134.0</ele><time>2026-04-25T11:20:50.248Z</time></trkpt><trkpt lat="43.5653338" lon="11.5349391"><ele>134.0</ele><time>2026-04-25T11:20:52.241Z</time></trkpt><trkpt lat="43.565262" lon="11.5349842"><ele>134.0</ele><time>2026-04-25T11:20:54.24Z</time></trkpt><trkpt lat="43.5651897" lon="11.5350275"><ele>134.14285714285714</ele><time>2026-04-25T11:20:56.258Z</time></trkpt><trkpt lat="43.5651344" lon="11.5350838"><ele>134.28571428571428</ele><time>2026-04-25T11:20:58.255Z</time></trkpt><trkpt lat="43.5651071" lon="11.5351722"><ele>134.42857142857142</ele><time>2026-04-25T11:21:00.25Z</time></trkpt><trkpt lat="43.5650966" lon="11.535274"><ele>134.57142857142856</ele><time>2026-04-25T11:21:02.251Z</time></trkpt><trkpt lat="43.5650885" lon="11.5353804"><ele>134.7142857142857</ele><time>2026-04-25T11:21:04.258Z</time></trkpt><trkpt lat="43.5650347" lon="11.5354716"><ele>134.85714285714286</ele><time>2026-04-25T11:21:06.257Z</time></trkpt><trkpt lat="43.5649693" lon="11.5355087"><ele>135.0</ele><time>2026-04-25T11:21:08.256Z</time></trkpt><trkpt lat="43.5648987" lon="11.5355538"><ele>135.0</ele><time>2026-04-25T11:21:10.251Z</time></trkpt><trkpt lat="43.5648226" lon="11.5355997"><ele>135.0</ele><time>2026-04-25T11:21:12.248Z</time></trkpt><trkpt lat="43.5647454" lon="11.5356465"><ele>135.0</ele><time>2026-04-25T11:21:14.256Z</time></trkpt><trkpt lat="43.5646688" lon="11.5356998"><ele>135.0</ele><time>2026-04-25T11:21:16.249Z</time></trkpt><trkpt lat="43.5645939" lon="11.535752"><ele>135.0</ele><time>2026-04-25T11:21:18.249Z</time></trkpt><trkpt lat="43.5645196" lon="11.5358052"><ele>135.0</ele><time>2026-04-25T11:21:20.246Z</time></trkpt><trkpt lat="43.5644381" lon="11.5358674"><ele>135.0</ele><time>2026-04-25T11:21:22.248Z</time></trkpt><trkpt lat="43.5643537" lon="11.5359264"><ele>135.0</ele><time>2026-04-25T11:21:24.252Z</time></trkpt><trkpt lat="43.5642678" lon="11.5359803"><ele>135.0</ele><time>2026-04-25T11:21:26.251Z</time></trkpt><trkpt lat="43.564184" lon="11.5360313"><ele>135.0</ele><time>2026-04-25T11:21:28.25Z</time></trkpt><trkpt lat="43.5641105" lon="11.5360684"><ele>135.0</ele><time>2026-04-25T11:21:30.245Z</time></trkpt><trkpt lat="43.5640393" lon="11.5361054"><ele>135.0</ele><time>2026-04-25T11:21:32.246Z</time></trkpt><trkpt lat="43.5639605" lon="11.5361535"><ele>135.0</ele><time>2026-04-25T11:21:34.251Z</time></trkpt><trkpt lat="43.5638759" lon="11.5362006"><ele>135.0</ele><time>2026-04-25T11:21:36.243Z</time></trkpt><trkpt lat="43.5638004" lon="11.5362466"><ele>135.0</ele><time>2026-04-25T11:21:38.247Z</time></trkpt><trkpt lat="43.5637295" lon="11.5363012"><ele>135.0</ele><time>2026-04-25T11:21:40.249Z</time></trkpt><trkpt lat="43.5636655" lon="11.5363463"><ele>135.0</ele><time>2026-04-25T11:21:42.245Z</time></trkpt><trkpt lat="43.563602" lon="11.5363905"><ele>135.0</ele><time>2026-04-25T11:21:44.241Z</time></trkpt><trkpt lat="43.5635292" lon="11.5364299"><ele>135.0</ele><time>2026-04-25T11:21:46.251Z</time></trkpt><trkpt lat="43.5634583" lon="11.5364722"><ele>135.0</ele><time>2026-04-25T11:21:48.254Z</time></trkpt><trkpt lat="43.5633912" lon="11.5365088"><ele>135.0</ele><time>2026-04-25T11:21:50.254Z</time></trkpt><trkpt lat="43.5633149" lon="11.5365487"><ele>135.0</ele><time>2026-04-25T11:21:52.246Z</time></trkpt><trkpt lat="43.5632488" lon="11.5365921"><ele>135.0</ele><time>2026-04-25T11:21:54.26Z</time></trkpt><trkpt lat="43.5631861" lon="11.5366356"><ele>135.0</ele><time>2026-04-25T11:21:56.249Z</time></trkpt><trkpt lat="43.5631011" lon="11.5366859"><ele>135.0</ele><time>2026-04-25T11:21:58.252Z</time></trkpt><trkpt lat="43.5630176" lon="11.5367484"><ele>135.0</ele><time>2026-04-25T11:22:00.248Z</time></trkpt><trkpt lat="43.5629467" lon="11.536807"><ele>135.0</ele><time>2026-04-25T11:22:02.24Z</time></trkpt><trkpt lat="43.5628682" lon="11.5368677"><ele>135.0</ele><time>2026-04-25T11:22:04.257Z</time></trkpt><trkpt lat="43.5628006" lon="11.5369205"><ele>135.0</ele><time>2026-04-25T11:22:06.245Z</time></trkpt><trkpt lat="43.5627146" lon="11.5369921"><ele>135.0</ele><time>2026-04-25T11:22:09.244Z</time></trkpt><trkpt lat="43.5626393" lon="11.5370416"><ele>134.66666666666666</ele><time>2026-04-25T11:22:11.253Z</time></trkpt><trkpt lat="43.5625539" lon="11.5370886"><ele>134.33333333333334</ele><time>2026-04-25T11:22:13.247Z</time></trkpt><trkpt lat="43.5624677" lon="11.5371437"><ele>134.0</ele><time>2026-04-25T11:22:15.247Z</time></trkpt><trkpt lat="43.5623864" lon="11.5372065"><ele>133.66666666666669</ele><time>2026-04-25T11:22:17.247Z</time></trkpt><trkpt lat="43.5623078" lon="11.5372618"><ele>133.33333333333334</ele><time>2026-04-25T11:22:19.246Z</time></trkpt><trkpt lat="43.5622388" lon="11.5373174"><ele>133.0</ele><time>2026-04-25T11:22:21.245Z</time></trkpt><trkpt lat="43.5621585" lon="11.537374"><ele>133.0</ele><time>2026-04-25T11:22:23.239Z</time></trkpt><trkpt lat="43.5620863" lon="11.5374144"><ele>133.0</ele><time>2026-04-25T11:22:25.245Z</time></trkpt><trkpt lat="43.5620195" lon="11.5374612"><ele>133.0</ele><time>2026-04-25T11:22:27.244Z</time></trkpt><trkpt lat="43.5619399" lon="11.5375055"><ele>133.0</ele><time>2026-04-25T11:22:29.254Z</time></trkpt><trkpt lat="43.561861" lon="11.5375579"><ele>133.0</ele><time>2026-04-25T11:22:31.252Z</time></trkpt><trkpt lat="43.5617758" lon="11.5376122"><ele>133.0</ele><time>2026-04-25T11:22:33.251Z</time></trkpt><trkpt lat="43.5616899" lon="11.5376629"><ele>133.0</ele><time>2026-04-25T11:22:35.251Z</time></trkpt><trkpt lat="43.5616105" lon="11.5377111"><ele>133.0</ele><time>2026-04-25T11:22:37.251Z</time></trkpt><trkpt lat="43.5615275" lon="11.5377585"><ele>133.0</ele><time>2026-04-25T11:22:39.249Z</time></trkpt><trkpt lat="43.5614569" lon="11.5378069"><ele>133.0</ele><time>2026-04-25T11:22:41.25Z</time></trkpt><trkpt lat="43.5613866" lon="11.5378496"><ele>133.0</ele><time>2026-04-25T11:22:43.25Z</time></trkpt><trkpt lat="43.5613107" lon="11.5379065"><ele>133.0</ele><time>2026-04-25T11:22:45.254Z</time></trkpt><trkpt lat="43.5612456" lon="11.5379665"><ele>133.16666666666669</ele><time>2026-04-25T11:22:47.253Z</time></trkpt><trkpt lat="43.5611835" lon="11.5380159"><ele>133.33333333333334</ele><time>2026-04-25T11:22:49.249Z</time></trkpt><trkpt lat="43.5611127" lon="11.5380608"><ele>133.5</ele><time>2026-04-25T11:22:51.253Z</time></trkpt><trkpt lat="43.5610433" lon="11.5381019"><ele>133.66666666666666</ele><time>2026-04-25T11:22:53.245Z</time></trkpt><trkpt lat="43.5609647" lon="11.5381508"><ele>133.83333333333331</ele><time>2026-04-25T11:22:55.248Z</time></trkpt><trkpt lat="43.560885" lon="11.5382109"><ele>134.0</ele><time>2026-04-25T11:22:57.245Z</time></trkpt><trkpt lat="43.560807" lon="11.5382667"><ele>134.0</ele><time>2026-04-25T11:22:59.251Z</time></trkpt><trkpt lat="43.5607238" lon="11.5383033"><ele>134.0</ele><time>2026-04-25T11:23:01.244Z</time></trkpt><trkpt lat="43.5606377" lon="11.5383224"><ele>134.0</ele><time>2026-04-25T11:23:03.248Z</time></trkpt><trkpt lat="43.5605615" lon="11.5383633"><ele>134.0</ele><time>2026-04-25T11:23:05.257Z</time></trkpt><trkpt lat="43.5604787" lon="11.5384149"><ele>134.0</ele><time>2026-04-25T11:23:07.262Z</time></trkpt><trkpt lat="43.5603864" lon="11.538469"><ele>134.0</ele><time>2026-04-25T11:23:09.26Z</time></trkpt><trkpt lat="43.5602883" lon="11.5385327"><ele>134.0</ele><time>2026-04-25T11:23:11.245Z</time></trkpt><trkpt lat="43.5601942" lon="11.5385915"><ele>134.0</ele><time>2026-04-25T11:23:13.239Z</time></trkpt><trkpt lat="43.5601017" lon="11.5386426"><ele>134.0</ele><time>2026-04-25T11:23:15.25Z</time></trkpt><trkpt lat="43.5600177" lon="11.5386993"><ele>134.0</ele><time>2026-04-25T11:23:17.243Z</time></trkpt><trkpt lat="43.5599429" lon="11.5387538"><ele>134.0</ele><time>2026-04-25T11:23:19.26Z</time></trkpt><trkpt lat="43.5598735" lon="11.5388102"><ele>134.0</ele><time>2026-04-25T11:23:21.251Z</time></trkpt><trkpt lat="43.5598007" lon="11.5388677"><ele>134.0</ele><time>2026-04-25T11:23:23.26Z</time></trkpt><trkpt lat="43.5597275" lon="11.5389212"><ele>134.0</ele><time>2026-04-25T11:23:25.261Z</time></trkpt><trkpt lat="43.5596605" lon="11.5389613"><ele>134.0</ele><time>2026-04-25T11:23:27.258Z</time></trkpt><trkpt lat="43.5595768" lon="11.5389851"><ele>134.0</ele><time>2026-04-25T11:23:29.263Z</time></trkpt><trkpt lat="43.5594941" lon="11.5389903"><ele>134.0</ele><time>2026-04-25T11:23:31.251Z</time></trkpt><trkpt lat="43.5594168" lon="11.538962"><ele>134.0</ele><time>2026-04-25T11:23:33.259Z</time></trkpt><trkpt lat="43.5593416" lon="11.5389515"><ele>134.0</ele><time>2026-04-25T11:23:35.261Z</time></trkpt><trkpt lat="43.5592717" lon="11.5389588"><ele>134.0</ele><time>2026-04-25T11:23:37.248Z</time></trkpt><trkpt lat="43.5591991" lon="11.5389706"><ele>134.0</ele><time>2026-04-25T11:23:39.256Z</time></trkpt><trkpt lat="43.5591231" lon="11.5389651"><ele>134.0</ele><time>2026-04-25T11:23:41.248Z</time></trkpt><trkpt lat="43.5590481" lon="11.5389407"><ele>134.0</ele><time>2026-04-25T11:23:43.255Z</time></trkpt><trkpt lat="43.558981" lon="11.5389492"><ele>134.0</ele><time>2026-04-25T11:23:45.252Z</time></trkpt><trkpt lat="43.5589175" lon="11.5389692"><ele>134.0</ele><time>2026-04-25T11:23:47.244Z</time></trkpt><trkpt lat="43.5588509" lon="11.5389963"><ele>134.0</ele><time>2026-04-25T11:23:49.253Z</time></trkpt><trkpt lat="43.5587669" lon="11.5390303"><ele>134.0</ele><time>2026-04-25T11:23:51.25Z</time></trkpt><trkpt lat="43.5586787" lon="11.5390635"><ele>134.0</ele><time>2026-04-25T11:23:53.259Z</time></trkpt><trkpt lat="43.5586001" lon="11.5390797"><ele>134.0</ele><time>2026-04-25T11:23:55.25Z</time></trkpt><trkpt lat="43.5585285" lon="11.539087"><ele>134.0</ele><time>2026-04-25T11:23:57.255Z</time></trkpt><trkpt lat="43.5584495" lon="11.539105"><ele>134.0</ele><time>2026-04-25T11:23:59.261Z</time></trkpt><trkpt lat="43.5583725" lon="11.5391206"><ele>134.0</ele><time>2026-04-25T11:24:01.26Z</time></trkpt><trkpt lat="43.5583002" lon="11.5391319"><ele>134.0</ele><time>2026-04-25T11:24:03.26Z</time></trkpt><trkpt lat="43.5582364" lon="11.5391419"><ele>134.0</ele><time>2026-04-25T11:24:05.26Z</time></trkpt><trkpt lat="43.5581754" lon="11.5391645"><ele>134.0</ele><time>2026-04-25T11:24:07.267Z</time></trkpt><trkpt lat="43.5581097" lon="11.5391826"><ele>134.0</ele><time>2026-04-25T11:24:09.252Z</time></trkpt><trkpt lat="43.5580355" lon="11.5391902"><ele>134.0</ele><time>2026-04-25T11:24:11.255Z</time></trkpt><trkpt lat="43.5579605" lon="11.5391995"><ele>134.0</ele><time>2026-04-25T11:24:13.259Z</time></trkpt><trkpt lat="43.5578928" lon="11.5392108"><ele>134.0</ele><time>2026-04-25T11:24:15.266Z</time></trkpt><trkpt lat="43.5578078" lon="11.539227"><ele>134.0</ele><time>2026-04-25T11:24:18.257Z</time></trkpt><trkpt lat="43.5577276" lon="11.5392645"><ele>134.0</ele><time>2026-04-25T11:24:21.26Z</time></trkpt><trkpt lat="43.5576571" lon="11.5392541"><ele>134.0</ele><time>2026-04-25T11:24:24.262Z</time></trkpt><trkpt lat="43.5576328" lon="11.5391696"><ele>134.0</ele><time>2026-04-25T11:24:32.262Z</time></trkpt><trkpt lat="43.5576779" lon="11.5390598"><ele>134.0</ele><time>2026-04-25T11:24:35.242Z</time></trkpt><trkpt lat="43.5577629" lon="11.5390075"><ele>134.0</ele><time>2026-04-25T11:24:37.25Z</time></trkpt><trkpt lat="43.5578408" lon="11.5389966"><ele>134.0</ele><time>2026-04-25T11:24:39.245Z</time></trkpt><trkpt lat="43.5579164" lon="11.5389982"><ele>134.0</ele><time>2026-04-25T11:24:41.245Z</time></trkpt><trkpt lat="43.5579581" lon="11.5389193"><ele>134.0</ele><time>2026-04-25T11:24:44.249Z</time></trkpt><trkpt lat="43.557876" lon="11.5388031"><ele>134.0</ele><time>2026-04-25T11:24:46.247Z</time></trkpt><trkpt lat="43.557822" lon="11.5387506"><ele>134.33333333333331</ele><time>2026-04-25T11:24:47.232Z</time></trkpt><trkpt lat="43.5577668" lon="11.5387064"><ele>134.66666666666666</ele><time>2026-04-25T11:24:48.218Z</time></trkpt><trkpt lat="43.5577054" lon="11.5386712"><ele>135.0</ele><time>2026-04-25T11:24:49.23Z</time></trkpt><trkpt lat="43.5576458" lon="11.538638"><ele>135.33333333333334</ele><time>2026-04-25T11:24:50.229Z</time></trkpt><trkpt lat="43.557585" lon="11.5386076"><ele>135.66666666666669</ele><time>2026-04-25T11:24:51.237Z</time></trkpt><trkpt lat="43.5574713" lon="11.5385645"><ele>136.0</ele><time>2026-04-25T11:24:53.233Z</time></trkpt><trkpt lat="43.5573624" lon="11.5385258"><ele>136.0</ele><time>2026-04-25T11:24:55.228Z</time></trkpt><trkpt lat="43.5572643" lon="11.5384816"><ele>136.0</ele><time>2026-04-25T11:24:57.239Z</time></trkpt><trkpt lat="43.5571758" lon="11.5384542"><ele>136.0</ele><time>2026-04-25T11:24:59.229Z</time></trkpt><trkpt lat="43.5570911" lon="11.5384317"><ele>136.0</ele><time>2026-04-25T11:25:01.232Z</time></trkpt><trkpt lat="43.5570013" lon="11.5383961"><ele>136.0</ele><time>2026-04-25T11:25:03.245Z</time></trkpt><trkpt lat="43.5569047" lon="11.5383379"><ele>136.2</ele><time>2026-04-25T11:25:05.225Z</time></trkpt><trkpt lat="43.5568026" lon="11.5382692"><ele>136.39999999999998</ele><time>2026-04-25T11:25:07.239Z</time></trkpt><trkpt lat="43.556716" lon="11.5382031"><ele>136.6</ele><time>2026-04-25T11:25:09.242Z</time></trkpt><trkpt lat="43.55664" lon="11.5381371"><ele>136.79999999999998</ele><time>2026-04-25T11:25:11.24Z</time></trkpt><trkpt lat="43.5565662" lon="11.5380755"><ele>137.0</ele><time>2026-04-25T11:25:13.239Z</time></trkpt><trkpt lat="43.5564906" lon="11.5380145"><ele>137.0</ele><time>2026-04-25T11:25:15.222Z</time></trkpt><trkpt lat="43.5564274" lon="11.5379386"><ele>137.0</ele><time>2026-04-25T11:25:17.248Z</time></trkpt><trkpt lat="43.5563848" lon="11.537867"><ele>137.0</ele><time>2026-04-25T11:25:19.234Z</time></trkpt><trkpt lat="43.5564341" lon="11.5377481"><ele>137.0</ele><time>2026-04-25T11:25:22.253Z</time></trkpt><trkpt lat="43.5564936" lon="11.5377025"><ele>137.0</ele><time>2026-04-25T11:25:23.243Z</time></trkpt><trkpt lat="43.5565551" lon="11.5376448"><ele>137.0</ele><time>2026-04-25T11:25:24.24Z</time></trkpt><trkpt lat="43.5566107" lon="11.5375924"><ele>137.0</ele><time>2026-04-25T11:25:25.235Z</time></trkpt><trkpt lat="43.5566953" lon="11.5375075"><ele>137.0</ele><time>2026-04-25T11:25:27.233Z</time></trkpt><trkpt lat="43.5567528" lon="11.5374464"><ele>137.0</ele><time>2026-04-25T11:25:29.248Z</time></trkpt><trkpt lat="43.5568219" lon="11.5373793"><ele>137.0</ele><time>2026-04-25T11:25:31.257Z</time></trkpt><trkpt lat="43.5569013" lon="11.5372973"><ele>137.0</ele><time>2026-04-25T11:25:33.248Z</time></trkpt><trkpt lat="43.5569821" lon="11.5372244"><ele>137.0</ele><time>2026-04-25T11:25:35.251Z</time></trkpt><trkpt lat="43.5570558" lon="11.5371556"><ele>137.0</ele><time>2026-04-25T11:25:37.256Z</time></trkpt><trkpt lat="43.5571361" lon="11.5370978"><ele>137.0</ele><time>2026-04-25T11:25:39.262Z</time></trkpt><trkpt lat="43.5572086" lon="11.5370332"><ele>137.0</ele><time>2026-04-25T11:25:41.253Z</time></trkpt><trkpt lat="43.5572666" lon="11.5369695"><ele>137.0</ele><time>2026-04-25T11:25:43.25Z</time></trkpt><trkpt lat="43.5573121" lon="11.5369016"><ele>137.0</ele><time>2026-04-25T11:25:45.253Z</time></trkpt><trkpt lat="43.5573044" lon="11.5367685"><ele>136.79999999999998</ele><time>2026-04-25T11:25:48.241Z</time></trkpt><trkpt lat="43.5572499" lon="11.5366541"><ele>136.6</ele><time>2026-04-25T11:25:50.256Z</time></trkpt><trkpt lat="43.5571742" lon="11.5365557"><ele>136.39999999999998</ele><time>2026-04-25T11:25:52.245Z</time></trkpt><trkpt lat="43.5571053" lon="11.5364756"><ele>136.2</ele><time>2026-04-25T11:25:54.254Z</time></trkpt><trkpt lat="43.5570364" lon="11.5364065"><ele>136.0</ele><time>2026-04-25T11:25:56.252Z</time></trkpt><trkpt lat="43.556977" lon="11.5363418"><ele>136.0</ele><time>2026-04-25T11:25:58.249Z</time></trkpt><trkpt lat="43.5569174" lon="11.5362831"><ele>136.0</ele><time>2026-04-25T11:26:00.255Z</time></trkpt><trkpt lat="43.5568773" lon="11.5361922"><ele>135.0</ele><time>2026-04-25T11:27:39.205Z</time></trkpt></trkseg></trk></gpx>